<?xml version="1.0" encoding="UTF-8" standalone="no" ?>
<gpx xmlns="http://www.topografix.com/GPX/1/1" xmlns:xsi="http://www.w3.org/2001/XMLSchema-instance" xsi:schemaLocation="http://www.topografix.com/GPX/1/1 http://www.topografix.com/GPX/1/1/gpx.xsd" version="1.1" creator="VisuGPX - https://www.visugpx.com">
  <metadata>
    <name>Champagnat Cyclisme sur route</name>
  </metadata>
  <trk>
    <name><![CDATA[Champagnat Cyclisme sur route_1]]></name>
    <trkseg>
      <trkpt lat="46.48278" lon="5.36844">
        <ele>270</ele>
        <time>2022-06-14T12:20:05Z</time>
      </trkpt>
      <trkpt lat="46.4827" lon="5.36831">
        <ele>268.6</ele>
        <time>2022-06-14T12:20:06Z</time>
      </trkpt>
      <trkpt lat="46.48251" lon="5.36811">
        <ele>267.2</ele>
        <time>2022-06-14T12:20:08Z</time>
      </trkpt>
      <trkpt lat="46.48231" lon="5.36793">
        <ele>265.8</ele>
        <time>2022-06-14T12:20:10Z</time>
      </trkpt>
      <trkpt lat="46.48209" lon="5.36777">
        <ele>264</ele>
        <time>2022-06-14T12:20:12Z</time>
      </trkpt>
      <trkpt lat="46.48188" lon="5.36759">
        <ele>263</ele>
        <time>2022-06-14T12:20:14Z</time>
      </trkpt>
      <trkpt lat="46.48158" lon="5.36734">
        <ele>261.8</ele>
        <time>2022-06-14T12:20:17Z</time>
      </trkpt>
      <trkpt lat="46.48141" lon="5.36721">
        <ele>260.6</ele>
        <time>2022-06-14T12:20:19Z</time>
      </trkpt>
      <trkpt lat="46.48131" lon="5.36714">
        <ele>260.2</ele>
        <time>2022-06-14T12:20:20Z</time>
      </trkpt>
      <trkpt lat="46.48124" lon="5.36708">
        <ele>259.4</ele>
        <time>2022-06-14T12:20:21Z</time>
      </trkpt>
      <trkpt lat="46.48118" lon="5.36703">
        <ele>258.8</ele>
        <time>2022-06-14T12:20:22Z</time>
      </trkpt>
      <trkpt lat="46.48116" lon="5.36696">
        <ele>258.6</ele>
        <time>2022-06-14T12:20:23Z</time>
      </trkpt>
      <trkpt lat="46.48115" lon="5.36685">
        <ele>258</ele>
        <time>2022-06-14T12:20:24Z</time>
      </trkpt>
      <trkpt lat="46.48118" lon="5.36676">
        <ele>258</ele>
        <time>2022-06-14T12:20:25Z</time>
      </trkpt>
      <trkpt lat="46.48136" lon="5.36657">
        <ele>257</ele>
        <time>2022-06-14T12:20:28Z</time>
      </trkpt>
      <trkpt lat="46.48141" lon="5.36651">
        <ele>256.8</ele>
        <time>2022-06-14T12:20:29Z</time>
      </trkpt>
      <trkpt lat="46.48154" lon="5.36644">
        <ele>255.2</ele>
        <time>2022-06-14T12:20:31Z</time>
      </trkpt>
      <trkpt lat="46.48156" lon="5.36645">
        <ele>254.8</ele>
        <time>2022-06-14T12:20:32Z</time>
      </trkpt>
      <trkpt lat="46.48163" lon="5.3664">
        <ele>254.2</ele>
        <time>2022-06-14T12:20:34Z</time>
      </trkpt>
      <trkpt lat="46.48169" lon="5.36636">
        <ele>254.2</ele>
        <time>2022-06-14T12:20:35Z</time>
      </trkpt>
      <trkpt lat="46.48195" lon="5.36612">
        <ele>254</ele>
        <time>2022-06-14T12:20:37Z</time>
      </trkpt>
      <trkpt lat="46.48203" lon="5.36607">
        <ele>253.8</ele>
        <time>2022-06-14T12:20:38Z</time>
      </trkpt>
      <trkpt lat="46.4821" lon="5.366">
        <ele>253.8</ele>
        <time>2022-06-14T12:20:39Z</time>
      </trkpt>
      <trkpt lat="46.48217" lon="5.36591">
        <ele>253.6</ele>
        <time>2022-06-14T12:20:40Z</time>
      </trkpt>
      <trkpt lat="46.48221" lon="5.36581">
        <ele>253.6</ele>
        <time>2022-06-14T12:20:41Z</time>
      </trkpt>
      <trkpt lat="46.48229" lon="5.36561">
        <ele>253.2</ele>
        <time>2022-06-14T12:20:43Z</time>
      </trkpt>
      <trkpt lat="46.48235" lon="5.36554">
        <ele>253</ele>
        <time>2022-06-14T12:20:44Z</time>
      </trkpt>
      <trkpt lat="46.48254" lon="5.36533">
        <ele>252.4</ele>
        <time>2022-06-14T12:20:47Z</time>
      </trkpt>
      <trkpt lat="46.48273" lon="5.36511">
        <ele>252.2</ele>
        <time>2022-06-14T12:20:50Z</time>
      </trkpt>
      <trkpt lat="46.48312" lon="5.36467">
        <ele>251</ele>
        <time>2022-06-14T12:20:56Z</time>
      </trkpt>
      <trkpt lat="46.48319" lon="5.36459">
        <ele>251</ele>
        <time>2022-06-14T12:20:57Z</time>
      </trkpt>
      <trkpt lat="46.48353" lon="5.36422">
        <ele>250</ele>
        <time>2022-06-14T12:21:02Z</time>
      </trkpt>
      <trkpt lat="46.48373" lon="5.36399">
        <ele>249</ele>
        <time>2022-06-14T12:21:05Z</time>
      </trkpt>
      <trkpt lat="46.48381" lon="5.3639">
        <ele>248.6</ele>
        <time>2022-06-14T12:21:06Z</time>
      </trkpt>
      <trkpt lat="46.48408" lon="5.36363">
        <ele>248</ele>
        <time>2022-06-14T12:21:10Z</time>
      </trkpt>
      <trkpt lat="46.48421" lon="5.36354">
        <ele>247.6</ele>
        <time>2022-06-14T12:21:12Z</time>
      </trkpt>
      <trkpt lat="46.48431" lon="5.36351">
        <ele>247.4</ele>
        <time>2022-06-14T12:21:13Z</time>
      </trkpt>
      <trkpt lat="46.48451" lon="5.36346">
        <ele>246.8</ele>
        <time>2022-06-14T12:21:16Z</time>
      </trkpt>
      <trkpt lat="46.4846" lon="5.36345">
        <ele>246.8</ele>
        <time>2022-06-14T12:21:17Z</time>
      </trkpt>
      <trkpt lat="46.48517" lon="5.36335">
        <ele>246.6</ele>
        <time>2022-06-14T12:21:25Z</time>
      </trkpt>
      <trkpt lat="46.4856" lon="5.36328">
        <ele>246.2</ele>
        <time>2022-06-14T12:21:31Z</time>
      </trkpt>
      <trkpt lat="46.48582" lon="5.36324">
        <ele>245.8</ele>
        <time>2022-06-14T12:21:34Z</time>
      </trkpt>
      <trkpt lat="46.48598" lon="5.36322">
        <ele>245.6</ele>
        <time>2022-06-14T12:21:36Z</time>
      </trkpt>
      <trkpt lat="46.48613" lon="5.36319">
        <ele>245.2</ele>
        <time>2022-06-14T12:21:38Z</time>
      </trkpt>
      <trkpt lat="46.48622" lon="5.36312">
        <ele>244.8</ele>
        <time>2022-06-14T12:21:39Z</time>
      </trkpt>
      <trkpt lat="46.48628" lon="5.36304">
        <ele>244.6</ele>
        <time>2022-06-14T12:21:40Z</time>
      </trkpt>
      <trkpt lat="46.48631" lon="5.36295">
        <ele>244</ele>
        <time>2022-06-14T12:21:41Z</time>
      </trkpt>
      <trkpt lat="46.48636" lon="5.36276">
        <ele>243.6</ele>
        <time>2022-06-14T12:21:42Z</time>
      </trkpt>
      <trkpt lat="46.48638" lon="5.36263">
        <ele>242.8</ele>
        <time>2022-06-14T12:21:43Z</time>
      </trkpt>
      <trkpt lat="46.48642" lon="5.36231">
        <ele>241.6</ele>
        <time>2022-06-14T12:21:46Z</time>
      </trkpt>
      <trkpt lat="46.48644" lon="5.36203">
        <ele>241</ele>
        <time>2022-06-14T12:21:48Z</time>
      </trkpt>
      <trkpt lat="46.48646" lon="5.36168">
        <ele>240.6</ele>
        <time>2022-06-14T12:21:51Z</time>
      </trkpt>
      <trkpt lat="46.48654" lon="5.36116">
        <ele>239.6</ele>
        <time>2022-06-14T12:21:55Z</time>
      </trkpt>
      <trkpt lat="46.48656" lon="5.36104">
        <ele>239.4</ele>
        <time>2022-06-14T12:21:56Z</time>
      </trkpt>
      <trkpt lat="46.48659" lon="5.36092">
        <ele>239.4</ele>
        <time>2022-06-14T12:21:57Z</time>
      </trkpt>
      <trkpt lat="46.48671" lon="5.3604">
        <ele>239.8</ele>
        <time>2022-06-14T12:22:02Z</time>
      </trkpt>
      <trkpt lat="46.48679" lon="5.36011">
        <ele>240</ele>
        <time>2022-06-14T12:22:05Z</time>
      </trkpt>
      <trkpt lat="46.48682" lon="5.35995">
        <ele>240.4</ele>
        <time>2022-06-14T12:22:07Z</time>
      </trkpt>
      <trkpt lat="46.48683" lon="5.35986">
        <ele>240.6</ele>
        <time>2022-06-14T12:22:08Z</time>
      </trkpt>
      <trkpt lat="46.48686" lon="5.35957">
        <ele>242</ele>
        <time>2022-06-14T12:22:11Z</time>
      </trkpt>
      <trkpt lat="46.48688" lon="5.35947">
        <ele>242.2</ele>
        <time>2022-06-14T12:22:12Z</time>
      </trkpt>
      <trkpt lat="46.48693" lon="5.35918">
        <ele>242.6</ele>
        <time>2022-06-14T12:22:15Z</time>
      </trkpt>
      <trkpt lat="46.48702" lon="5.35888">
        <ele>242.6</ele>
        <time>2022-06-14T12:22:18Z</time>
      </trkpt>
      <trkpt lat="46.48717" lon="5.35849">
        <ele>241.6</ele>
        <time>2022-06-14T12:22:22Z</time>
      </trkpt>
      <trkpt lat="46.48724" lon="5.35831">
        <ele>241</ele>
        <time>2022-06-14T12:22:24Z</time>
      </trkpt>
      <trkpt lat="46.48739" lon="5.35793">
        <ele>239.8</ele>
        <time>2022-06-14T12:22:28Z</time>
      </trkpt>
      <trkpt lat="46.48747" lon="5.35776">
        <ele>239.4</ele>
        <time>2022-06-14T12:22:30Z</time>
      </trkpt>
      <trkpt lat="46.48766" lon="5.35733">
        <ele>238.8</ele>
        <time>2022-06-14T12:22:35Z</time>
      </trkpt>
      <trkpt lat="46.4877" lon="5.35722">
        <ele>238.6</ele>
        <time>2022-06-14T12:22:36Z</time>
      </trkpt>
      <trkpt lat="46.48803" lon="5.35651">
        <ele>238.2</ele>
        <time>2022-06-14T12:22:45Z</time>
      </trkpt>
      <trkpt lat="46.48828" lon="5.35595">
        <ele>238.6</ele>
        <time>2022-06-14T12:22:52Z</time>
      </trkpt>
      <trkpt lat="46.48831" lon="5.35588">
        <ele>238.8</ele>
        <time>2022-06-14T12:22:53Z</time>
      </trkpt>
      <trkpt lat="46.48852" lon="5.35538">
        <ele>239.6</ele>
        <time>2022-06-14T12:23:00Z</time>
      </trkpt>
      <trkpt lat="46.48883" lon="5.35468">
        <ele>239</ele>
        <time>2022-06-14T12:23:09Z</time>
      </trkpt>
      <trkpt lat="46.48907" lon="5.35415">
        <ele>239</ele>
        <time>2022-06-14T12:23:16Z</time>
      </trkpt>
      <trkpt lat="46.48934" lon="5.35353">
        <ele>238.6</ele>
        <time>2022-06-14T12:23:23Z</time>
      </trkpt>
      <trkpt lat="46.48957" lon="5.35301">
        <ele>238</ele>
        <time>2022-06-14T12:23:29Z</time>
      </trkpt>
      <trkpt lat="46.48974" lon="5.35262">
        <ele>237.6</ele>
        <time>2022-06-14T12:23:34Z</time>
      </trkpt>
      <trkpt lat="46.48983" lon="5.35242">
        <ele>237.6</ele>
        <time>2022-06-14T12:23:37Z</time>
      </trkpt>
      <trkpt lat="46.49" lon="5.35201">
        <ele>238.6</ele>
        <time>2022-06-14T12:23:43Z</time>
      </trkpt>
      <trkpt lat="46.49011" lon="5.35174">
        <ele>239</ele>
        <time>2022-06-14T12:23:47Z</time>
      </trkpt>
      <trkpt lat="46.49017" lon="5.3516">
        <ele>239.2</ele>
        <time>2022-06-14T12:23:49Z</time>
      </trkpt>
      <trkpt lat="46.49036" lon="5.35112">
        <ele>240</ele>
        <time>2022-06-14T12:23:55Z</time>
      </trkpt>
      <trkpt lat="46.49039" lon="5.35103">
        <ele>240.2</ele>
        <time>2022-06-14T12:23:56Z</time>
      </trkpt>
      <trkpt lat="46.4905" lon="5.35058">
        <ele>240.2</ele>
        <time>2022-06-14T12:24:01Z</time>
      </trkpt>
      <trkpt lat="46.49062" lon="5.34994">
        <ele>239.8</ele>
        <time>2022-06-14T12:24:07Z</time>
      </trkpt>
      <trkpt lat="46.49065" lon="5.34983">
        <ele>239.8</ele>
        <time>2022-06-14T12:24:08Z</time>
      </trkpt>
      <trkpt lat="46.49069" lon="5.34961">
        <ele>239.4</ele>
        <time>2022-06-14T12:24:10Z</time>
      </trkpt>
      <trkpt lat="46.49079" lon="5.34907">
        <ele>238.8</ele>
        <time>2022-06-14T12:24:15Z</time>
      </trkpt>
      <trkpt lat="46.49081" lon="5.34895">
        <ele>238.2</ele>
        <time>2022-06-14T12:24:16Z</time>
      </trkpt>
      <trkpt lat="46.4909" lon="5.34849">
        <ele>237.2</ele>
        <time>2022-06-14T12:24:20Z</time>
      </trkpt>
      <trkpt lat="46.49099" lon="5.34801">
        <ele>236.2</ele>
        <time>2022-06-14T12:24:24Z</time>
      </trkpt>
      <trkpt lat="46.49115" lon="5.3472">
        <ele>235.2</ele>
        <time>2022-06-14T12:24:31Z</time>
      </trkpt>
      <trkpt lat="46.49119" lon="5.34697">
        <ele>234.8</ele>
        <time>2022-06-14T12:24:33Z</time>
      </trkpt>
      <trkpt lat="46.49128" lon="5.34654">
        <ele>234</ele>
        <time>2022-06-14T12:24:37Z</time>
      </trkpt>
      <trkpt lat="46.49136" lon="5.34613">
        <ele>233.8</ele>
        <time>2022-06-14T12:24:41Z</time>
      </trkpt>
      <trkpt lat="46.49148" lon="5.34557">
        <ele>234.6</ele>
        <time>2022-06-14T12:24:47Z</time>
      </trkpt>
      <trkpt lat="46.49158" lon="5.34502">
        <ele>234.8</ele>
        <time>2022-06-14T12:24:52Z</time>
      </trkpt>
      <trkpt lat="46.49173" lon="5.34423">
        <ele>233.4</ele>
        <time>2022-06-14T12:24:59Z</time>
      </trkpt>
      <trkpt lat="46.49177" lon="5.34403">
        <ele>233.2</ele>
        <time>2022-06-14T12:25:01Z</time>
      </trkpt>
      <trkpt lat="46.49185" lon="5.34361">
        <ele>233.6</ele>
        <time>2022-06-14T12:25:06Z</time>
      </trkpt>
      <trkpt lat="46.49195" lon="5.3431">
        <ele>235.2</ele>
        <time>2022-06-14T12:25:12Z</time>
      </trkpt>
      <trkpt lat="46.49199" lon="5.34292">
        <ele>235.4</ele>
        <time>2022-06-14T12:25:14Z</time>
      </trkpt>
      <trkpt lat="46.49204" lon="5.34262">
        <ele>235.4</ele>
        <time>2022-06-14T12:25:17Z</time>
      </trkpt>
      <trkpt lat="46.49214" lon="5.34206">
        <ele>234.2</ele>
        <time>2022-06-14T12:25:22Z</time>
      </trkpt>
      <trkpt lat="46.49215" lon="5.34196">
        <ele>234.2</ele>
        <time>2022-06-14T12:25:23Z</time>
      </trkpt>
      <trkpt lat="46.49229" lon="5.34122">
        <ele>233.8</ele>
        <time>2022-06-14T12:25:31Z</time>
      </trkpt>
      <trkpt lat="46.49237" lon="5.34083">
        <ele>234.8</ele>
        <time>2022-06-14T12:25:36Z</time>
      </trkpt>
      <trkpt lat="46.49241" lon="5.34069">
        <ele>235.2</ele>
        <time>2022-06-14T12:25:38Z</time>
      </trkpt>
      <trkpt lat="46.49242" lon="5.34062">
        <ele>235.4</ele>
        <time>2022-06-14T12:25:39Z</time>
      </trkpt>
      <trkpt lat="46.49245" lon="5.34039">
        <ele>236.2</ele>
        <time>2022-06-14T12:25:42Z</time>
      </trkpt>
      <trkpt lat="46.49247" lon="5.34033">
        <ele>236.6</ele>
        <time>2022-06-14T12:25:43Z</time>
      </trkpt>
      <trkpt lat="46.49252" lon="5.34007">
        <ele>236.8</ele>
        <time>2022-06-14T12:25:46Z</time>
      </trkpt>
      <trkpt lat="46.4926" lon="5.33964">
        <ele>237.2</ele>
        <time>2022-06-14T12:25:51Z</time>
      </trkpt>
      <trkpt lat="46.49274" lon="5.33892">
        <ele>237.6</ele>
        <time>2022-06-14T12:25:59Z</time>
      </trkpt>
      <trkpt lat="46.49284" lon="5.33837">
        <ele>237.8</ele>
        <time>2022-06-14T12:26:05Z</time>
      </trkpt>
      <trkpt lat="46.49291" lon="5.33801">
        <ele>238</ele>
        <time>2022-06-14T12:26:09Z</time>
      </trkpt>
      <trkpt lat="46.49304" lon="5.33724">
        <ele>237.2</ele>
        <time>2022-06-14T12:26:17Z</time>
      </trkpt>
      <trkpt lat="46.49307" lon="5.33672">
        <ele>236.6</ele>
        <time>2022-06-14T12:26:22Z</time>
      </trkpt>
      <trkpt lat="46.49309" lon="5.3364">
        <ele>236.4</ele>
        <time>2022-06-14T12:26:25Z</time>
      </trkpt>
      <trkpt lat="46.49318" lon="5.33579">
        <ele>235.8</ele>
        <time>2022-06-14T12:26:31Z</time>
      </trkpt>
      <trkpt lat="46.4932" lon="5.33569">
        <ele>235.6</ele>
        <time>2022-06-14T12:26:32Z</time>
      </trkpt>
      <trkpt lat="46.49323" lon="5.33549">
        <ele>235.4</ele>
        <time>2022-06-14T12:26:34Z</time>
      </trkpt>
      <trkpt lat="46.49323" lon="5.33529">
        <ele>235.2</ele>
        <time>2022-06-14T12:26:36Z</time>
      </trkpt>
      <trkpt lat="46.49315" lon="5.33462">
        <ele>235</ele>
        <time>2022-06-14T12:26:43Z</time>
      </trkpt>
      <trkpt lat="46.493" lon="5.33386">
        <ele>235.2</ele>
        <time>2022-06-14T12:26:51Z</time>
      </trkpt>
      <trkpt lat="46.49292" lon="5.33344">
        <ele>235</ele>
        <time>2022-06-14T12:26:55Z</time>
      </trkpt>
      <trkpt lat="46.49285" lon="5.33313">
        <ele>234.4</ele>
        <time>2022-06-14T12:26:58Z</time>
      </trkpt>
      <trkpt lat="46.49271" lon="5.3324">
        <ele>233.6</ele>
        <time>2022-06-14T12:27:05Z</time>
      </trkpt>
      <trkpt lat="46.49268" lon="5.33229">
        <ele>233.4</ele>
        <time>2022-06-14T12:27:06Z</time>
      </trkpt>
      <trkpt lat="46.49264" lon="5.3322">
        <ele>233.4</ele>
        <time>2022-06-14T12:27:07Z</time>
      </trkpt>
      <trkpt lat="46.49255" lon="5.33201">
        <ele>233.4</ele>
        <time>2022-06-14T12:27:09Z</time>
      </trkpt>
      <trkpt lat="46.49243" lon="5.33186">
        <ele>233.2</ele>
        <time>2022-06-14T12:27:11Z</time>
      </trkpt>
      <trkpt lat="46.49236" lon="5.33181">
        <ele>233</ele>
        <time>2022-06-14T12:27:12Z</time>
      </trkpt>
      <trkpt lat="46.49229" lon="5.33176">
        <ele>232.6</ele>
        <time>2022-06-14T12:27:13Z</time>
      </trkpt>
      <trkpt lat="46.49194" lon="5.33148">
        <ele>231.6</ele>
        <time>2022-06-14T12:27:18Z</time>
      </trkpt>
      <trkpt lat="46.49173" lon="5.33128">
        <ele>231.2</ele>
        <time>2022-06-14T12:27:21Z</time>
      </trkpt>
      <trkpt lat="46.49161" lon="5.33112">
        <ele>231.2</ele>
        <time>2022-06-14T12:27:23Z</time>
      </trkpt>
      <trkpt lat="46.49153" lon="5.33093">
        <ele>231</ele>
        <time>2022-06-14T12:27:25Z</time>
      </trkpt>
      <trkpt lat="46.49138" lon="5.33033">
        <ele>231.2</ele>
        <time>2022-06-14T12:27:31Z</time>
      </trkpt>
      <trkpt lat="46.49127" lon="5.32957">
        <ele>231.2</ele>
        <time>2022-06-14T12:27:38Z</time>
      </trkpt>
      <trkpt lat="46.49127" lon="5.32902">
        <ele>230.6</ele>
        <time>2022-06-14T12:27:42Z</time>
      </trkpt>
      <trkpt lat="46.49128" lon="5.32891">
        <ele>230.2</ele>
        <time>2022-06-14T12:27:43Z</time>
      </trkpt>
      <trkpt lat="46.49132" lon="5.32876">
        <ele>230</ele>
        <time>2022-06-14T12:27:45Z</time>
      </trkpt>
      <trkpt lat="46.49142" lon="5.32834">
        <ele>229.6</ele>
        <time>2022-06-14T12:27:49Z</time>
      </trkpt>
      <trkpt lat="46.49145" lon="5.32814">
        <ele>230</ele>
        <time>2022-06-14T12:27:51Z</time>
      </trkpt>
      <trkpt lat="46.49145" lon="5.32793">
        <ele>230.2</ele>
        <time>2022-06-14T12:27:53Z</time>
      </trkpt>
      <trkpt lat="46.49144" lon="5.32784">
        <ele>230.2</ele>
        <time>2022-06-14T12:27:54Z</time>
      </trkpt>
      <trkpt lat="46.49138" lon="5.32747">
        <ele>230.6</ele>
        <time>2022-06-14T12:27:58Z</time>
      </trkpt>
      <trkpt lat="46.4913" lon="5.32719">
        <ele>230.6</ele>
        <time>2022-06-14T12:28:01Z</time>
      </trkpt>
      <trkpt lat="46.49126" lon="5.3271">
        <ele>230.6</ele>
        <time>2022-06-14T12:28:02Z</time>
      </trkpt>
      <trkpt lat="46.49121" lon="5.32703">
        <ele>230.6</ele>
        <time>2022-06-14T12:28:03Z</time>
      </trkpt>
      <trkpt lat="46.49108" lon="5.32693">
        <ele>230</ele>
        <time>2022-06-14T12:28:05Z</time>
      </trkpt>
      <trkpt lat="46.49078" lon="5.32696">
        <ele>229.2</ele>
        <time>2022-06-14T12:28:09Z</time>
      </trkpt>
      <trkpt lat="46.49053" lon="5.32701">
        <ele>228</ele>
        <time>2022-06-14T12:28:12Z</time>
      </trkpt>
      <trkpt lat="46.49026" lon="5.32707">
        <ele>227.4</ele>
        <time>2022-06-14T12:28:15Z</time>
      </trkpt>
      <trkpt lat="46.49017" lon="5.32708">
        <ele>226.8</ele>
        <time>2022-06-14T12:28:16Z</time>
      </trkpt>
      <trkpt lat="46.48988" lon="5.3271">
        <ele>225.4</ele>
        <time>2022-06-14T12:28:19Z</time>
      </trkpt>
      <trkpt lat="46.48978" lon="5.32709">
        <ele>225</ele>
        <time>2022-06-14T12:28:20Z</time>
      </trkpt>
      <trkpt lat="46.48959" lon="5.32702">
        <ele>224</ele>
        <time>2022-06-14T12:28:22Z</time>
      </trkpt>
      <trkpt lat="46.4895" lon="5.32695">
        <ele>223.8</ele>
        <time>2022-06-14T12:28:23Z</time>
      </trkpt>
      <trkpt lat="46.48932" lon="5.32677">
        <ele>222.4</ele>
        <time>2022-06-14T12:28:25Z</time>
      </trkpt>
      <trkpt lat="46.48925" lon="5.32666">
        <ele>222</ele>
        <time>2022-06-14T12:28:26Z</time>
      </trkpt>
      <trkpt lat="46.48919" lon="5.32654">
        <ele>222</ele>
        <time>2022-06-14T12:28:27Z</time>
      </trkpt>
      <trkpt lat="46.48916" lon="5.32639">
        <ele>220.8</ele>
        <time>2022-06-14T12:28:28Z</time>
      </trkpt>
      <trkpt lat="46.48916" lon="5.32623">
        <ele>220.2</ele>
        <time>2022-06-14T12:28:29Z</time>
      </trkpt>
      <trkpt lat="46.4892" lon="5.32608">
        <ele>219.8</ele>
        <time>2022-06-14T12:28:30Z</time>
      </trkpt>
      <trkpt lat="46.48927" lon="5.32596">
        <ele>219.4</ele>
        <time>2022-06-14T12:28:31Z</time>
      </trkpt>
      <trkpt lat="46.48943" lon="5.32574">
        <ele>218</ele>
        <time>2022-06-14T12:28:33Z</time>
      </trkpt>
      <trkpt lat="46.4895" lon="5.32563">
        <ele>217.2</ele>
        <time>2022-06-14T12:28:34Z</time>
      </trkpt>
      <trkpt lat="46.48955" lon="5.32549">
        <ele>215.8</ele>
        <time>2022-06-14T12:28:35Z</time>
      </trkpt>
      <trkpt lat="46.48958" lon="5.32534">
        <ele>215.4</ele>
        <time>2022-06-14T12:28:36Z</time>
      </trkpt>
      <trkpt lat="46.48958" lon="5.3252">
        <ele>214.8</ele>
        <time>2022-06-14T12:28:37Z</time>
      </trkpt>
      <trkpt lat="46.48957" lon="5.32508">
        <ele>214.6</ele>
        <time>2022-06-14T12:28:38Z</time>
      </trkpt>
      <trkpt lat="46.4895" lon="5.32484">
        <ele>213.6</ele>
        <time>2022-06-14T12:28:40Z</time>
      </trkpt>
      <trkpt lat="46.48946" lon="5.32473">
        <ele>213.4</ele>
        <time>2022-06-14T12:28:41Z</time>
      </trkpt>
      <trkpt lat="46.48934" lon="5.32439">
        <ele>212.8</ele>
        <time>2022-06-14T12:28:44Z</time>
      </trkpt>
      <trkpt lat="46.48916" lon="5.32373">
        <ele>213</ele>
        <time>2022-06-14T12:28:50Z</time>
      </trkpt>
      <trkpt lat="46.48905" lon="5.32342">
        <ele>213.2</ele>
        <time>2022-06-14T12:28:53Z</time>
      </trkpt>
      <trkpt lat="46.48896" lon="5.32326">
        <ele>213.4</ele>
        <time>2022-06-14T12:28:55Z</time>
      </trkpt>
      <trkpt lat="46.48877" lon="5.32296">
        <ele>214.6</ele>
        <time>2022-06-14T12:29:00Z</time>
      </trkpt>
      <trkpt lat="46.48873" lon="5.32291">
        <ele>215.2</ele>
        <time>2022-06-14T12:29:01Z</time>
      </trkpt>
      <trkpt lat="46.4886" lon="5.32272">
        <ele>216.2</ele>
        <time>2022-06-14T12:29:05Z</time>
      </trkpt>
      <trkpt lat="46.48858" lon="5.32268">
        <ele>216.8</ele>
        <time>2022-06-14T12:29:06Z</time>
      </trkpt>
      <trkpt lat="46.48855" lon="5.32263">
        <ele>217.4</ele>
        <time>2022-06-14T12:29:07Z</time>
      </trkpt>
      <trkpt lat="46.48846" lon="5.32251">
        <ele>218.8</ele>
        <time>2022-06-14T12:29:10Z</time>
      </trkpt>
      <trkpt lat="46.48841" lon="5.32242">
        <ele>219.6</ele>
        <time>2022-06-14T12:29:12Z</time>
      </trkpt>
      <trkpt lat="46.48838" lon="5.32237">
        <ele>219.6</ele>
        <time>2022-06-14T12:29:13Z</time>
      </trkpt>
      <trkpt lat="46.48836" lon="5.32231">
        <ele>220</ele>
        <time>2022-06-14T12:29:14Z</time>
      </trkpt>
      <trkpt lat="46.48831" lon="5.32217">
        <ele>220.4</ele>
        <time>2022-06-14T12:29:16Z</time>
      </trkpt>
      <trkpt lat="46.48829" lon="5.32201">
        <ele>220.6</ele>
        <time>2022-06-14T12:29:18Z</time>
      </trkpt>
      <trkpt lat="46.48824" lon="5.32142">
        <ele>220.6</ele>
        <time>2022-06-14T12:29:24Z</time>
      </trkpt>
      <trkpt lat="46.48825" lon="5.32131">
        <ele>220.2</ele>
        <time>2022-06-14T12:29:25Z</time>
      </trkpt>
      <trkpt lat="46.4883" lon="5.32099">
        <ele>219.2</ele>
        <time>2022-06-14T12:29:28Z</time>
      </trkpt>
      <trkpt lat="46.48832" lon="5.32087">
        <ele>219</ele>
        <time>2022-06-14T12:29:29Z</time>
      </trkpt>
      <trkpt lat="46.4884" lon="5.32044">
        <ele>218</ele>
        <time>2022-06-14T12:29:33Z</time>
      </trkpt>
      <trkpt lat="46.48846" lon="5.32011">
        <ele>217.8</ele>
        <time>2022-06-14T12:29:36Z</time>
      </trkpt>
      <trkpt lat="46.48847" lon="5.32">
        <ele>217.6</ele>
        <time>2022-06-14T12:29:37Z</time>
      </trkpt>
      <trkpt lat="46.48847" lon="5.31957">
        <ele>217.2</ele>
        <time>2022-06-14T12:29:41Z</time>
      </trkpt>
      <trkpt lat="46.48847" lon="5.31939">
        <ele>216.8</ele>
        <time>2022-06-14T12:29:42Z</time>
      </trkpt>
      <trkpt lat="46.4884" lon="5.31881">
        <ele>216</ele>
        <time>2022-06-14T12:29:48Z</time>
      </trkpt>
      <trkpt lat="46.48836" lon="5.31871">
        <ele>215.6</ele>
        <time>2022-06-14T12:29:49Z</time>
      </trkpt>
      <trkpt lat="46.48832" lon="5.31863">
        <ele>215.4</ele>
        <time>2022-06-14T12:29:50Z</time>
      </trkpt>
      <trkpt lat="46.48826" lon="5.31856">
        <ele>215.2</ele>
        <time>2022-06-14T12:29:51Z</time>
      </trkpt>
      <trkpt lat="46.48819" lon="5.31851">
        <ele>215</ele>
        <time>2022-06-14T12:29:52Z</time>
      </trkpt>
      <trkpt lat="46.48804" lon="5.31845">
        <ele>214.8</ele>
        <time>2022-06-14T12:29:54Z</time>
      </trkpt>
      <trkpt lat="46.48797" lon="5.31841">
        <ele>214.8</ele>
        <time>2022-06-14T12:29:55Z</time>
      </trkpt>
      <trkpt lat="46.48785" lon="5.31827">
        <ele>214.6</ele>
        <time>2022-06-14T12:29:57Z</time>
      </trkpt>
      <trkpt lat="46.48781" lon="5.31807">
        <ele>214.6</ele>
        <time>2022-06-14T12:29:59Z</time>
      </trkpt>
      <trkpt lat="46.48781" lon="5.31797">
        <ele>214.6</ele>
        <time>2022-06-14T12:30:00Z</time>
      </trkpt>
      <trkpt lat="46.48781" lon="5.31766">
        <ele>214.6</ele>
        <time>2022-06-14T12:30:03Z</time>
      </trkpt>
      <trkpt lat="46.48781" lon="5.31746">
        <ele>214.6</ele>
        <time>2022-06-14T12:30:05Z</time>
      </trkpt>
      <trkpt lat="46.4878" lon="5.31736">
        <ele>214.6</ele>
        <time>2022-06-14T12:30:06Z</time>
      </trkpt>
      <trkpt lat="46.48775" lon="5.31717">
        <ele>214.6</ele>
        <time>2022-06-14T12:30:08Z</time>
      </trkpt>
      <trkpt lat="46.48766" lon="5.31702">
        <ele>214.8</ele>
        <time>2022-06-14T12:30:10Z</time>
      </trkpt>
      <trkpt lat="46.48757" lon="5.31691">
        <ele>214.8</ele>
        <time>2022-06-14T12:30:12Z</time>
      </trkpt>
      <trkpt lat="46.48752" lon="5.31686">
        <ele>215</ele>
        <time>2022-06-14T12:30:13Z</time>
      </trkpt>
      <trkpt lat="46.48739" lon="5.31669">
        <ele>215.8</ele>
        <time>2022-06-14T12:30:16Z</time>
      </trkpt>
      <trkpt lat="46.48734" lon="5.31663">
        <ele>216</ele>
        <time>2022-06-14T12:30:17Z</time>
      </trkpt>
      <trkpt lat="46.48723" lon="5.31651">
        <ele>216.2</ele>
        <time>2022-06-14T12:30:19Z</time>
      </trkpt>
      <trkpt lat="46.48708" lon="5.31632">
        <ele>216.4</ele>
        <time>2022-06-14T12:30:22Z</time>
      </trkpt>
      <trkpt lat="46.48692" lon="5.31614">
        <ele>216.4</ele>
        <time>2022-06-14T12:30:25Z</time>
      </trkpt>
      <trkpt lat="46.48682" lon="5.316">
        <ele>216.4</ele>
        <time>2022-06-14T12:30:27Z</time>
      </trkpt>
      <trkpt lat="46.48646" lon="5.31555">
        <ele>216.4</ele>
        <time>2022-06-14T12:30:34Z</time>
      </trkpt>
      <trkpt lat="46.4862" lon="5.31523">
        <ele>216.4</ele>
        <time>2022-06-14T12:30:39Z</time>
      </trkpt>
      <trkpt lat="46.48615" lon="5.31516">
        <ele>216.4</ele>
        <time>2022-06-14T12:30:40Z</time>
      </trkpt>
      <trkpt lat="46.48608" lon="5.315">
        <ele>216.6</ele>
        <time>2022-06-14T12:30:42Z</time>
      </trkpt>
      <trkpt lat="46.48606" lon="5.31493">
        <ele>216.4</ele>
        <time>2022-06-14T12:30:43Z</time>
      </trkpt>
      <trkpt lat="46.48607" lon="5.31468">
        <ele>216.4</ele>
        <time>2022-06-14T12:30:45Z</time>
      </trkpt>
      <trkpt lat="46.4861" lon="5.31455">
        <ele>216.4</ele>
        <time>2022-06-14T12:30:46Z</time>
      </trkpt>
      <trkpt lat="46.48611" lon="5.31444">
        <ele>216.4</ele>
        <time>2022-06-14T12:30:47Z</time>
      </trkpt>
      <trkpt lat="46.48609" lon="5.31434">
        <ele>216.4</ele>
        <time>2022-06-14T12:30:48Z</time>
      </trkpt>
      <trkpt lat="46.48603" lon="5.31417">
        <ele>216.6</ele>
        <time>2022-06-14T12:30:50Z</time>
      </trkpt>
      <trkpt lat="46.48598" lon="5.31406">
        <ele>216.6</ele>
        <time>2022-06-14T12:30:52Z</time>
      </trkpt>
      <trkpt lat="46.48591" lon="5.31397">
        <ele>216.6</ele>
        <time>2022-06-14T12:30:54Z</time>
      </trkpt>
      <trkpt lat="46.48586" lon="5.31393">
        <ele>217</ele>
        <time>2022-06-14T12:30:55Z</time>
      </trkpt>
      <trkpt lat="46.48569" lon="5.31374">
        <ele>218</ele>
        <time>2022-06-14T12:30:59Z</time>
      </trkpt>
      <trkpt lat="46.48562" lon="5.31363">
        <ele>218.2</ele>
        <time>2022-06-14T12:31:01Z</time>
      </trkpt>
      <trkpt lat="46.48556" lon="5.31346">
        <ele>219</ele>
        <time>2022-06-14T12:31:04Z</time>
      </trkpt>
      <trkpt lat="46.48555" lon="5.3134">
        <ele>219.2</ele>
        <time>2022-06-14T12:31:05Z</time>
      </trkpt>
      <trkpt lat="46.48555" lon="5.31324">
        <ele>220</ele>
        <time>2022-06-14T12:31:08Z</time>
      </trkpt>
      <trkpt lat="46.48555" lon="5.31319">
        <ele>220.4</ele>
        <time>2022-06-14T12:31:09Z</time>
      </trkpt>
      <trkpt lat="46.48555" lon="5.31299">
        <ele>221</ele>
        <time>2022-06-14T12:31:12Z</time>
      </trkpt>
      <trkpt lat="46.48553" lon="5.31279">
        <ele>221.4</ele>
        <time>2022-06-14T12:31:15Z</time>
      </trkpt>
      <trkpt lat="46.48553" lon="5.31271">
        <ele>221.6</ele>
        <time>2022-06-14T12:31:16Z</time>
      </trkpt>
      <trkpt lat="46.48552" lon="5.31264">
        <ele>221.6</ele>
        <time>2022-06-14T12:31:17Z</time>
      </trkpt>
      <trkpt lat="46.48553" lon="5.3125">
        <ele>221.8</ele>
        <time>2022-06-14T12:31:19Z</time>
      </trkpt>
      <trkpt lat="46.48556" lon="5.31235">
        <ele>221.8</ele>
        <time>2022-06-14T12:31:21Z</time>
      </trkpt>
      <trkpt lat="46.4856" lon="5.31222">
        <ele>222.2</ele>
        <time>2022-06-14T12:31:23Z</time>
      </trkpt>
      <trkpt lat="46.48565" lon="5.31211">
        <ele>222.6</ele>
        <time>2022-06-14T12:31:25Z</time>
      </trkpt>
      <trkpt lat="46.48571" lon="5.31199">
        <ele>223</ele>
        <time>2022-06-14T12:31:27Z</time>
      </trkpt>
      <trkpt lat="46.48592" lon="5.31156">
        <ele>223.8</ele>
        <time>2022-06-14T12:31:35Z</time>
      </trkpt>
      <trkpt lat="46.48595" lon="5.3115">
        <ele>223.8</ele>
        <time>2022-06-14T12:31:36Z</time>
      </trkpt>
      <trkpt lat="46.48615" lon="5.3111">
        <ele>224.8</ele>
        <time>2022-06-14T12:31:43Z</time>
      </trkpt>
      <trkpt lat="46.48621" lon="5.31097">
        <ele>225</ele>
        <time>2022-06-14T12:31:46Z</time>
      </trkpt>
      <trkpt lat="46.4864" lon="5.3106">
        <ele>225.8</ele>
        <time>2022-06-14T12:31:53Z</time>
      </trkpt>
      <trkpt lat="46.48645" lon="5.31049">
        <ele>226.2</ele>
        <time>2022-06-14T12:31:55Z</time>
      </trkpt>
      <trkpt lat="46.48658" lon="5.31022">
        <ele>226.8</ele>
        <time>2022-06-14T12:32:00Z</time>
      </trkpt>
      <trkpt lat="46.48663" lon="5.31011">
        <ele>227.2</ele>
        <time>2022-06-14T12:32:02Z</time>
      </trkpt>
      <trkpt lat="46.48671" lon="5.30994">
        <ele>227.6</ele>
        <time>2022-06-14T12:32:05Z</time>
      </trkpt>
      <trkpt lat="46.48682" lon="5.30972">
        <ele>228</ele>
        <time>2022-06-14T12:32:09Z</time>
      </trkpt>
      <trkpt lat="46.48687" lon="5.3096">
        <ele>228</ele>
        <time>2022-06-14T12:32:11Z</time>
      </trkpt>
      <trkpt lat="46.487" lon="5.30934">
        <ele>229</ele>
        <time>2022-06-14T12:32:15Z</time>
      </trkpt>
      <trkpt lat="46.48704" lon="5.30927">
        <ele>229</ele>
        <time>2022-06-14T12:32:16Z</time>
      </trkpt>
      <trkpt lat="46.48719" lon="5.30907">
        <ele>228.4</ele>
        <time>2022-06-14T12:32:19Z</time>
      </trkpt>
      <trkpt lat="46.48723" lon="5.30886">
        <ele>227</ele>
        <time>2022-06-14T12:32:21Z</time>
      </trkpt>
      <trkpt lat="46.48719" lon="5.30866">
        <ele>225.6</ele>
        <time>2022-06-14T12:32:23Z</time>
      </trkpt>
      <trkpt lat="46.48714" lon="5.30857">
        <ele>225.4</ele>
        <time>2022-06-14T12:32:24Z</time>
      </trkpt>
      <trkpt lat="46.48709" lon="5.3085">
        <ele>225</ele>
        <time>2022-06-14T12:32:25Z</time>
      </trkpt>
      <trkpt lat="46.48696" lon="5.30838">
        <ele>224.6</ele>
        <time>2022-06-14T12:32:27Z</time>
      </trkpt>
      <trkpt lat="46.48689" lon="5.30834">
        <ele>224.4</ele>
        <time>2022-06-14T12:32:28Z</time>
      </trkpt>
      <trkpt lat="46.48651" lon="5.30812">
        <ele>223.4</ele>
        <time>2022-06-14T12:32:33Z</time>
      </trkpt>
      <trkpt lat="46.48635" lon="5.30802">
        <ele>223.2</ele>
        <time>2022-06-14T12:32:35Z</time>
      </trkpt>
      <trkpt lat="46.48605" lon="5.30781">
        <ele>222.4</ele>
        <time>2022-06-14T12:32:39Z</time>
      </trkpt>
      <trkpt lat="46.48582" lon="5.30761">
        <ele>222.4</ele>
        <time>2022-06-14T12:32:42Z</time>
      </trkpt>
      <trkpt lat="46.48565" lon="5.30742">
        <ele>223.2</ele>
        <time>2022-06-14T12:32:46Z</time>
      </trkpt>
      <trkpt lat="46.48558" lon="5.30729">
        <ele>223.4</ele>
        <time>2022-06-14T12:32:48Z</time>
      </trkpt>
      <trkpt lat="46.48554" lon="5.30722">
        <ele>223.8</ele>
        <time>2022-06-14T12:32:49Z</time>
      </trkpt>
      <trkpt lat="46.48549" lon="5.30708">
        <ele>224</ele>
        <time>2022-06-14T12:32:51Z</time>
      </trkpt>
      <trkpt lat="46.48547" lon="5.307">
        <ele>224.2</ele>
        <time>2022-06-14T12:32:52Z</time>
      </trkpt>
      <trkpt lat="46.48544" lon="5.30693">
        <ele>224.6</ele>
        <time>2022-06-14T12:32:53Z</time>
      </trkpt>
      <trkpt lat="46.48542" lon="5.30685">
        <ele>224.8</ele>
        <time>2022-06-14T12:32:54Z</time>
      </trkpt>
      <trkpt lat="46.48541" lon="5.30678">
        <ele>224.8</ele>
        <time>2022-06-14T12:32:55Z</time>
      </trkpt>
      <trkpt lat="46.48541" lon="5.30672">
        <ele>225</ele>
        <time>2022-06-14T12:32:56Z</time>
      </trkpt>
      <trkpt lat="46.48541" lon="5.30665">
        <ele>225</ele>
        <time>2022-06-14T12:32:57Z</time>
      </trkpt>
      <trkpt lat="46.48545" lon="5.30637">
        <ele>226</ele>
        <time>2022-06-14T12:33:01Z</time>
      </trkpt>
      <trkpt lat="46.48548" lon="5.30616">
        <ele>226.8</ele>
        <time>2022-06-14T12:33:04Z</time>
      </trkpt>
      <trkpt lat="46.48549" lon="5.30609">
        <ele>227.2</ele>
        <time>2022-06-14T12:33:05Z</time>
      </trkpt>
      <trkpt lat="46.48552" lon="5.30575">
        <ele>228.6</ele>
        <time>2022-06-14T12:33:10Z</time>
      </trkpt>
      <trkpt lat="46.48553" lon="5.30555">
        <ele>229</ele>
        <time>2022-06-14T12:33:13Z</time>
      </trkpt>
      <trkpt lat="46.48553" lon="5.30549">
        <ele>229.6</ele>
        <time>2022-06-14T12:33:14Z</time>
      </trkpt>
      <trkpt lat="46.48554" lon="5.30535">
        <ele>230</ele>
        <time>2022-06-14T12:33:16Z</time>
      </trkpt>
      <trkpt lat="46.48558" lon="5.30514">
        <ele>230.4</ele>
        <time>2022-06-14T12:33:19Z</time>
      </trkpt>
      <trkpt lat="46.48558" lon="5.30508">
        <ele>230.4</ele>
        <time>2022-06-14T12:33:20Z</time>
      </trkpt>
      <trkpt lat="46.48554" lon="5.30498">
        <ele>230.8</ele>
        <time>2022-06-14T12:33:22Z</time>
      </trkpt>
      <trkpt lat="46.48546" lon="5.30494">
        <ele>231</ele>
        <time>2022-06-14T12:33:24Z</time>
      </trkpt>
      <trkpt lat="46.48541" lon="5.30497">
        <ele>231.2</ele>
        <time>2022-06-14T12:33:25Z</time>
      </trkpt>
      <trkpt lat="46.48537" lon="5.305">
        <ele>231.2</ele>
        <time>2022-06-14T12:33:26Z</time>
      </trkpt>
      <trkpt lat="46.48521" lon="5.30511">
        <ele>231.4</ele>
        <time>2022-06-14T12:33:29Z</time>
      </trkpt>
      <trkpt lat="46.48489" lon="5.30536">
        <ele>231.6</ele>
        <time>2022-06-14T12:33:35Z</time>
      </trkpt>
      <trkpt lat="46.48441" lon="5.30582">
        <ele>231</ele>
        <time>2022-06-14T12:33:43Z</time>
      </trkpt>
      <trkpt lat="46.48435" lon="5.30587">
        <ele>231</ele>
        <time>2022-06-14T12:33:45Z</time>
      </trkpt>
      <trkpt lat="46.48385" lon="5.30635">
        <ele>230.4</ele>
        <time>2022-06-14T12:33:53Z</time>
      </trkpt>
      <trkpt lat="46.48379" lon="5.30641">
        <ele>230.4</ele>
        <time>2022-06-14T12:33:54Z</time>
      </trkpt>
      <trkpt lat="46.48341" lon="5.30677">
        <ele>230</ele>
        <time>2022-06-14T12:34:00Z</time>
      </trkpt>
      <trkpt lat="46.48334" lon="5.30682">
        <ele>229.8</ele>
        <time>2022-06-14T12:34:01Z</time>
      </trkpt>
      <trkpt lat="46.48327" lon="5.30687">
        <ele>229.4</ele>
        <time>2022-06-14T12:34:02Z</time>
      </trkpt>
      <trkpt lat="46.48304" lon="5.30695">
        <ele>229</ele>
        <time>2022-06-14T12:34:05Z</time>
      </trkpt>
      <trkpt lat="46.48296" lon="5.30696">
        <ele>229</ele>
        <time>2022-06-14T12:34:06Z</time>
      </trkpt>
      <trkpt lat="46.48289" lon="5.30695">
        <ele>229</ele>
        <time>2022-06-14T12:34:07Z</time>
      </trkpt>
      <trkpt lat="46.4826" lon="5.30688">
        <ele>228.8</ele>
        <time>2022-06-14T12:34:11Z</time>
      </trkpt>
      <trkpt lat="46.48228" lon="5.3068">
        <ele>229</ele>
        <time>2022-06-14T12:34:16Z</time>
      </trkpt>
      <trkpt lat="46.4821" lon="5.30682">
        <ele>229.6</ele>
        <time>2022-06-14T12:34:19Z</time>
      </trkpt>
      <trkpt lat="46.48204" lon="5.30683">
        <ele>230</ele>
        <time>2022-06-14T12:34:20Z</time>
      </trkpt>
      <trkpt lat="46.48199" lon="5.30685">
        <ele>230.4</ele>
        <time>2022-06-14T12:34:21Z</time>
      </trkpt>
      <trkpt lat="46.48188" lon="5.30691">
        <ele>231</ele>
        <time>2022-06-14T12:34:23Z</time>
      </trkpt>
      <trkpt lat="46.48155" lon="5.30709">
        <ele>232</ele>
        <time>2022-06-14T12:34:29Z</time>
      </trkpt>
      <trkpt lat="46.4815" lon="5.30712">
        <ele>232.4</ele>
        <time>2022-06-14T12:34:30Z</time>
      </trkpt>
      <trkpt lat="46.48111" lon="5.30734">
        <ele>233.2</ele>
        <time>2022-06-14T12:34:37Z</time>
      </trkpt>
      <trkpt lat="46.48077" lon="5.30753">
        <ele>233.4</ele>
        <time>2022-06-14T12:34:43Z</time>
      </trkpt>
      <trkpt lat="46.48059" lon="5.30762">
        <ele>233.8</ele>
        <time>2022-06-14T12:34:46Z</time>
      </trkpt>
      <trkpt lat="46.48009" lon="5.3079">
        <ele>233.4</ele>
        <time>2022-06-14T12:34:53Z</time>
      </trkpt>
      <trkpt lat="46.47971" lon="5.3081">
        <ele>232.4</ele>
        <time>2022-06-14T12:34:58Z</time>
      </trkpt>
      <trkpt lat="46.47963" lon="5.30813">
        <ele>232.4</ele>
        <time>2022-06-14T12:34:59Z</time>
      </trkpt>
      <trkpt lat="46.4793" lon="5.30816">
        <ele>231.6</ele>
        <time>2022-06-14T12:35:03Z</time>
      </trkpt>
      <trkpt lat="46.47905" lon="5.30809">
        <ele>231.8</ele>
        <time>2022-06-14T12:35:07Z</time>
      </trkpt>
      <trkpt lat="46.4788" lon="5.308">
        <ele>233.2</ele>
        <time>2022-06-14T12:35:12Z</time>
      </trkpt>
      <trkpt lat="46.47875" lon="5.30799">
        <ele>233.6</ele>
        <time>2022-06-14T12:35:13Z</time>
      </trkpt>
      <trkpt lat="46.47861" lon="5.30799">
        <ele>235.2</ele>
        <time>2022-06-14T12:35:16Z</time>
      </trkpt>
      <trkpt lat="46.47851" lon="5.308">
        <ele>235.6</ele>
        <time>2022-06-14T12:35:18Z</time>
      </trkpt>
      <trkpt lat="46.47842" lon="5.30803">
        <ele>236.2</ele>
        <time>2022-06-14T12:35:20Z</time>
      </trkpt>
      <trkpt lat="46.47838" lon="5.30805">
        <ele>236.4</ele>
        <time>2022-06-14T12:35:21Z</time>
      </trkpt>
      <trkpt lat="46.47825" lon="5.30812">
        <ele>237.4</ele>
        <time>2022-06-14T12:35:24Z</time>
      </trkpt>
      <trkpt lat="46.47822" lon="5.30816">
        <ele>237.8</ele>
        <time>2022-06-14T12:35:25Z</time>
      </trkpt>
      <trkpt lat="46.47803" lon="5.30841">
        <ele>239</ele>
        <time>2022-06-14T12:35:30Z</time>
      </trkpt>
      <trkpt lat="46.478" lon="5.30847">
        <ele>239.2</ele>
        <time>2022-06-14T12:35:31Z</time>
      </trkpt>
      <trkpt lat="46.47771" lon="5.30888">
        <ele>240</ele>
        <time>2022-06-14T12:35:38Z</time>
      </trkpt>
      <trkpt lat="46.47753" lon="5.30901">
        <ele>239.6</ele>
        <time>2022-06-14T12:35:41Z</time>
      </trkpt>
      <trkpt lat="46.47745" lon="5.30903">
        <ele>239.4</ele>
        <time>2022-06-14T12:35:42Z</time>
      </trkpt>
      <trkpt lat="46.47737" lon="5.30905">
        <ele>239.2</ele>
        <time>2022-06-14T12:35:43Z</time>
      </trkpt>
      <trkpt lat="46.4772" lon="5.30905">
        <ele>238.8</ele>
        <time>2022-06-14T12:35:45Z</time>
      </trkpt>
      <trkpt lat="46.47701" lon="5.30899">
        <ele>238.2</ele>
        <time>2022-06-14T12:35:47Z</time>
      </trkpt>
      <trkpt lat="46.47673" lon="5.30889">
        <ele>237</ele>
        <time>2022-06-14T12:35:50Z</time>
      </trkpt>
      <trkpt lat="46.47664" lon="5.30887">
        <ele>236.6</ele>
        <time>2022-06-14T12:35:51Z</time>
      </trkpt>
      <trkpt lat="46.47654" lon="5.30888">
        <ele>236</ele>
        <time>2022-06-14T12:35:52Z</time>
      </trkpt>
      <trkpt lat="46.47645" lon="5.30889">
        <ele>235.4</ele>
        <time>2022-06-14T12:35:53Z</time>
      </trkpt>
      <trkpt lat="46.47636" lon="5.30893">
        <ele>235</ele>
        <time>2022-06-14T12:35:54Z</time>
      </trkpt>
      <trkpt lat="46.47599" lon="5.30908">
        <ele>233.6</ele>
        <time>2022-06-14T12:35:58Z</time>
      </trkpt>
      <trkpt lat="46.4759" lon="5.30912">
        <ele>233.4</ele>
        <time>2022-06-14T12:35:59Z</time>
      </trkpt>
      <trkpt lat="46.47562" lon="5.30925">
        <ele>232.6</ele>
        <time>2022-06-14T12:36:02Z</time>
      </trkpt>
      <trkpt lat="46.47535" lon="5.3094">
        <ele>231.4</ele>
        <time>2022-06-14T12:36:05Z</time>
      </trkpt>
      <trkpt lat="46.47518" lon="5.30952">
        <ele>231.2</ele>
        <time>2022-06-14T12:36:07Z</time>
      </trkpt>
      <trkpt lat="46.47487" lon="5.30972">
        <ele>230.4</ele>
        <time>2022-06-14T12:36:10Z</time>
      </trkpt>
      <trkpt lat="46.47444" lon="5.31">
        <ele>229.8</ele>
        <time>2022-06-14T12:36:16Z</time>
      </trkpt>
      <trkpt lat="46.47411" lon="5.31022">
        <ele>230</ele>
        <time>2022-06-14T12:36:21Z</time>
      </trkpt>
      <trkpt lat="46.47394" lon="5.31033">
        <ele>231.4</ele>
        <time>2022-06-14T12:36:24Z</time>
      </trkpt>
      <trkpt lat="46.47383" lon="5.31039">
        <ele>231.6</ele>
        <time>2022-06-14T12:36:26Z</time>
      </trkpt>
      <trkpt lat="46.47378" lon="5.31043">
        <ele>232</ele>
        <time>2022-06-14T12:36:27Z</time>
      </trkpt>
      <trkpt lat="46.47368" lon="5.31049">
        <ele>233.2</ele>
        <time>2022-06-14T12:36:29Z</time>
      </trkpt>
      <trkpt lat="46.47348" lon="5.31063">
        <ele>234.2</ele>
        <time>2022-06-14T12:36:33Z</time>
      </trkpt>
      <trkpt lat="46.47329" lon="5.3108">
        <ele>235</ele>
        <time>2022-06-14T12:36:37Z</time>
      </trkpt>
      <trkpt lat="46.47325" lon="5.31086">
        <ele>235.4</ele>
        <time>2022-06-14T12:36:38Z</time>
      </trkpt>
      <trkpt lat="46.47304" lon="5.31117">
        <ele>236.4</ele>
        <time>2022-06-14T12:36:43Z</time>
      </trkpt>
      <trkpt lat="46.47286" lon="5.31143">
        <ele>236.6</ele>
        <time>2022-06-14T12:36:47Z</time>
      </trkpt>
      <trkpt lat="46.47252" lon="5.31197">
        <ele>237.4</ele>
        <time>2022-06-14T12:36:55Z</time>
      </trkpt>
      <trkpt lat="46.47243" lon="5.3121">
        <ele>237.6</ele>
        <time>2022-06-14T12:36:57Z</time>
      </trkpt>
      <trkpt lat="46.47227" lon="5.31237">
        <ele>238.2</ele>
        <time>2022-06-14T12:37:01Z</time>
      </trkpt>
      <trkpt lat="46.47219" lon="5.31251">
        <ele>238.2</ele>
        <time>2022-06-14T12:37:03Z</time>
      </trkpt>
      <trkpt lat="46.47201" lon="5.31275">
        <ele>238.6</ele>
        <time>2022-06-14T12:37:07Z</time>
      </trkpt>
      <trkpt lat="46.47197" lon="5.31282">
        <ele>238.8</ele>
        <time>2022-06-14T12:37:08Z</time>
      </trkpt>
      <trkpt lat="46.4717" lon="5.31319">
        <ele>239.2</ele>
        <time>2022-06-14T12:37:14Z</time>
      </trkpt>
      <trkpt lat="46.4714" lon="5.3136">
        <ele>239.4</ele>
        <time>2022-06-14T12:37:21Z</time>
      </trkpt>
      <trkpt lat="46.471" lon="5.31414">
        <ele>239.4</ele>
        <time>2022-06-14T12:37:29Z</time>
      </trkpt>
      <trkpt lat="46.47096" lon="5.31419">
        <ele>239.2</ele>
        <time>2022-06-14T12:37:30Z</time>
      </trkpt>
      <trkpt lat="46.47063" lon="5.31464">
        <ele>239.2</ele>
        <time>2022-06-14T12:37:37Z</time>
      </trkpt>
      <trkpt lat="46.47037" lon="5.31493">
        <ele>239.4</ele>
        <time>2022-06-14T12:37:42Z</time>
      </trkpt>
      <trkpt lat="46.47013" lon="5.31522">
        <ele>239.4</ele>
        <time>2022-06-14T12:37:47Z</time>
      </trkpt>
      <trkpt lat="46.46999" lon="5.31539">
        <ele>239.4</ele>
        <time>2022-06-14T12:37:50Z</time>
      </trkpt>
      <trkpt lat="46.46974" lon="5.31572">
        <ele>240</ele>
        <time>2022-06-14T12:37:56Z</time>
      </trkpt>
      <trkpt lat="46.4695" lon="5.316">
        <ele>240.4</ele>
        <time>2022-06-14T12:38:01Z</time>
      </trkpt>
      <trkpt lat="46.46921" lon="5.31635">
        <ele>241.2</ele>
        <time>2022-06-14T12:38:07Z</time>
      </trkpt>
      <trkpt lat="46.46917" lon="5.31641">
        <ele>241.2</ele>
        <time>2022-06-14T12:38:08Z</time>
      </trkpt>
      <trkpt lat="46.46889" lon="5.31676">
        <ele>241.2</ele>
        <time>2022-06-14T12:38:14Z</time>
      </trkpt>
      <trkpt lat="46.46885" lon="5.31683">
        <ele>241.2</ele>
        <time>2022-06-14T12:38:15Z</time>
      </trkpt>
      <trkpt lat="46.46849" lon="5.31724">
        <ele>240.6</ele>
        <time>2022-06-14T12:38:21Z</time>
      </trkpt>
      <trkpt lat="46.46849" lon="5.31724">
        <ele>240.6</ele>
        <time>2022-06-14T12:38:22Z</time>
      </trkpt>
      <trkpt lat="46.46824" lon="5.31754">
        <ele>240</ele>
        <time>2022-06-14T12:38:26Z</time>
      </trkpt>
      <trkpt lat="46.46797" lon="5.31788">
        <ele>239.2</ele>
        <time>2022-06-14T12:38:31Z</time>
      </trkpt>
      <trkpt lat="46.46775" lon="5.31815">
        <ele>238.8</ele>
        <time>2022-06-14T12:38:35Z</time>
      </trkpt>
      <trkpt lat="46.46754" lon="5.31841">
        <ele>238.8</ele>
        <time>2022-06-14T12:38:39Z</time>
      </trkpt>
      <trkpt lat="46.46718" lon="5.31875">
        <ele>238.6</ele>
        <time>2022-06-14T12:38:45Z</time>
      </trkpt>
      <trkpt lat="46.46691" lon="5.31896">
        <ele>238</ele>
        <time>2022-06-14T12:38:49Z</time>
      </trkpt>
      <trkpt lat="46.46662" lon="5.3192">
        <ele>238.2</ele>
        <time>2022-06-14T12:38:54Z</time>
      </trkpt>
      <trkpt lat="46.46633" lon="5.31953">
        <ele>238.6</ele>
        <time>2022-06-14T12:39:00Z</time>
      </trkpt>
      <trkpt lat="46.46624" lon="5.31968">
        <ele>239.4</ele>
        <time>2022-06-14T12:39:02Z</time>
      </trkpt>
      <trkpt lat="46.46603" lon="5.32004">
        <ele>239.8</ele>
        <time>2022-06-14T12:39:07Z</time>
      </trkpt>
      <trkpt lat="46.46587" lon="5.32033">
        <ele>240.4</ele>
        <time>2022-06-14T12:39:11Z</time>
      </trkpt>
      <trkpt lat="46.46574" lon="5.32057">
        <ele>240.4</ele>
        <time>2022-06-14T12:39:14Z</time>
      </trkpt>
      <trkpt lat="46.46539" lon="5.32121">
        <ele>240.2</ele>
        <time>2022-06-14T12:39:22Z</time>
      </trkpt>
      <trkpt lat="46.46534" lon="5.32128">
        <ele>240.2</ele>
        <time>2022-06-14T12:39:23Z</time>
      </trkpt>
      <trkpt lat="46.46502" lon="5.32189">
        <ele>240.2</ele>
        <time>2022-06-14T12:39:31Z</time>
      </trkpt>
      <trkpt lat="46.46466" lon="5.32254">
        <ele>240.8</ele>
        <time>2022-06-14T12:39:40Z</time>
      </trkpt>
      <trkpt lat="46.46458" lon="5.3227">
        <ele>240.8</ele>
        <time>2022-06-14T12:39:42Z</time>
      </trkpt>
      <trkpt lat="46.46423" lon="5.32333">
        <ele>240.8</ele>
        <time>2022-06-14T12:39:51Z</time>
      </trkpt>
      <trkpt lat="46.46419" lon="5.3234">
        <ele>240.8</ele>
        <time>2022-06-14T12:39:52Z</time>
      </trkpt>
      <trkpt lat="46.46397" lon="5.32382">
        <ele>241</ele>
        <time>2022-06-14T12:39:58Z</time>
      </trkpt>
      <trkpt lat="46.46372" lon="5.32446">
        <ele>241.4</ele>
        <time>2022-06-14T12:40:06Z</time>
      </trkpt>
      <trkpt lat="46.46345" lon="5.32512">
        <ele>241</ele>
        <time>2022-06-14T12:40:14Z</time>
      </trkpt>
      <trkpt lat="46.46325" lon="5.32573">
        <ele>240.6</ele>
        <time>2022-06-14T12:40:21Z</time>
      </trkpt>
      <trkpt lat="46.46318" lon="5.32632">
        <ele>240.6</ele>
        <time>2022-06-14T12:40:27Z</time>
      </trkpt>
      <trkpt lat="46.46319" lon="5.32719">
        <ele>240.6</ele>
        <time>2022-06-14T12:40:36Z</time>
      </trkpt>
      <trkpt lat="46.46317" lon="5.32757">
        <ele>240.4</ele>
        <time>2022-06-14T12:40:40Z</time>
      </trkpt>
      <trkpt lat="46.46314" lon="5.32772">
        <ele>240.6</ele>
        <time>2022-06-14T12:40:42Z</time>
      </trkpt>
      <trkpt lat="46.46312" lon="5.32781">
        <ele>240.4</ele>
        <time>2022-06-14T12:40:43Z</time>
      </trkpt>
      <trkpt lat="46.46305" lon="5.32797">
        <ele>240.4</ele>
        <time>2022-06-14T12:40:45Z</time>
      </trkpt>
      <trkpt lat="46.46301" lon="5.32803">
        <ele>240.4</ele>
        <time>2022-06-14T12:40:46Z</time>
      </trkpt>
      <trkpt lat="46.46264" lon="5.32855">
        <ele>241</ele>
        <time>2022-06-14T12:40:54Z</time>
      </trkpt>
      <trkpt lat="46.46258" lon="5.32862">
        <ele>241.2</ele>
        <time>2022-06-14T12:40:55Z</time>
      </trkpt>
      <trkpt lat="46.46233" lon="5.32902">
        <ele>241.4</ele>
        <time>2022-06-14T12:41:00Z</time>
      </trkpt>
      <trkpt lat="46.46198" lon="5.32948">
        <ele>241</ele>
        <time>2022-06-14T12:41:06Z</time>
      </trkpt>
      <trkpt lat="46.46171" lon="5.32969">
        <ele>240.6</ele>
        <time>2022-06-14T12:41:10Z</time>
      </trkpt>
      <trkpt lat="46.46157" lon="5.32979">
        <ele>240.6</ele>
        <time>2022-06-14T12:41:12Z</time>
      </trkpt>
      <trkpt lat="46.46125" lon="5.32998">
        <ele>240.8</ele>
        <time>2022-06-14T12:41:17Z</time>
      </trkpt>
      <trkpt lat="46.46097" lon="5.33017">
        <ele>241.6</ele>
        <time>2022-06-14T12:41:22Z</time>
      </trkpt>
      <trkpt lat="46.46087" lon="5.33023">
        <ele>241.8</ele>
        <time>2022-06-14T12:41:24Z</time>
      </trkpt>
      <trkpt lat="46.46082" lon="5.33027">
        <ele>242</ele>
        <time>2022-06-14T12:41:25Z</time>
      </trkpt>
      <trkpt lat="46.46069" lon="5.33036">
        <ele>242.2</ele>
        <time>2022-06-14T12:41:27Z</time>
      </trkpt>
      <trkpt lat="46.46039" lon="5.33063">
        <ele>242.4</ele>
        <time>2022-06-14T12:41:32Z</time>
      </trkpt>
      <trkpt lat="46.45992" lon="5.33107">
        <ele>242.6</ele>
        <time>2022-06-14T12:41:40Z</time>
      </trkpt>
      <trkpt lat="46.45987" lon="5.33113">
        <ele>242.6</ele>
        <time>2022-06-14T12:41:41Z</time>
      </trkpt>
      <trkpt lat="46.4594" lon="5.33162">
        <ele>243</ele>
        <time>2022-06-14T12:41:50Z</time>
      </trkpt>
      <trkpt lat="46.45935" lon="5.33168">
        <ele>243.2</ele>
        <time>2022-06-14T12:41:51Z</time>
      </trkpt>
      <trkpt lat="46.45889" lon="5.33216">
        <ele>243</ele>
        <time>2022-06-14T12:42:00Z</time>
      </trkpt>
      <trkpt lat="46.45853" lon="5.33262">
        <ele>243.2</ele>
        <time>2022-06-14T12:42:08Z</time>
      </trkpt>
      <trkpt lat="46.45829" lon="5.33307">
        <ele>243.6</ele>
        <time>2022-06-14T12:42:15Z</time>
      </trkpt>
      <trkpt lat="46.45798" lon="5.33367">
        <ele>244</ele>
        <time>2022-06-14T12:42:23Z</time>
      </trkpt>
      <trkpt lat="46.45782" lon="5.33404">
        <ele>244.2</ele>
        <time>2022-06-14T12:42:28Z</time>
      </trkpt>
      <trkpt lat="46.45769" lon="5.33435">
        <ele>244.8</ele>
        <time>2022-06-14T12:42:32Z</time>
      </trkpt>
      <trkpt lat="46.45753" lon="5.33474">
        <ele>245.4</ele>
        <time>2022-06-14T12:42:37Z</time>
      </trkpt>
      <trkpt lat="46.45736" lon="5.33515">
        <ele>246</ele>
        <time>2022-06-14T12:42:42Z</time>
      </trkpt>
      <trkpt lat="46.45718" lon="5.33559">
        <ele>246.4</ele>
        <time>2022-06-14T12:42:48Z</time>
      </trkpt>
      <trkpt lat="46.45712" lon="5.33573">
        <ele>246.6</ele>
        <time>2022-06-14T12:42:50Z</time>
      </trkpt>
      <trkpt lat="46.45698" lon="5.33607">
        <ele>247.4</ele>
        <time>2022-06-14T12:42:55Z</time>
      </trkpt>
      <trkpt lat="46.45688" lon="5.3363">
        <ele>247.6</ele>
        <time>2022-06-14T12:42:58Z</time>
      </trkpt>
      <trkpt lat="46.45673" lon="5.33667">
        <ele>248.2</ele>
        <time>2022-06-14T12:43:03Z</time>
      </trkpt>
      <trkpt lat="46.45664" lon="5.33689">
        <ele>248.4</ele>
        <time>2022-06-14T12:43:06Z</time>
      </trkpt>
      <trkpt lat="46.45658" lon="5.33703">
        <ele>248.8</ele>
        <time>2022-06-14T12:43:08Z</time>
      </trkpt>
      <trkpt lat="46.45655" lon="5.3371">
        <ele>249</ele>
        <time>2022-06-14T12:43:09Z</time>
      </trkpt>
      <trkpt lat="46.45645" lon="5.33732">
        <ele>249.6</ele>
        <time>2022-06-14T12:43:12Z</time>
      </trkpt>
      <trkpt lat="46.45638" lon="5.33748">
        <ele>249.8</ele>
        <time>2022-06-14T12:43:15Z</time>
      </trkpt>
      <trkpt lat="46.45633" lon="5.33757">
        <ele>250</ele>
        <time>2022-06-14T12:43:16Z</time>
      </trkpt>
      <trkpt lat="46.45617" lon="5.33797">
        <ele>251</ele>
        <time>2022-06-14T12:43:22Z</time>
      </trkpt>
      <trkpt lat="46.45601" lon="5.33834">
        <ele>252.2</ele>
        <time>2022-06-14T12:43:28Z</time>
      </trkpt>
      <trkpt lat="46.45596" lon="5.33846">
        <ele>252.6</ele>
        <time>2022-06-14T12:43:30Z</time>
      </trkpt>
      <trkpt lat="46.45579" lon="5.33888">
        <ele>253.4</ele>
        <time>2022-06-14T12:43:37Z</time>
      </trkpt>
      <trkpt lat="46.45574" lon="5.33899">
        <ele>253.8</ele>
        <time>2022-06-14T12:43:39Z</time>
      </trkpt>
      <trkpt lat="46.45566" lon="5.33916">
        <ele>254.6</ele>
        <time>2022-06-14T12:43:42Z</time>
      </trkpt>
      <trkpt lat="46.45556" lon="5.33937">
        <ele>255.2</ele>
        <time>2022-06-14T12:43:46Z</time>
      </trkpt>
      <trkpt lat="46.4555" lon="5.33948">
        <ele>255.4</ele>
        <time>2022-06-14T12:43:48Z</time>
      </trkpt>
      <trkpt lat="46.45544" lon="5.33959">
        <ele>255.6</ele>
        <time>2022-06-14T12:43:50Z</time>
      </trkpt>
      <trkpt lat="46.45528" lon="5.33982">
        <ele>256.6</ele>
        <time>2022-06-14T12:43:55Z</time>
      </trkpt>
      <trkpt lat="46.45512" lon="5.33996">
        <ele>257.4</ele>
        <time>2022-06-14T12:43:59Z</time>
      </trkpt>
      <trkpt lat="46.45504" lon="5.34003">
        <ele>257.8</ele>
        <time>2022-06-14T12:44:01Z</time>
      </trkpt>
      <trkpt lat="46.45495" lon="5.3401">
        <ele>258</ele>
        <time>2022-06-14T12:44:03Z</time>
      </trkpt>
      <trkpt lat="46.45483" lon="5.34018">
        <ele>258.8</ele>
        <time>2022-06-14T12:44:06Z</time>
      </trkpt>
      <trkpt lat="46.45471" lon="5.34026">
        <ele>259.2</ele>
        <time>2022-06-14T12:44:09Z</time>
      </trkpt>
      <trkpt lat="46.45467" lon="5.34027">
        <ele>259.4</ele>
        <time>2022-06-14T12:44:10Z</time>
      </trkpt>
      <trkpt lat="46.45454" lon="5.34032">
        <ele>260</ele>
        <time>2022-06-14T12:44:13Z</time>
      </trkpt>
      <trkpt lat="46.45445" lon="5.34034">
        <ele>260.6</ele>
        <time>2022-06-14T12:44:15Z</time>
      </trkpt>
      <trkpt lat="46.4544" lon="5.34035">
        <ele>261</ele>
        <time>2022-06-14T12:44:16Z</time>
      </trkpt>
      <trkpt lat="46.45421" lon="5.34039">
        <ele>262.2</ele>
        <time>2022-06-14T12:44:20Z</time>
      </trkpt>
      <trkpt lat="46.45411" lon="5.34041">
        <ele>262.6</ele>
        <time>2022-06-14T12:44:22Z</time>
      </trkpt>
      <trkpt lat="46.45375" lon="5.3405">
        <ele>263.4</ele>
        <time>2022-06-14T12:44:29Z</time>
      </trkpt>
      <trkpt lat="46.45365" lon="5.34052">
        <ele>263.6</ele>
        <time>2022-06-14T12:44:31Z</time>
      </trkpt>
      <trkpt lat="46.4535" lon="5.34053">
        <ele>264.2</ele>
        <time>2022-06-14T12:44:34Z</time>
      </trkpt>
      <trkpt lat="46.4534" lon="5.34055">
        <ele>264.4</ele>
        <time>2022-06-14T12:44:36Z</time>
      </trkpt>
      <trkpt lat="46.45316" lon="5.34061">
        <ele>265</ele>
        <time>2022-06-14T12:44:41Z</time>
      </trkpt>
      <trkpt lat="46.45278" lon="5.34069">
        <ele>265.6</ele>
        <time>2022-06-14T12:44:48Z</time>
      </trkpt>
      <trkpt lat="46.45241" lon="5.34077">
        <ele>265.8</ele>
        <time>2022-06-14T12:44:55Z</time>
      </trkpt>
      <trkpt lat="46.45185" lon="5.34089">
        <ele>266.8</ele>
        <time>2022-06-14T12:45:06Z</time>
      </trkpt>
      <trkpt lat="46.45129" lon="5.34102">
        <ele>267.8</ele>
        <time>2022-06-14T12:45:17Z</time>
      </trkpt>
      <trkpt lat="46.45118" lon="5.34105">
        <ele>267.8</ele>
        <time>2022-06-14T12:45:19Z</time>
      </trkpt>
      <trkpt lat="46.45081" lon="5.34112">
        <ele>267.6</ele>
        <time>2022-06-14T12:45:25Z</time>
      </trkpt>
      <trkpt lat="46.45039" lon="5.34118">
        <ele>266.8</ele>
        <time>2022-06-14T12:45:31Z</time>
      </trkpt>
      <trkpt lat="46.44997" lon="5.34115">
        <ele>265.8</ele>
        <time>2022-06-14T12:45:36Z</time>
      </trkpt>
      <trkpt lat="46.44971" lon="5.34108">
        <ele>264.6</ele>
        <time>2022-06-14T12:45:39Z</time>
      </trkpt>
      <trkpt lat="46.44943" lon="5.341">
        <ele>263.4</ele>
        <time>2022-06-14T12:45:42Z</time>
      </trkpt>
      <trkpt lat="46.44915" lon="5.34092">
        <ele>262.2</ele>
        <time>2022-06-14T12:45:45Z</time>
      </trkpt>
      <trkpt lat="46.44886" lon="5.34086">
        <ele>261.2</ele>
        <time>2022-06-14T12:45:48Z</time>
      </trkpt>
      <trkpt lat="46.44876" lon="5.34085">
        <ele>260.8</ele>
        <time>2022-06-14T12:45:49Z</time>
      </trkpt>
      <trkpt lat="46.44866" lon="5.34086">
        <ele>260.4</ele>
        <time>2022-06-14T12:45:50Z</time>
      </trkpt>
      <trkpt lat="46.44856" lon="5.34089">
        <ele>260</ele>
        <time>2022-06-14T12:45:51Z</time>
      </trkpt>
      <trkpt lat="46.44837" lon="5.34099">
        <ele>259.4</ele>
        <time>2022-06-14T12:45:53Z</time>
      </trkpt>
      <trkpt lat="46.44821" lon="5.34116">
        <ele>258.8</ele>
        <time>2022-06-14T12:45:55Z</time>
      </trkpt>
      <trkpt lat="46.44815" lon="5.34124">
        <ele>258.4</ele>
        <time>2022-06-14T12:45:56Z</time>
      </trkpt>
      <trkpt lat="46.44808" lon="5.34131">
        <ele>258</ele>
        <time>2022-06-14T12:45:57Z</time>
      </trkpt>
      <trkpt lat="46.44803" lon="5.34133">
        <ele>257.4</ele>
        <time>2022-06-14T12:45:58Z</time>
      </trkpt>
      <trkpt lat="46.44798" lon="5.3413">
        <ele>257</ele>
        <time>2022-06-14T12:45:59Z</time>
      </trkpt>
      <trkpt lat="46.44793" lon="5.34115">
        <ele>256.6</ele>
        <time>2022-06-14T12:46:01Z</time>
      </trkpt>
      <trkpt lat="46.44793" lon="5.34106">
        <ele>256.6</ele>
        <time>2022-06-14T12:46:02Z</time>
      </trkpt>
      <trkpt lat="46.44793" lon="5.34089">
        <ele>256.6</ele>
        <time>2022-06-14T12:46:04Z</time>
      </trkpt>
      <trkpt lat="46.4479" lon="5.34065">
        <ele>257.4</ele>
        <time>2022-06-14T12:46:07Z</time>
      </trkpt>
      <trkpt lat="46.44785" lon="5.34029">
        <ele>258.8</ele>
        <time>2022-06-14T12:46:12Z</time>
      </trkpt>
      <trkpt lat="46.44783" lon="5.34015">
        <ele>259.4</ele>
        <time>2022-06-14T12:46:14Z</time>
      </trkpt>
      <trkpt lat="46.44782" lon="5.34009">
        <ele>259.8</ele>
        <time>2022-06-14T12:46:15Z</time>
      </trkpt>
      <trkpt lat="46.44779" lon="5.33983">
        <ele>261</ele>
        <time>2022-06-14T12:46:19Z</time>
      </trkpt>
      <trkpt lat="46.44777" lon="5.3397">
        <ele>261.4</ele>
        <time>2022-06-14T12:46:21Z</time>
      </trkpt>
      <trkpt lat="46.44773" lon="5.3395">
        <ele>262</ele>
        <time>2022-06-14T12:46:24Z</time>
      </trkpt>
      <trkpt lat="46.44772" lon="5.33936">
        <ele>262.2</ele>
        <time>2022-06-14T12:46:26Z</time>
      </trkpt>
      <trkpt lat="46.44771" lon="5.33928">
        <ele>262.2</ele>
        <time>2022-06-14T12:46:27Z</time>
      </trkpt>
      <trkpt lat="46.44769" lon="5.33903">
        <ele>262.6</ele>
        <time>2022-06-14T12:46:30Z</time>
      </trkpt>
      <trkpt lat="46.44762" lon="5.33889">
        <ele>262.8</ele>
        <time>2022-06-14T12:46:32Z</time>
      </trkpt>
      <trkpt lat="46.44749" lon="5.3388">
        <ele>262.8</ele>
        <time>2022-06-14T12:46:34Z</time>
      </trkpt>
      <trkpt lat="46.44742" lon="5.33876">
        <ele>262.8</ele>
        <time>2022-06-14T12:46:35Z</time>
      </trkpt>
      <trkpt lat="46.44689" lon="5.33853">
        <ele>261.8</ele>
        <time>2022-06-14T12:46:42Z</time>
      </trkpt>
      <trkpt lat="46.44675" lon="5.33845">
        <ele>261.6</ele>
        <time>2022-06-14T12:46:44Z</time>
      </trkpt>
      <trkpt lat="46.44662" lon="5.33832">
        <ele>261.6</ele>
        <time>2022-06-14T12:46:46Z</time>
      </trkpt>
      <trkpt lat="46.44649" lon="5.33803">
        <ele>261.2</ele>
        <time>2022-06-14T12:46:49Z</time>
      </trkpt>
      <trkpt lat="46.44645" lon="5.33792">
        <ele>261</ele>
        <time>2022-06-14T12:46:50Z</time>
      </trkpt>
      <trkpt lat="46.44629" lon="5.33746">
        <ele>259.8</ele>
        <time>2022-06-14T12:46:54Z</time>
      </trkpt>
      <trkpt lat="46.44624" lon="5.33734">
        <ele>259.6</ele>
        <time>2022-06-14T12:46:55Z</time>
      </trkpt>
      <trkpt lat="46.44614" lon="5.33709">
        <ele>258.4</ele>
        <time>2022-06-14T12:46:57Z</time>
      </trkpt>
      <trkpt lat="46.44599" lon="5.33669">
        <ele>257.2</ele>
        <time>2022-06-14T12:47:00Z</time>
      </trkpt>
      <trkpt lat="46.44594" lon="5.33655">
        <ele>256.6</ele>
        <time>2022-06-14T12:47:01Z</time>
      </trkpt>
      <trkpt lat="46.44584" lon="5.33626">
        <ele>255.4</ele>
        <time>2022-06-14T12:47:03Z</time>
      </trkpt>
      <trkpt lat="46.44573" lon="5.33597">
        <ele>254.6</ele>
        <time>2022-06-14T12:47:05Z</time>
      </trkpt>
      <trkpt lat="46.44568" lon="5.33583">
        <ele>253.4</ele>
        <time>2022-06-14T12:47:06Z</time>
      </trkpt>
      <trkpt lat="46.44558" lon="5.33556">
        <ele>252.2</ele>
        <time>2022-06-14T12:47:08Z</time>
      </trkpt>
      <trkpt lat="46.44553" lon="5.33543">
        <ele>252</ele>
        <time>2022-06-14T12:47:09Z</time>
      </trkpt>
      <trkpt lat="46.44544" lon="5.33518">
        <ele>251</ele>
        <time>2022-06-14T12:47:11Z</time>
      </trkpt>
      <trkpt lat="46.44522" lon="5.33459">
        <ele>250.4</ele>
        <time>2022-06-14T12:47:16Z</time>
      </trkpt>
      <trkpt lat="46.44492" lon="5.33384">
        <ele>250.4</ele>
        <time>2022-06-14T12:47:23Z</time>
      </trkpt>
      <trkpt lat="46.44465" lon="5.3334">
        <ele>250.4</ele>
        <time>2022-06-14T12:47:28Z</time>
      </trkpt>
      <trkpt lat="46.44421" lon="5.33293">
        <ele>250.4</ele>
        <time>2022-06-14T12:47:35Z</time>
      </trkpt>
      <trkpt lat="46.44377" lon="5.33246">
        <ele>250</ele>
        <time>2022-06-14T12:47:42Z</time>
      </trkpt>
      <trkpt lat="46.44351" lon="5.33216">
        <ele>249.6</ele>
        <time>2022-06-14T12:47:46Z</time>
      </trkpt>
      <trkpt lat="46.44337" lon="5.33201">
        <ele>249</ele>
        <time>2022-06-14T12:47:48Z</time>
      </trkpt>
      <trkpt lat="46.44321" lon="5.33189">
        <ele>248.4</ele>
        <time>2022-06-14T12:47:50Z</time>
      </trkpt>
      <trkpt lat="46.44303" lon="5.33182">
        <ele>248</ele>
        <time>2022-06-14T12:47:52Z</time>
      </trkpt>
      <trkpt lat="46.44294" lon="5.3318">
        <ele>247.8</ele>
        <time>2022-06-14T12:47:53Z</time>
      </trkpt>
      <trkpt lat="46.44277" lon="5.3318">
        <ele>246.6</ele>
        <time>2022-06-14T12:47:55Z</time>
      </trkpt>
      <trkpt lat="46.44242" lon="5.33182">
        <ele>246</ele>
        <time>2022-06-14T12:47:59Z</time>
      </trkpt>
      <trkpt lat="46.44217" lon="5.33188">
        <ele>246</ele>
        <time>2022-06-14T12:48:02Z</time>
      </trkpt>
      <trkpt lat="46.44202" lon="5.33196">
        <ele>246.2</ele>
        <time>2022-06-14T12:48:04Z</time>
      </trkpt>
      <trkpt lat="46.44172" lon="5.3322">
        <ele>246.8</ele>
        <time>2022-06-14T12:48:09Z</time>
      </trkpt>
      <trkpt lat="46.44151" lon="5.33234">
        <ele>246.8</ele>
        <time>2022-06-14T12:48:13Z</time>
      </trkpt>
      <trkpt lat="46.44142" lon="5.33232">
        <ele>247.2</ele>
        <time>2022-06-14T12:48:15Z</time>
      </trkpt>
      <trkpt lat="46.44139" lon="5.33228">
        <ele>247.2</ele>
        <time>2022-06-14T12:48:16Z</time>
      </trkpt>
      <trkpt lat="46.44136" lon="5.33223">
        <ele>247.4</ele>
        <time>2022-06-14T12:48:17Z</time>
      </trkpt>
      <trkpt lat="46.44131" lon="5.33207">
        <ele>247.4</ele>
        <time>2022-06-14T12:48:19Z</time>
      </trkpt>
      <trkpt lat="46.44123" lon="5.33194">
        <ele>247.4</ele>
        <time>2022-06-14T12:48:21Z</time>
      </trkpt>
      <trkpt lat="46.44116" lon="5.3319">
        <ele>247.4</ele>
        <time>2022-06-14T12:48:22Z</time>
      </trkpt>
      <trkpt lat="46.44109" lon="5.3319">
        <ele>247.4</ele>
        <time>2022-06-14T12:48:23Z</time>
      </trkpt>
      <trkpt lat="46.44097" lon="5.33195">
        <ele>247.4</ele>
        <time>2022-06-14T12:48:25Z</time>
      </trkpt>
      <trkpt lat="46.44061" lon="5.33219">
        <ele>247.6</ele>
        <time>2022-06-14T12:48:31Z</time>
      </trkpt>
      <trkpt lat="46.44048" lon="5.33228">
        <ele>248</ele>
        <time>2022-06-14T12:48:33Z</time>
      </trkpt>
      <trkpt lat="46.44014" lon="5.33248">
        <ele>248</ele>
        <time>2022-06-14T12:48:38Z</time>
      </trkpt>
      <trkpt lat="46.44006" lon="5.33251">
        <ele>248</ele>
        <time>2022-06-14T12:48:39Z</time>
      </trkpt>
      <trkpt lat="46.43966" lon="5.33253">
        <ele>247.6</ele>
        <time>2022-06-14T12:48:44Z</time>
      </trkpt>
      <trkpt lat="46.43919" lon="5.33245">
        <ele>246.8</ele>
        <time>2022-06-14T12:48:50Z</time>
      </trkpt>
      <trkpt lat="46.43912" lon="5.33243">
        <ele>246.6</ele>
        <time>2022-06-14T12:48:51Z</time>
      </trkpt>
      <trkpt lat="46.43868" lon="5.33239">
        <ele>247</ele>
        <time>2022-06-14T12:48:57Z</time>
      </trkpt>
      <trkpt lat="46.43814" lon="5.3324">
        <ele>240.8</ele>
        <time>2022-06-14T12:49:05Z</time>
      </trkpt>
      <trkpt lat="46.43789" lon="5.33242">
        <ele>248</ele>
        <time>2022-06-14T12:49:09Z</time>
      </trkpt>
      <trkpt lat="46.43771" lon="5.33243">
        <ele>248.4</ele>
        <time>2022-06-14T12:49:12Z</time>
      </trkpt>
      <trkpt lat="46.43751" lon="5.33248">
        <ele>248.8</ele>
        <time>2022-06-14T12:49:15Z</time>
      </trkpt>
      <trkpt lat="46.43738" lon="5.33256">
        <ele>248.8</ele>
        <time>2022-06-14T12:49:17Z</time>
      </trkpt>
      <trkpt lat="46.43698" lon="5.33293">
        <ele>247.6</ele>
        <time>2022-06-14T12:49:23Z</time>
      </trkpt>
      <trkpt lat="46.43684" lon="5.33305">
        <ele>246.8</ele>
        <time>2022-06-14T12:49:25Z</time>
      </trkpt>
      <trkpt lat="46.43659" lon="5.3332">
        <ele>245.8</ele>
        <time>2022-06-14T12:49:28Z</time>
      </trkpt>
      <trkpt lat="46.43651" lon="5.33324">
        <ele>245.6</ele>
        <time>2022-06-14T12:49:29Z</time>
      </trkpt>
      <trkpt lat="46.43634" lon="5.33329">
        <ele>244.2</ele>
        <time>2022-06-14T12:49:31Z</time>
      </trkpt>
      <trkpt lat="46.43625" lon="5.33329">
        <ele>243.8</ele>
        <time>2022-06-14T12:49:32Z</time>
      </trkpt>
      <trkpt lat="46.43617" lon="5.33327">
        <ele>243.4</ele>
        <time>2022-06-14T12:49:33Z</time>
      </trkpt>
      <trkpt lat="46.43602" lon="5.33315">
        <ele>242.8</ele>
        <time>2022-06-14T12:49:35Z</time>
      </trkpt>
      <trkpt lat="46.43593" lon="5.33297">
        <ele>242.4</ele>
        <time>2022-06-14T12:49:37Z</time>
      </trkpt>
      <trkpt lat="46.43591" lon="5.33287">
        <ele>242</ele>
        <time>2022-06-14T12:49:38Z</time>
      </trkpt>
      <trkpt lat="46.4359" lon="5.33277">
        <ele>241.8</ele>
        <time>2022-06-14T12:49:39Z</time>
      </trkpt>
      <trkpt lat="46.43589" lon="5.33267">
        <ele>241.6</ele>
        <time>2022-06-14T12:49:40Z</time>
      </trkpt>
      <trkpt lat="46.43591" lon="5.33248">
        <ele>241.4</ele>
        <time>2022-06-14T12:49:42Z</time>
      </trkpt>
      <trkpt lat="46.43592" lon="5.33232">
        <ele>241.4</ele>
        <time>2022-06-14T12:49:44Z</time>
      </trkpt>
      <trkpt lat="46.43594" lon="5.33215">
        <ele>241.6</ele>
        <time>2022-06-14T12:49:46Z</time>
      </trkpt>
      <trkpt lat="46.43595" lon="5.33206">
        <ele>241.8</ele>
        <time>2022-06-14T12:49:47Z</time>
      </trkpt>
      <trkpt lat="46.43596" lon="5.33197">
        <ele>241.8</ele>
        <time>2022-06-14T12:49:48Z</time>
      </trkpt>
      <trkpt lat="46.43598" lon="5.3318">
        <ele>242</ele>
        <time>2022-06-14T12:49:50Z</time>
      </trkpt>
      <trkpt lat="46.43598" lon="5.33172">
        <ele>242.4</ele>
        <time>2022-06-14T12:49:51Z</time>
      </trkpt>
      <trkpt lat="46.43598" lon="5.33163">
        <ele>242.8</ele>
        <time>2022-06-14T12:49:52Z</time>
      </trkpt>
      <trkpt lat="46.43602" lon="5.33149">
        <ele>244</ele>
        <time>2022-06-14T12:49:54Z</time>
      </trkpt>
      <trkpt lat="46.43604" lon="5.33135">
        <ele>244.6</ele>
        <time>2022-06-14T12:49:56Z</time>
      </trkpt>
      <trkpt lat="46.43604" lon="5.33122">
        <ele>245</ele>
        <time>2022-06-14T12:49:58Z</time>
      </trkpt>
      <trkpt lat="46.43604" lon="5.33115">
        <ele>245.2</ele>
        <time>2022-06-14T12:49:59Z</time>
      </trkpt>
      <trkpt lat="46.43602" lon="5.33102">
        <ele>245.6</ele>
        <time>2022-06-14T12:50:01Z</time>
      </trkpt>
      <trkpt lat="46.436" lon="5.33094">
        <ele>245.6</ele>
        <time>2022-06-14T12:50:02Z</time>
      </trkpt>
      <trkpt lat="46.43585" lon="5.33048">
        <ele>246.4</ele>
        <time>2022-06-14T12:50:08Z</time>
      </trkpt>
      <trkpt lat="46.43562" lon="5.32984">
        <ele>246.2</ele>
        <time>2022-06-14T12:50:16Z</time>
      </trkpt>
      <trkpt lat="46.43543" lon="5.32911">
        <ele>246.2</ele>
        <time>2022-06-14T12:50:24Z</time>
      </trkpt>
      <trkpt lat="46.43539" lon="5.32891">
        <ele>246.2</ele>
        <time>2022-06-14T12:50:26Z</time>
      </trkpt>
      <trkpt lat="46.43521" lon="5.32809">
        <ele>245</ele>
        <time>2022-06-14T12:50:34Z</time>
      </trkpt>
      <trkpt lat="46.43519" lon="5.32799">
        <ele>244.8</ele>
        <time>2022-06-14T12:50:35Z</time>
      </trkpt>
      <trkpt lat="46.43514" lon="5.32778">
        <ele>244.8</ele>
        <time>2022-06-14T12:50:37Z</time>
      </trkpt>
      <trkpt lat="46.43509" lon="5.32757">
        <ele>244.8</ele>
        <time>2022-06-14T12:50:39Z</time>
      </trkpt>
      <trkpt lat="46.43502" lon="5.32723">
        <ele>244.4</ele>
        <time>2022-06-14T12:50:42Z</time>
      </trkpt>
      <trkpt lat="46.43496" lon="5.32688">
        <ele>243.8</ele>
        <time>2022-06-14T12:50:45Z</time>
      </trkpt>
      <trkpt lat="46.43488" lon="5.32652">
        <ele>243.4</ele>
        <time>2022-06-14T12:50:48Z</time>
      </trkpt>
      <trkpt lat="46.4348" lon="5.32617">
        <ele>242.2</ele>
        <time>2022-06-14T12:50:51Z</time>
      </trkpt>
      <trkpt lat="46.43478" lon="5.32605">
        <ele>241.8</ele>
        <time>2022-06-14T12:50:52Z</time>
      </trkpt>
      <trkpt lat="46.43473" lon="5.32569">
        <ele>241</ele>
        <time>2022-06-14T12:50:55Z</time>
      </trkpt>
      <trkpt lat="46.43468" lon="5.32522">
        <ele>240.8</ele>
        <time>2022-06-14T12:50:59Z</time>
      </trkpt>
      <trkpt lat="46.43466" lon="5.32499">
        <ele>240.2</ele>
        <time>2022-06-14T12:51:01Z</time>
      </trkpt>
      <trkpt lat="46.43465" lon="5.32488">
        <ele>240.2</ele>
        <time>2022-06-14T12:51:02Z</time>
      </trkpt>
      <trkpt lat="46.43465" lon="5.32476">
        <ele>240.2</ele>
        <time>2022-06-14T12:51:03Z</time>
      </trkpt>
      <trkpt lat="46.43467" lon="5.3242">
        <ele>239.8</ele>
        <time>2022-06-14T12:51:08Z</time>
      </trkpt>
      <trkpt lat="46.43478" lon="5.32368">
        <ele>239.8</ele>
        <time>2022-06-14T12:51:13Z</time>
      </trkpt>
      <trkpt lat="46.4348" lon="5.32358">
        <ele>239.8</ele>
        <time>2022-06-14T12:51:14Z</time>
      </trkpt>
      <trkpt lat="46.43496" lon="5.32302">
        <ele>239.4</ele>
        <time>2022-06-14T12:51:19Z</time>
      </trkpt>
      <trkpt lat="46.435" lon="5.32289">
        <ele>239.2</ele>
        <time>2022-06-14T12:51:20Z</time>
      </trkpt>
      <trkpt lat="46.43513" lon="5.3225">
        <ele>238</ele>
        <time>2022-06-14T12:51:23Z</time>
      </trkpt>
      <trkpt lat="46.43522" lon="5.32223">
        <ele>236.6</ele>
        <time>2022-06-14T12:51:25Z</time>
      </trkpt>
      <trkpt lat="46.4353" lon="5.32195">
        <ele>235.6</ele>
        <time>2022-06-14T12:51:27Z</time>
      </trkpt>
      <trkpt lat="46.43537" lon="5.32165">
        <ele>234</ele>
        <time>2022-06-14T12:51:29Z</time>
      </trkpt>
      <trkpt lat="46.43541" lon="5.3215">
        <ele>233</ele>
        <time>2022-06-14T12:51:30Z</time>
      </trkpt>
      <trkpt lat="46.43544" lon="5.32134">
        <ele>232.6</ele>
        <time>2022-06-14T12:51:31Z</time>
      </trkpt>
      <trkpt lat="46.43554" lon="5.32087">
        <ele>231.2</ele>
        <time>2022-06-14T12:51:34Z</time>
      </trkpt>
      <trkpt lat="46.4356" lon="5.32054">
        <ele>229.6</ele>
        <time>2022-06-14T12:51:36Z</time>
      </trkpt>
      <trkpt lat="46.43566" lon="5.32021">
        <ele>228.2</ele>
        <time>2022-06-14T12:51:38Z</time>
      </trkpt>
      <trkpt lat="46.43569" lon="5.32004">
        <ele>227.2</ele>
        <time>2022-06-14T12:51:39Z</time>
      </trkpt>
      <trkpt lat="46.43576" lon="5.31971">
        <ele>225.2</ele>
        <time>2022-06-14T12:51:41Z</time>
      </trkpt>
      <trkpt lat="46.43579" lon="5.31955">
        <ele>224.8</ele>
        <time>2022-06-14T12:51:42Z</time>
      </trkpt>
      <trkpt lat="46.43583" lon="5.31939">
        <ele>223.8</ele>
        <time>2022-06-14T12:51:43Z</time>
      </trkpt>
      <trkpt lat="46.43589" lon="5.31908">
        <ele>222.4</ele>
        <time>2022-06-14T12:51:45Z</time>
      </trkpt>
      <trkpt lat="46.43597" lon="5.31865">
        <ele>221.6</ele>
        <time>2022-06-14T12:51:48Z</time>
      </trkpt>
      <trkpt lat="46.43602" lon="5.31836">
        <ele>221.2</ele>
        <time>2022-06-14T12:51:50Z</time>
      </trkpt>
      <trkpt lat="46.43606" lon="5.31781">
        <ele>221.2</ele>
        <time>2022-06-14T12:51:54Z</time>
      </trkpt>
      <trkpt lat="46.43609" lon="5.31704">
        <ele>221.6</ele>
        <time>2022-06-14T12:52:00Z</time>
      </trkpt>
      <trkpt lat="46.4361" lon="5.31671">
        <ele>222.2</ele>
        <time>2022-06-14T12:52:03Z</time>
      </trkpt>
      <trkpt lat="46.43614" lon="5.31652">
        <ele>222.2</ele>
        <time>2022-06-14T12:52:05Z</time>
      </trkpt>
      <trkpt lat="46.43621" lon="5.31626">
        <ele>222.6</ele>
        <time>2022-06-14T12:52:08Z</time>
      </trkpt>
      <trkpt lat="46.43626" lon="5.31612">
        <ele>223.4</ele>
        <time>2022-06-14T12:52:10Z</time>
      </trkpt>
      <trkpt lat="46.43628" lon="5.31605">
        <ele>223.6</ele>
        <time>2022-06-14T12:52:11Z</time>
      </trkpt>
      <trkpt lat="46.43633" lon="5.31586">
        <ele>225</ele>
        <time>2022-06-14T12:52:14Z</time>
      </trkpt>
      <trkpt lat="46.43635" lon="5.3158">
        <ele>225.2</ele>
        <time>2022-06-14T12:52:15Z</time>
      </trkpt>
      <trkpt lat="46.43641" lon="5.31565">
        <ele>226.2</ele>
        <time>2022-06-14T12:52:17Z</time>
      </trkpt>
      <trkpt lat="46.43648" lon="5.31547">
        <ele>227.4</ele>
        <time>2022-06-14T12:52:20Z</time>
      </trkpt>
      <trkpt lat="46.43654" lon="5.3153">
        <ele>228.4</ele>
        <time>2022-06-14T12:52:23Z</time>
      </trkpt>
      <trkpt lat="46.43662" lon="5.31513">
        <ele>229.6</ele>
        <time>2022-06-14T12:52:26Z</time>
      </trkpt>
      <trkpt lat="46.4367" lon="5.31491">
        <ele>230.8</ele>
        <time>2022-06-14T12:52:30Z</time>
      </trkpt>
      <trkpt lat="46.43677" lon="5.31475">
        <ele>231.8</ele>
        <time>2022-06-14T12:52:33Z</time>
      </trkpt>
      <trkpt lat="46.43686" lon="5.31449">
        <ele>233</ele>
        <time>2022-06-14T12:52:38Z</time>
      </trkpt>
      <trkpt lat="46.43694" lon="5.31432">
        <ele>233.6</ele>
        <time>2022-06-14T12:52:41Z</time>
      </trkpt>
      <trkpt lat="46.43697" lon="5.31425">
        <ele>233.8</ele>
        <time>2022-06-14T12:52:42Z</time>
      </trkpt>
      <trkpt lat="46.43704" lon="5.31413">
        <ele>234</ele>
        <time>2022-06-14T12:52:44Z</time>
      </trkpt>
      <trkpt lat="46.43721" lon="5.31378">
        <ele>234.4</ele>
        <time>2022-06-14T12:52:49Z</time>
      </trkpt>
      <trkpt lat="46.4375" lon="5.31317">
        <ele>234.4</ele>
        <time>2022-06-14T12:52:57Z</time>
      </trkpt>
      <trkpt lat="46.43771" lon="5.31275">
        <ele>234</ele>
        <time>2022-06-14T12:53:02Z</time>
      </trkpt>
      <trkpt lat="46.43775" lon="5.31266">
        <ele>233.6</ele>
        <time>2022-06-14T12:53:03Z</time>
      </trkpt>
      <trkpt lat="46.43792" lon="5.3123">
        <ele>233</ele>
        <time>2022-06-14T12:53:07Z</time>
      </trkpt>
      <trkpt lat="46.43807" lon="5.31196">
        <ele>232.4</ele>
        <time>2022-06-14T12:53:11Z</time>
      </trkpt>
      <trkpt lat="46.43823" lon="5.31158">
        <ele>232.8</ele>
        <time>2022-06-14T12:53:16Z</time>
      </trkpt>
      <trkpt lat="46.43835" lon="5.31131">
        <ele>234.2</ele>
        <time>2022-06-14T12:53:20Z</time>
      </trkpt>
      <trkpt lat="46.43844" lon="5.31114">
        <ele>234.8</ele>
        <time>2022-06-14T12:53:23Z</time>
      </trkpt>
      <trkpt lat="46.43851" lon="5.31105">
        <ele>235.4</ele>
        <time>2022-06-14T12:53:25Z</time>
      </trkpt>
      <trkpt lat="46.43862" lon="5.3109">
        <ele>236</ele>
        <time>2022-06-14T12:53:28Z</time>
      </trkpt>
      <trkpt lat="46.43872" lon="5.31075">
        <ele>236.4</ele>
        <time>2022-06-14T12:53:31Z</time>
      </trkpt>
      <trkpt lat="46.43877" lon="5.3107">
        <ele>236.4</ele>
        <time>2022-06-14T12:53:32Z</time>
      </trkpt>
      <trkpt lat="46.43888" lon="5.31056">
        <ele>237</ele>
        <time>2022-06-14T12:53:35Z</time>
      </trkpt>
      <trkpt lat="46.43899" lon="5.31042">
        <ele>237.6</ele>
        <time>2022-06-14T12:53:38Z</time>
      </trkpt>
      <trkpt lat="46.43915" lon="5.3102">
        <ele>238.4</ele>
        <time>2022-06-14T12:53:42Z</time>
      </trkpt>
      <trkpt lat="46.43918" lon="5.31015">
        <ele>238.6</ele>
        <time>2022-06-14T12:53:43Z</time>
      </trkpt>
      <trkpt lat="46.43933" lon="5.30991">
        <ele>239.4</ele>
        <time>2022-06-14T12:53:48Z</time>
      </trkpt>
      <trkpt lat="46.43945" lon="5.30973">
        <ele>239.6</ele>
        <time>2022-06-14T12:53:51Z</time>
      </trkpt>
      <trkpt lat="46.43973" lon="5.3093">
        <ele>239.4</ele>
        <time>2022-06-14T12:53:57Z</time>
      </trkpt>
      <trkpt lat="46.43989" lon="5.30898">
        <ele>239.2</ele>
        <time>2022-06-14T12:54:01Z</time>
      </trkpt>
      <trkpt lat="46.43994" lon="5.3088">
        <ele>238.8</ele>
        <time>2022-06-14T12:54:03Z</time>
      </trkpt>
      <trkpt lat="46.43996" lon="5.30861">
        <ele>238.6</ele>
        <time>2022-06-14T12:54:05Z</time>
      </trkpt>
      <trkpt lat="46.43996" lon="5.30841">
        <ele>238.4</ele>
        <time>2022-06-14T12:54:07Z</time>
      </trkpt>
      <trkpt lat="46.43995" lon="5.30831">
        <ele>238.4</ele>
        <time>2022-06-14T12:54:08Z</time>
      </trkpt>
      <trkpt lat="46.43984" lon="5.30747">
        <ele>238.8</ele>
        <time>2022-06-14T12:54:17Z</time>
      </trkpt>
      <trkpt lat="46.43983" lon="5.3072">
        <ele>239.4</ele>
        <time>2022-06-14T12:54:20Z</time>
      </trkpt>
      <trkpt lat="46.43984" lon="5.30693">
        <ele>239.8</ele>
        <time>2022-06-14T12:54:23Z</time>
      </trkpt>
      <trkpt lat="46.43994" lon="5.30615">
        <ele>240.4</ele>
        <time>2022-06-14T12:54:32Z</time>
      </trkpt>
      <trkpt lat="46.43995" lon="5.30606">
        <ele>240.4</ele>
        <time>2022-06-14T12:54:33Z</time>
      </trkpt>
      <trkpt lat="46.43995" lon="5.30549">
        <ele>241.4</ele>
        <time>2022-06-14T12:54:39Z</time>
      </trkpt>
      <trkpt lat="46.4399" lon="5.3048">
        <ele>241.6</ele>
        <time>2022-06-14T12:54:46Z</time>
      </trkpt>
      <trkpt lat="46.43988" lon="5.30469">
        <ele>241.6</ele>
        <time>2022-06-14T12:54:47Z</time>
      </trkpt>
      <trkpt lat="46.43981" lon="5.30403">
        <ele>241.4</ele>
        <time>2022-06-14T12:54:53Z</time>
      </trkpt>
      <trkpt lat="46.43973" lon="5.30325">
        <ele>241</ele>
        <time>2022-06-14T12:55:00Z</time>
      </trkpt>
      <trkpt lat="46.43971" lon="5.30314">
        <ele>240.8</ele>
        <time>2022-06-14T12:55:01Z</time>
      </trkpt>
      <trkpt lat="46.43969" lon="5.30304">
        <ele>240.6</ele>
        <time>2022-06-14T12:55:02Z</time>
      </trkpt>
      <trkpt lat="46.43954" lon="5.30251">
        <ele>240.4</ele>
        <time>2022-06-14T12:55:07Z</time>
      </trkpt>
      <trkpt lat="46.43939" lon="5.30189">
        <ele>240</ele>
        <time>2022-06-14T12:55:13Z</time>
      </trkpt>
      <trkpt lat="46.43931" lon="5.30159">
        <ele>239.6</ele>
        <time>2022-06-14T12:55:16Z</time>
      </trkpt>
      <trkpt lat="46.43918" lon="5.30121">
        <ele>239.8</ele>
        <time>2022-06-14T12:55:20Z</time>
      </trkpt>
      <trkpt lat="46.43891" lon="5.30047">
        <ele>240.6</ele>
        <time>2022-06-14T12:55:28Z</time>
      </trkpt>
      <trkpt lat="46.43886" lon="5.30039">
        <ele>240.6</ele>
        <time>2022-06-14T12:55:29Z</time>
      </trkpt>
      <trkpt lat="46.43875" lon="5.30024">
        <ele>240.6</ele>
        <time>2022-06-14T12:55:31Z</time>
      </trkpt>
      <trkpt lat="46.43869" lon="5.30019">
        <ele>240.6</ele>
        <time>2022-06-14T12:55:32Z</time>
      </trkpt>
      <trkpt lat="46.43822" lon="5.29985">
        <ele>240.6</ele>
        <time>2022-06-14T12:55:39Z</time>
      </trkpt>
      <trkpt lat="46.4377" lon="5.29948">
        <ele>240.2</ele>
        <time>2022-06-14T12:55:47Z</time>
      </trkpt>
      <trkpt lat="46.43763" lon="5.29944">
        <ele>240.2</ele>
        <time>2022-06-14T12:55:48Z</time>
      </trkpt>
      <trkpt lat="46.43711" lon="5.29899">
        <ele>240</ele>
        <time>2022-06-14T12:55:56Z</time>
      </trkpt>
      <trkpt lat="46.43671" lon="5.29857">
        <ele>239.2</ele>
        <time>2022-06-14T12:56:02Z</time>
      </trkpt>
      <trkpt lat="46.43665" lon="5.29848">
        <ele>238.8</ele>
        <time>2022-06-14T12:56:03Z</time>
      </trkpt>
      <trkpt lat="46.4366" lon="5.29839">
        <ele>238.6</ele>
        <time>2022-06-14T12:56:04Z</time>
      </trkpt>
      <trkpt lat="46.43656" lon="5.29827">
        <ele>238.6</ele>
        <time>2022-06-14T12:56:05Z</time>
      </trkpt>
      <trkpt lat="46.43653" lon="5.29803">
        <ele>238</ele>
        <time>2022-06-14T12:56:07Z</time>
      </trkpt>
      <trkpt lat="46.43654" lon="5.29791">
        <ele>237.8</ele>
        <time>2022-06-14T12:56:08Z</time>
      </trkpt>
      <trkpt lat="46.43655" lon="5.29779">
        <ele>237.6</ele>
        <time>2022-06-14T12:56:09Z</time>
      </trkpt>
      <trkpt lat="46.43665" lon="5.29733">
        <ele>237.6</ele>
        <time>2022-06-14T12:56:13Z</time>
      </trkpt>
      <trkpt lat="46.43683" lon="5.29658">
        <ele>238</ele>
        <time>2022-06-14T12:56:20Z</time>
      </trkpt>
      <trkpt lat="46.43685" lon="5.29648">
        <ele>238</ele>
        <time>2022-06-14T12:56:21Z</time>
      </trkpt>
      <trkpt lat="46.43705" lon="5.29565">
        <ele>238.8</ele>
        <time>2022-06-14T12:56:29Z</time>
      </trkpt>
      <trkpt lat="46.43709" lon="5.29543">
        <ele>238.8</ele>
        <time>2022-06-14T12:56:31Z</time>
      </trkpt>
      <trkpt lat="46.43722" lon="5.29488">
        <ele>238.4</ele>
        <time>2022-06-14T12:56:36Z</time>
      </trkpt>
      <trkpt lat="46.43732" lon="5.29443">
        <ele>237.6</ele>
        <time>2022-06-14T12:56:40Z</time>
      </trkpt>
      <trkpt lat="46.43741" lon="5.2939">
        <ele>236.8</ele>
        <time>2022-06-14T12:56:45Z</time>
      </trkpt>
      <trkpt lat="46.43742" lon="5.29369">
        <ele>236.6</ele>
        <time>2022-06-14T12:56:47Z</time>
      </trkpt>
      <trkpt lat="46.4374" lon="5.29347">
        <ele>236.6</ele>
        <time>2022-06-14T12:56:49Z</time>
      </trkpt>
      <trkpt lat="46.43726" lon="5.29264">
        <ele>236.6</ele>
        <time>2022-06-14T12:56:57Z</time>
      </trkpt>
      <trkpt lat="46.43714" lon="5.29211">
        <ele>236.4</ele>
        <time>2022-06-14T12:57:02Z</time>
      </trkpt>
      <trkpt lat="46.43699" lon="5.29147">
        <ele>236.2</ele>
        <time>2022-06-14T12:57:08Z</time>
      </trkpt>
      <trkpt lat="46.43678" lon="5.29066">
        <ele>236.2</ele>
        <time>2022-06-14T12:57:16Z</time>
      </trkpt>
      <trkpt lat="46.43675" lon="5.29055">
        <ele>236.2</ele>
        <time>2022-06-14T12:57:17Z</time>
      </trkpt>
      <trkpt lat="46.43662" lon="5.28996">
        <ele>235.4</ele>
        <time>2022-06-14T12:57:22Z</time>
      </trkpt>
      <trkpt lat="46.43661" lon="5.28957">
        <ele>234.2</ele>
        <time>2022-06-14T12:57:25Z</time>
      </trkpt>
      <trkpt lat="46.43662" lon="5.28939">
        <ele>234</ele>
        <time>2022-06-14T12:57:26Z</time>
      </trkpt>
      <trkpt lat="46.43663" lon="5.28923">
        <ele>232.8</ele>
        <time>2022-06-14T12:57:27Z</time>
      </trkpt>
      <trkpt lat="46.43669" lon="5.28877">
        <ele>230.6</ele>
        <time>2022-06-14T12:57:30Z</time>
      </trkpt>
      <trkpt lat="46.43672" lon="5.28847">
        <ele>229.2</ele>
        <time>2022-06-14T12:57:32Z</time>
      </trkpt>
      <trkpt lat="46.43687" lon="5.28766">
        <ele>228.4</ele>
        <time>2022-06-14T12:57:38Z</time>
      </trkpt>
      <trkpt lat="46.43707" lon="5.28707">
        <ele>228.6</ele>
        <time>2022-06-14T12:57:43Z</time>
      </trkpt>
      <trkpt lat="46.43724" lon="5.28654">
        <ele>228.2</ele>
        <time>2022-06-14T12:57:47Z</time>
      </trkpt>
      <trkpt lat="46.43727" lon="5.2864">
        <ele>227.6</ele>
        <time>2022-06-14T12:57:48Z</time>
      </trkpt>
      <trkpt lat="46.43732" lon="5.28607">
        <ele>226.6</ele>
        <time>2022-06-14T12:57:50Z</time>
      </trkpt>
      <trkpt lat="46.43736" lon="5.28573">
        <ele>225.6</ele>
        <time>2022-06-14T12:57:52Z</time>
      </trkpt>
      <trkpt lat="46.43739" lon="5.28555">
        <ele>224.6</ele>
        <time>2022-06-14T12:57:53Z</time>
      </trkpt>
      <trkpt lat="46.43744" lon="5.28519">
        <ele>222.4</ele>
        <time>2022-06-14T12:57:55Z</time>
      </trkpt>
      <trkpt lat="46.43747" lon="5.28502">
        <ele>221</ele>
        <time>2022-06-14T12:57:56Z</time>
      </trkpt>
      <trkpt lat="46.43752" lon="5.28466">
        <ele>218.8</ele>
        <time>2022-06-14T12:57:58Z</time>
      </trkpt>
      <trkpt lat="46.43758" lon="5.28432">
        <ele>217.2</ele>
        <time>2022-06-14T12:58:00Z</time>
      </trkpt>
      <trkpt lat="46.43761" lon="5.28416">
        <ele>216.8</ele>
        <time>2022-06-14T12:58:01Z</time>
      </trkpt>
      <trkpt lat="46.43766" lon="5.284">
        <ele>216</ele>
        <time>2022-06-14T12:58:02Z</time>
      </trkpt>
      <trkpt lat="46.43771" lon="5.28386">
        <ele>215.2</ele>
        <time>2022-06-14T12:58:03Z</time>
      </trkpt>
      <trkpt lat="46.43776" lon="5.28372">
        <ele>215</ele>
        <time>2022-06-14T12:58:04Z</time>
      </trkpt>
      <trkpt lat="46.43783" lon="5.2836">
        <ele>214.4</ele>
        <time>2022-06-14T12:58:05Z</time>
      </trkpt>
      <trkpt lat="46.43805" lon="5.28325">
        <ele>214</ele>
        <time>2022-06-14T12:58:08Z</time>
      </trkpt>
      <trkpt lat="46.43812" lon="5.28314">
        <ele>213.8</ele>
        <time>2022-06-14T12:58:09Z</time>
      </trkpt>
      <trkpt lat="46.43838" lon="5.28266">
        <ele>213.8</ele>
        <time>2022-06-14T12:58:13Z</time>
      </trkpt>
      <trkpt lat="46.43845" lon="5.28237">
        <ele>213.8</ele>
        <time>2022-06-14T12:58:15Z</time>
      </trkpt>
      <trkpt lat="46.43846" lon="5.28222">
        <ele>213.4</ele>
        <time>2022-06-14T12:58:16Z</time>
      </trkpt>
      <trkpt lat="46.43846" lon="5.28207">
        <ele>212.6</ele>
        <time>2022-06-14T12:58:17Z</time>
      </trkpt>
      <trkpt lat="46.43842" lon="5.28176">
        <ele>211.6</ele>
        <time>2022-06-14T12:58:19Z</time>
      </trkpt>
      <trkpt lat="46.43839" lon="5.28161">
        <ele>211.4</ele>
        <time>2022-06-14T12:58:20Z</time>
      </trkpt>
      <trkpt lat="46.43831" lon="5.28116">
        <ele>210.4</ele>
        <time>2022-06-14T12:58:23Z</time>
      </trkpt>
      <trkpt lat="46.43818" lon="5.28044">
        <ele>209.2</ele>
        <time>2022-06-14T12:58:28Z</time>
      </trkpt>
      <trkpt lat="46.43816" lon="5.2803">
        <ele>209.2</ele>
        <time>2022-06-14T12:58:29Z</time>
      </trkpt>
      <trkpt lat="46.43802" lon="5.2795">
        <ele>208.8</ele>
        <time>2022-06-14T12:58:35Z</time>
      </trkpt>
      <trkpt lat="46.43799" lon="5.27937">
        <ele>208.8</ele>
        <time>2022-06-14T12:58:36Z</time>
      </trkpt>
      <trkpt lat="46.43786" lon="5.27855">
        <ele>209.2</ele>
        <time>2022-06-14T12:58:42Z</time>
      </trkpt>
      <trkpt lat="46.43785" lon="5.27843">
        <ele>209.4</ele>
        <time>2022-06-14T12:58:44Z</time>
      </trkpt>
      <trkpt lat="46.43775" lon="5.27766">
        <ele>209.4</ele>
        <time>2022-06-14T12:58:50Z</time>
      </trkpt>
      <trkpt lat="46.43771" lon="5.27731">
        <ele>209.2</ele>
        <time>2022-06-14T12:58:53Z</time>
      </trkpt>
      <trkpt lat="46.4376" lon="5.27654">
        <ele>209.2</ele>
        <time>2022-06-14T12:59:00Z</time>
      </trkpt>
      <trkpt lat="46.43758" lon="5.27633">
        <ele>209.6</ele>
        <time>2022-06-14T12:59:02Z</time>
      </trkpt>
      <trkpt lat="46.43753" lon="5.27552">
        <ele>209.8</ele>
        <time>2022-06-14T12:59:09Z</time>
      </trkpt>
      <trkpt lat="46.43759" lon="5.27498">
        <ele>209.4</ele>
        <time>2022-06-14T12:59:14Z</time>
      </trkpt>
      <trkpt lat="46.4377" lon="5.27448">
        <ele>209.8</ele>
        <time>2022-06-14T12:59:20Z</time>
      </trkpt>
      <trkpt lat="46.43776" lon="5.27419">
        <ele>210.6</ele>
        <time>2022-06-14T12:59:24Z</time>
      </trkpt>
      <trkpt lat="46.43781" lon="5.27398">
        <ele>211.4</ele>
        <time>2022-06-14T12:59:27Z</time>
      </trkpt>
      <trkpt lat="46.43782" lon="5.27391">
        <ele>211.8</ele>
        <time>2022-06-14T12:59:28Z</time>
      </trkpt>
      <trkpt lat="46.43786" lon="5.27372">
        <ele>213</ele>
        <time>2022-06-14T12:59:31Z</time>
      </trkpt>
      <trkpt lat="46.4379" lon="5.27352">
        <ele>214</ele>
        <time>2022-06-14T12:59:34Z</time>
      </trkpt>
      <trkpt lat="46.43792" lon="5.27345">
        <ele>214</ele>
        <time>2022-06-14T12:59:35Z</time>
      </trkpt>
      <trkpt lat="46.438" lon="5.2731">
        <ele>215.2</ele>
        <time>2022-06-14T12:59:40Z</time>
      </trkpt>
      <trkpt lat="46.43804" lon="5.27291">
        <ele>215.8</ele>
        <time>2022-06-14T12:59:42Z</time>
      </trkpt>
      <trkpt lat="46.43813" lon="5.2725">
        <ele>216.4</ele>
        <time>2022-06-14T12:59:48Z</time>
      </trkpt>
      <trkpt lat="46.43816" lon="5.27235">
        <ele>216.6</ele>
        <time>2022-06-14T12:59:50Z</time>
      </trkpt>
      <trkpt lat="46.4383" lon="5.27181">
        <ele>216.6</ele>
        <time>2022-06-14T12:59:57Z</time>
      </trkpt>
      <trkpt lat="46.43851" lon="5.27101">
        <ele>217.2</ele>
        <time>2022-06-14T13:00:07Z</time>
      </trkpt>
      <trkpt lat="46.43861" lon="5.27066">
        <ele>217.4</ele>
        <time>2022-06-14T13:00:11Z</time>
      </trkpt>
      <trkpt lat="46.43873" lon="5.2702">
        <ele>217.6</ele>
        <time>2022-06-14T13:00:16Z</time>
      </trkpt>
      <trkpt lat="46.43893" lon="5.26944">
        <ele>217.2</ele>
        <time>2022-06-14T13:00:24Z</time>
      </trkpt>
      <trkpt lat="46.43896" lon="5.26934">
        <ele>217.2</ele>
        <time>2022-06-14T13:00:25Z</time>
      </trkpt>
      <trkpt lat="46.43916" lon="5.26865">
        <ele>216.4</ele>
        <time>2022-06-14T13:00:32Z</time>
      </trkpt>
      <trkpt lat="46.43925" lon="5.26847">
        <ele>216.2</ele>
        <time>2022-06-14T13:00:34Z</time>
      </trkpt>
      <trkpt lat="46.43941" lon="5.26828">
        <ele>216</ele>
        <time>2022-06-14T13:00:37Z</time>
      </trkpt>
      <trkpt lat="46.43946" lon="5.2682">
        <ele>216</ele>
        <time>2022-06-14T13:00:38Z</time>
      </trkpt>
      <trkpt lat="46.4395" lon="5.26812">
        <ele>215.8</ele>
        <time>2022-06-14T13:00:39Z</time>
      </trkpt>
      <trkpt lat="46.43954" lon="5.26793">
        <ele>215.6</ele>
        <time>2022-06-14T13:00:41Z</time>
      </trkpt>
      <trkpt lat="46.43951" lon="5.26765">
        <ele>215.6</ele>
        <time>2022-06-14T13:00:44Z</time>
      </trkpt>
      <trkpt lat="46.43951" lon="5.26754">
        <ele>215.6</ele>
        <time>2022-06-14T13:00:45Z</time>
      </trkpt>
      <trkpt lat="46.43954" lon="5.26727">
        <ele>215.6</ele>
        <time>2022-06-14T13:00:47Z</time>
      </trkpt>
      <trkpt lat="46.43965" lon="5.26684">
        <ele>215.4</ele>
        <time>2022-06-14T13:00:51Z</time>
      </trkpt>
      <trkpt lat="46.43967" lon="5.26673">
        <ele>215.2</ele>
        <time>2022-06-14T13:00:52Z</time>
      </trkpt>
      <trkpt lat="46.43973" lon="5.26652">
        <ele>215.2</ele>
        <time>2022-06-14T13:00:54Z</time>
      </trkpt>
      <trkpt lat="46.43993" lon="5.26576">
        <ele>215.6</ele>
        <time>2022-06-14T13:01:02Z</time>
      </trkpt>
      <trkpt lat="46.43996" lon="5.26567">
        <ele>215.8</ele>
        <time>2022-06-14T13:01:03Z</time>
      </trkpt>
      <trkpt lat="46.44004" lon="5.26536">
        <ele>216.6</ele>
        <time>2022-06-14T13:01:07Z</time>
      </trkpt>
      <trkpt lat="46.4401" lon="5.26516">
        <ele>217.8</ele>
        <time>2022-06-14T13:01:10Z</time>
      </trkpt>
      <trkpt lat="46.44019" lon="5.26484">
        <ele>219.2</ele>
        <time>2022-06-14T13:01:15Z</time>
      </trkpt>
      <trkpt lat="46.44024" lon="5.26463">
        <ele>220</ele>
        <time>2022-06-14T13:01:18Z</time>
      </trkpt>
      <trkpt lat="46.44025" lon="5.26456">
        <ele>220.2</ele>
        <time>2022-06-14T13:01:19Z</time>
      </trkpt>
      <trkpt lat="46.4404" lon="5.26412">
        <ele>221.4</ele>
        <time>2022-06-14T13:01:26Z</time>
      </trkpt>
      <trkpt lat="46.44047" lon="5.26381">
        <ele>223</ele>
        <time>2022-06-14T13:01:31Z</time>
      </trkpt>
      <trkpt lat="46.44053" lon="5.26364">
        <ele>223.4</ele>
        <time>2022-06-14T13:01:34Z</time>
      </trkpt>
      <trkpt lat="46.44055" lon="5.26359">
        <ele>223.6</ele>
        <time>2022-06-14T13:01:35Z</time>
      </trkpt>
      <trkpt lat="46.44059" lon="5.26348">
        <ele>224</ele>
        <time>2022-06-14T13:01:37Z</time>
      </trkpt>
      <trkpt lat="46.44071" lon="5.26322">
        <ele>225.2</ele>
        <time>2022-06-14T13:01:42Z</time>
      </trkpt>
      <trkpt lat="46.44081" lon="5.26297">
        <ele>226.2</ele>
        <time>2022-06-14T13:01:47Z</time>
      </trkpt>
      <trkpt lat="46.44083" lon="5.26292">
        <ele>226.4</ele>
        <time>2022-06-14T13:01:48Z</time>
      </trkpt>
      <trkpt lat="46.44086" lon="5.26288">
        <ele>226.8</ele>
        <time>2022-06-14T13:01:49Z</time>
      </trkpt>
      <trkpt lat="46.4409" lon="5.26275">
        <ele>227.4</ele>
        <time>2022-06-14T13:01:51Z</time>
      </trkpt>
      <trkpt lat="46.44094" lon="5.26263">
        <ele>228</ele>
        <time>2022-06-14T13:01:54Z</time>
      </trkpt>
      <trkpt lat="46.441" lon="5.26249">
        <ele>228.4</ele>
        <time>2022-06-14T13:01:57Z</time>
      </trkpt>
      <trkpt lat="46.44107" lon="5.2623">
        <ele>229.2</ele>
        <time>2022-06-14T13:02:01Z</time>
      </trkpt>
      <trkpt lat="46.44111" lon="5.2622">
        <ele>229.8</ele>
        <time>2022-06-14T13:02:03Z</time>
      </trkpt>
      <trkpt lat="46.44122" lon="5.26197">
        <ele>231.2</ele>
        <time>2022-06-14T13:02:08Z</time>
      </trkpt>
      <trkpt lat="46.44127" lon="5.26188">
        <ele>231.8</ele>
        <time>2022-06-14T13:02:10Z</time>
      </trkpt>
      <trkpt lat="46.44131" lon="5.26179">
        <ele>232.2</ele>
        <time>2022-06-14T13:02:12Z</time>
      </trkpt>
      <trkpt lat="46.44146" lon="5.26147">
        <ele>233.2</ele>
        <time>2022-06-14T13:02:18Z</time>
      </trkpt>
      <trkpt lat="46.44151" lon="5.26136">
        <ele>234</ele>
        <time>2022-06-14T13:02:20Z</time>
      </trkpt>
      <trkpt lat="46.44156" lon="5.26126">
        <ele>234.8</ele>
        <time>2022-06-14T13:02:22Z</time>
      </trkpt>
      <trkpt lat="46.44174" lon="5.26085">
        <ele>235.2</ele>
        <time>2022-06-14T13:02:29Z</time>
      </trkpt>
      <trkpt lat="46.4419" lon="5.26043">
        <ele>234.8</ele>
        <time>2022-06-14T13:02:35Z</time>
      </trkpt>
      <trkpt lat="46.44205" lon="5.26001">
        <ele>234.4</ele>
        <time>2022-06-14T13:02:40Z</time>
      </trkpt>
      <trkpt lat="46.44208" lon="5.25991">
        <ele>234.2</ele>
        <time>2022-06-14T13:02:41Z</time>
      </trkpt>
      <trkpt lat="46.44215" lon="5.25959">
        <ele>233.6</ele>
        <time>2022-06-14T13:02:44Z</time>
      </trkpt>
      <trkpt lat="46.44221" lon="5.25922">
        <ele>233</ele>
        <time>2022-06-14T13:02:47Z</time>
      </trkpt>
      <trkpt lat="46.44226" lon="5.25883">
        <ele>232.2</ele>
        <time>2022-06-14T13:02:50Z</time>
      </trkpt>
      <trkpt lat="46.4423" lon="5.25856">
        <ele>230.8</ele>
        <time>2022-06-14T13:02:52Z</time>
      </trkpt>
      <trkpt lat="46.44232" lon="5.25842">
        <ele>230</ele>
        <time>2022-06-14T13:02:53Z</time>
      </trkpt>
      <trkpt lat="46.44233" lon="5.25828">
        <ele>229.6</ele>
        <time>2022-06-14T13:02:54Z</time>
      </trkpt>
      <trkpt lat="46.44237" lon="5.25799">
        <ele>228.4</ele>
        <time>2022-06-14T13:02:56Z</time>
      </trkpt>
      <trkpt lat="46.4424" lon="5.2577">
        <ele>227.4</ele>
        <time>2022-06-14T13:02:58Z</time>
      </trkpt>
      <trkpt lat="46.44242" lon="5.25756">
        <ele>227</ele>
        <time>2022-06-14T13:02:59Z</time>
      </trkpt>
      <trkpt lat="46.44245" lon="5.25727">
        <ele>226.4</ele>
        <time>2022-06-14T13:03:01Z</time>
      </trkpt>
      <trkpt lat="46.44248" lon="5.25699">
        <ele>225.8</ele>
        <time>2022-06-14T13:03:03Z</time>
      </trkpt>
      <trkpt lat="46.44256" lon="5.25632">
        <ele>224.8</ele>
        <time>2022-06-14T13:03:08Z</time>
      </trkpt>
      <trkpt lat="46.44257" lon="5.25619">
        <ele>224.6</ele>
        <time>2022-06-14T13:03:09Z</time>
      </trkpt>
      <trkpt lat="46.44266" lon="5.25537">
        <ele>224.8</ele>
        <time>2022-06-14T13:03:16Z</time>
      </trkpt>
      <trkpt lat="46.44273" lon="5.2548">
        <ele>226.2</ele>
        <time>2022-06-14T13:03:22Z</time>
      </trkpt>
      <trkpt lat="46.44276" lon="5.25457">
        <ele>227.2</ele>
        <time>2022-06-14T13:03:25Z</time>
      </trkpt>
      <trkpt lat="46.44278" lon="5.25436">
        <ele>228.2</ele>
        <time>2022-06-14T13:03:28Z</time>
      </trkpt>
      <trkpt lat="46.44279" lon="5.25429">
        <ele>228.4</ele>
        <time>2022-06-14T13:03:29Z</time>
      </trkpt>
      <trkpt lat="46.44283" lon="5.254">
        <ele>229.4</ele>
        <time>2022-06-14T13:03:33Z</time>
      </trkpt>
      <trkpt lat="46.44286" lon="5.25371">
        <ele>230.8</ele>
        <time>2022-06-14T13:03:37Z</time>
      </trkpt>
      <trkpt lat="46.44289" lon="5.25334">
        <ele>232</ele>
        <time>2022-06-14T13:03:42Z</time>
      </trkpt>
      <trkpt lat="46.4429" lon="5.25319">
        <ele>232.2</ele>
        <time>2022-06-14T13:03:44Z</time>
      </trkpt>
      <trkpt lat="46.44292" lon="5.25286">
        <ele>233</ele>
        <time>2022-06-14T13:03:48Z</time>
      </trkpt>
      <trkpt lat="46.44292" lon="5.25252">
        <ele>233.2</ele>
        <time>2022-06-14T13:03:52Z</time>
      </trkpt>
      <trkpt lat="46.4429" lon="5.25202">
        <ele>233</ele>
        <time>2022-06-14T13:03:57Z</time>
      </trkpt>
      <trkpt lat="46.44281" lon="5.25133">
        <ele>231.8</ele>
        <time>2022-06-14T13:04:03Z</time>
      </trkpt>
      <trkpt lat="46.44272" lon="5.25085">
        <ele>230.6</ele>
        <time>2022-06-14T13:04:07Z</time>
      </trkpt>
      <trkpt lat="46.44265" lon="5.25048">
        <ele>229.4</ele>
        <time>2022-06-14T13:04:10Z</time>
      </trkpt>
      <trkpt lat="46.44263" lon="5.25036">
        <ele>229.2</ele>
        <time>2022-06-14T13:04:11Z</time>
      </trkpt>
      <trkpt lat="46.44257" lon="5.25005">
        <ele>228.4</ele>
        <time>2022-06-14T13:04:14Z</time>
      </trkpt>
      <trkpt lat="46.44241" lon="5.24919">
        <ele>228</ele>
        <time>2022-06-14T13:04:21Z</time>
      </trkpt>
      <trkpt lat="46.44239" lon="5.24907">
        <ele>228</ele>
        <time>2022-06-14T13:04:22Z</time>
      </trkpt>
      <trkpt lat="46.44234" lon="5.24861">
        <ele>227.4</ele>
        <time>2022-06-14T13:04:26Z</time>
      </trkpt>
      <trkpt lat="46.44232" lon="5.24826">
        <ele>227</ele>
        <time>2022-06-14T13:04:29Z</time>
      </trkpt>
      <trkpt lat="46.44232" lon="5.24801">
        <ele>226.4</ele>
        <time>2022-06-14T13:04:31Z</time>
      </trkpt>
      <trkpt lat="46.44236" lon="5.24739">
        <ele>225.4</ele>
        <time>2022-06-14T13:04:36Z</time>
      </trkpt>
      <trkpt lat="46.44237" lon="5.24726">
        <ele>225.2</ele>
        <time>2022-06-14T13:04:37Z</time>
      </trkpt>
      <trkpt lat="46.44247" lon="5.2466">
        <ele>224</ele>
        <time>2022-06-14T13:04:42Z</time>
      </trkpt>
      <trkpt lat="46.44258" lon="5.24618">
        <ele>222.6</ele>
        <time>2022-06-14T13:04:45Z</time>
      </trkpt>
      <trkpt lat="46.44266" lon="5.24589">
        <ele>221.2</ele>
        <time>2022-06-14T13:04:47Z</time>
      </trkpt>
      <trkpt lat="46.4428" lon="5.24544">
        <ele>218.8</ele>
        <time>2022-06-14T13:04:50Z</time>
      </trkpt>
      <trkpt lat="46.44289" lon="5.24513">
        <ele>217.6</ele>
        <time>2022-06-14T13:04:52Z</time>
      </trkpt>
      <trkpt lat="46.44299" lon="5.24482">
        <ele>216.6</ele>
        <time>2022-06-14T13:04:54Z</time>
      </trkpt>
      <trkpt lat="46.44308" lon="5.2445">
        <ele>215</ele>
        <time>2022-06-14T13:04:56Z</time>
      </trkpt>
      <trkpt lat="46.44312" lon="5.24434">
        <ele>213.6</ele>
        <time>2022-06-14T13:04:57Z</time>
      </trkpt>
      <trkpt lat="46.44319" lon="5.244">
        <ele>212.4</ele>
        <time>2022-06-14T13:04:59Z</time>
      </trkpt>
      <trkpt lat="46.44322" lon="5.24384">
        <ele>212.2</ele>
        <time>2022-06-14T13:05:00Z</time>
      </trkpt>
      <trkpt lat="46.44327" lon="5.24351">
        <ele>211.4</ele>
        <time>2022-06-14T13:05:02Z</time>
      </trkpt>
      <trkpt lat="46.44332" lon="5.24319">
        <ele>210</ele>
        <time>2022-06-14T13:05:04Z</time>
      </trkpt>
      <trkpt lat="46.4434" lon="5.24273">
        <ele>209.2</ele>
        <time>2022-06-14T13:05:07Z</time>
      </trkpt>
      <trkpt lat="46.44342" lon="5.24259">
        <ele>208.6</ele>
        <time>2022-06-14T13:05:08Z</time>
      </trkpt>
      <trkpt lat="46.44352" lon="5.24216">
        <ele>207.6</ele>
        <time>2022-06-14T13:05:11Z</time>
      </trkpt>
      <trkpt lat="46.44359" lon="5.2419">
        <ele>207.2</ele>
        <time>2022-06-14T13:05:13Z</time>
      </trkpt>
      <trkpt lat="46.44383" lon="5.24132">
        <ele>207.2</ele>
        <time>2022-06-14T13:05:18Z</time>
      </trkpt>
      <trkpt lat="46.44413" lon="5.24072">
        <ele>207.6</ele>
        <time>2022-06-14T13:05:24Z</time>
      </trkpt>
      <trkpt lat="46.44443" lon="5.23999">
        <ele>207.8</ele>
        <time>2022-06-14T13:05:31Z</time>
      </trkpt>
      <trkpt lat="46.44447" lon="5.23988">
        <ele>207.8</ele>
        <time>2022-06-14T13:05:32Z</time>
      </trkpt>
      <trkpt lat="46.4447" lon="5.23913">
        <ele>207.6</ele>
        <time>2022-06-14T13:05:39Z</time>
      </trkpt>
      <trkpt lat="46.44473" lon="5.23902">
        <ele>207.6</ele>
        <time>2022-06-14T13:05:40Z</time>
      </trkpt>
      <trkpt lat="46.44488" lon="5.23826">
        <ele>207.4</ele>
        <time>2022-06-14T13:05:47Z</time>
      </trkpt>
      <trkpt lat="46.4449" lon="5.23815">
        <ele>207.4</ele>
        <time>2022-06-14T13:05:48Z</time>
      </trkpt>
      <trkpt lat="46.44501" lon="5.23751">
        <ele>207.4</ele>
        <time>2022-06-14T13:05:54Z</time>
      </trkpt>
      <trkpt lat="46.44519" lon="5.23679">
        <ele>207.4</ele>
        <time>2022-06-14T13:06:01Z</time>
      </trkpt>
      <trkpt lat="46.44547" lon="5.23606">
        <ele>207.6</ele>
        <time>2022-06-14T13:06:09Z</time>
      </trkpt>
      <trkpt lat="46.44575" lon="5.23538">
        <ele>208.4</ele>
        <time>2022-06-14T13:06:17Z</time>
      </trkpt>
      <trkpt lat="46.44579" lon="5.2353">
        <ele>208.4</ele>
        <time>2022-06-14T13:06:18Z</time>
      </trkpt>
      <trkpt lat="46.44589" lon="5.23506">
        <ele>208.8</ele>
        <time>2022-06-14T13:06:21Z</time>
      </trkpt>
      <trkpt lat="46.44601" lon="5.23477">
        <ele>209.4</ele>
        <time>2022-06-14T13:06:25Z</time>
      </trkpt>
      <trkpt lat="46.44618" lon="5.23445">
        <ele>210</ele>
        <time>2022-06-14T13:06:30Z</time>
      </trkpt>
      <trkpt lat="46.44624" lon="5.23433">
        <ele>210.6</ele>
        <time>2022-06-14T13:06:32Z</time>
      </trkpt>
      <trkpt lat="46.44629" lon="5.23422">
        <ele>211.2</ele>
        <time>2022-06-14T13:06:34Z</time>
      </trkpt>
      <trkpt lat="46.44639" lon="5.23402">
        <ele>212.4</ele>
        <time>2022-06-14T13:06:38Z</time>
      </trkpt>
      <trkpt lat="46.44641" lon="5.23397">
        <ele>212.6</ele>
        <time>2022-06-14T13:06:39Z</time>
      </trkpt>
      <trkpt lat="46.4465" lon="5.23378">
        <ele>213.6</ele>
        <time>2022-06-14T13:06:43Z</time>
      </trkpt>
      <trkpt lat="46.44656" lon="5.23363">
        <ele>214.4</ele>
        <time>2022-06-14T13:06:46Z</time>
      </trkpt>
      <trkpt lat="46.44658" lon="5.23357">
        <ele>214.6</ele>
        <time>2022-06-14T13:06:47Z</time>
      </trkpt>
      <trkpt lat="46.4466" lon="5.23352">
        <ele>214.8</ele>
        <time>2022-06-14T13:06:48Z</time>
      </trkpt>
      <trkpt lat="46.44665" lon="5.23334">
        <ele>215.2</ele>
        <time>2022-06-14T13:06:51Z</time>
      </trkpt>
      <trkpt lat="46.44669" lon="5.23323">
        <ele>215.6</ele>
        <time>2022-06-14T13:06:53Z</time>
      </trkpt>
      <trkpt lat="46.44673" lon="5.23312">
        <ele>216</ele>
        <time>2022-06-14T13:06:55Z</time>
      </trkpt>
      <trkpt lat="46.44677" lon="5.23301">
        <ele>216.2</ele>
        <time>2022-06-14T13:06:57Z</time>
      </trkpt>
      <trkpt lat="46.44679" lon="5.23288">
        <ele>216.4</ele>
        <time>2022-06-14T13:06:59Z</time>
      </trkpt>
      <trkpt lat="46.44677" lon="5.23258">
        <ele>217</ele>
        <time>2022-06-14T13:07:03Z</time>
      </trkpt>
      <trkpt lat="46.44677" lon="5.23249">
        <ele>217</ele>
        <time>2022-06-14T13:07:04Z</time>
      </trkpt>
      <trkpt lat="46.44682" lon="5.23192">
        <ele>217.2</ele>
        <time>2022-06-14T13:07:11Z</time>
      </trkpt>
      <trkpt lat="46.44685" lon="5.23166">
        <ele>218</ele>
        <time>2022-06-14T13:07:15Z</time>
      </trkpt>
      <trkpt lat="46.44685" lon="5.23161">
        <ele>218.4</ele>
        <time>2022-06-14T13:07:16Z</time>
      </trkpt>
      <trkpt lat="46.44687" lon="5.23143">
        <ele>219.4</ele>
        <time>2022-06-14T13:07:19Z</time>
      </trkpt>
      <trkpt lat="46.44687" lon="5.2312">
        <ele>220.2</ele>
        <time>2022-06-14T13:07:23Z</time>
      </trkpt>
      <trkpt lat="46.44687" lon="5.23115">
        <ele>220.6</ele>
        <time>2022-06-14T13:07:24Z</time>
      </trkpt>
      <trkpt lat="46.44688" lon="5.23093">
        <ele>221.6</ele>
        <time>2022-06-14T13:07:28Z</time>
      </trkpt>
      <trkpt lat="46.44688" lon="5.23071">
        <ele>222.6</ele>
        <time>2022-06-14T13:07:32Z</time>
      </trkpt>
      <trkpt lat="46.44688" lon="5.23066">
        <ele>223</ele>
        <time>2022-06-14T13:07:33Z</time>
      </trkpt>
      <trkpt lat="46.44687" lon="5.23041">
        <ele>224.2</ele>
        <time>2022-06-14T13:07:38Z</time>
      </trkpt>
      <trkpt lat="46.44687" lon="5.23032">
        <ele>224.6</ele>
        <time>2022-06-14T13:07:40Z</time>
      </trkpt>
      <trkpt lat="46.44688" lon="5.23016">
        <ele>225.6</ele>
        <time>2022-06-14T13:07:43Z</time>
      </trkpt>
      <trkpt lat="46.44688" lon="5.22991">
        <ele>226.4</ele>
        <time>2022-06-14T13:07:48Z</time>
      </trkpt>
      <trkpt lat="46.44688" lon="5.22986">
        <ele>226.6</ele>
        <time>2022-06-14T13:07:49Z</time>
      </trkpt>
      <trkpt lat="46.44689" lon="5.2296">
        <ele>227.8</ele>
        <time>2022-06-14T13:07:54Z</time>
      </trkpt>
      <trkpt lat="46.44689" lon="5.22955">
        <ele>228</ele>
        <time>2022-06-14T13:07:55Z</time>
      </trkpt>
      <trkpt lat="46.44688" lon="5.22936">
        <ele>228.8</ele>
        <time>2022-06-14T13:07:59Z</time>
      </trkpt>
      <trkpt lat="46.44688" lon="5.2292">
        <ele>229.6</ele>
        <time>2022-06-14T13:08:02Z</time>
      </trkpt>
      <trkpt lat="46.44688" lon="5.2291">
        <ele>230</ele>
        <time>2022-06-14T13:08:04Z</time>
      </trkpt>
      <trkpt lat="46.44687" lon="5.2288">
        <ele>231</ele>
        <time>2022-06-14T13:08:10Z</time>
      </trkpt>
      <trkpt lat="46.44687" lon="5.22866">
        <ele>231.4</ele>
        <time>2022-06-14T13:08:12Z</time>
      </trkpt>
      <trkpt lat="46.4469" lon="5.22856">
        <ele>231.8</ele>
        <time>2022-06-14T13:08:15Z</time>
      </trkpt>
      <trkpt lat="46.44695" lon="5.22851">
        <ele>232</ele>
        <time>2022-06-14T13:08:16Z</time>
      </trkpt>
      <trkpt lat="46.447" lon="5.22851">
        <ele>232</ele>
        <time>2022-06-14T13:08:17Z</time>
      </trkpt>
      <trkpt lat="46.44705" lon="5.22852">
        <ele>232.2</ele>
        <time>2022-06-14T13:08:18Z</time>
      </trkpt>
      <trkpt lat="46.4471" lon="5.22855">
        <ele>232.2</ele>
        <time>2022-06-14T13:08:19Z</time>
      </trkpt>
      <trkpt lat="46.4474" lon="5.22881">
        <ele>232.2</ele>
        <time>2022-06-14T13:08:25Z</time>
      </trkpt>
      <trkpt lat="46.44778" lon="5.22915">
        <ele>231.4</ele>
        <time>2022-06-14T13:08:32Z</time>
      </trkpt>
      <trkpt lat="46.44809" lon="5.22939">
        <ele>231</ele>
        <time>2022-06-14T13:08:38Z</time>
      </trkpt>
      <trkpt lat="46.44831" lon="5.22954">
        <ele>231.2</ele>
        <time>2022-06-14T13:08:42Z</time>
      </trkpt>
      <trkpt lat="46.44841" lon="5.22965">
        <ele>231.2</ele>
        <time>2022-06-14T13:08:44Z</time>
      </trkpt>
      <trkpt lat="46.44848" lon="5.2298">
        <ele>231.2</ele>
        <time>2022-06-14T13:08:46Z</time>
      </trkpt>
      <trkpt lat="46.44853" lon="5.22996">
        <ele>231.4</ele>
        <time>2022-06-14T13:08:48Z</time>
      </trkpt>
      <trkpt lat="46.4487" lon="5.23042">
        <ele>231.8</ele>
        <time>2022-06-14T13:08:54Z</time>
      </trkpt>
      <trkpt lat="46.44888" lon="5.23078">
        <ele>232.2</ele>
        <time>2022-06-14T13:08:59Z</time>
      </trkpt>
      <trkpt lat="46.44892" lon="5.23084">
        <ele>232.2</ele>
        <time>2022-06-14T13:09:00Z</time>
      </trkpt>
      <trkpt lat="46.44902" lon="5.23095">
        <ele>232.2</ele>
        <time>2022-06-14T13:09:02Z</time>
      </trkpt>
      <trkpt lat="46.44907" lon="5.23099">
        <ele>232.4</ele>
        <time>2022-06-14T13:09:03Z</time>
      </trkpt>
      <trkpt lat="46.44915" lon="5.23107">
        <ele>232.4</ele>
        <time>2022-06-14T13:09:05Z</time>
      </trkpt>
      <trkpt lat="46.44926" lon="5.23118">
        <ele>232.8</ele>
        <time>2022-06-14T13:09:08Z</time>
      </trkpt>
      <trkpt lat="46.4493" lon="5.23119">
        <ele>232.8</ele>
        <time>2022-06-14T13:09:09Z</time>
      </trkpt>
      <trkpt lat="46.44933" lon="5.23118">
        <ele>232.8</ele>
        <time>2022-06-14T13:09:10Z</time>
      </trkpt>
      <trkpt lat="46.44939" lon="5.2311">
        <ele>233.2</ele>
        <time>2022-06-14T13:09:12Z</time>
      </trkpt>
      <trkpt lat="46.44951" lon="5.23082">
        <ele>233.2</ele>
        <time>2022-06-14T13:09:16Z</time>
      </trkpt>
      <trkpt lat="46.44954" lon="5.23073">
        <ele>233.2</ele>
        <time>2022-06-14T13:09:17Z</time>
      </trkpt>
      <trkpt lat="46.4496" lon="5.23044">
        <ele>232.8</ele>
        <time>2022-06-14T13:09:20Z</time>
      </trkpt>
      <trkpt lat="46.44971" lon="5.2298">
        <ele>231.6</ele>
        <time>2022-06-14T13:09:26Z</time>
      </trkpt>
      <trkpt lat="46.44985" lon="5.22918">
        <ele>231.4</ele>
        <time>2022-06-14T13:09:32Z</time>
      </trkpt>
      <trkpt lat="46.44988" lon="5.22909">
        <ele>231.4</ele>
        <time>2022-06-14T13:09:33Z</time>
      </trkpt>
      <trkpt lat="46.44997" lon="5.22892">
        <ele>231.4</ele>
        <time>2022-06-14T13:09:35Z</time>
      </trkpt>
      <trkpt lat="46.45002" lon="5.22885">
        <ele>231.4</ele>
        <time>2022-06-14T13:09:36Z</time>
      </trkpt>
      <trkpt lat="46.45007" lon="5.22879">
        <ele>231.4</ele>
        <time>2022-06-14T13:09:37Z</time>
      </trkpt>
      <trkpt lat="46.45026" lon="5.22864">
        <ele>231.4</ele>
        <time>2022-06-14T13:09:40Z</time>
      </trkpt>
      <trkpt lat="46.45068" lon="5.22838">
        <ele>231.6</ele>
        <time>2022-06-14T13:09:47Z</time>
      </trkpt>
      <trkpt lat="46.45076" lon="5.22825">
        <ele>231.8</ele>
        <time>2022-06-14T13:09:49Z</time>
      </trkpt>
      <trkpt lat="46.45079" lon="5.22811">
        <ele>231.8</ele>
        <time>2022-06-14T13:09:50Z</time>
      </trkpt>
      <trkpt lat="46.45091" lon="5.22741">
        <ele>232.4</ele>
        <time>2022-06-14T13:09:58Z</time>
      </trkpt>
      <trkpt lat="46.45106" lon="5.22687">
        <ele>232.4</ele>
        <time>2022-06-14T13:10:04Z</time>
      </trkpt>
      <trkpt lat="46.45131" lon="5.22618">
        <ele>232.4</ele>
        <time>2022-06-14T13:10:12Z</time>
      </trkpt>
      <trkpt lat="46.45136" lon="5.22599">
        <ele>232.4</ele>
        <time>2022-06-14T13:10:14Z</time>
      </trkpt>
      <trkpt lat="46.45153" lon="5.22534">
        <ele>232.4</ele>
        <time>2022-06-14T13:10:21Z</time>
      </trkpt>
      <trkpt lat="46.45174" lon="5.22455">
        <ele>232.4</ele>
        <time>2022-06-14T13:10:29Z</time>
      </trkpt>
      <trkpt lat="46.45177" lon="5.22445">
        <ele>232.4</ele>
        <time>2022-06-14T13:10:30Z</time>
      </trkpt>
      <trkpt lat="46.45201" lon="5.22382">
        <ele>232.6</ele>
        <time>2022-06-14T13:10:37Z</time>
      </trkpt>
      <trkpt lat="46.45205" lon="5.22373">
        <ele>232.6</ele>
        <time>2022-06-14T13:10:38Z</time>
      </trkpt>
      <trkpt lat="46.45214" lon="5.22347">
        <ele>232.6</ele>
        <time>2022-06-14T13:10:41Z</time>
      </trkpt>
      <trkpt lat="46.45222" lon="5.22329">
        <ele>232.6</ele>
        <time>2022-06-14T13:10:43Z</time>
      </trkpt>
      <trkpt lat="46.45232" lon="5.22313">
        <ele>232.6</ele>
        <time>2022-06-14T13:10:45Z</time>
      </trkpt>
      <trkpt lat="46.45257" lon="5.22293">
        <ele>232.4</ele>
        <time>2022-06-14T13:10:49Z</time>
      </trkpt>
      <trkpt lat="46.45309" lon="5.22258">
        <ele>232</ele>
        <time>2022-06-14T13:10:57Z</time>
      </trkpt>
      <trkpt lat="46.45355" lon="5.22232">
        <ele>231.8</ele>
        <time>2022-06-14T13:11:04Z</time>
      </trkpt>
      <trkpt lat="46.454" lon="5.22205">
        <ele>231.4</ele>
        <time>2022-06-14T13:11:10Z</time>
      </trkpt>
      <trkpt lat="46.45412" lon="5.22193">
        <ele>231.2</ele>
        <time>2022-06-14T13:11:13Z</time>
      </trkpt>
      <trkpt lat="46.45424" lon="5.22175">
        <ele>231.2</ele>
        <time>2022-06-14T13:11:15Z</time>
      </trkpt>
      <trkpt lat="46.45446" lon="5.2213">
        <ele>231</ele>
        <time>2022-06-14T13:11:20Z</time>
      </trkpt>
      <trkpt lat="46.45467" lon="5.22069">
        <ele>230.4</ele>
        <time>2022-06-14T13:11:26Z</time>
      </trkpt>
      <trkpt lat="46.45474" lon="5.22049">
        <ele>230</ele>
        <time>2022-06-14T13:11:28Z</time>
      </trkpt>
      <trkpt lat="46.45502" lon="5.21973">
        <ele>230</ele>
        <time>2022-06-14T13:11:36Z</time>
      </trkpt>
      <trkpt lat="46.45505" lon="5.21964">
        <ele>230</ele>
        <time>2022-06-14T13:11:37Z</time>
      </trkpt>
      <trkpt lat="46.45529" lon="5.21905">
        <ele>230.6</ele>
        <time>2022-06-14T13:11:44Z</time>
      </trkpt>
      <trkpt lat="46.45562" lon="5.21832">
        <ele>231.2</ele>
        <time>2022-06-14T13:11:53Z</time>
      </trkpt>
      <trkpt lat="46.45591" lon="5.21762">
        <ele>231.4</ele>
        <time>2022-06-14T13:12:01Z</time>
      </trkpt>
      <trkpt lat="46.45595" lon="5.21753">
        <ele>231.4</ele>
        <time>2022-06-14T13:12:02Z</time>
      </trkpt>
      <trkpt lat="46.45627" lon="5.21679">
        <ele>230.4</ele>
        <time>2022-06-14T13:12:10Z</time>
      </trkpt>
      <trkpt lat="46.45632" lon="5.2167">
        <ele>230.2</ele>
        <time>2022-06-14T13:12:11Z</time>
      </trkpt>
      <trkpt lat="46.45669" lon="5.21603">
        <ele>230</ele>
        <time>2022-06-14T13:12:19Z</time>
      </trkpt>
      <trkpt lat="46.45673" lon="5.21596">
        <ele>229.8</ele>
        <time>2022-06-14T13:12:20Z</time>
      </trkpt>
      <trkpt lat="46.457" lon="5.21554">
        <ele>230</ele>
        <time>2022-06-14T13:12:26Z</time>
      </trkpt>
      <trkpt lat="46.45728" lon="5.21527">
        <ele>230.4</ele>
        <time>2022-06-14T13:12:31Z</time>
      </trkpt>
      <trkpt lat="46.4578" lon="5.21499">
        <ele>230.6</ele>
        <time>2022-06-14T13:12:39Z</time>
      </trkpt>
      <trkpt lat="46.45806" lon="5.21492">
        <ele>230.8</ele>
        <time>2022-06-14T13:12:42Z</time>
      </trkpt>
      <trkpt lat="46.4582" lon="5.21491">
        <ele>230.8</ele>
        <time>2022-06-14T13:12:45Z</time>
      </trkpt>
      <trkpt lat="46.4588" lon="5.21502">
        <ele>230.4</ele>
        <time>2022-06-14T13:12:53Z</time>
      </trkpt>
      <trkpt lat="46.45917" lon="5.21511">
        <ele>229.6</ele>
        <time>2022-06-14T13:12:58Z</time>
      </trkpt>
      <trkpt lat="46.45938" lon="5.21519">
        <ele>229.2</ele>
        <time>2022-06-14T13:13:01Z</time>
      </trkpt>
      <trkpt lat="46.45991" lon="5.21544">
        <ele>228.8</ele>
        <time>2022-06-14T13:13:08Z</time>
      </trkpt>
      <trkpt lat="46.45999" lon="5.21549">
        <ele>228.8</ele>
        <time>2022-06-14T13:13:09Z</time>
      </trkpt>
      <trkpt lat="46.46006" lon="5.21554">
        <ele>228.4</ele>
        <time>2022-06-14T13:13:10Z</time>
      </trkpt>
      <trkpt lat="46.46041" lon="5.21586">
        <ele>227.8</ele>
        <time>2022-06-14T13:13:15Z</time>
      </trkpt>
      <trkpt lat="46.46066" lon="5.21615">
        <ele>227.4</ele>
        <time>2022-06-14T13:13:19Z</time>
      </trkpt>
      <trkpt lat="46.4609" lon="5.21645">
        <ele>227.4</ele>
        <time>2022-06-14T13:13:23Z</time>
      </trkpt>
      <trkpt lat="46.46124" lon="5.21688">
        <ele>227.6</ele>
        <time>2022-06-14T13:13:29Z</time>
      </trkpt>
      <trkpt lat="46.46152" lon="5.21734">
        <ele>228</ele>
        <time>2022-06-14T13:13:35Z</time>
      </trkpt>
      <trkpt lat="46.4618" lon="5.21781">
        <ele>227.4</ele>
        <time>2022-06-14T13:13:40Z</time>
      </trkpt>
      <trkpt lat="46.46203" lon="5.21816">
        <ele>226.2</ele>
        <time>2022-06-14T13:13:44Z</time>
      </trkpt>
      <trkpt lat="46.46219" lon="5.2184">
        <ele>225.4</ele>
        <time>2022-06-14T13:13:46Z</time>
      </trkpt>
      <trkpt lat="46.46226" lon="5.2185">
        <ele>224.8</ele>
        <time>2022-06-14T13:13:47Z</time>
      </trkpt>
      <trkpt lat="46.46233" lon="5.21859">
        <ele>223.8</ele>
        <time>2022-06-14T13:13:48Z</time>
      </trkpt>
      <trkpt lat="46.46252" lon="5.21888">
        <ele>222.6</ele>
        <time>2022-06-14T13:13:51Z</time>
      </trkpt>
      <trkpt lat="46.46271" lon="5.21914">
        <ele>221.8</ele>
        <time>2022-06-14T13:13:54Z</time>
      </trkpt>
      <trkpt lat="46.46285" lon="5.21929">
        <ele>221.6</ele>
        <time>2022-06-14T13:13:56Z</time>
      </trkpt>
      <trkpt lat="46.46299" lon="5.21939">
        <ele>221.6</ele>
        <time>2022-06-14T13:13:58Z</time>
      </trkpt>
      <trkpt lat="46.46324" lon="5.21954">
        <ele>222.6</ele>
        <time>2022-06-14T13:14:02Z</time>
      </trkpt>
      <trkpt lat="46.4633" lon="5.21957">
        <ele>223</ele>
        <time>2022-06-14T13:14:03Z</time>
      </trkpt>
      <trkpt lat="46.46352" lon="5.21969">
        <ele>223.6</ele>
        <time>2022-06-14T13:14:07Z</time>
      </trkpt>
      <trkpt lat="46.46368" lon="5.21976">
        <ele>224.6</ele>
        <time>2022-06-14T13:14:10Z</time>
      </trkpt>
      <trkpt lat="46.46374" lon="5.21979">
        <ele>225</ele>
        <time>2022-06-14T13:14:11Z</time>
      </trkpt>
      <trkpt lat="46.46408" lon="5.21993">
        <ele>225.8</ele>
        <time>2022-06-14T13:14:17Z</time>
      </trkpt>
      <trkpt lat="46.46418" lon="5.21994">
        <ele>226</ele>
        <time>2022-06-14T13:14:19Z</time>
      </trkpt>
      <trkpt lat="46.4644" lon="5.21998">
        <ele>227</ele>
        <time>2022-06-14T13:14:23Z</time>
      </trkpt>
      <trkpt lat="46.46457" lon="5.22001">
        <ele>227.2</ele>
        <time>2022-06-14T13:14:26Z</time>
      </trkpt>
      <trkpt lat="46.46479" lon="5.22007">
        <ele>227.6</ele>
        <time>2022-06-14T13:14:30Z</time>
      </trkpt>
      <trkpt lat="46.46484" lon="5.22008">
        <ele>227.8</ele>
        <time>2022-06-14T13:14:31Z</time>
      </trkpt>
      <trkpt lat="46.46488" lon="5.22009">
        <ele>228.2</ele>
        <time>2022-06-14T13:14:32Z</time>
      </trkpt>
      <trkpt lat="46.46497" lon="5.22013">
        <ele>228.4</ele>
        <time>2022-06-14T13:14:34Z</time>
      </trkpt>
      <trkpt lat="46.46512" lon="5.22018">
        <ele>228</ele>
        <time>2022-06-14T13:14:37Z</time>
      </trkpt>
      <trkpt lat="46.46556" lon="5.22032">
        <ele>227.6</ele>
        <time>2022-06-14T13:14:46Z</time>
      </trkpt>
      <trkpt lat="46.46565" lon="5.22034">
        <ele>227.4</ele>
        <time>2022-06-14T13:14:48Z</time>
      </trkpt>
      <trkpt lat="46.46579" lon="5.22033">
        <ele>227.4</ele>
        <time>2022-06-14T13:14:51Z</time>
      </trkpt>
      <trkpt lat="46.46588" lon="5.22031">
        <ele>227.2</ele>
        <time>2022-06-14T13:14:55Z</time>
      </trkpt>
      <trkpt lat="46.46588" lon="5.22032">
        <ele>227.2</ele>
        <time>2022-06-14T13:14:59Z</time>
      </trkpt>
      <trkpt lat="46.46591" lon="5.22031">
        <ele>227.2</ele>
        <time>2022-06-14T13:15:41Z</time>
      </trkpt>
      <trkpt lat="46.46598" lon="5.22028">
        <ele>227.2</ele>
        <time>2022-06-14T13:15:43Z</time>
      </trkpt>
      <trkpt lat="46.46619" lon="5.22021">
        <ele>226.8</ele>
        <time>2022-06-14T13:15:47Z</time>
      </trkpt>
      <trkpt lat="46.4666" lon="5.22017">
        <ele>226.4</ele>
        <time>2022-06-14T13:15:53Z</time>
      </trkpt>
      <trkpt lat="46.46668" lon="5.22017">
        <ele>226.2</ele>
        <time>2022-06-14T13:15:54Z</time>
      </trkpt>
      <trkpt lat="46.46707" lon="5.22016">
        <ele>225.2</ele>
        <time>2022-06-14T13:15:59Z</time>
      </trkpt>
      <trkpt lat="46.46715" lon="5.22015">
        <ele>225</ele>
        <time>2022-06-14T13:16:00Z</time>
      </trkpt>
      <trkpt lat="46.4674" lon="5.22014">
        <ele>224</ele>
        <time>2022-06-14T13:16:03Z</time>
      </trkpt>
      <trkpt lat="46.46763" lon="5.22007">
        <ele>222.8</ele>
        <time>2022-06-14T13:16:06Z</time>
      </trkpt>
      <trkpt lat="46.46787" lon="5.21998">
        <ele>222.2</ele>
        <time>2022-06-14T13:16:09Z</time>
      </trkpt>
      <trkpt lat="46.46796" lon="5.21997">
        <ele>221.8</ele>
        <time>2022-06-14T13:16:10Z</time>
      </trkpt>
      <trkpt lat="46.46803" lon="5.21998">
        <ele>221.6</ele>
        <time>2022-06-14T13:16:11Z</time>
      </trkpt>
      <trkpt lat="46.46826" lon="5.22014">
        <ele>220.6</ele>
        <time>2022-06-14T13:16:13Z</time>
      </trkpt>
      <trkpt lat="46.46841" lon="5.22039">
        <ele>219.4</ele>
        <time>2022-06-14T13:16:16Z</time>
      </trkpt>
      <trkpt lat="46.46846" lon="5.22051">
        <ele>218.6</ele>
        <time>2022-06-14T13:16:17Z</time>
      </trkpt>
      <trkpt lat="46.46852" lon="5.22063">
        <ele>218.4</ele>
        <time>2022-06-14T13:16:18Z</time>
      </trkpt>
      <trkpt lat="46.46863" lon="5.22087">
        <ele>216.4</ele>
        <time>2022-06-14T13:16:20Z</time>
      </trkpt>
      <trkpt lat="46.46875" lon="5.22109">
        <ele>215.6</ele>
        <time>2022-06-14T13:16:22Z</time>
      </trkpt>
      <trkpt lat="46.46891" lon="5.22126">
        <ele>215.2</ele>
        <time>2022-06-14T13:16:24Z</time>
      </trkpt>
      <trkpt lat="46.469" lon="5.22132">
        <ele>214.8</ele>
        <time>2022-06-14T13:16:25Z</time>
      </trkpt>
      <trkpt lat="46.4691" lon="5.22134">
        <ele>214.2</ele>
        <time>2022-06-14T13:16:26Z</time>
      </trkpt>
      <trkpt lat="46.4692" lon="5.22135">
        <ele>214</ele>
        <time>2022-06-14T13:16:27Z</time>
      </trkpt>
      <trkpt lat="46.4693" lon="5.22135">
        <ele>213.8</ele>
        <time>2022-06-14T13:16:28Z</time>
      </trkpt>
      <trkpt lat="46.46939" lon="5.22135">
        <ele>213</ele>
        <time>2022-06-14T13:16:29Z</time>
      </trkpt>
      <trkpt lat="46.46973" lon="5.22132">
        <ele>211.8</ele>
        <time>2022-06-14T13:16:33Z</time>
      </trkpt>
      <trkpt lat="46.47008" lon="5.2213">
        <ele>213.2</ele>
        <time>2022-06-14T13:16:38Z</time>
      </trkpt>
      <trkpt lat="46.47028" lon="5.22129">
        <ele>213.8</ele>
        <time>2022-06-14T13:16:40Z</time>
      </trkpt>
      <trkpt lat="46.47034" lon="5.22129">
        <ele>214.2</ele>
        <time>2022-06-14T13:16:42Z</time>
      </trkpt>
      <trkpt lat="46.4704" lon="5.22129">
        <ele>214.4</ele>
        <time>2022-06-14T13:16:43Z</time>
      </trkpt>
      <trkpt lat="46.47062" lon="5.22133">
        <ele>216</ele>
        <time>2022-06-14T13:16:47Z</time>
      </trkpt>
      <trkpt lat="46.47073" lon="5.22137">
        <ele>216.6</ele>
        <time>2022-06-14T13:16:48Z</time>
      </trkpt>
      <trkpt lat="46.47073" lon="5.22137">
        <ele>216.8</ele>
        <time>2022-06-14T13:16:49Z</time>
      </trkpt>
      <trkpt lat="46.47083" lon="5.2214">
        <ele>217.2</ele>
        <time>2022-06-14T13:16:50Z</time>
      </trkpt>
      <trkpt lat="46.47104" lon="5.22149">
        <ele>217.6</ele>
        <time>2022-06-14T13:16:54Z</time>
      </trkpt>
      <trkpt lat="46.4712" lon="5.22154">
        <ele>218.6</ele>
        <time>2022-06-14T13:16:57Z</time>
      </trkpt>
      <trkpt lat="46.47142" lon="5.22163">
        <ele>219.2</ele>
        <time>2022-06-14T13:17:01Z</time>
      </trkpt>
      <trkpt lat="46.47169" lon="5.22173">
        <ele>219.6</ele>
        <time>2022-06-14T13:17:06Z</time>
      </trkpt>
      <trkpt lat="46.47185" lon="5.22179">
        <ele>219.6</ele>
        <time>2022-06-14T13:17:10Z</time>
      </trkpt>
      <trkpt lat="46.4721" lon="5.22189">
        <ele>220</ele>
        <time>2022-06-14T13:17:14Z</time>
      </trkpt>
      <trkpt lat="46.47214" lon="5.22191">
        <ele>220</ele>
        <time>2022-06-14T13:17:15Z</time>
      </trkpt>
      <trkpt lat="46.47241" lon="5.22201">
        <ele>220.6</ele>
        <time>2022-06-14T13:17:20Z</time>
      </trkpt>
      <trkpt lat="46.47266" lon="5.22211">
        <ele>221.6</ele>
        <time>2022-06-14T13:17:25Z</time>
      </trkpt>
      <trkpt lat="46.47271" lon="5.22212">
        <ele>221.8</ele>
        <time>2022-06-14T13:17:26Z</time>
      </trkpt>
      <trkpt lat="46.47297" lon="5.22222">
        <ele>222.8</ele>
        <time>2022-06-14T13:17:31Z</time>
      </trkpt>
      <trkpt lat="46.47317" lon="5.22229">
        <ele>223.4</ele>
        <time>2022-06-14T13:17:35Z</time>
      </trkpt>
      <trkpt lat="46.47343" lon="5.2224">
        <ele>223.8</ele>
        <time>2022-06-14T13:17:40Z</time>
      </trkpt>
      <trkpt lat="46.47379" lon="5.22256">
        <ele>224.6</ele>
        <time>2022-06-14T13:17:47Z</time>
      </trkpt>
      <trkpt lat="46.47393" lon="5.22265">
        <ele>225</ele>
        <time>2022-06-14T13:17:50Z</time>
      </trkpt>
      <trkpt lat="46.47431" lon="5.22286">
        <ele>225.2</ele>
        <time>2022-06-14T13:17:57Z</time>
      </trkpt>
      <trkpt lat="46.47471" lon="5.22309">
        <ele>225</ele>
        <time>2022-06-14T13:18:04Z</time>
      </trkpt>
      <trkpt lat="46.47524" lon="5.22341">
        <ele>224.8</ele>
        <time>2022-06-14T13:18:13Z</time>
      </trkpt>
      <trkpt lat="46.47573" lon="5.22365">
        <ele>224.8</ele>
        <time>2022-06-14T13:18:21Z</time>
      </trkpt>
      <trkpt lat="46.4761" lon="5.22377">
        <ele>225.6</ele>
        <time>2022-06-14T13:18:27Z</time>
      </trkpt>
      <trkpt lat="46.47617" lon="5.22379">
        <ele>225.8</ele>
        <time>2022-06-14T13:18:28Z</time>
      </trkpt>
      <trkpt lat="46.47629" lon="5.22383">
        <ele>226.2</ele>
        <time>2022-06-14T13:18:30Z</time>
      </trkpt>
      <trkpt lat="46.47634" lon="5.22386">
        <ele>226.4</ele>
        <time>2022-06-14T13:18:31Z</time>
      </trkpt>
      <trkpt lat="46.47645" lon="5.22391">
        <ele>226.4</ele>
        <time>2022-06-14T13:18:33Z</time>
      </trkpt>
      <trkpt lat="46.47651" lon="5.22392">
        <ele>226.6</ele>
        <time>2022-06-14T13:18:34Z</time>
      </trkpt>
      <trkpt lat="46.47692" lon="5.22398">
        <ele>227.2</ele>
        <time>2022-06-14T13:18:41Z</time>
      </trkpt>
      <trkpt lat="46.47698" lon="5.22398">
        <ele>227.4</ele>
        <time>2022-06-14T13:18:42Z</time>
      </trkpt>
      <trkpt lat="46.47747" lon="5.22401">
        <ele>228.2</ele>
        <time>2022-06-14T13:18:51Z</time>
      </trkpt>
      <trkpt lat="46.47768" lon="5.22402">
        <ele>228</ele>
        <time>2022-06-14T13:18:55Z</time>
      </trkpt>
      <trkpt lat="46.47774" lon="5.22396">
        <ele>228</ele>
        <time>2022-06-14T13:18:57Z</time>
      </trkpt>
      <trkpt lat="46.47774" lon="5.22396">
        <ele>228</ele>
        <time>2022-06-14T13:18:58Z</time>
      </trkpt>
      <trkpt lat="46.47775" lon="5.22383">
        <ele>227.8</ele>
        <time>2022-06-14T13:18:59Z</time>
      </trkpt>
      <trkpt lat="46.47774" lon="5.22375">
        <ele>227.6</ele>
        <time>2022-06-14T13:19:01Z</time>
      </trkpt>
      <trkpt lat="46.47771" lon="5.22331">
        <ele>227</ele>
        <time>2022-06-14T13:19:05Z</time>
      </trkpt>
      <trkpt lat="46.47778" lon="5.22316">
        <ele>226.6</ele>
        <time>2022-06-14T13:19:07Z</time>
      </trkpt>
      <trkpt lat="46.47784" lon="5.22313">
        <ele>226.6</ele>
        <time>2022-06-14T13:19:08Z</time>
      </trkpt>
      <trkpt lat="46.4779" lon="5.22312">
        <ele>226.4</ele>
        <time>2022-06-14T13:19:09Z</time>
      </trkpt>
      <trkpt lat="46.47803" lon="5.22312">
        <ele>226.4</ele>
        <time>2022-06-14T13:19:11Z</time>
      </trkpt>
      <trkpt lat="46.4781" lon="5.22311">
        <ele>226.4</ele>
        <time>2022-06-14T13:19:12Z</time>
      </trkpt>
      <trkpt lat="46.47857" lon="5.22305">
        <ele>226.6</ele>
        <time>2022-06-14T13:19:19Z</time>
      </trkpt>
      <trkpt lat="46.47902" lon="5.22298">
        <ele>226.6</ele>
        <time>2022-06-14T13:19:25Z</time>
      </trkpt>
      <trkpt lat="46.47926" lon="5.22295">
        <ele>226.2</ele>
        <time>2022-06-14T13:19:28Z</time>
      </trkpt>
      <trkpt lat="46.47958" lon="5.2229">
        <ele>225.8</ele>
        <time>2022-06-14T13:19:32Z</time>
      </trkpt>
      <trkpt lat="46.47974" lon="5.22288">
        <ele>225.6</ele>
        <time>2022-06-14T13:19:34Z</time>
      </trkpt>
      <trkpt lat="46.47998" lon="5.22288">
        <ele>225.2</ele>
        <time>2022-06-14T13:19:37Z</time>
      </trkpt>
      <trkpt lat="46.48036" lon="5.22284">
        <ele>224.6</ele>
        <time>2022-06-14T13:19:42Z</time>
      </trkpt>
      <trkpt lat="46.48043" lon="5.22282">
        <ele>224.4</ele>
        <time>2022-06-14T13:19:43Z</time>
      </trkpt>
      <trkpt lat="46.48057" lon="5.22273">
        <ele>224.4</ele>
        <time>2022-06-14T13:19:45Z</time>
      </trkpt>
      <trkpt lat="46.48063" lon="5.22267">
        <ele>224.4</ele>
        <time>2022-06-14T13:19:46Z</time>
      </trkpt>
      <trkpt lat="46.48069" lon="5.2226">
        <ele>224.4</ele>
        <time>2022-06-14T13:19:48Z</time>
      </trkpt>
      <trkpt lat="46.4809" lon="5.22241">
        <ele>224.2</ele>
        <time>2022-06-14T13:19:51Z</time>
      </trkpt>
      <trkpt lat="46.48102" lon="5.22234">
        <ele>224.2</ele>
        <time>2022-06-14T13:19:52Z</time>
      </trkpt>
      <trkpt lat="46.48146" lon="5.22224">
        <ele>224</ele>
        <time>2022-06-14T13:19:58Z</time>
      </trkpt>
      <trkpt lat="46.48196" lon="5.22211">
        <ele>224</ele>
        <time>2022-06-14T13:20:05Z</time>
      </trkpt>
      <trkpt lat="46.48218" lon="5.22208">
        <ele>223.8</ele>
        <time>2022-06-14T13:20:08Z</time>
      </trkpt>
      <trkpt lat="46.48233" lon="5.22211">
        <ele>223.8</ele>
        <time>2022-06-14T13:20:10Z</time>
      </trkpt>
      <trkpt lat="46.48287" lon="5.22225">
        <ele>224</ele>
        <time>2022-06-14T13:20:18Z</time>
      </trkpt>
      <trkpt lat="46.48339" lon="5.22225">
        <ele>224.8</ele>
        <time>2022-06-14T13:20:26Z</time>
      </trkpt>
      <trkpt lat="46.48345" lon="5.22226">
        <ele>225</ele>
        <time>2022-06-14T13:20:27Z</time>
      </trkpt>
      <trkpt lat="46.4835" lon="5.22228">
        <ele>225</ele>
        <time>2022-06-14T13:20:28Z</time>
      </trkpt>
      <trkpt lat="46.48362" lon="5.22232">
        <ele>225.6</ele>
        <time>2022-06-14T13:20:30Z</time>
      </trkpt>
      <trkpt lat="46.48368" lon="5.22235">
        <ele>225.6</ele>
        <time>2022-06-14T13:20:31Z</time>
      </trkpt>
      <trkpt lat="46.48408" lon="5.22264">
        <ele>226.2</ele>
        <time>2022-06-14T13:20:38Z</time>
      </trkpt>
      <trkpt lat="46.48433" lon="5.22293">
        <ele>226.6</ele>
        <time>2022-06-14T13:20:43Z</time>
      </trkpt>
      <trkpt lat="46.48447" lon="5.22312">
        <ele>227.4</ele>
        <time>2022-06-14T13:20:46Z</time>
      </trkpt>
      <trkpt lat="46.48466" lon="5.22336">
        <ele>227.8</ele>
        <time>2022-06-14T13:20:50Z</time>
      </trkpt>
      <trkpt lat="46.48486" lon="5.22358">
        <ele>227.8</ele>
        <time>2022-06-14T13:20:54Z</time>
      </trkpt>
      <trkpt lat="46.48522" lon="5.22382">
        <ele>227.6</ele>
        <time>2022-06-14T13:21:00Z</time>
      </trkpt>
      <trkpt lat="46.48574" lon="5.22421">
        <ele>227.8</ele>
        <time>2022-06-14T13:21:09Z</time>
      </trkpt>
      <trkpt lat="46.48574" lon="5.22421">
        <ele>227.8</ele>
        <time>2022-06-14T13:21:10Z</time>
      </trkpt>
      <trkpt lat="46.48621" lon="5.2246">
        <ele>227.4</ele>
        <time>2022-06-14T13:21:17Z</time>
      </trkpt>
      <trkpt lat="46.48639" lon="5.22478">
        <ele>227.2</ele>
        <time>2022-06-14T13:21:20Z</time>
      </trkpt>
      <trkpt lat="46.48676" lon="5.22522">
        <ele>227</ele>
        <time>2022-06-14T13:21:26Z</time>
      </trkpt>
      <trkpt lat="46.48683" lon="5.22529">
        <ele>226.8</ele>
        <time>2022-06-14T13:21:27Z</time>
      </trkpt>
      <trkpt lat="46.48712" lon="5.22551">
        <ele>226.2</ele>
        <time>2022-06-14T13:21:31Z</time>
      </trkpt>
      <trkpt lat="46.48727" lon="5.2256">
        <ele>225.6</ele>
        <time>2022-06-14T13:21:33Z</time>
      </trkpt>
      <trkpt lat="46.48779" lon="5.2259">
        <ele>224.8</ele>
        <time>2022-06-14T13:21:40Z</time>
      </trkpt>
      <trkpt lat="46.48836" lon="5.22621">
        <ele>224.8</ele>
        <time>2022-06-14T13:21:48Z</time>
      </trkpt>
      <trkpt lat="46.48843" lon="5.22625">
        <ele>224.8</ele>
        <time>2022-06-14T13:21:49Z</time>
      </trkpt>
      <trkpt lat="46.48896" lon="5.22654">
        <ele>225.6</ele>
        <time>2022-06-14T13:21:57Z</time>
      </trkpt>
      <trkpt lat="46.48933" lon="5.22672">
        <ele>226</ele>
        <time>2022-06-14T13:22:03Z</time>
      </trkpt>
      <trkpt lat="46.4896" lon="5.22688">
        <ele>225.8</ele>
        <time>2022-06-14T13:22:08Z</time>
      </trkpt>
      <trkpt lat="46.49005" lon="5.22713">
        <ele>226</ele>
        <time>2022-06-14T13:22:16Z</time>
      </trkpt>
      <trkpt lat="46.49041" lon="5.22734">
        <ele>227</ele>
        <time>2022-06-14T13:22:23Z</time>
      </trkpt>
      <trkpt lat="46.49076" lon="5.22753">
        <ele>227.4</ele>
        <time>2022-06-14T13:22:29Z</time>
      </trkpt>
      <trkpt lat="46.49122" lon="5.22775">
        <ele>227.2</ele>
        <time>2022-06-14T13:22:36Z</time>
      </trkpt>
      <trkpt lat="46.49177" lon="5.22799">
        <ele>227.4</ele>
        <time>2022-06-14T13:22:45Z</time>
      </trkpt>
      <trkpt lat="46.49189" lon="5.228">
        <ele>227.6</ele>
        <time>2022-06-14T13:22:47Z</time>
      </trkpt>
      <trkpt lat="46.49207" lon="5.22798">
        <ele>227.6</ele>
        <time>2022-06-14T13:22:50Z</time>
      </trkpt>
      <trkpt lat="46.49214" lon="5.22797">
        <ele>227.6</ele>
        <time>2022-06-14T13:22:51Z</time>
      </trkpt>
      <trkpt lat="46.49227" lon="5.22791">
        <ele>227.6</ele>
        <time>2022-06-14T13:22:53Z</time>
      </trkpt>
      <trkpt lat="46.49236" lon="5.22776">
        <ele>227.2</ele>
        <time>2022-06-14T13:22:55Z</time>
      </trkpt>
      <trkpt lat="46.49239" lon="5.22767">
        <ele>227.2</ele>
        <time>2022-06-14T13:22:56Z</time>
      </trkpt>
      <trkpt lat="46.4924" lon="5.22758">
        <ele>227</ele>
        <time>2022-06-14T13:22:57Z</time>
      </trkpt>
      <trkpt lat="46.49241" lon="5.22729">
        <ele>226.8</ele>
        <time>2022-06-14T13:23:00Z</time>
      </trkpt>
      <trkpt lat="46.4924" lon="5.2272">
        <ele>226.8</ele>
        <time>2022-06-14T13:23:01Z</time>
      </trkpt>
      <trkpt lat="46.49239" lon="5.22691">
        <ele>227</ele>
        <time>2022-06-14T13:23:04Z</time>
      </trkpt>
      <trkpt lat="46.49236" lon="5.22672">
        <ele>227.4</ele>
        <time>2022-06-14T13:23:06Z</time>
      </trkpt>
      <trkpt lat="46.49229" lon="5.22641">
        <ele>227.2</ele>
        <time>2022-06-14T13:23:09Z</time>
      </trkpt>
      <trkpt lat="46.49227" lon="5.2263">
        <ele>227.2</ele>
        <time>2022-06-14T13:23:10Z</time>
      </trkpt>
      <trkpt lat="46.49225" lon="5.22598">
        <ele>226.8</ele>
        <time>2022-06-14T13:23:13Z</time>
      </trkpt>
      <trkpt lat="46.49212" lon="5.22561">
        <ele>225.8</ele>
        <time>2022-06-14T13:23:16Z</time>
      </trkpt>
      <trkpt lat="46.49203" lon="5.22537">
        <ele>225.2</ele>
        <time>2022-06-14T13:23:18Z</time>
      </trkpt>
      <trkpt lat="46.49195" lon="5.22513">
        <ele>224.6</ele>
        <time>2022-06-14T13:23:20Z</time>
      </trkpt>
      <trkpt lat="46.49179" lon="5.22466">
        <ele>223.8</ele>
        <time>2022-06-14T13:23:24Z</time>
      </trkpt>
      <trkpt lat="46.49176" lon="5.22454">
        <ele>223.6</ele>
        <time>2022-06-14T13:23:25Z</time>
      </trkpt>
      <trkpt lat="46.49169" lon="5.22407">
        <ele>223</ele>
        <time>2022-06-14T13:23:29Z</time>
      </trkpt>
      <trkpt lat="46.49169" lon="5.22344">
        <ele>223.6</ele>
        <time>2022-06-14T13:23:35Z</time>
      </trkpt>
      <trkpt lat="46.49168" lon="5.22282">
        <ele>224.6</ele>
        <time>2022-06-14T13:23:42Z</time>
      </trkpt>
      <trkpt lat="46.49167" lon="5.22273">
        <ele>225.4</ele>
        <time>2022-06-14T13:23:43Z</time>
      </trkpt>
      <trkpt lat="46.49166" lon="5.22232">
        <ele>226.4</ele>
        <time>2022-06-14T13:23:47Z</time>
      </trkpt>
      <trkpt lat="46.49166" lon="5.22215">
        <ele>226.8</ele>
        <time>2022-06-14T13:23:49Z</time>
      </trkpt>
      <trkpt lat="46.49167" lon="5.22197">
        <ele>227.2</ele>
        <time>2022-06-14T13:23:51Z</time>
      </trkpt>
      <trkpt lat="46.49169" lon="5.22179">
        <ele>227.6</ele>
        <time>2022-06-14T13:23:53Z</time>
      </trkpt>
      <trkpt lat="46.49171" lon="5.22169">
        <ele>227.6</ele>
        <time>2022-06-14T13:23:54Z</time>
      </trkpt>
      <trkpt lat="46.49179" lon="5.22144">
        <ele>228</ele>
        <time>2022-06-14T13:23:57Z</time>
      </trkpt>
      <trkpt lat="46.49202" lon="5.22111">
        <ele>228.2</ele>
        <time>2022-06-14T13:24:02Z</time>
      </trkpt>
      <trkpt lat="46.49222" lon="5.22087">
        <ele>228.2</ele>
        <time>2022-06-14T13:24:06Z</time>
      </trkpt>
      <trkpt lat="46.49234" lon="5.22064">
        <ele>228.2</ele>
        <time>2022-06-14T13:24:09Z</time>
      </trkpt>
      <trkpt lat="46.4925" lon="5.22021">
        <ele>228.8</ele>
        <time>2022-06-14T13:24:14Z</time>
      </trkpt>
      <trkpt lat="46.4926" lon="5.21995">
        <ele>228.6</ele>
        <time>2022-06-14T13:24:17Z</time>
      </trkpt>
      <trkpt lat="46.49286" lon="5.21922">
        <ele>228.4</ele>
        <time>2022-06-14T13:24:25Z</time>
      </trkpt>
      <trkpt lat="46.49309" lon="5.21862">
        <ele>227.8</ele>
        <time>2022-06-14T13:24:31Z</time>
      </trkpt>
      <trkpt lat="46.49315" lon="5.21852">
        <ele>227.6</ele>
        <time>2022-06-14T13:24:32Z</time>
      </trkpt>
      <trkpt lat="46.49339" lon="5.21816">
        <ele>226.8</ele>
        <time>2022-06-14T13:24:36Z</time>
      </trkpt>
      <trkpt lat="46.49345" lon="5.21807">
        <ele>226.2</ele>
        <time>2022-06-14T13:24:37Z</time>
      </trkpt>
      <trkpt lat="46.4935" lon="5.21796">
        <ele>226</ele>
        <time>2022-06-14T13:24:38Z</time>
      </trkpt>
      <trkpt lat="46.4936" lon="5.21774">
        <ele>225.2</ele>
        <time>2022-06-14T13:24:40Z</time>
      </trkpt>
      <trkpt lat="46.49374" lon="5.21722">
        <ele>224.2</ele>
        <time>2022-06-14T13:24:44Z</time>
      </trkpt>
      <trkpt lat="46.49377" lon="5.21709">
        <ele>224</ele>
        <time>2022-06-14T13:24:45Z</time>
      </trkpt>
      <trkpt lat="46.49384" lon="5.21682">
        <ele>223.2</ele>
        <time>2022-06-14T13:24:47Z</time>
      </trkpt>
      <trkpt lat="46.49398" lon="5.21627">
        <ele>221.4</ele>
        <time>2022-06-14T13:24:51Z</time>
      </trkpt>
      <trkpt lat="46.49404" lon="5.21599">
        <ele>220.4</ele>
        <time>2022-06-14T13:24:53Z</time>
      </trkpt>
      <trkpt lat="46.49424" lon="5.21532">
        <ele>219.2</ele>
        <time>2022-06-14T13:24:58Z</time>
      </trkpt>
      <trkpt lat="46.49429" lon="5.2152">
        <ele>219.2</ele>
        <time>2022-06-14T13:24:59Z</time>
      </trkpt>
      <trkpt lat="46.4944" lon="5.21495">
        <ele>218</ele>
        <time>2022-06-14T13:25:01Z</time>
      </trkpt>
      <trkpt lat="46.4945" lon="5.21469">
        <ele>217.4</ele>
        <time>2022-06-14T13:25:03Z</time>
      </trkpt>
      <trkpt lat="46.49456" lon="5.21442">
        <ele>217</ele>
        <time>2022-06-14T13:25:05Z</time>
      </trkpt>
      <trkpt lat="46.49467" lon="5.21389">
        <ele>215.8</ele>
        <time>2022-06-14T13:25:10Z</time>
      </trkpt>
      <trkpt lat="46.49475" lon="5.21344">
        <ele>215.6</ele>
        <time>2022-06-14T13:25:13Z</time>
      </trkpt>
      <trkpt lat="46.49487" lon="5.21276">
        <ele>216.8</ele>
        <time>2022-06-14T13:25:19Z</time>
      </trkpt>
      <trkpt lat="46.49488" lon="5.21266">
        <ele>217</ele>
        <time>2022-06-14T13:25:20Z</time>
      </trkpt>
      <trkpt lat="46.49489" lon="5.21226">
        <ele>218</ele>
        <time>2022-06-14T13:25:24Z</time>
      </trkpt>
      <trkpt lat="46.49489" lon="5.21217">
        <ele>218</ele>
        <time>2022-06-14T13:25:25Z</time>
      </trkpt>
      <trkpt lat="46.49486" lon="5.21167">
        <ele>218.8</ele>
        <time>2022-06-14T13:25:30Z</time>
      </trkpt>
      <trkpt lat="46.49485" lon="5.21147">
        <ele>219</ele>
        <time>2022-06-14T13:25:32Z</time>
      </trkpt>
      <trkpt lat="46.4948" lon="5.2108">
        <ele>220</ele>
        <time>2022-06-14T13:25:39Z</time>
      </trkpt>
      <trkpt lat="46.4948" lon="5.21071">
        <ele>220.2</ele>
        <time>2022-06-14T13:25:40Z</time>
      </trkpt>
      <trkpt lat="46.49475" lon="5.20987">
        <ele>221</ele>
        <time>2022-06-14T13:25:49Z</time>
      </trkpt>
      <trkpt lat="46.49469" lon="5.20908">
        <ele>221</ele>
        <time>2022-06-14T13:25:57Z</time>
      </trkpt>
      <trkpt lat="46.49469" lon="5.20897">
        <ele>220.8</ele>
        <time>2022-06-14T13:25:58Z</time>
      </trkpt>
      <trkpt lat="46.49463" lon="5.20817">
        <ele>219.2</ele>
        <time>2022-06-14T13:26:05Z</time>
      </trkpt>
      <trkpt lat="46.49463" lon="5.20805">
        <ele>218.8</ele>
        <time>2022-06-14T13:26:06Z</time>
      </trkpt>
      <trkpt lat="46.49463" lon="5.20782">
        <ele>218</ele>
        <time>2022-06-14T13:26:08Z</time>
      </trkpt>
      <trkpt lat="46.49465" lon="5.20758">
        <ele>217.6</ele>
        <time>2022-06-14T13:26:10Z</time>
      </trkpt>
      <trkpt lat="46.49474" lon="5.20711">
        <ele>216.6</ele>
        <time>2022-06-14T13:26:14Z</time>
      </trkpt>
      <trkpt lat="46.49481" lon="5.20673">
        <ele>215.6</ele>
        <time>2022-06-14T13:26:17Z</time>
      </trkpt>
      <trkpt lat="46.49484" lon="5.20661">
        <ele>215.2</ele>
        <time>2022-06-14T13:26:18Z</time>
      </trkpt>
      <trkpt lat="46.49495" lon="5.20608">
        <ele>214.2</ele>
        <time>2022-06-14T13:26:22Z</time>
      </trkpt>
      <trkpt lat="46.495" lon="5.20583">
        <ele>213.6</ele>
        <time>2022-06-14T13:26:24Z</time>
      </trkpt>
      <trkpt lat="46.49505" lon="5.20558">
        <ele>213.2</ele>
        <time>2022-06-14T13:26:26Z</time>
      </trkpt>
      <trkpt lat="46.49513" lon="5.20517">
        <ele>212.6</ele>
        <time>2022-06-14T13:26:30Z</time>
      </trkpt>
      <trkpt lat="46.49525" lon="5.20451">
        <ele>212.4</ele>
        <time>2022-06-14T13:26:37Z</time>
      </trkpt>
      <trkpt lat="46.49529" lon="5.204">
        <ele>212.6</ele>
        <time>2022-06-14T13:26:43Z</time>
      </trkpt>
      <trkpt lat="46.49527" lon="5.20356">
        <ele>212.4</ele>
        <time>2022-06-14T13:26:47Z</time>
      </trkpt>
      <trkpt lat="46.49523" lon="5.20337">
        <ele>212.6</ele>
        <time>2022-06-14T13:26:49Z</time>
      </trkpt>
      <trkpt lat="46.49514" lon="5.20278">
        <ele>213</ele>
        <time>2022-06-14T13:26:56Z</time>
      </trkpt>
      <trkpt lat="46.49504" lon="5.20235">
        <ele>214.4</ele>
        <time>2022-06-14T13:27:02Z</time>
      </trkpt>
      <trkpt lat="46.49503" lon="5.20228">
        <ele>214.4</ele>
        <time>2022-06-14T13:27:03Z</time>
      </trkpt>
      <trkpt lat="46.49501" lon="5.20221">
        <ele>214.8</ele>
        <time>2022-06-14T13:27:04Z</time>
      </trkpt>
      <trkpt lat="46.49495" lon="5.20202">
        <ele>215.4</ele>
        <time>2022-06-14T13:27:07Z</time>
      </trkpt>
      <trkpt lat="46.49492" lon="5.20189">
        <ele>215.8</ele>
        <time>2022-06-14T13:27:09Z</time>
      </trkpt>
      <trkpt lat="46.49487" lon="5.20165">
        <ele>216.6</ele>
        <time>2022-06-14T13:27:13Z</time>
      </trkpt>
      <trkpt lat="46.49481" lon="5.20141">
        <ele>217.6</ele>
        <time>2022-06-14T13:27:17Z</time>
      </trkpt>
      <trkpt lat="46.49478" lon="5.20129">
        <ele>218.8</ele>
        <time>2022-06-14T13:27:19Z</time>
      </trkpt>
      <trkpt lat="46.49477" lon="5.20124">
        <ele>219.2</ele>
        <time>2022-06-14T13:27:20Z</time>
      </trkpt>
      <trkpt lat="46.49473" lon="5.20108">
        <ele>220</ele>
        <time>2022-06-14T13:27:23Z</time>
      </trkpt>
      <trkpt lat="46.49471" lon="5.20102">
        <ele>220.2</ele>
        <time>2022-06-14T13:27:24Z</time>
      </trkpt>
      <trkpt lat="46.49468" lon="5.20085">
        <ele>221.4</ele>
        <time>2022-06-14T13:27:27Z</time>
      </trkpt>
      <trkpt lat="46.49462" lon="5.20054">
        <ele>222.6</ele>
        <time>2022-06-14T13:27:32Z</time>
      </trkpt>
      <trkpt lat="46.4946" lon="5.20041">
        <ele>223</ele>
        <time>2022-06-14T13:27:34Z</time>
      </trkpt>
      <trkpt lat="46.49457" lon="5.20023">
        <ele>223.4</ele>
        <time>2022-06-14T13:27:37Z</time>
      </trkpt>
      <trkpt lat="46.49456" lon="5.2001">
        <ele>223.6</ele>
        <time>2022-06-14T13:27:39Z</time>
      </trkpt>
      <trkpt lat="46.49455" lon="5.19997">
        <ele>223.8</ele>
        <time>2022-06-14T13:27:41Z</time>
      </trkpt>
      <trkpt lat="46.49452" lon="5.19967">
        <ele>225</ele>
        <time>2022-06-14T13:27:46Z</time>
      </trkpt>
      <trkpt lat="46.4945" lon="5.19932">
        <ele>225.6</ele>
        <time>2022-06-14T13:27:51Z</time>
      </trkpt>
      <trkpt lat="46.4945" lon="5.1991">
        <ele>226</ele>
        <time>2022-06-14T13:27:54Z</time>
      </trkpt>
      <trkpt lat="46.4945" lon="5.19879">
        <ele>226.2</ele>
        <time>2022-06-14T13:27:58Z</time>
      </trkpt>
      <trkpt lat="46.49451" lon="5.19825">
        <ele>226</ele>
        <time>2022-06-14T13:28:04Z</time>
      </trkpt>
      <trkpt lat="46.49455" lon="5.19774">
        <ele>225.6</ele>
        <time>2022-06-14T13:28:09Z</time>
      </trkpt>
      <trkpt lat="46.49456" lon="5.1974">
        <ele>224.6</ele>
        <time>2022-06-14T13:28:12Z</time>
      </trkpt>
      <trkpt lat="46.49455" lon="5.19717">
        <ele>223.6</ele>
        <time>2022-06-14T13:28:14Z</time>
      </trkpt>
      <trkpt lat="46.49454" lon="5.19705">
        <ele>223.2</ele>
        <time>2022-06-14T13:28:15Z</time>
      </trkpt>
      <trkpt lat="46.49449" lon="5.19645">
        <ele>222.2</ele>
        <time>2022-06-14T13:28:20Z</time>
      </trkpt>
      <trkpt lat="46.49449" lon="5.19632">
        <ele>222</ele>
        <time>2022-06-14T13:28:21Z</time>
      </trkpt>
      <trkpt lat="46.49449" lon="5.19584">
        <ele>221.2</ele>
        <time>2022-06-14T13:28:25Z</time>
      </trkpt>
      <trkpt lat="46.49451" lon="5.19547">
        <ele>220.4</ele>
        <time>2022-06-14T13:28:28Z</time>
      </trkpt>
      <trkpt lat="46.49455" lon="5.19509">
        <ele>220</ele>
        <time>2022-06-14T13:28:31Z</time>
      </trkpt>
      <trkpt lat="46.49461" lon="5.19457">
        <ele>218.8</ele>
        <time>2022-06-14T13:28:35Z</time>
      </trkpt>
      <trkpt lat="46.49462" lon="5.19445">
        <ele>218.6</ele>
        <time>2022-06-14T13:28:36Z</time>
      </trkpt>
      <trkpt lat="46.49466" lon="5.19406">
        <ele>217.6</ele>
        <time>2022-06-14T13:28:40Z</time>
      </trkpt>
      <trkpt lat="46.49474" lon="5.19331">
        <ele>216.4</ele>
        <time>2022-06-14T13:28:45Z</time>
      </trkpt>
      <trkpt lat="46.49475" lon="5.19318">
        <ele>216.4</ele>
        <time>2022-06-14T13:28:46Z</time>
      </trkpt>
      <trkpt lat="46.49488" lon="5.1925">
        <ele>216</ele>
        <time>2022-06-14T13:28:52Z</time>
      </trkpt>
      <trkpt lat="46.495" lon="5.19217">
        <ele>216.2</ele>
        <time>2022-06-14T13:28:56Z</time>
      </trkpt>
      <trkpt lat="46.49519" lon="5.19187">
        <ele>216.2</ele>
        <time>2022-06-14T13:29:01Z</time>
      </trkpt>
      <trkpt lat="46.49545" lon="5.19161">
        <ele>217</ele>
        <time>2022-06-14T13:29:07Z</time>
      </trkpt>
      <trkpt lat="46.49561" lon="5.19145">
        <ele>217.6</ele>
        <time>2022-06-14T13:29:11Z</time>
      </trkpt>
      <trkpt lat="46.49581" lon="5.19125">
        <ele>218.2</ele>
        <time>2022-06-14T13:29:16Z</time>
      </trkpt>
      <trkpt lat="46.49585" lon="5.19121">
        <ele>218.4</ele>
        <time>2022-06-14T13:29:17Z</time>
      </trkpt>
      <trkpt lat="46.49588" lon="5.19116">
        <ele>219</ele>
        <time>2022-06-14T13:29:18Z</time>
      </trkpt>
      <trkpt lat="46.49594" lon="5.19108">
        <ele>219.2</ele>
        <time>2022-06-14T13:29:20Z</time>
      </trkpt>
      <trkpt lat="46.49601" lon="5.19098">
        <ele>219.6</ele>
        <time>2022-06-14T13:29:22Z</time>
      </trkpt>
      <trkpt lat="46.49613" lon="5.19074">
        <ele>220</ele>
        <time>2022-06-14T13:29:26Z</time>
      </trkpt>
      <trkpt lat="46.49616" lon="5.19069">
        <ele>220.2</ele>
        <time>2022-06-14T13:29:27Z</time>
      </trkpt>
      <trkpt lat="46.49628" lon="5.19034">
        <ele>220.6</ele>
        <time>2022-06-14T13:29:32Z</time>
      </trkpt>
      <trkpt lat="46.49634" lon="5.19019">
        <ele>221</ele>
        <time>2022-06-14T13:29:34Z</time>
      </trkpt>
      <trkpt lat="46.49641" lon="5.18996">
        <ele>221.2</ele>
        <time>2022-06-14T13:29:37Z</time>
      </trkpt>
      <trkpt lat="46.49644" lon="5.18988">
        <ele>221.4</ele>
        <time>2022-06-14T13:29:38Z</time>
      </trkpt>
      <trkpt lat="46.49647" lon="5.1898">
        <ele>221.4</ele>
        <time>2022-06-14T13:29:39Z</time>
      </trkpt>
      <trkpt lat="46.49654" lon="5.18949">
        <ele>221</ele>
        <time>2022-06-14T13:29:43Z</time>
      </trkpt>
      <trkpt lat="46.49664" lon="5.18879">
        <ele>220</ele>
        <time>2022-06-14T13:29:50Z</time>
      </trkpt>
      <trkpt lat="46.49664" lon="5.18811">
        <ele>220.2</ele>
        <time>2022-06-14T13:29:57Z</time>
      </trkpt>
      <trkpt lat="46.49663" lon="5.18802">
        <ele>220.2</ele>
        <time>2022-06-14T13:29:58Z</time>
      </trkpt>
      <trkpt lat="46.49658" lon="5.18766">
        <ele>220.2</ele>
        <time>2022-06-14T13:30:02Z</time>
      </trkpt>
      <trkpt lat="46.49652" lon="5.18714">
        <ele>221.2</ele>
        <time>2022-06-14T13:30:08Z</time>
      </trkpt>
      <trkpt lat="46.4965" lon="5.18706">
        <ele>221.2</ele>
        <time>2022-06-14T13:30:09Z</time>
      </trkpt>
      <trkpt lat="46.49644" lon="5.18664">
        <ele>222</ele>
        <time>2022-06-14T13:30:14Z</time>
      </trkpt>
      <trkpt lat="46.49639" lon="5.18631">
        <ele>222.4</ele>
        <time>2022-06-14T13:30:18Z</time>
      </trkpt>
      <trkpt lat="46.49631" lon="5.18586">
        <ele>222.6</ele>
        <time>2022-06-14T13:30:23Z</time>
      </trkpt>
      <trkpt lat="46.49618" lon="5.1851">
        <ele>221.6</ele>
        <time>2022-06-14T13:30:31Z</time>
      </trkpt>
      <trkpt lat="46.49611" lon="5.1848">
        <ele>221.2</ele>
        <time>2022-06-14T13:30:34Z</time>
      </trkpt>
      <trkpt lat="46.49604" lon="5.18446">
        <ele>220.6</ele>
        <time>2022-06-14T13:30:37Z</time>
      </trkpt>
      <trkpt lat="46.49598" lon="5.18422">
        <ele>219.8</ele>
        <time>2022-06-14T13:30:39Z</time>
      </trkpt>
      <trkpt lat="46.49591" lon="5.18389">
        <ele>218.6</ele>
        <time>2022-06-14T13:30:42Z</time>
      </trkpt>
      <trkpt lat="46.49584" lon="5.18359">
        <ele>218</ele>
        <time>2022-06-14T13:30:44Z</time>
      </trkpt>
      <trkpt lat="46.49578" lon="5.18333">
        <ele>217.4</ele>
        <time>2022-06-14T13:30:46Z</time>
      </trkpt>
      <trkpt lat="46.49569" lon="5.18295">
        <ele>216.2</ele>
        <time>2022-06-14T13:30:49Z</time>
      </trkpt>
      <trkpt lat="46.49555" lon="5.18236">
        <ele>215.2</ele>
        <time>2022-06-14T13:30:54Z</time>
      </trkpt>
      <trkpt lat="46.49549" lon="5.18213">
        <ele>215</ele>
        <time>2022-06-14T13:30:56Z</time>
      </trkpt>
      <trkpt lat="46.4954" lon="5.18183">
        <ele>215</ele>
        <time>2022-06-14T13:30:59Z</time>
      </trkpt>
      <trkpt lat="46.49525" lon="5.18129">
        <ele>216</ele>
        <time>2022-06-14T13:31:05Z</time>
      </trkpt>
      <trkpt lat="46.49514" lon="5.18089">
        <ele>217.2</ele>
        <time>2022-06-14T13:31:10Z</time>
      </trkpt>
      <trkpt lat="46.49512" lon="5.18081">
        <ele>217.2</ele>
        <time>2022-06-14T13:31:11Z</time>
      </trkpt>
      <trkpt lat="46.49506" lon="5.18052">
        <ele>218.2</ele>
        <time>2022-06-14T13:31:15Z</time>
      </trkpt>
      <trkpt lat="46.49504" lon="5.18038">
        <ele>218.8</ele>
        <time>2022-06-14T13:31:17Z</time>
      </trkpt>
      <trkpt lat="46.49503" lon="5.18031">
        <ele>219</ele>
        <time>2022-06-14T13:31:18Z</time>
      </trkpt>
      <trkpt lat="46.49501" lon="5.18024">
        <ele>219.6</ele>
        <time>2022-06-14T13:31:19Z</time>
      </trkpt>
      <trkpt lat="46.49497" lon="5.18012">
        <ele>220</ele>
        <time>2022-06-14T13:31:21Z</time>
      </trkpt>
      <trkpt lat="46.49494" lon="5.18006">
        <ele>220.4</ele>
        <time>2022-06-14T13:31:22Z</time>
      </trkpt>
      <trkpt lat="46.4949" lon="5.17996">
        <ele>220.8</ele>
        <time>2022-06-14T13:31:24Z</time>
      </trkpt>
      <trkpt lat="46.49484" lon="5.17986">
        <ele>221</ele>
        <time>2022-06-14T13:31:26Z</time>
      </trkpt>
      <trkpt lat="46.49477" lon="5.17976">
        <ele>221.4</ele>
        <time>2022-06-14T13:31:28Z</time>
      </trkpt>
      <trkpt lat="46.49467" lon="5.17959">
        <ele>221.8</ele>
        <time>2022-06-14T13:31:31Z</time>
      </trkpt>
      <trkpt lat="46.49439" lon="5.17912">
        <ele>222</ele>
        <time>2022-06-14T13:31:39Z</time>
      </trkpt>
      <trkpt lat="46.49416" lon="5.17858">
        <ele>223</ele>
        <time>2022-06-14T13:31:47Z</time>
      </trkpt>
      <trkpt lat="46.49412" lon="5.17851">
        <ele>223.2</ele>
        <time>2022-06-14T13:31:48Z</time>
      </trkpt>
      <trkpt lat="46.49386" lon="5.17819">
        <ele>223.8</ele>
        <time>2022-06-14T13:31:54Z</time>
      </trkpt>
      <trkpt lat="46.49362" lon="5.17794">
        <ele>224</ele>
        <time>2022-06-14T13:31:59Z</time>
      </trkpt>
      <trkpt lat="46.49357" lon="5.17788">
        <ele>224.2</ele>
        <time>2022-06-14T13:32:00Z</time>
      </trkpt>
      <trkpt lat="46.49353" lon="5.17782">
        <ele>224.2</ele>
        <time>2022-06-14T13:32:01Z</time>
      </trkpt>
      <trkpt lat="46.49334" lon="5.17751">
        <ele>224.8</ele>
        <time>2022-06-14T13:32:06Z</time>
      </trkpt>
      <trkpt lat="46.49331" lon="5.17743">
        <ele>224.8</ele>
        <time>2022-06-14T13:32:07Z</time>
      </trkpt>
      <trkpt lat="46.49328" lon="5.17735">
        <ele>225</ele>
        <time>2022-06-14T13:32:08Z</time>
      </trkpt>
      <trkpt lat="46.49326" lon="5.17722">
        <ele>225.4</ele>
        <time>2022-06-14T13:32:10Z</time>
      </trkpt>
      <trkpt lat="46.49327" lon="5.17702">
        <ele>225.6</ele>
        <time>2022-06-14T13:32:12Z</time>
      </trkpt>
      <trkpt lat="46.4933" lon="5.17685">
        <ele>225.8</ele>
        <time>2022-06-14T13:32:14Z</time>
      </trkpt>
      <trkpt lat="46.49338" lon="5.17661">
        <ele>225.8</ele>
        <time>2022-06-14T13:32:17Z</time>
      </trkpt>
      <trkpt lat="46.49362" lon="5.17592">
        <ele>225.2</ele>
        <time>2022-06-14T13:32:25Z</time>
      </trkpt>
      <trkpt lat="46.49384" lon="5.17541">
        <ele>224.8</ele>
        <time>2022-06-14T13:32:31Z</time>
      </trkpt>
      <trkpt lat="46.49387" lon="5.17532">
        <ele>224.6</ele>
        <time>2022-06-14T13:32:32Z</time>
      </trkpt>
      <trkpt lat="46.49396" lon="5.17502">
        <ele>224.4</ele>
        <time>2022-06-14T13:32:35Z</time>
      </trkpt>
      <trkpt lat="46.49401" lon="5.17481">
        <ele>224.2</ele>
        <time>2022-06-14T13:32:37Z</time>
      </trkpt>
      <trkpt lat="46.49408" lon="5.17414">
        <ele>223.4</ele>
        <time>2022-06-14T13:32:43Z</time>
      </trkpt>
      <trkpt lat="46.49408" lon="5.17403">
        <ele>223.4</ele>
        <time>2022-06-14T13:32:44Z</time>
      </trkpt>
      <trkpt lat="46.49408" lon="5.17327">
        <ele>223.2</ele>
        <time>2022-06-14T13:32:51Z</time>
      </trkpt>
      <trkpt lat="46.49403" lon="5.17257">
        <ele>223.6</ele>
        <time>2022-06-14T13:32:58Z</time>
      </trkpt>
      <trkpt lat="46.49406" lon="5.172">
        <ele>223.4</ele>
        <time>2022-06-14T13:33:03Z</time>
      </trkpt>
      <trkpt lat="46.49408" lon="5.17188">
        <ele>223.4</ele>
        <time>2022-06-14T13:33:04Z</time>
      </trkpt>
      <trkpt lat="46.49415" lon="5.17164">
        <ele>222.6</ele>
        <time>2022-06-14T13:33:06Z</time>
      </trkpt>
      <trkpt lat="46.4942" lon="5.17153">
        <ele>221.8</ele>
        <time>2022-06-14T13:33:07Z</time>
      </trkpt>
      <trkpt lat="46.49431" lon="5.17133">
        <ele>220.8</ele>
        <time>2022-06-14T13:33:09Z</time>
      </trkpt>
      <trkpt lat="46.49451" lon="5.17099">
        <ele>219.6</ele>
        <time>2022-06-14T13:33:13Z</time>
      </trkpt>
      <trkpt lat="46.4949" lon="5.17037">
        <ele>218.8</ele>
        <time>2022-06-14T13:33:20Z</time>
      </trkpt>
      <trkpt lat="46.49518" lon="5.16994">
        <ele>219.8</ele>
        <time>2022-06-14T13:33:26Z</time>
      </trkpt>
      <trkpt lat="46.49524" lon="5.16977">
        <ele>220.2</ele>
        <time>2022-06-14T13:33:28Z</time>
      </trkpt>
      <trkpt lat="46.49527" lon="5.1696">
        <ele>220.4</ele>
        <time>2022-06-14T13:33:30Z</time>
      </trkpt>
      <trkpt lat="46.49529" lon="5.16933">
        <ele>220.8</ele>
        <time>2022-06-14T13:33:33Z</time>
      </trkpt>
      <trkpt lat="46.49529" lon="5.16925">
        <ele>221.2</ele>
        <time>2022-06-14T13:33:34Z</time>
      </trkpt>
      <trkpt lat="46.49528" lon="5.16916">
        <ele>221.6</ele>
        <time>2022-06-14T13:33:35Z</time>
      </trkpt>
      <trkpt lat="46.49519" lon="5.16867">
        <ele>222.2</ele>
        <time>2022-06-14T13:33:41Z</time>
      </trkpt>
      <trkpt lat="46.49517" lon="5.1686">
        <ele>222.6</ele>
        <time>2022-06-14T13:33:42Z</time>
      </trkpt>
      <trkpt lat="46.4951" lon="5.16839">
        <ele>223.6</ele>
        <time>2022-06-14T13:33:45Z</time>
      </trkpt>
      <trkpt lat="46.49503" lon="5.16819">
        <ele>224.4</ele>
        <time>2022-06-14T13:33:48Z</time>
      </trkpt>
      <trkpt lat="46.49501" lon="5.16812">
        <ele>224.6</ele>
        <time>2022-06-14T13:33:49Z</time>
      </trkpt>
      <trkpt lat="46.49498" lon="5.16796">
        <ele>225</ele>
        <time>2022-06-14T13:33:51Z</time>
      </trkpt>
      <trkpt lat="46.49495" lon="5.16772">
        <ele>225.4</ele>
        <time>2022-06-14T13:33:54Z</time>
      </trkpt>
      <trkpt lat="46.49494" lon="5.16754">
        <ele>225.8</ele>
        <time>2022-06-14T13:33:56Z</time>
      </trkpt>
      <trkpt lat="46.49493" lon="5.16736">
        <ele>226</ele>
        <time>2022-06-14T13:33:58Z</time>
      </trkpt>
      <trkpt lat="46.4949" lon="5.16708">
        <ele>226</ele>
        <time>2022-06-14T13:34:01Z</time>
      </trkpt>
      <trkpt lat="46.49485" lon="5.16652">
        <ele>225.8</ele>
        <time>2022-06-14T13:34:07Z</time>
      </trkpt>
      <trkpt lat="46.49485" lon="5.16644">
        <ele>225.6</ele>
        <time>2022-06-14T13:34:08Z</time>
      </trkpt>
      <trkpt lat="46.49488" lon="5.16631">
        <ele>225</ele>
        <time>2022-06-14T13:34:10Z</time>
      </trkpt>
      <trkpt lat="46.49495" lon="5.16624">
        <ele>224.8</ele>
        <time>2022-06-14T13:34:12Z</time>
      </trkpt>
      <trkpt lat="46.49509" lon="5.16619">
        <ele>224.6</ele>
        <time>2022-06-14T13:34:14Z</time>
      </trkpt>
      <trkpt lat="46.49553" lon="5.16602">
        <ele>224.4</ele>
        <time>2022-06-14T13:34:22Z</time>
      </trkpt>
      <trkpt lat="46.49598" lon="5.16585">
        <ele>224.2</ele>
        <time>2022-06-14T13:34:29Z</time>
      </trkpt>
      <trkpt lat="46.49644" lon="5.16568">
        <ele>223.8</ele>
        <time>2022-06-14T13:34:35Z</time>
      </trkpt>
      <trkpt lat="46.49651" lon="5.16564">
        <ele>223.4</ele>
        <time>2022-06-14T13:34:36Z</time>
      </trkpt>
      <trkpt lat="46.49683" lon="5.16553">
        <ele>222</ele>
        <time>2022-06-14T13:34:40Z</time>
      </trkpt>
      <trkpt lat="46.49701" lon="5.16549">
        <ele>221.4</ele>
        <time>2022-06-14T13:34:42Z</time>
      </trkpt>
      <trkpt lat="46.49709" lon="5.16548">
        <ele>221</ele>
        <time>2022-06-14T13:34:43Z</time>
      </trkpt>
      <trkpt lat="46.49738" lon="5.16549">
        <ele>220.2</ele>
        <time>2022-06-14T13:34:46Z</time>
      </trkpt>
      <trkpt lat="46.49748" lon="5.16551">
        <ele>219.8</ele>
        <time>2022-06-14T13:34:47Z</time>
      </trkpt>
      <trkpt lat="46.49777" lon="5.16556">
        <ele>218.2</ele>
        <time>2022-06-14T13:34:50Z</time>
      </trkpt>
      <trkpt lat="46.49806" lon="5.16562">
        <ele>217</ele>
        <time>2022-06-14T13:34:53Z</time>
      </trkpt>
      <trkpt lat="46.49816" lon="5.16563">
        <ele>216.4</ele>
        <time>2022-06-14T13:34:54Z</time>
      </trkpt>
      <trkpt lat="46.49844" lon="5.16568">
        <ele>216</ele>
        <time>2022-06-14T13:34:57Z</time>
      </trkpt>
      <trkpt lat="46.49906" lon="5.16577">
        <ele>215.2</ele>
        <time>2022-06-14T13:35:04Z</time>
      </trkpt>
      <trkpt lat="46.49931" lon="5.16583">
        <ele>214.8</ele>
        <time>2022-06-14T13:35:07Z</time>
      </trkpt>
      <trkpt lat="46.49965" lon="5.16593">
        <ele>214.6</ele>
        <time>2022-06-14T13:35:11Z</time>
      </trkpt>
      <trkpt lat="46.5002" lon="5.1661">
        <ele>214.4</ele>
        <time>2022-06-14T13:35:18Z</time>
      </trkpt>
      <trkpt lat="46.50037" lon="5.16615">
        <ele>214.4</ele>
        <time>2022-06-14T13:35:20Z</time>
      </trkpt>
      <trkpt lat="46.50082" lon="5.16627">
        <ele>213.8</ele>
        <time>2022-06-14T13:35:25Z</time>
      </trkpt>
      <trkpt lat="46.50098" lon="5.1663">
        <ele>213.2</ele>
        <time>2022-06-14T13:35:28Z</time>
      </trkpt>
      <trkpt lat="46.50117" lon="5.16633">
        <ele>212.8</ele>
        <time>2022-06-14T13:35:29Z</time>
      </trkpt>
      <trkpt lat="46.50154" lon="5.16633">
        <ele>211.6</ele>
        <time>2022-06-14T13:35:33Z</time>
      </trkpt>
      <trkpt lat="46.50191" lon="5.1663">
        <ele>210.6</ele>
        <time>2022-06-14T13:35:37Z</time>
      </trkpt>
      <trkpt lat="46.50234" lon="5.16627">
        <ele>209.4</ele>
        <time>2022-06-14T13:35:42Z</time>
      </trkpt>
      <trkpt lat="46.5028" lon="5.16628">
        <ele>208.8</ele>
        <time>2022-06-14T13:35:47Z</time>
      </trkpt>
      <trkpt lat="46.50288" lon="5.16632">
        <ele>208.6</ele>
        <time>2022-06-14T13:35:48Z</time>
      </trkpt>
      <trkpt lat="46.50298" lon="5.16639">
        <ele>208.6</ele>
        <time>2022-06-14T13:35:49Z</time>
      </trkpt>
      <trkpt lat="46.50304" lon="5.16645">
        <ele>208.4</ele>
        <time>2022-06-14T13:35:50Z</time>
      </trkpt>
      <trkpt lat="46.50311" lon="5.16652">
        <ele>208.4</ele>
        <time>2022-06-14T13:35:51Z</time>
      </trkpt>
      <trkpt lat="46.50337" lon="5.16682">
        <ele>208.6</ele>
        <time>2022-06-14T13:35:55Z</time>
      </trkpt>
      <trkpt lat="46.50344" lon="5.16687">
        <ele>208.6</ele>
        <time>2022-06-14T13:35:56Z</time>
      </trkpt>
      <trkpt lat="46.50382" lon="5.16703">
        <ele>208.8</ele>
        <time>2022-06-14T13:36:01Z</time>
      </trkpt>
      <trkpt lat="46.5043" lon="5.16715">
        <ele>209.4</ele>
        <time>2022-06-14T13:36:08Z</time>
      </trkpt>
      <trkpt lat="46.50449" lon="5.16715">
        <ele>209.6</ele>
        <time>2022-06-14T13:36:11Z</time>
      </trkpt>
      <trkpt lat="46.5046" lon="5.16712">
        <ele>209.8</ele>
        <time>2022-06-14T13:36:13Z</time>
      </trkpt>
      <trkpt lat="46.505" lon="5.16689">
        <ele>210.4</ele>
        <time>2022-06-14T13:36:20Z</time>
      </trkpt>
      <trkpt lat="46.50527" lon="5.16672">
        <ele>210.8</ele>
        <time>2022-06-14T13:36:25Z</time>
      </trkpt>
      <trkpt lat="46.50543" lon="5.16662">
        <ele>211</ele>
        <time>2022-06-14T13:36:28Z</time>
      </trkpt>
      <trkpt lat="46.50597" lon="5.16627">
        <ele>211.4</ele>
        <time>2022-06-14T13:36:38Z</time>
      </trkpt>
      <trkpt lat="46.50643" lon="5.1659">
        <ele>211</ele>
        <time>2022-06-14T13:36:46Z</time>
      </trkpt>
      <trkpt lat="46.50691" lon="5.16552">
        <ele>210.2</ele>
        <time>2022-06-14T13:36:54Z</time>
      </trkpt>
      <trkpt lat="46.50733" lon="5.16537">
        <ele>210</ele>
        <time>2022-06-14T13:37:00Z</time>
      </trkpt>
      <trkpt lat="46.50775" lon="5.16536">
        <ele>210</ele>
        <time>2022-06-14T13:37:06Z</time>
      </trkpt>
      <trkpt lat="46.50817" lon="5.16551">
        <ele>210</ele>
        <time>2022-06-14T13:37:13Z</time>
      </trkpt>
      <trkpt lat="46.50871" lon="5.16569">
        <ele>210.4</ele>
        <time>2022-06-14T13:37:21Z</time>
      </trkpt>
      <trkpt lat="46.50909" lon="5.16569">
        <ele>210.4</ele>
        <time>2022-06-14T13:37:27Z</time>
      </trkpt>
      <trkpt lat="46.50953" lon="5.1656">
        <ele>210</ele>
        <time>2022-06-14T13:37:34Z</time>
      </trkpt>
      <trkpt lat="46.50977" lon="5.16561">
        <ele>210.2</ele>
        <time>2022-06-14T13:37:38Z</time>
      </trkpt>
      <trkpt lat="46.50983" lon="5.16563">
        <ele>210.2</ele>
        <time>2022-06-14T13:37:39Z</time>
      </trkpt>
      <trkpt lat="46.50989" lon="5.16567">
        <ele>210.4</ele>
        <time>2022-06-14T13:37:40Z</time>
      </trkpt>
      <trkpt lat="46.51005" lon="5.1658">
        <ele>210.4</ele>
        <time>2022-06-14T13:37:43Z</time>
      </trkpt>
      <trkpt lat="46.51033" lon="5.16603">
        <ele>210.6</ele>
        <time>2022-06-14T13:37:48Z</time>
      </trkpt>
      <trkpt lat="46.51039" lon="5.16606">
        <ele>210.6</ele>
        <time>2022-06-14T13:37:49Z</time>
      </trkpt>
      <trkpt lat="46.51096" lon="5.16629">
        <ele>211.2</ele>
        <time>2022-06-14T13:37:58Z</time>
      </trkpt>
      <trkpt lat="46.51113" lon="5.16643">
        <ele>211.2</ele>
        <time>2022-06-14T13:38:01Z</time>
      </trkpt>
      <trkpt lat="46.51124" lon="5.16655">
        <ele>211.2</ele>
        <time>2022-06-14T13:38:03Z</time>
      </trkpt>
      <trkpt lat="46.51156" lon="5.16699">
        <ele>212</ele>
        <time>2022-06-14T13:38:11Z</time>
      </trkpt>
      <trkpt lat="46.51167" lon="5.16715">
        <ele>212.2</ele>
        <time>2022-06-14T13:38:13Z</time>
      </trkpt>
      <trkpt lat="46.51198" lon="5.16753">
        <ele>213</ele>
        <time>2022-06-14T13:38:19Z</time>
      </trkpt>
      <trkpt lat="46.51203" lon="5.16759">
        <ele>213.2</ele>
        <time>2022-06-14T13:38:20Z</time>
      </trkpt>
      <trkpt lat="46.5122" lon="5.16773">
        <ele>213.6</ele>
        <time>2022-06-14T13:38:23Z</time>
      </trkpt>
      <trkpt lat="46.51226" lon="5.16776">
        <ele>213.6</ele>
        <time>2022-06-14T13:38:24Z</time>
      </trkpt>
      <trkpt lat="46.51257" lon="5.16781">
        <ele>213.8</ele>
        <time>2022-06-14T13:38:29Z</time>
      </trkpt>
      <trkpt lat="46.51262" lon="5.1678">
        <ele>214</ele>
        <time>2022-06-14T13:38:30Z</time>
      </trkpt>
      <trkpt lat="46.51274" lon="5.16775">
        <ele>214</ele>
        <time>2022-06-14T13:38:32Z</time>
      </trkpt>
      <trkpt lat="46.51279" lon="5.16771">
        <ele>214</ele>
        <time>2022-06-14T13:38:33Z</time>
      </trkpt>
      <trkpt lat="46.51312" lon="5.1675">
        <ele>214.2</ele>
        <time>2022-06-14T13:38:39Z</time>
      </trkpt>
      <trkpt lat="46.51317" lon="5.16747">
        <ele>214.2</ele>
        <time>2022-06-14T13:38:40Z</time>
      </trkpt>
      <trkpt lat="46.51367" lon="5.1671">
        <ele>214.8</ele>
        <time>2022-06-14T13:38:49Z</time>
      </trkpt>
      <trkpt lat="46.51378" lon="5.167">
        <ele>214.8</ele>
        <time>2022-06-14T13:38:51Z</time>
      </trkpt>
      <trkpt lat="46.51394" lon="5.16686">
        <ele>215</ele>
        <time>2022-06-14T13:38:54Z</time>
      </trkpt>
      <trkpt lat="46.51412" lon="5.16676">
        <ele>215.2</ele>
        <time>2022-06-14T13:38:57Z</time>
      </trkpt>
      <trkpt lat="46.51419" lon="5.16674">
        <ele>215.2</ele>
        <time>2022-06-14T13:38:58Z</time>
      </trkpt>
      <trkpt lat="46.51425" lon="5.16673">
        <ele>215.4</ele>
        <time>2022-06-14T13:38:59Z</time>
      </trkpt>
      <trkpt lat="46.51466" lon="5.16676">
        <ele>215.6</ele>
        <time>2022-06-14T13:39:05Z</time>
      </trkpt>
      <trkpt lat="46.51511" lon="5.16691">
        <ele>215.2</ele>
        <time>2022-06-14T13:39:12Z</time>
      </trkpt>
      <trkpt lat="46.51541" lon="5.16703">
        <ele>215</ele>
        <time>2022-06-14T13:39:17Z</time>
      </trkpt>
      <trkpt lat="46.51547" lon="5.16703">
        <ele>215</ele>
        <time>2022-06-14T13:39:18Z</time>
      </trkpt>
      <trkpt lat="46.51552" lon="5.16702">
        <ele>215</ele>
        <time>2022-06-14T13:39:19Z</time>
      </trkpt>
      <trkpt lat="46.51571" lon="5.16693">
        <ele>215.4</ele>
        <time>2022-06-14T13:39:22Z</time>
      </trkpt>
      <trkpt lat="46.51609" lon="5.16665">
        <ele>216</ele>
        <time>2022-06-14T13:39:29Z</time>
      </trkpt>
      <trkpt lat="46.51614" lon="5.16662">
        <ele>216</ele>
        <time>2022-06-14T13:39:30Z</time>
      </trkpt>
      <trkpt lat="46.51627" lon="5.16658">
        <ele>216.4</ele>
        <time>2022-06-14T13:39:32Z</time>
      </trkpt>
      <trkpt lat="46.51634" lon="5.16657">
        <ele>216.6</ele>
        <time>2022-06-14T13:39:33Z</time>
      </trkpt>
      <trkpt lat="46.51674" lon="5.1665">
        <ele>217.2</ele>
        <time>2022-06-14T13:39:39Z</time>
      </trkpt>
      <trkpt lat="46.5168" lon="5.16647">
        <ele>217.2</ele>
        <time>2022-06-14T13:39:40Z</time>
      </trkpt>
      <trkpt lat="46.51694" lon="5.16639">
        <ele>217.4</ele>
        <time>2022-06-14T13:39:42Z</time>
      </trkpt>
      <trkpt lat="46.51706" lon="5.16627">
        <ele>217.4</ele>
        <time>2022-06-14T13:39:44Z</time>
      </trkpt>
      <trkpt lat="46.51738" lon="5.16593">
        <ele>216.4</ele>
        <time>2022-06-14T13:39:49Z</time>
      </trkpt>
      <trkpt lat="46.51745" lon="5.16587">
        <ele>216.2</ele>
        <time>2022-06-14T13:39:50Z</time>
      </trkpt>
      <trkpt lat="46.51762" lon="5.16578">
        <ele>215.6</ele>
        <time>2022-06-14T13:39:52Z</time>
      </trkpt>
      <trkpt lat="46.51773" lon="5.16576">
        <ele>215.2</ele>
        <time>2022-06-14T13:39:53Z</time>
      </trkpt>
      <trkpt lat="46.51788" lon="5.16577">
        <ele>214.4</ele>
        <time>2022-06-14T13:39:55Z</time>
      </trkpt>
      <trkpt lat="46.51798" lon="5.16577">
        <ele>213.6</ele>
        <time>2022-06-14T13:39:56Z</time>
      </trkpt>
      <trkpt lat="46.51846" lon="5.1658">
        <ele>212.8</ele>
        <time>2022-06-14T13:40:02Z</time>
      </trkpt>
      <trkpt lat="46.51883" lon="5.16576">
        <ele>213.4</ele>
        <time>2022-06-14T13:40:08Z</time>
      </trkpt>
      <trkpt lat="46.51925" lon="5.16569">
        <ele>214.6</ele>
        <time>2022-06-14T13:40:15Z</time>
      </trkpt>
      <trkpt lat="46.51934" lon="5.16567">
        <ele>215.2</ele>
        <time>2022-06-14T13:40:17Z</time>
      </trkpt>
      <trkpt lat="46.51955" lon="5.16563">
        <ele>216.4</ele>
        <time>2022-06-14T13:40:21Z</time>
      </trkpt>
      <trkpt lat="46.51959" lon="5.16562">
        <ele>216.8</ele>
        <time>2022-06-14T13:40:22Z</time>
      </trkpt>
      <trkpt lat="46.51976" lon="5.16558">
        <ele>217.6</ele>
        <time>2022-06-14T13:40:25Z</time>
      </trkpt>
      <trkpt lat="46.52" lon="5.16552">
        <ele>218.6</ele>
        <time>2022-06-14T13:40:30Z</time>
      </trkpt>
      <trkpt lat="46.52036" lon="5.16545">
        <ele>219.8</ele>
        <time>2022-06-14T13:40:37Z</time>
      </trkpt>
      <trkpt lat="46.52041" lon="5.16545">
        <ele>220</ele>
        <time>2022-06-14T13:40:38Z</time>
      </trkpt>
      <trkpt lat="46.52058" lon="5.16547">
        <ele>220.2</ele>
        <time>2022-06-14T13:40:41Z</time>
      </trkpt>
      <trkpt lat="46.52069" lon="5.1655">
        <ele>220.4</ele>
        <time>2022-06-14T13:40:43Z</time>
      </trkpt>
      <trkpt lat="46.52086" lon="5.16558">
        <ele>221</ele>
        <time>2022-06-14T13:40:46Z</time>
      </trkpt>
      <trkpt lat="46.52103" lon="5.16567">
        <ele>221.6</ele>
        <time>2022-06-14T13:40:49Z</time>
      </trkpt>
      <trkpt lat="46.52118" lon="5.16576">
        <ele>222</ele>
        <time>2022-06-14T13:40:52Z</time>
      </trkpt>
      <trkpt lat="46.52153" lon="5.16596">
        <ele>222.4</ele>
        <time>2022-06-14T13:40:58Z</time>
      </trkpt>
      <trkpt lat="46.52194" lon="5.16619">
        <ele>222.8</ele>
        <time>2022-06-14T13:41:04Z</time>
      </trkpt>
      <trkpt lat="46.52231" lon="5.1664">
        <ele>222.6</ele>
        <time>2022-06-14T13:41:10Z</time>
      </trkpt>
      <trkpt lat="46.52247" lon="5.16654">
        <ele>222.6</ele>
        <time>2022-06-14T13:41:12Z</time>
      </trkpt>
      <trkpt lat="46.52257" lon="5.16666">
        <ele>222.8</ele>
        <time>2022-06-14T13:41:14Z</time>
      </trkpt>
      <trkpt lat="46.52265" lon="5.16681">
        <ele>222.8</ele>
        <time>2022-06-14T13:41:16Z</time>
      </trkpt>
      <trkpt lat="46.52269" lon="5.1669">
        <ele>223.2</ele>
        <time>2022-06-14T13:41:17Z</time>
      </trkpt>
      <trkpt lat="46.52275" lon="5.16708">
        <ele>223.4</ele>
        <time>2022-06-14T13:41:19Z</time>
      </trkpt>
      <trkpt lat="46.52277" lon="5.16717">
        <ele>223.4</ele>
        <time>2022-06-14T13:41:20Z</time>
      </trkpt>
      <trkpt lat="46.52279" lon="5.16769">
        <ele>223</ele>
        <time>2022-06-14T13:41:25Z</time>
      </trkpt>
      <trkpt lat="46.52279" lon="5.16791">
        <ele>223</ele>
        <time>2022-06-14T13:41:27Z</time>
      </trkpt>
      <trkpt lat="46.52279" lon="5.16833">
        <ele>222.8</ele>
        <time>2022-06-14T13:41:31Z</time>
      </trkpt>
      <trkpt lat="46.52277" lon="5.1687">
        <ele>222.2</ele>
        <time>2022-06-14T13:41:34Z</time>
      </trkpt>
      <trkpt lat="46.52276" lon="5.16904">
        <ele>221.8</ele>
        <time>2022-06-14T13:41:37Z</time>
      </trkpt>
      <trkpt lat="46.52277" lon="5.16918">
        <ele>221.6</ele>
        <time>2022-06-14T13:41:38Z</time>
      </trkpt>
      <trkpt lat="46.52284" lon="5.16952">
        <ele>221.4</ele>
        <time>2022-06-14T13:41:41Z</time>
      </trkpt>
      <trkpt lat="46.52287" lon="5.16963">
        <ele>221.4</ele>
        <time>2022-06-14T13:41:42Z</time>
      </trkpt>
      <trkpt lat="46.52295" lon="5.16981">
        <ele>221</ele>
        <time>2022-06-14T13:41:44Z</time>
      </trkpt>
      <trkpt lat="46.523" lon="5.16992">
        <ele>221</ele>
        <time>2022-06-14T13:41:45Z</time>
      </trkpt>
      <trkpt lat="46.52329" lon="5.17028">
        <ele>220.8</ele>
        <time>2022-06-14T13:41:50Z</time>
      </trkpt>
      <trkpt lat="46.52373" lon="5.17078">
        <ele>220.8</ele>
        <time>2022-06-14T13:41:58Z</time>
      </trkpt>
      <trkpt lat="46.52378" lon="5.17084">
        <ele>221</ele>
        <time>2022-06-14T13:41:59Z</time>
      </trkpt>
      <trkpt lat="46.52425" lon="5.17139">
        <ele>221.4</ele>
        <time>2022-06-14T13:42:07Z</time>
      </trkpt>
      <trkpt lat="46.52435" lon="5.17153">
        <ele>221.4</ele>
        <time>2022-06-14T13:42:09Z</time>
      </trkpt>
      <trkpt lat="46.52478" lon="5.17202">
        <ele>221.4</ele>
        <time>2022-06-14T13:42:16Z</time>
      </trkpt>
      <trkpt lat="46.52482" lon="5.17207">
        <ele>221.4</ele>
        <time>2022-06-14T13:42:17Z</time>
      </trkpt>
      <trkpt lat="46.52531" lon="5.17261">
        <ele>221.2</ele>
        <time>2022-06-14T13:42:25Z</time>
      </trkpt>
      <trkpt lat="46.52536" lon="5.17266">
        <ele>221.2</ele>
        <time>2022-06-14T13:42:26Z</time>
      </trkpt>
      <trkpt lat="46.52582" lon="5.17317">
        <ele>220.4</ele>
        <time>2022-06-14T13:42:33Z</time>
      </trkpt>
      <trkpt lat="46.52597" lon="5.17334">
        <ele>219.8</ele>
        <time>2022-06-14T13:42:35Z</time>
      </trkpt>
      <trkpt lat="46.52628" lon="5.17367">
        <ele>219.2</ele>
        <time>2022-06-14T13:42:39Z</time>
      </trkpt>
      <trkpt lat="46.52642" lon="5.17383">
        <ele>218.6</ele>
        <time>2022-06-14T13:42:41Z</time>
      </trkpt>
      <trkpt lat="46.52658" lon="5.17402">
        <ele>217</ele>
        <time>2022-06-14T13:42:43Z</time>
      </trkpt>
      <trkpt lat="46.52668" lon="5.17413">
        <ele>215.8</ele>
        <time>2022-06-14T13:42:44Z</time>
      </trkpt>
      <trkpt lat="46.52677" lon="5.17423">
        <ele>215.4</ele>
        <time>2022-06-14T13:42:45Z</time>
      </trkpt>
      <trkpt lat="46.52684" lon="5.1743">
        <ele>214.6</ele>
        <time>2022-06-14T13:42:46Z</time>
      </trkpt>
      <trkpt lat="46.52704" lon="5.17451">
        <ele>213.6</ele>
        <time>2022-06-14T13:42:48Z</time>
      </trkpt>
      <trkpt lat="46.52719" lon="5.17469">
        <ele>213</ele>
        <time>2022-06-14T13:42:50Z</time>
      </trkpt>
      <trkpt lat="46.52727" lon="5.1748">
        <ele>212.2</ele>
        <time>2022-06-14T13:42:51Z</time>
      </trkpt>
      <trkpt lat="46.52742" lon="5.17505">
        <ele>210.4</ele>
        <time>2022-06-14T13:42:53Z</time>
      </trkpt>
      <trkpt lat="46.52755" lon="5.17525">
        <ele>208.8</ele>
        <time>2022-06-14T13:42:55Z</time>
      </trkpt>
      <trkpt lat="46.52779" lon="5.17566">
        <ele>207.8</ele>
        <time>2022-06-14T13:42:59Z</time>
      </trkpt>
      <trkpt lat="46.52784" lon="5.17575">
        <ele>207.6</ele>
        <time>2022-06-14T13:43:00Z</time>
      </trkpt>
      <trkpt lat="46.52813" lon="5.17624">
        <ele>208</ele>
        <time>2022-06-14T13:43:06Z</time>
      </trkpt>
      <trkpt lat="46.52817" lon="5.17632">
        <ele>208.2</ele>
        <time>2022-06-14T13:43:07Z</time>
      </trkpt>
      <trkpt lat="46.52829" lon="5.17644">
        <ele>208.6</ele>
        <time>2022-06-14T13:43:09Z</time>
      </trkpt>
      <trkpt lat="46.52835" lon="5.17648">
        <ele>209</ele>
        <time>2022-06-14T13:43:10Z</time>
      </trkpt>
      <trkpt lat="46.52878" lon="5.17668">
        <ele>209.4</ele>
        <time>2022-06-14T13:43:17Z</time>
      </trkpt>
      <trkpt lat="46.52909" lon="5.1768">
        <ele>210</ele>
        <time>2022-06-14T13:43:22Z</time>
      </trkpt>
      <trkpt lat="46.52915" lon="5.17683">
        <ele>210.2</ele>
        <time>2022-06-14T13:43:23Z</time>
      </trkpt>
      <trkpt lat="46.52947" lon="5.17697">
        <ele>210.6</ele>
        <time>2022-06-14T13:43:28Z</time>
      </trkpt>
      <trkpt lat="46.52965" lon="5.17705">
        <ele>210.8</ele>
        <time>2022-06-14T13:43:31Z</time>
      </trkpt>
      <trkpt lat="46.52988" lon="5.17715">
        <ele>211.2</ele>
        <time>2022-06-14T13:43:35Z</time>
      </trkpt>
      <trkpt lat="46.53011" lon="5.17723">
        <ele>211.6</ele>
        <time>2022-06-14T13:43:39Z</time>
      </trkpt>
      <trkpt lat="46.53061" lon="5.17735">
        <ele>212.2</ele>
        <time>2022-06-14T13:43:48Z</time>
      </trkpt>
      <trkpt lat="46.53067" lon="5.17736">
        <ele>212.2</ele>
        <time>2022-06-14T13:43:49Z</time>
      </trkpt>
      <trkpt lat="46.53105" lon="5.17741">
        <ele>213.4</ele>
        <time>2022-06-14T13:43:56Z</time>
      </trkpt>
      <trkpt lat="46.53115" lon="5.17742">
        <ele>213.8</ele>
        <time>2022-06-14T13:43:58Z</time>
      </trkpt>
      <trkpt lat="46.5312" lon="5.17742">
        <ele>214.6</ele>
        <time>2022-06-14T13:43:59Z</time>
      </trkpt>
      <trkpt lat="46.5315" lon="5.17748">
        <ele>215.6</ele>
        <time>2022-06-14T13:44:05Z</time>
      </trkpt>
      <trkpt lat="46.53177" lon="5.17755">
        <ele>216.6</ele>
        <time>2022-06-14T13:44:10Z</time>
      </trkpt>
      <trkpt lat="46.53177" lon="5.17755">
        <ele>216.6</ele>
        <time>2022-06-14T13:44:11Z</time>
      </trkpt>
      <trkpt lat="46.53189" lon="5.17758">
        <ele>216.8</ele>
        <time>2022-06-14T13:44:13Z</time>
      </trkpt>
      <trkpt lat="46.53231" lon="5.17764">
        <ele>217.4</ele>
        <time>2022-06-14T13:44:20Z</time>
      </trkpt>
      <trkpt lat="46.53274" lon="5.17767">
        <ele>217.2</ele>
        <time>2022-06-14T13:44:27Z</time>
      </trkpt>
      <trkpt lat="46.53325" lon="5.17762">
        <ele>216.2</ele>
        <time>2022-06-14T13:44:34Z</time>
      </trkpt>
      <trkpt lat="46.5336" lon="5.17749">
        <ele>215.6</ele>
        <time>2022-06-14T13:44:39Z</time>
      </trkpt>
      <trkpt lat="46.53366" lon="5.17745">
        <ele>215.6</ele>
        <time>2022-06-14T13:44:40Z</time>
      </trkpt>
      <trkpt lat="46.53397" lon="5.17721">
        <ele>216.2</ele>
        <time>2022-06-14T13:44:45Z</time>
      </trkpt>
      <trkpt lat="46.53432" lon="5.17694">
        <ele>216.8</ele>
        <time>2022-06-14T13:44:51Z</time>
      </trkpt>
      <trkpt lat="46.53443" lon="5.17685">
        <ele>217</ele>
        <time>2022-06-14T13:44:53Z</time>
      </trkpt>
      <trkpt lat="46.53477" lon="5.17659">
        <ele>217.2</ele>
        <time>2022-06-14T13:44:59Z</time>
      </trkpt>
      <trkpt lat="46.535" lon="5.17641">
        <ele>218</ele>
        <time>2022-06-14T13:45:03Z</time>
      </trkpt>
      <trkpt lat="46.53531" lon="5.17619">
        <ele>218.2</ele>
        <time>2022-06-14T13:45:08Z</time>
      </trkpt>
      <trkpt lat="46.53568" lon="5.17604">
        <ele>217.8</ele>
        <time>2022-06-14T13:45:13Z</time>
      </trkpt>
      <trkpt lat="46.53615" lon="5.17593">
        <ele>217.2</ele>
        <time>2022-06-14T13:45:19Z</time>
      </trkpt>
      <trkpt lat="46.5363" lon="5.17589">
        <ele>216.8</ele>
        <time>2022-06-14T13:45:21Z</time>
      </trkpt>
      <trkpt lat="46.53675" lon="5.1758">
        <ele>216.6</ele>
        <time>2022-06-14T13:45:27Z</time>
      </trkpt>
      <trkpt lat="46.5373" lon="5.17568">
        <ele>216.2</ele>
        <time>2022-06-14T13:45:35Z</time>
      </trkpt>
      <trkpt lat="46.5379" lon="5.17556">
        <ele>216.6</ele>
        <time>2022-06-14T13:45:43Z</time>
      </trkpt>
      <trkpt lat="46.53798" lon="5.17554">
        <ele>216.6</ele>
        <time>2022-06-14T13:45:44Z</time>
      </trkpt>
      <trkpt lat="46.53852" lon="5.17542">
        <ele>216</ele>
        <time>2022-06-14T13:45:51Z</time>
      </trkpt>
      <trkpt lat="46.53867" lon="5.17536">
        <ele>215.8</ele>
        <time>2022-06-14T13:45:53Z</time>
      </trkpt>
      <trkpt lat="46.5391" lon="5.17509">
        <ele>215.2</ele>
        <time>2022-06-14T13:45:59Z</time>
      </trkpt>
      <trkpt lat="46.53953" lon="5.17476">
        <ele>215.8</ele>
        <time>2022-06-14T13:46:06Z</time>
      </trkpt>
      <trkpt lat="46.53988" lon="5.17448">
        <ele>217.2</ele>
        <time>2022-06-14T13:46:12Z</time>
      </trkpt>
      <trkpt lat="46.53994" lon="5.17443">
        <ele>217.2</ele>
        <time>2022-06-14T13:46:13Z</time>
      </trkpt>
      <trkpt lat="46.54047" lon="5.17404">
        <ele>217.6</ele>
        <time>2022-06-14T13:46:22Z</time>
      </trkpt>
      <trkpt lat="46.54053" lon="5.17399">
        <ele>217.6</ele>
        <time>2022-06-14T13:46:23Z</time>
      </trkpt>
      <trkpt lat="46.54104" lon="5.1736">
        <ele>217.2</ele>
        <time>2022-06-14T13:46:31Z</time>
      </trkpt>
      <trkpt lat="46.54117" lon="5.1735">
        <ele>216.8</ele>
        <time>2022-06-14T13:46:33Z</time>
      </trkpt>
      <trkpt lat="46.54154" lon="5.17323">
        <ele>216.2</ele>
        <time>2022-06-14T13:46:38Z</time>
      </trkpt>
      <trkpt lat="46.5417" lon="5.17311">
        <ele>215</ele>
        <time>2022-06-14T13:46:40Z</time>
      </trkpt>
      <trkpt lat="46.54191" lon="5.17295">
        <ele>213.8</ele>
        <time>2022-06-14T13:46:43Z</time>
      </trkpt>
      <trkpt lat="46.54211" lon="5.17279">
        <ele>213.2</ele>
        <time>2022-06-14T13:46:45Z</time>
      </trkpt>
      <trkpt lat="46.54219" lon="5.17273">
        <ele>212.6</ele>
        <time>2022-06-14T13:46:46Z</time>
      </trkpt>
      <trkpt lat="46.54243" lon="5.17255">
        <ele>211</ele>
        <time>2022-06-14T13:46:49Z</time>
      </trkpt>
      <trkpt lat="46.5427" lon="5.17235">
        <ele>210.6</ele>
        <time>2022-06-14T13:46:53Z</time>
      </trkpt>
      <trkpt lat="46.54299" lon="5.17214">
        <ele>211.2</ele>
        <time>2022-06-14T13:46:58Z</time>
      </trkpt>
      <trkpt lat="46.54326" lon="5.17193">
        <ele>212.4</ele>
        <time>2022-06-14T13:47:03Z</time>
      </trkpt>
      <trkpt lat="46.54332" lon="5.17189">
        <ele>213.2</ele>
        <time>2022-06-14T13:47:04Z</time>
      </trkpt>
      <trkpt lat="46.54344" lon="5.1718">
        <ele>213.6</ele>
        <time>2022-06-14T13:47:06Z</time>
      </trkpt>
      <trkpt lat="46.54376" lon="5.17154">
        <ele>214.6</ele>
        <time>2022-06-14T13:47:12Z</time>
      </trkpt>
      <trkpt lat="46.54381" lon="5.17151">
        <ele>214.8</ele>
        <time>2022-06-14T13:47:13Z</time>
      </trkpt>
      <trkpt lat="46.54393" lon="5.17143">
        <ele>215.2</ele>
        <time>2022-06-14T13:47:15Z</time>
      </trkpt>
      <trkpt lat="46.54405" lon="5.17138">
        <ele>215.2</ele>
        <time>2022-06-14T13:47:17Z</time>
      </trkpt>
      <trkpt lat="46.54443" lon="5.17136">
        <ele>215.6</ele>
        <time>2022-06-14T13:47:23Z</time>
      </trkpt>
      <trkpt lat="46.54491" lon="5.17137">
        <ele>215.6</ele>
        <time>2022-06-14T13:47:30Z</time>
      </trkpt>
      <trkpt lat="46.5455" lon="5.17136">
        <ele>215.4</ele>
        <time>2022-06-14T13:47:38Z</time>
      </trkpt>
      <trkpt lat="46.54557" lon="5.17136">
        <ele>215.2</ele>
        <time>2022-06-14T13:47:39Z</time>
      </trkpt>
      <trkpt lat="46.54617" lon="5.17137">
        <ele>214</ele>
        <time>2022-06-14T13:47:47Z</time>
      </trkpt>
      <trkpt lat="46.54625" lon="5.17137">
        <ele>213.8</ele>
        <time>2022-06-14T13:47:48Z</time>
      </trkpt>
      <trkpt lat="46.54633" lon="5.17137">
        <ele>213.8</ele>
        <time>2022-06-14T13:47:49Z</time>
      </trkpt>
      <trkpt lat="46.54663" lon="5.17138">
        <ele>212.6</ele>
        <time>2022-06-14T13:47:53Z</time>
      </trkpt>
      <trkpt lat="46.54701" lon="5.17142">
        <ele>212</ele>
        <time>2022-06-14T13:47:58Z</time>
      </trkpt>
      <trkpt lat="46.54716" lon="5.17145">
        <ele>211.4</ele>
        <time>2022-06-14T13:48:00Z</time>
      </trkpt>
      <trkpt lat="46.54747" lon="5.17152">
        <ele>210.2</ele>
        <time>2022-06-14T13:48:04Z</time>
      </trkpt>
      <trkpt lat="46.54764" lon="5.17154">
        <ele>209.6</ele>
        <time>2022-06-14T13:48:06Z</time>
      </trkpt>
      <trkpt lat="46.54772" lon="5.17155">
        <ele>209.2</ele>
        <time>2022-06-14T13:48:07Z</time>
      </trkpt>
      <trkpt lat="46.54817" lon="5.17163">
        <ele>208</ele>
        <time>2022-06-14T13:48:12Z</time>
      </trkpt>
      <trkpt lat="46.54836" lon="5.17164">
        <ele>206</ele>
        <time>2022-06-14T13:48:14Z</time>
      </trkpt>
      <trkpt lat="46.54845" lon="5.17162">
        <ele>205.8</ele>
        <time>2022-06-14T13:48:15Z</time>
      </trkpt>
      <trkpt lat="46.54854" lon="5.17159">
        <ele>205.2</ele>
        <time>2022-06-14T13:48:16Z</time>
      </trkpt>
      <trkpt lat="46.54863" lon="5.17155">
        <ele>205</ele>
        <time>2022-06-14T13:48:17Z</time>
      </trkpt>
      <trkpt lat="46.54879" lon="5.17142">
        <ele>204.4</ele>
        <time>2022-06-14T13:48:19Z</time>
      </trkpt>
      <trkpt lat="46.54899" lon="5.17117">
        <ele>204</ele>
        <time>2022-06-14T13:48:22Z</time>
      </trkpt>
      <trkpt lat="46.54912" lon="5.17102">
        <ele>203.8</ele>
        <time>2022-06-14T13:48:24Z</time>
      </trkpt>
      <trkpt lat="46.54919" lon="5.17096">
        <ele>203.6</ele>
        <time>2022-06-14T13:48:25Z</time>
      </trkpt>
      <trkpt lat="46.54934" lon="5.17088">
        <ele>203.6</ele>
        <time>2022-06-14T13:48:27Z</time>
      </trkpt>
      <trkpt lat="46.54956" lon="5.17089">
        <ele>204.2</ele>
        <time>2022-06-14T13:48:30Z</time>
      </trkpt>
      <trkpt lat="46.54963" lon="5.17088">
        <ele>204.2</ele>
        <time>2022-06-14T13:48:31Z</time>
      </trkpt>
      <trkpt lat="46.5497" lon="5.17086">
        <ele>204.4</ele>
        <time>2022-06-14T13:48:32Z</time>
      </trkpt>
      <trkpt lat="46.54976" lon="5.17082">
        <ele>204.4</ele>
        <time>2022-06-14T13:48:33Z</time>
      </trkpt>
      <trkpt lat="46.54982" lon="5.17078">
        <ele>204.6</ele>
        <time>2022-06-14T13:48:34Z</time>
      </trkpt>
      <trkpt lat="46.54993" lon="5.17078">
        <ele>205</ele>
        <time>2022-06-14T13:48:36Z</time>
      </trkpt>
      <trkpt lat="46.54997" lon="5.17088">
        <ele>205.2</ele>
        <time>2022-06-14T13:48:38Z</time>
      </trkpt>
      <trkpt lat="46.54996" lon="5.17095">
        <ele>205.4</ele>
        <time>2022-06-14T13:48:39Z</time>
      </trkpt>
      <trkpt lat="46.54991" lon="5.17121">
        <ele>206</ele>
        <time>2022-06-14T13:48:42Z</time>
      </trkpt>
      <trkpt lat="46.54982" lon="5.17173">
        <ele>206.2</ele>
        <time>2022-06-14T13:48:47Z</time>
      </trkpt>
      <trkpt lat="46.54975" lon="5.17235">
        <ele>205.4</ele>
        <time>2022-06-14T13:48:53Z</time>
      </trkpt>
      <trkpt lat="46.5498" lon="5.17306">
        <ele>205.4</ele>
        <time>2022-06-14T13:49:00Z</time>
      </trkpt>
      <trkpt lat="46.54979" lon="5.1736">
        <ele>205.8</ele>
        <time>2022-06-14T13:49:06Z</time>
      </trkpt>
      <trkpt lat="46.54979" lon="5.1736">
        <ele>206.4</ele>
        <time>2022-06-14T13:49:07Z</time>
      </trkpt>
      <trkpt lat="46.54974" lon="5.17373">
        <ele>206.8</ele>
        <time>2022-06-14T13:49:08Z</time>
      </trkpt>
      <trkpt lat="46.54967" lon="5.17386">
        <ele>207.2</ele>
        <time>2022-06-14T13:49:10Z</time>
      </trkpt>
      <trkpt lat="46.54955" lon="5.17398">
        <ele>207.6</ele>
        <time>2022-06-14T13:49:12Z</time>
      </trkpt>
      <trkpt lat="46.54949" lon="5.17401">
        <ele>207.6</ele>
        <time>2022-06-14T13:49:13Z</time>
      </trkpt>
      <trkpt lat="46.54914" lon="5.17411">
        <ele>207.8</ele>
        <time>2022-06-14T13:49:18Z</time>
      </trkpt>
      <trkpt lat="46.54869" lon="5.17424">
        <ele>207.6</ele>
        <time>2022-06-14T13:49:24Z</time>
      </trkpt>
      <trkpt lat="46.54841" lon="5.17439">
        <ele>207.6</ele>
        <time>2022-06-14T13:49:28Z</time>
      </trkpt>
      <trkpt lat="46.54835" lon="5.17444">
        <ele>207.6</ele>
        <time>2022-06-14T13:49:29Z</time>
      </trkpt>
      <trkpt lat="46.54824" lon="5.17458">
        <ele>207.6</ele>
        <time>2022-06-14T13:49:31Z</time>
      </trkpt>
      <trkpt lat="46.54817" lon="5.17473">
        <ele>207.6</ele>
        <time>2022-06-14T13:49:33Z</time>
      </trkpt>
      <trkpt lat="46.54808" lon="5.17501">
        <ele>208.4</ele>
        <time>2022-06-14T13:49:37Z</time>
      </trkpt>
      <trkpt lat="46.54806" lon="5.17509">
        <ele>209.2</ele>
        <time>2022-06-14T13:49:38Z</time>
      </trkpt>
      <trkpt lat="46.54805" lon="5.17515">
        <ele>209.4</ele>
        <time>2022-06-14T13:49:39Z</time>
      </trkpt>
      <trkpt lat="46.54799" lon="5.17535">
        <ele>210.4</ele>
        <time>2022-06-14T13:49:42Z</time>
      </trkpt>
      <trkpt lat="46.54794" lon="5.17555">
        <ele>211.8</ele>
        <time>2022-06-14T13:49:45Z</time>
      </trkpt>
      <trkpt lat="46.5479" lon="5.17574">
        <ele>213</ele>
        <time>2022-06-14T13:49:48Z</time>
      </trkpt>
      <trkpt lat="46.54783" lon="5.176">
        <ele>214.4</ele>
        <time>2022-06-14T13:49:52Z</time>
      </trkpt>
      <trkpt lat="46.54779" lon="5.17612">
        <ele>214.8</ele>
        <time>2022-06-14T13:49:54Z</time>
      </trkpt>
      <trkpt lat="46.54775" lon="5.17625">
        <ele>215.4</ele>
        <time>2022-06-14T13:49:56Z</time>
      </trkpt>
      <trkpt lat="46.54767" lon="5.17655">
        <ele>216.6</ele>
        <time>2022-06-14T13:50:01Z</time>
      </trkpt>
      <trkpt lat="46.54761" lon="5.17675">
        <ele>217.4</ele>
        <time>2022-06-14T13:50:04Z</time>
      </trkpt>
      <trkpt lat="46.54759" lon="5.17682">
        <ele>217.6</ele>
        <time>2022-06-14T13:50:05Z</time>
      </trkpt>
      <trkpt lat="46.54744" lon="5.17736">
        <ele>218.4</ele>
        <time>2022-06-14T13:50:13Z</time>
      </trkpt>
      <trkpt lat="46.54725" lon="5.17801">
        <ele>218.4</ele>
        <time>2022-06-14T13:50:21Z</time>
      </trkpt>
      <trkpt lat="46.54707" lon="5.17869">
        <ele>218.8</ele>
        <time>2022-06-14T13:50:29Z</time>
      </trkpt>
      <trkpt lat="46.54702" lon="5.17896">
        <ele>218.8</ele>
        <time>2022-06-14T13:50:32Z</time>
      </trkpt>
      <trkpt lat="46.54701" lon="5.17916">
        <ele>218.8</ele>
        <time>2022-06-14T13:50:34Z</time>
      </trkpt>
      <trkpt lat="46.54708" lon="5.17966">
        <ele>218.2</ele>
        <time>2022-06-14T13:50:39Z</time>
      </trkpt>
      <trkpt lat="46.54728" lon="5.18048">
        <ele>217.8</ele>
        <time>2022-06-14T13:50:47Z</time>
      </trkpt>
      <trkpt lat="46.5473" lon="5.18059">
        <ele>217.8</ele>
        <time>2022-06-14T13:50:48Z</time>
      </trkpt>
      <trkpt lat="46.54743" lon="5.18118">
        <ele>218</ele>
        <time>2022-06-14T13:50:54Z</time>
      </trkpt>
      <trkpt lat="46.54749" lon="5.18145">
        <ele>218.2</ele>
        <time>2022-06-14T13:50:57Z</time>
      </trkpt>
      <trkpt lat="46.54763" lon="5.1822">
        <ele>219.2</ele>
        <time>2022-06-14T13:51:05Z</time>
      </trkpt>
      <trkpt lat="46.54777" lon="5.18295">
        <ele>219.8</ele>
        <time>2022-06-14T13:51:13Z</time>
      </trkpt>
      <trkpt lat="46.54783" lon="5.18324">
        <ele>220</ele>
        <time>2022-06-14T13:51:16Z</time>
      </trkpt>
      <trkpt lat="46.54791" lon="5.18385">
        <ele>220.4</ele>
        <time>2022-06-14T13:51:22Z</time>
      </trkpt>
      <trkpt lat="46.54791" lon="5.18396">
        <ele>220.4</ele>
        <time>2022-06-14T13:51:23Z</time>
      </trkpt>
      <trkpt lat="46.5479" lon="5.18407">
        <ele>220.4</ele>
        <time>2022-06-14T13:51:24Z</time>
      </trkpt>
      <trkpt lat="46.54786" lon="5.18428">
        <ele>220.4</ele>
        <time>2022-06-14T13:51:26Z</time>
      </trkpt>
      <trkpt lat="46.54782" lon="5.18439">
        <ele>220.4</ele>
        <time>2022-06-14T13:51:27Z</time>
      </trkpt>
      <trkpt lat="46.54778" lon="5.18449">
        <ele>220.4</ele>
        <time>2022-06-14T13:51:28Z</time>
      </trkpt>
      <trkpt lat="46.54766" lon="5.18468">
        <ele>220.2</ele>
        <time>2022-06-14T13:51:30Z</time>
      </trkpt>
      <trkpt lat="46.54759" lon="5.18476">
        <ele>220.2</ele>
        <time>2022-06-14T13:51:31Z</time>
      </trkpt>
      <trkpt lat="46.54752" lon="5.18483">
        <ele>220</ele>
        <time>2022-06-14T13:51:32Z</time>
      </trkpt>
      <trkpt lat="46.54725" lon="5.18498">
        <ele>218.8</ele>
        <time>2022-06-14T13:51:35Z</time>
      </trkpt>
      <trkpt lat="46.54716" lon="5.18502">
        <ele>218.6</ele>
        <time>2022-06-14T13:51:36Z</time>
      </trkpt>
      <trkpt lat="46.54687" lon="5.18515">
        <ele>217</ele>
        <time>2022-06-14T13:51:39Z</time>
      </trkpt>
      <trkpt lat="46.54667" lon="5.18525">
        <ele>216.4</ele>
        <time>2022-06-14T13:51:41Z</time>
      </trkpt>
      <trkpt lat="46.54661" lon="5.18529">
        <ele>216</ele>
        <time>2022-06-14T13:51:42Z</time>
      </trkpt>
      <trkpt lat="46.54621" lon="5.18562">
        <ele>214.6</ele>
        <time>2022-06-14T13:51:46Z</time>
      </trkpt>
      <trkpt lat="46.54603" lon="5.1858">
        <ele>213.6</ele>
        <time>2022-06-14T13:51:48Z</time>
      </trkpt>
      <trkpt lat="46.54594" lon="5.18588">
        <ele>212.6</ele>
        <time>2022-06-14T13:51:49Z</time>
      </trkpt>
      <trkpt lat="46.54566" lon="5.18612">
        <ele>211.4</ele>
        <time>2022-06-14T13:51:52Z</time>
      </trkpt>
      <trkpt lat="46.54557" lon="5.1862">
        <ele>210.4</ele>
        <time>2022-06-14T13:51:53Z</time>
      </trkpt>
      <trkpt lat="46.54549" lon="5.18627">
        <ele>210.2</ele>
        <time>2022-06-14T13:51:54Z</time>
      </trkpt>
      <trkpt lat="46.54518" lon="5.18654">
        <ele>210</ele>
        <time>2022-06-14T13:51:58Z</time>
      </trkpt>
      <trkpt lat="46.54492" lon="5.18683">
        <ele>210.8</ele>
        <time>2022-06-14T13:52:02Z</time>
      </trkpt>
      <trkpt lat="46.54487" lon="5.18691">
        <ele>212</ele>
        <time>2022-06-14T13:52:03Z</time>
      </trkpt>
      <trkpt lat="46.54478" lon="5.18711">
        <ele>212.8</ele>
        <time>2022-06-14T13:52:05Z</time>
      </trkpt>
      <trkpt lat="46.54475" lon="5.18722">
        <ele>213</ele>
        <time>2022-06-14T13:52:06Z</time>
      </trkpt>
      <trkpt lat="46.54472" lon="5.18733">
        <ele>213.6</ele>
        <time>2022-06-14T13:52:07Z</time>
      </trkpt>
      <trkpt lat="46.54464" lon="5.18768">
        <ele>214</ele>
        <time>2022-06-14T13:52:10Z</time>
      </trkpt>
      <trkpt lat="46.54456" lon="5.18805">
        <ele>214.2</ele>
        <time>2022-06-14T13:52:13Z</time>
      </trkpt>
      <trkpt lat="46.54438" lon="5.18888">
        <ele>214.4</ele>
        <time>2022-06-14T13:52:20Z</time>
      </trkpt>
      <trkpt lat="46.5443" lon="5.1896">
        <ele>214.6</ele>
        <time>2022-06-14T13:52:26Z</time>
      </trkpt>
      <trkpt lat="46.54428" lon="5.19047">
        <ele>213.8</ele>
        <time>2022-06-14T13:52:33Z</time>
      </trkpt>
      <trkpt lat="46.54428" lon="5.19119">
        <ele>213</ele>
        <time>2022-06-14T13:52:39Z</time>
      </trkpt>
      <trkpt lat="46.54429" lon="5.19149">
        <ele>212.6</ele>
        <time>2022-06-14T13:52:42Z</time>
      </trkpt>
      <trkpt lat="46.54437" lon="5.19235">
        <ele>212.4</ele>
        <time>2022-06-14T13:52:49Z</time>
      </trkpt>
      <trkpt lat="46.54445" lon="5.19299">
        <ele>212</ele>
        <time>2022-06-14T13:52:54Z</time>
      </trkpt>
      <trkpt lat="46.54446" lon="5.19312">
        <ele>211.8</ele>
        <time>2022-06-14T13:52:55Z</time>
      </trkpt>
      <trkpt lat="46.54446" lon="5.19339">
        <ele>210.6</ele>
        <time>2022-06-14T13:52:57Z</time>
      </trkpt>
      <trkpt lat="46.54444" lon="5.19352">
        <ele>210.2</ele>
        <time>2022-06-14T13:52:58Z</time>
      </trkpt>
      <trkpt lat="46.5444" lon="5.19378">
        <ele>209.6</ele>
        <time>2022-06-14T13:53:00Z</time>
      </trkpt>
      <trkpt lat="46.54437" lon="5.1939">
        <ele>209.2</ele>
        <time>2022-06-14T13:53:01Z</time>
      </trkpt>
      <trkpt lat="46.54426" lon="5.19424">
        <ele>208.8</ele>
        <time>2022-06-14T13:53:04Z</time>
      </trkpt>
      <trkpt lat="46.5442" lon="5.19434">
        <ele>208.8</ele>
        <time>2022-06-14T13:53:05Z</time>
      </trkpt>
      <trkpt lat="46.54407" lon="5.19449">
        <ele>208.6</ele>
        <time>2022-06-14T13:53:07Z</time>
      </trkpt>
      <trkpt lat="46.54378" lon="5.19465">
        <ele>209.2</ele>
        <time>2022-06-14T13:53:11Z</time>
      </trkpt>
      <trkpt lat="46.54334" lon="5.19476">
        <ele>210.4</ele>
        <time>2022-06-14T13:53:17Z</time>
      </trkpt>
      <trkpt lat="46.54327" lon="5.19477">
        <ele>210.6</ele>
        <time>2022-06-14T13:53:18Z</time>
      </trkpt>
      <trkpt lat="46.54283" lon="5.19488">
        <ele>211.6</ele>
        <time>2022-06-14T13:53:24Z</time>
      </trkpt>
      <trkpt lat="46.54276" lon="5.1949">
        <ele>211.8</ele>
        <time>2022-06-14T13:53:25Z</time>
      </trkpt>
      <trkpt lat="46.54216" lon="5.19504">
        <ele>212.6</ele>
        <time>2022-06-14T13:53:33Z</time>
      </trkpt>
      <trkpt lat="46.54194" lon="5.19509">
        <ele>212.6</ele>
        <time>2022-06-14T13:53:36Z</time>
      </trkpt>
      <trkpt lat="46.5415" lon="5.19519">
        <ele>213.2</ele>
        <time>2022-06-14T13:53:42Z</time>
      </trkpt>
      <trkpt lat="46.54105" lon="5.19533">
        <ele>213</ele>
        <time>2022-06-14T13:53:48Z</time>
      </trkpt>
      <trkpt lat="46.54062" lon="5.19558">
        <ele>213</ele>
        <time>2022-06-14T13:53:54Z</time>
      </trkpt>
      <trkpt lat="46.54031" lon="5.1959">
        <ele>213</ele>
        <time>2022-06-14T13:53:59Z</time>
      </trkpt>
      <trkpt lat="46.54011" lon="5.19637">
        <ele>212.6</ele>
        <time>2022-06-14T13:54:04Z</time>
      </trkpt>
      <trkpt lat="46.53984" lon="5.19712">
        <ele>212</ele>
        <time>2022-06-14T13:54:11Z</time>
      </trkpt>
      <trkpt lat="46.5398" lon="5.19723">
        <ele>212</ele>
        <time>2022-06-14T13:54:12Z</time>
      </trkpt>
      <trkpt lat="46.53963" lon="5.19767">
        <ele>211.2</ele>
        <time>2022-06-14T13:54:16Z</time>
      </trkpt>
      <trkpt lat="46.53951" lon="5.19797">
        <ele>210.6</ele>
        <time>2022-06-14T13:54:19Z</time>
      </trkpt>
      <trkpt lat="46.53922" lon="5.19861">
        <ele>210.8</ele>
        <time>2022-06-14T13:54:26Z</time>
      </trkpt>
      <trkpt lat="46.53894" lon="5.19903">
        <ele>211.8</ele>
        <time>2022-06-14T13:54:32Z</time>
      </trkpt>
      <trkpt lat="46.53881" lon="5.19921">
        <ele>212.4</ele>
        <time>2022-06-14T13:54:35Z</time>
      </trkpt>
      <trkpt lat="46.5387" lon="5.19937">
        <ele>212.6</ele>
        <time>2022-06-14T13:54:38Z</time>
      </trkpt>
      <trkpt lat="46.53856" lon="5.19955">
        <ele>213.6</ele>
        <time>2022-06-14T13:54:41Z</time>
      </trkpt>
      <trkpt lat="46.53846" lon="5.19972">
        <ele>215.2</ele>
        <time>2022-06-14T13:54:44Z</time>
      </trkpt>
      <trkpt lat="46.53836" lon="5.19988">
        <ele>216.2</ele>
        <time>2022-06-14T13:54:47Z</time>
      </trkpt>
      <trkpt lat="46.53823" lon="5.20009">
        <ele>217.2</ele>
        <time>2022-06-14T13:54:51Z</time>
      </trkpt>
      <trkpt lat="46.53809" lon="5.20031">
        <ele>218.4</ele>
        <time>2022-06-14T13:54:55Z</time>
      </trkpt>
      <trkpt lat="46.53792" lon="5.20053">
        <ele>219.2</ele>
        <time>2022-06-14T13:54:59Z</time>
      </trkpt>
      <trkpt lat="46.5378" lon="5.2007">
        <ele>219.6</ele>
        <time>2022-06-14T13:55:02Z</time>
      </trkpt>
      <trkpt lat="46.53764" lon="5.20098">
        <ele>220.2</ele>
        <time>2022-06-14T13:55:06Z</time>
      </trkpt>
      <trkpt lat="46.53732" lon="5.2015">
        <ele>220.2</ele>
        <time>2022-06-14T13:55:13Z</time>
      </trkpt>
      <trkpt lat="46.53695" lon="5.20213">
        <ele>220.2</ele>
        <time>2022-06-14T13:55:21Z</time>
      </trkpt>
      <trkpt lat="46.5369" lon="5.20221">
        <ele>220.2</ele>
        <time>2022-06-14T13:55:22Z</time>
      </trkpt>
      <trkpt lat="46.53651" lon="5.20291">
        <ele>220</ele>
        <time>2022-06-14T13:55:30Z</time>
      </trkpt>
      <trkpt lat="46.53635" lon="5.20318">
        <ele>219.2</ele>
        <time>2022-06-14T13:55:33Z</time>
      </trkpt>
      <trkpt lat="46.5361" lon="5.20355">
        <ele>218.6</ele>
        <time>2022-06-14T13:55:37Z</time>
      </trkpt>
      <trkpt lat="46.53603" lon="5.20364">
        <ele>218</ele>
        <time>2022-06-14T13:55:38Z</time>
      </trkpt>
      <trkpt lat="46.53592" lon="5.20379">
        <ele>217.4</ele>
        <time>2022-06-14T13:55:40Z</time>
      </trkpt>
      <trkpt lat="46.53567" lon="5.20412">
        <ele>216</ele>
        <time>2022-06-14T13:55:43Z</time>
      </trkpt>
      <trkpt lat="46.53553" lon="5.20432">
        <ele>215.4</ele>
        <time>2022-06-14T13:55:45Z</time>
      </trkpt>
      <trkpt lat="46.53539" lon="5.20451">
        <ele>214.6</ele>
        <time>2022-06-14T13:55:47Z</time>
      </trkpt>
      <trkpt lat="46.53519" lon="5.20477">
        <ele>213.4</ele>
        <time>2022-06-14T13:55:50Z</time>
      </trkpt>
      <trkpt lat="46.535" lon="5.20502">
        <ele>213.2</ele>
        <time>2022-06-14T13:55:53Z</time>
      </trkpt>
      <trkpt lat="46.53467" lon="5.20547">
        <ele>214.4</ele>
        <time>2022-06-14T13:55:59Z</time>
      </trkpt>
      <trkpt lat="46.53462" lon="5.20554">
        <ele>214.6</ele>
        <time>2022-06-14T13:56:00Z</time>
      </trkpt>
      <trkpt lat="46.53441" lon="5.20581">
        <ele>215.2</ele>
        <time>2022-06-14T13:56:04Z</time>
      </trkpt>
      <trkpt lat="46.53431" lon="5.20594">
        <ele>215.6</ele>
        <time>2022-06-14T13:56:06Z</time>
      </trkpt>
      <trkpt lat="46.53417" lon="5.20614">
        <ele>216.6</ele>
        <time>2022-06-14T13:56:09Z</time>
      </trkpt>
      <trkpt lat="46.53413" lon="5.20622">
        <ele>216.8</ele>
        <time>2022-06-14T13:56:10Z</time>
      </trkpt>
      <trkpt lat="46.53402" lon="5.20647">
        <ele>217.4</ele>
        <time>2022-06-14T13:56:13Z</time>
      </trkpt>
      <trkpt lat="46.53402" lon="5.20657">
        <ele>217.4</ele>
        <time>2022-06-14T13:56:14Z</time>
      </trkpt>
      <trkpt lat="46.53404" lon="5.20666">
        <ele>217.4</ele>
        <time>2022-06-14T13:56:15Z</time>
      </trkpt>
      <trkpt lat="46.53409" lon="5.20673">
        <ele>217.6</ele>
        <time>2022-06-14T13:56:16Z</time>
      </trkpt>
      <trkpt lat="46.53431" lon="5.20697">
        <ele>218</ele>
        <time>2022-06-14T13:56:20Z</time>
      </trkpt>
      <trkpt lat="46.53452" lon="5.20721">
        <ele>218.6</ele>
        <time>2022-06-14T13:56:24Z</time>
      </trkpt>
      <trkpt lat="46.53467" lon="5.20738">
        <ele>219</ele>
        <time>2022-06-14T13:56:27Z</time>
      </trkpt>
      <trkpt lat="46.5349" lon="5.20765">
        <ele>220.2</ele>
        <time>2022-06-14T13:56:32Z</time>
      </trkpt>
      <trkpt lat="46.53495" lon="5.2077">
        <ele>220.4</ele>
        <time>2022-06-14T13:56:33Z</time>
      </trkpt>
      <trkpt lat="46.53508" lon="5.20784">
        <ele>220.8</ele>
        <time>2022-06-14T13:56:36Z</time>
      </trkpt>
      <trkpt lat="46.53517" lon="5.20791">
        <ele>221</ele>
        <time>2022-06-14T13:56:38Z</time>
      </trkpt>
      <trkpt lat="46.53527" lon="5.20798">
        <ele>221.2</ele>
        <time>2022-06-14T13:56:41Z</time>
      </trkpt>
      <trkpt lat="46.5354" lon="5.20807">
        <ele>221.4</ele>
        <time>2022-06-14T13:56:43Z</time>
      </trkpt>
      <trkpt lat="46.53548" lon="5.20813">
        <ele>221.6</ele>
        <time>2022-06-14T13:56:44Z</time>
      </trkpt>
      <trkpt lat="46.53558" lon="5.20821">
        <ele>221.6</ele>
        <time>2022-06-14T13:56:46Z</time>
      </trkpt>
      <trkpt lat="46.53567" lon="5.20832">
        <ele>221.8</ele>
        <time>2022-06-14T13:56:48Z</time>
      </trkpt>
      <trkpt lat="46.5357" lon="5.20838">
        <ele>222</ele>
        <time>2022-06-14T13:56:49Z</time>
      </trkpt>
      <trkpt lat="46.53573" lon="5.20845">
        <ele>222</ele>
        <time>2022-06-14T13:56:50Z</time>
      </trkpt>
      <trkpt lat="46.53578" lon="5.20861">
        <ele>222.2</ele>
        <time>2022-06-14T13:56:52Z</time>
      </trkpt>
      <trkpt lat="46.53579" lon="5.20869">
        <ele>222.2</ele>
        <time>2022-06-14T13:56:53Z</time>
      </trkpt>
      <trkpt lat="46.5359" lon="5.20938">
        <ele>223</ele>
        <time>2022-06-14T13:57:01Z</time>
      </trkpt>
      <trkpt lat="46.5359" lon="5.20975">
        <ele>222.8</ele>
        <time>2022-06-14T13:57:05Z</time>
      </trkpt>
      <trkpt lat="46.53589" lon="5.20994">
        <ele>223.2</ele>
        <time>2022-06-14T13:57:07Z</time>
      </trkpt>
      <trkpt lat="46.53588" lon="5.21013">
        <ele>223.2</ele>
        <time>2022-06-14T13:57:09Z</time>
      </trkpt>
      <trkpt lat="46.53591" lon="5.21031">
        <ele>223.2</ele>
        <time>2022-06-14T13:57:11Z</time>
      </trkpt>
      <trkpt lat="46.53593" lon="5.2104">
        <ele>223.2</ele>
        <time>2022-06-14T13:57:12Z</time>
      </trkpt>
      <trkpt lat="46.53596" lon="5.21048">
        <ele>223.2</ele>
        <time>2022-06-14T13:57:13Z</time>
      </trkpt>
      <trkpt lat="46.5361" lon="5.21078">
        <ele>223.2</ele>
        <time>2022-06-14T13:57:17Z</time>
      </trkpt>
      <trkpt lat="46.53633" lon="5.21109">
        <ele>223.2</ele>
        <time>2022-06-14T13:57:22Z</time>
      </trkpt>
      <trkpt lat="46.5368" lon="5.21155">
        <ele>223</ele>
        <time>2022-06-14T13:57:31Z</time>
      </trkpt>
      <trkpt lat="46.53685" lon="5.2116">
        <ele>223</ele>
        <time>2022-06-14T13:57:32Z</time>
      </trkpt>
      <trkpt lat="46.53708" lon="5.21185">
        <ele>223.2</ele>
        <time>2022-06-14T13:57:37Z</time>
      </trkpt>
      <trkpt lat="46.53742" lon="5.21222">
        <ele>223.2</ele>
        <time>2022-06-14T13:57:44Z</time>
      </trkpt>
      <trkpt lat="46.53758" lon="5.2124">
        <ele>223.6</ele>
        <time>2022-06-14T13:57:47Z</time>
      </trkpt>
      <trkpt lat="46.53762" lon="5.21246">
        <ele>223.6</ele>
        <time>2022-06-14T13:57:48Z</time>
      </trkpt>
      <trkpt lat="46.53775" lon="5.21264">
        <ele>224.4</ele>
        <time>2022-06-14T13:57:51Z</time>
      </trkpt>
      <trkpt lat="46.53811" lon="5.2132">
        <ele>224.2</ele>
        <time>2022-06-14T13:57:59Z</time>
      </trkpt>
      <trkpt lat="46.53834" lon="5.21359">
        <ele>224.6</ele>
        <time>2022-06-14T13:58:04Z</time>
      </trkpt>
      <trkpt lat="46.53864" lon="5.21407">
        <ele>224.2</ele>
        <time>2022-06-14T13:58:10Z</time>
      </trkpt>
      <trkpt lat="46.53878" lon="5.21428">
        <ele>223.6</ele>
        <time>2022-06-14T13:58:13Z</time>
      </trkpt>
      <trkpt lat="46.53901" lon="5.21465">
        <ele>223.2</ele>
        <time>2022-06-14T13:58:17Z</time>
      </trkpt>
      <trkpt lat="46.53906" lon="5.21473">
        <ele>223.2</ele>
        <time>2022-06-14T13:58:18Z</time>
      </trkpt>
      <trkpt lat="46.53924" lon="5.21495">
        <ele>223</ele>
        <time>2022-06-14T13:58:21Z</time>
      </trkpt>
      <trkpt lat="46.53937" lon="5.21508">
        <ele>222.8</ele>
        <time>2022-06-14T13:58:23Z</time>
      </trkpt>
      <trkpt lat="46.53963" lon="5.21536">
        <ele>222.6</ele>
        <time>2022-06-14T13:58:27Z</time>
      </trkpt>
      <trkpt lat="46.53977" lon="5.21549">
        <ele>222.2</ele>
        <time>2022-06-14T13:58:29Z</time>
      </trkpt>
      <trkpt lat="46.54011" lon="5.21582">
        <ele>221.4</ele>
        <time>2022-06-14T13:58:34Z</time>
      </trkpt>
      <trkpt lat="46.54031" lon="5.21601">
        <ele>221.2</ele>
        <time>2022-06-14T13:58:37Z</time>
      </trkpt>
      <trkpt lat="46.5405" lon="5.2162">
        <ele>220.4</ele>
        <time>2022-06-14T13:58:40Z</time>
      </trkpt>
      <trkpt lat="46.54075" lon="5.21643">
        <ele>220.4</ele>
        <time>2022-06-14T13:58:44Z</time>
      </trkpt>
      <trkpt lat="46.54103" lon="5.21677">
        <ele>220.6</ele>
        <time>2022-06-14T13:58:49Z</time>
      </trkpt>
      <trkpt lat="46.54107" lon="5.21686">
        <ele>220.6</ele>
        <time>2022-06-14T13:58:50Z</time>
      </trkpt>
      <trkpt lat="46.54123" lon="5.21731">
        <ele>220.6</ele>
        <time>2022-06-14T13:58:55Z</time>
      </trkpt>
      <trkpt lat="46.54144" lon="5.21802">
        <ele>221.4</ele>
        <time>2022-06-14T13:59:03Z</time>
      </trkpt>
      <trkpt lat="46.54147" lon="5.21811">
        <ele>221.6</ele>
        <time>2022-06-14T13:59:04Z</time>
      </trkpt>
      <trkpt lat="46.54163" lon="5.21863">
        <ele>222.2</ele>
        <time>2022-06-14T13:59:10Z</time>
      </trkpt>
      <trkpt lat="46.54176" lon="5.21902">
        <ele>222.6</ele>
        <time>2022-06-14T13:59:15Z</time>
      </trkpt>
      <trkpt lat="46.54204" lon="5.2197">
        <ele>222.4</ele>
        <time>2022-06-14T13:59:22Z</time>
      </trkpt>
      <trkpt lat="46.54223" lon="5.22009">
        <ele>221.2</ele>
        <time>2022-06-14T13:59:26Z</time>
      </trkpt>
      <trkpt lat="46.54237" lon="5.2204">
        <ele>220.2</ele>
        <time>2022-06-14T13:59:29Z</time>
      </trkpt>
      <trkpt lat="46.54242" lon="5.22051">
        <ele>219.8</ele>
        <time>2022-06-14T13:59:30Z</time>
      </trkpt>
      <trkpt lat="46.54257" lon="5.22082">
        <ele>218.4</ele>
        <time>2022-06-14T13:59:33Z</time>
      </trkpt>
      <trkpt lat="46.54267" lon="5.22104">
        <ele>218</ele>
        <time>2022-06-14T13:59:35Z</time>
      </trkpt>
      <trkpt lat="46.54271" lon="5.22116">
        <ele>218</ele>
        <time>2022-06-14T13:59:36Z</time>
      </trkpt>
      <trkpt lat="46.54277" lon="5.2214">
        <ele>217.4</ele>
        <time>2022-06-14T13:59:38Z</time>
      </trkpt>
      <trkpt lat="46.54278" lon="5.22166">
        <ele>217.2</ele>
        <time>2022-06-14T13:59:40Z</time>
      </trkpt>
      <trkpt lat="46.54275" lon="5.22255">
        <ele>216.8</ele>
        <time>2022-06-14T13:59:47Z</time>
      </trkpt>
      <trkpt lat="46.54274" lon="5.22267">
        <ele>216.8</ele>
        <time>2022-06-14T13:59:48Z</time>
      </trkpt>
      <trkpt lat="46.54271" lon="5.22334">
        <ele>217.2</ele>
        <time>2022-06-14T13:59:54Z</time>
      </trkpt>
      <trkpt lat="46.5427" lon="5.22391">
        <ele>218.4</ele>
        <time>2022-06-14T14:00:00Z</time>
      </trkpt>
      <trkpt lat="46.5427" lon="5.224">
        <ele>219.4</ele>
        <time>2022-06-14T14:00:01Z</time>
      </trkpt>
      <trkpt lat="46.5427" lon="5.22409">
        <ele>219.8</ele>
        <time>2022-06-14T14:00:02Z</time>
      </trkpt>
      <trkpt lat="46.54268" lon="5.22434">
        <ele>221.2</ele>
        <time>2022-06-14T14:00:05Z</time>
      </trkpt>
      <trkpt lat="46.54267" lon="5.22459">
        <ele>222</ele>
        <time>2022-06-14T14:00:08Z</time>
      </trkpt>
      <trkpt lat="46.54267" lon="5.22468">
        <ele>222.2</ele>
        <time>2022-06-14T14:00:09Z</time>
      </trkpt>
      <trkpt lat="46.54269" lon="5.22509">
        <ele>223.4</ele>
        <time>2022-06-14T14:00:14Z</time>
      </trkpt>
      <trkpt lat="46.5427" lon="5.22518">
        <ele>223.4</ele>
        <time>2022-06-14T14:00:15Z</time>
      </trkpt>
      <trkpt lat="46.54273" lon="5.2253">
        <ele>223.6</ele>
        <time>2022-06-14T14:00:16Z</time>
      </trkpt>
      <trkpt lat="46.54277" lon="5.22538">
        <ele>223.8</ele>
        <time>2022-06-14T14:00:17Z</time>
      </trkpt>
      <trkpt lat="46.54281" lon="5.22545">
        <ele>223.8</ele>
        <time>2022-06-14T14:00:18Z</time>
      </trkpt>
      <trkpt lat="46.54286" lon="5.22551">
        <ele>224</ele>
        <time>2022-06-14T14:00:19Z</time>
      </trkpt>
      <trkpt lat="46.54291" lon="5.22556">
        <ele>224</ele>
        <time>2022-06-14T14:00:20Z</time>
      </trkpt>
      <trkpt lat="46.54308" lon="5.22573">
        <ele>224.4</ele>
        <time>2022-06-14T14:00:23Z</time>
      </trkpt>
      <trkpt lat="46.54341" lon="5.22604">
        <ele>224</ele>
        <time>2022-06-14T14:00:29Z</time>
      </trkpt>
      <trkpt lat="46.54387" lon="5.22649">
        <ele>223.4</ele>
        <time>2022-06-14T14:00:37Z</time>
      </trkpt>
      <trkpt lat="46.54405" lon="5.22667">
        <ele>223.4</ele>
        <time>2022-06-14T14:00:40Z</time>
      </trkpt>
      <trkpt lat="46.54444" lon="5.22706">
        <ele>223.6</ele>
        <time>2022-06-14T14:00:47Z</time>
      </trkpt>
      <trkpt lat="46.5447" lon="5.22744">
        <ele>224</ele>
        <time>2022-06-14T14:00:53Z</time>
      </trkpt>
      <trkpt lat="46.54494" lon="5.2279">
        <ele>224.8</ele>
        <time>2022-06-14T14:00:59Z</time>
      </trkpt>
      <trkpt lat="46.54519" lon="5.22836">
        <ele>225</ele>
        <time>2022-06-14T14:01:05Z</time>
      </trkpt>
      <trkpt lat="46.54524" lon="5.22843">
        <ele>225</ele>
        <time>2022-06-14T14:01:06Z</time>
      </trkpt>
      <trkpt lat="46.5453" lon="5.22849">
        <ele>224.8</ele>
        <time>2022-06-14T14:01:07Z</time>
      </trkpt>
      <trkpt lat="46.54548" lon="5.22862">
        <ele>224.6</ele>
        <time>2022-06-14T14:01:10Z</time>
      </trkpt>
      <trkpt lat="46.54597" lon="5.22888">
        <ele>223.8</ele>
        <time>2022-06-14T14:01:18Z</time>
      </trkpt>
      <trkpt lat="46.54649" lon="5.22915">
        <ele>224</ele>
        <time>2022-06-14T14:01:26Z</time>
      </trkpt>
      <trkpt lat="46.54669" lon="5.22926">
        <ele>223.6</ele>
        <time>2022-06-14T14:01:29Z</time>
      </trkpt>
      <trkpt lat="46.54716" lon="5.22956">
        <ele>222.8</ele>
        <time>2022-06-14T14:01:36Z</time>
      </trkpt>
      <trkpt lat="46.54734" lon="5.22973">
        <ele>222.4</ele>
        <time>2022-06-14T14:01:39Z</time>
      </trkpt>
      <trkpt lat="46.54755" lon="5.22995">
        <ele>221.8</ele>
        <time>2022-06-14T14:01:43Z</time>
      </trkpt>
      <trkpt lat="46.54796" lon="5.23036">
        <ele>221.8</ele>
        <time>2022-06-14T14:01:50Z</time>
      </trkpt>
      <trkpt lat="46.54842" lon="5.23081">
        <ele>222.2</ele>
        <time>2022-06-14T14:01:58Z</time>
      </trkpt>
      <trkpt lat="46.54884" lon="5.23122">
        <ele>221</ele>
        <time>2022-06-14T14:02:04Z</time>
      </trkpt>
      <trkpt lat="46.54892" lon="5.2313">
        <ele>220.6</ele>
        <time>2022-06-14T14:02:05Z</time>
      </trkpt>
      <trkpt lat="46.54907" lon="5.23145">
        <ele>219.8</ele>
        <time>2022-06-14T14:02:07Z</time>
      </trkpt>
      <trkpt lat="46.54931" lon="5.23168">
        <ele>218.8</ele>
        <time>2022-06-14T14:02:10Z</time>
      </trkpt>
      <trkpt lat="46.54939" lon="5.23176">
        <ele>218.6</ele>
        <time>2022-06-14T14:02:11Z</time>
      </trkpt>
      <trkpt lat="46.54963" lon="5.23201">
        <ele>217.6</ele>
        <time>2022-06-14T14:02:14Z</time>
      </trkpt>
      <trkpt lat="46.54971" lon="5.23211">
        <ele>217.4</ele>
        <time>2022-06-14T14:02:15Z</time>
      </trkpt>
      <trkpt lat="46.54978" lon="5.23222">
        <ele>216.4</ele>
        <time>2022-06-14T14:02:16Z</time>
      </trkpt>
      <trkpt lat="46.54984" lon="5.23235">
        <ele>216</ele>
        <time>2022-06-14T14:02:17Z</time>
      </trkpt>
      <trkpt lat="46.54994" lon="5.23262">
        <ele>214.4</ele>
        <time>2022-06-14T14:02:19Z</time>
      </trkpt>
      <trkpt lat="46.55002" lon="5.23289">
        <ele>213.4</ele>
        <time>2022-06-14T14:02:21Z</time>
      </trkpt>
      <trkpt lat="46.55016" lon="5.23333">
        <ele>212</ele>
        <time>2022-06-14T14:02:24Z</time>
      </trkpt>
      <trkpt lat="46.5502" lon="5.23347">
        <ele>211.8</ele>
        <time>2022-06-14T14:02:25Z</time>
      </trkpt>
      <trkpt lat="46.55033" lon="5.23387">
        <ele>210.8</ele>
        <time>2022-06-14T14:02:28Z</time>
      </trkpt>
      <trkpt lat="46.55045" lon="5.23408">
        <ele>210.2</ele>
        <time>2022-06-14T14:02:30Z</time>
      </trkpt>
      <trkpt lat="46.55072" lon="5.23443">
        <ele>209.8</ele>
        <time>2022-06-14T14:02:34Z</time>
      </trkpt>
      <trkpt lat="46.55079" lon="5.23451">
        <ele>209.6</ele>
        <time>2022-06-14T14:02:35Z</time>
      </trkpt>
      <trkpt lat="46.55117" lon="5.23494">
        <ele>210</ele>
        <time>2022-06-14T14:02:41Z</time>
      </trkpt>
      <trkpt lat="46.55163" lon="5.23534">
        <ele>210.8</ele>
        <time>2022-06-14T14:02:48Z</time>
      </trkpt>
      <trkpt lat="46.5517" lon="5.23539">
        <ele>210.8</ele>
        <time>2022-06-14T14:02:49Z</time>
      </trkpt>
      <trkpt lat="46.55216" lon="5.23577">
        <ele>210.8</ele>
        <time>2022-06-14T14:02:56Z</time>
      </trkpt>
      <trkpt lat="46.55269" lon="5.2362">
        <ele>211</ele>
        <time>2022-06-14T14:03:04Z</time>
      </trkpt>
      <trkpt lat="46.55283" lon="5.23631">
        <ele>210.8</ele>
        <time>2022-06-14T14:03:06Z</time>
      </trkpt>
      <trkpt lat="46.55336" lon="5.23673">
        <ele>210.6</ele>
        <time>2022-06-14T14:03:14Z</time>
      </trkpt>
      <trkpt lat="46.55357" lon="5.23688">
        <ele>210.6</ele>
        <time>2022-06-14T14:03:17Z</time>
      </trkpt>
      <trkpt lat="46.55385" lon="5.23708">
        <ele>210.8</ele>
        <time>2022-06-14T14:03:21Z</time>
      </trkpt>
      <trkpt lat="46.55406" lon="5.23722">
        <ele>210.8</ele>
        <time>2022-06-14T14:03:24Z</time>
      </trkpt>
      <trkpt lat="46.55444" lon="5.23749">
        <ele>211.2</ele>
        <time>2022-06-14T14:03:30Z</time>
      </trkpt>
      <trkpt lat="46.55461" lon="5.23762">
        <ele>211.8</ele>
        <time>2022-06-14T14:03:33Z</time>
      </trkpt>
      <trkpt lat="46.55471" lon="5.23769">
        <ele>212.2</ele>
        <time>2022-06-14T14:03:35Z</time>
      </trkpt>
      <trkpt lat="46.55496" lon="5.23785">
        <ele>212.8</ele>
        <time>2022-06-14T14:03:40Z</time>
      </trkpt>
      <trkpt lat="46.55503" lon="5.23791">
        <ele>213.6</ele>
        <time>2022-06-14T14:03:42Z</time>
      </trkpt>
      <trkpt lat="46.5551" lon="5.23796">
        <ele>214</ele>
        <time>2022-06-14T14:03:44Z</time>
      </trkpt>
      <trkpt lat="46.55517" lon="5.23799">
        <ele>215</ele>
        <time>2022-06-14T14:03:46Z</time>
      </trkpt>
      <trkpt lat="46.55526" lon="5.23803">
        <ele>215.6</ele>
        <time>2022-06-14T14:03:48Z</time>
      </trkpt>
      <trkpt lat="46.55534" lon="5.23806">
        <ele>216</ele>
        <time>2022-06-14T14:03:50Z</time>
      </trkpt>
      <trkpt lat="46.55553" lon="5.23815">
        <ele>217.4</ele>
        <time>2022-06-14T14:03:54Z</time>
      </trkpt>
      <trkpt lat="46.55562" lon="5.23816">
        <ele>217.6</ele>
        <time>2022-06-14T14:03:56Z</time>
      </trkpt>
      <trkpt lat="46.55574" lon="5.23817">
        <ele>218.4</ele>
        <time>2022-06-14T14:03:59Z</time>
      </trkpt>
      <trkpt lat="46.55588" lon="5.23818">
        <ele>219.4</ele>
        <time>2022-06-14T14:04:02Z</time>
      </trkpt>
      <trkpt lat="46.55594" lon="5.23821">
        <ele>219.6</ele>
        <time>2022-06-14T14:04:03Z</time>
      </trkpt>
      <trkpt lat="46.55616" lon="5.23821">
        <ele>220.6</ele>
        <time>2022-06-14T14:04:07Z</time>
      </trkpt>
      <trkpt lat="46.55631" lon="5.23819">
        <ele>221.4</ele>
        <time>2022-06-14T14:04:10Z</time>
      </trkpt>
      <trkpt lat="46.55636" lon="5.23818">
        <ele>221.8</ele>
        <time>2022-06-14T14:04:11Z</time>
      </trkpt>
      <trkpt lat="46.55644" lon="5.23816">
        <ele>222.2</ele>
        <time>2022-06-14T14:04:13Z</time>
      </trkpt>
      <trkpt lat="46.55656" lon="5.23816">
        <ele>222.6</ele>
        <time>2022-06-14T14:04:15Z</time>
      </trkpt>
      <trkpt lat="46.5566" lon="5.23816">
        <ele>223</ele>
        <time>2022-06-14T14:04:16Z</time>
      </trkpt>
      <trkpt lat="46.55678" lon="5.23817">
        <ele>224</ele>
        <time>2022-06-14T14:04:20Z</time>
      </trkpt>
      <trkpt lat="46.55693" lon="5.23818">
        <ele>225</ele>
        <time>2022-06-14T14:04:23Z</time>
      </trkpt>
      <trkpt lat="46.55704" lon="5.23822">
        <ele>225.6</ele>
        <time>2022-06-14T14:04:25Z</time>
      </trkpt>
      <trkpt lat="46.55715" lon="5.23827">
        <ele>225.8</ele>
        <time>2022-06-14T14:04:27Z</time>
      </trkpt>
      <trkpt lat="46.55726" lon="5.23834">
        <ele>226.2</ele>
        <time>2022-06-14T14:04:29Z</time>
      </trkpt>
      <trkpt lat="46.55731" lon="5.23837">
        <ele>226.2</ele>
        <time>2022-06-14T14:04:30Z</time>
      </trkpt>
      <trkpt lat="46.55747" lon="5.23849">
        <ele>226.4</ele>
        <time>2022-06-14T14:04:33Z</time>
      </trkpt>
      <trkpt lat="46.55759" lon="5.23857">
        <ele>226.4</ele>
        <time>2022-06-14T14:04:35Z</time>
      </trkpt>
      <trkpt lat="46.55789" lon="5.2388">
        <ele>226.6</ele>
        <time>2022-06-14T14:04:40Z</time>
      </trkpt>
      <trkpt lat="46.55801" lon="5.23886">
        <ele>226.6</ele>
        <time>2022-06-14T14:04:42Z</time>
      </trkpt>
      <trkpt lat="46.55831" lon="5.23909">
        <ele>226.4</ele>
        <time>2022-06-14T14:04:47Z</time>
      </trkpt>
      <trkpt lat="46.55852" lon="5.23925">
        <ele>226.4</ele>
        <time>2022-06-14T14:04:51Z</time>
      </trkpt>
      <trkpt lat="46.55865" lon="5.2394">
        <ele>226.4</ele>
        <time>2022-06-14T14:04:53Z</time>
      </trkpt>
      <trkpt lat="46.55868" lon="5.23946">
        <ele>226.4</ele>
        <time>2022-06-14T14:04:54Z</time>
      </trkpt>
      <trkpt lat="46.55874" lon="5.23961">
        <ele>226</ele>
        <time>2022-06-14T14:04:56Z</time>
      </trkpt>
      <trkpt lat="46.55875" lon="5.2397">
        <ele>226</ele>
        <time>2022-06-14T14:04:57Z</time>
      </trkpt>
      <trkpt lat="46.55876" lon="5.23979">
        <ele>225.8</ele>
        <time>2022-06-14T14:04:58Z</time>
      </trkpt>
      <trkpt lat="46.55881" lon="5.23995">
        <ele>226.2</ele>
        <time>2022-06-14T14:05:00Z</time>
      </trkpt>
      <trkpt lat="46.55886" lon="5.24012">
        <ele>226.4</ele>
        <time>2022-06-14T14:05:02Z</time>
      </trkpt>
      <trkpt lat="46.559" lon="5.24057">
        <ele>226.4</ele>
        <time>2022-06-14T14:05:07Z</time>
      </trkpt>
      <trkpt lat="46.55912" lon="5.24092">
        <ele>226.4</ele>
        <time>2022-06-14T14:05:11Z</time>
      </trkpt>
      <trkpt lat="46.55918" lon="5.2411">
        <ele>226.4</ele>
        <time>2022-06-14T14:05:13Z</time>
      </trkpt>
      <trkpt lat="46.55941" lon="5.24188">
        <ele>226.4</ele>
        <time>2022-06-14T14:05:22Z</time>
      </trkpt>
      <trkpt lat="46.55943" lon="5.24197">
        <ele>226.2</ele>
        <time>2022-06-14T14:05:23Z</time>
      </trkpt>
      <trkpt lat="46.55945" lon="5.24206">
        <ele>226</ele>
        <time>2022-06-14T14:05:24Z</time>
      </trkpt>
      <trkpt lat="46.55951" lon="5.24252">
        <ele>225.6</ele>
        <time>2022-06-14T14:05:29Z</time>
      </trkpt>
      <trkpt lat="46.55955" lon="5.24284">
        <ele>225.4</ele>
        <time>2022-06-14T14:05:33Z</time>
      </trkpt>
      <trkpt lat="46.55954" lon="5.2429">
        <ele>225.4</ele>
        <time>2022-06-14T14:05:34Z</time>
      </trkpt>
      <trkpt lat="46.55952" lon="5.24294">
        <ele>225.4</ele>
        <time>2022-06-14T14:05:35Z</time>
      </trkpt>
      <trkpt lat="46.55944" lon="5.24299">
        <ele>225.4</ele>
        <time>2022-06-14T14:05:37Z</time>
      </trkpt>
      <trkpt lat="46.55939" lon="5.243">
        <ele>225.4</ele>
        <time>2022-06-14T14:05:38Z</time>
      </trkpt>
      <trkpt lat="46.55905" lon="5.243">
        <ele>225.4</ele>
        <time>2022-06-14T14:05:43Z</time>
      </trkpt>
      <trkpt lat="46.5588" lon="5.24301">
        <ele>225</ele>
        <time>2022-06-14T14:05:46Z</time>
      </trkpt>
      <trkpt lat="46.55854" lon="5.24302">
        <ele>224.2</ele>
        <time>2022-06-14T14:05:49Z</time>
      </trkpt>
      <trkpt lat="46.55844" lon="5.24303">
        <ele>223.4</ele>
        <time>2022-06-14T14:05:51Z</time>
      </trkpt>
      <trkpt lat="46.5581" lon="5.24306">
        <ele>222.2</ele>
        <time>2022-06-14T14:05:54Z</time>
      </trkpt>
      <trkpt lat="46.55782" lon="5.24308">
        <ele>221.8</ele>
        <time>2022-06-14T14:05:57Z</time>
      </trkpt>
      <trkpt lat="46.55755" lon="5.2431">
        <ele>221.2</ele>
        <time>2022-06-14T14:06:00Z</time>
      </trkpt>
      <trkpt lat="46.557" lon="5.24313">
        <ele>220.2</ele>
        <time>2022-06-14T14:06:06Z</time>
      </trkpt>
      <trkpt lat="46.55691" lon="5.24313">
        <ele>220.2</ele>
        <time>2022-06-14T14:06:07Z</time>
      </trkpt>
      <trkpt lat="46.55673" lon="5.24314">
        <ele>220.2</ele>
        <time>2022-06-14T14:06:09Z</time>
      </trkpt>
      <trkpt lat="46.55611" lon="5.24317">
        <ele>219.6</ele>
        <time>2022-06-14T14:06:16Z</time>
      </trkpt>
      <trkpt lat="46.5555" lon="5.24322">
        <ele>219.4</ele>
        <time>2022-06-14T14:06:23Z</time>
      </trkpt>
      <trkpt lat="46.55492" lon="5.24325">
        <ele>219.8</ele>
        <time>2022-06-14T14:06:30Z</time>
      </trkpt>
      <trkpt lat="46.55483" lon="5.24325">
        <ele>219.8</ele>
        <time>2022-06-14T14:06:31Z</time>
      </trkpt>
      <trkpt lat="46.55437" lon="5.24329">
        <ele>220.2</ele>
        <time>2022-06-14T14:06:37Z</time>
      </trkpt>
      <trkpt lat="46.5541" lon="5.24332">
        <ele>220.4</ele>
        <time>2022-06-14T14:06:41Z</time>
      </trkpt>
      <trkpt lat="46.55376" lon="5.24337">
        <ele>221</ele>
        <time>2022-06-14T14:06:46Z</time>
      </trkpt>
      <trkpt lat="46.55368" lon="5.24338">
        <ele>221.4</ele>
        <time>2022-06-14T14:06:47Z</time>
      </trkpt>
      <trkpt lat="46.55314" lon="5.24341">
        <ele>222</ele>
        <time>2022-06-14T14:06:53Z</time>
      </trkpt>
      <trkpt lat="46.55259" lon="5.24343">
        <ele>221.6</ele>
        <time>2022-06-14T14:06:59Z</time>
      </trkpt>
      <trkpt lat="46.55209" lon="5.24346">
        <ele>221.2</ele>
        <time>2022-06-14T14:07:05Z</time>
      </trkpt>
      <trkpt lat="46.55162" lon="5.24352">
        <ele>221.6</ele>
        <time>2022-06-14T14:07:11Z</time>
      </trkpt>
      <trkpt lat="46.55118" lon="5.24367">
        <ele>222.4</ele>
        <time>2022-06-14T14:07:17Z</time>
      </trkpt>
      <trkpt lat="46.55112" lon="5.2437">
        <ele>222.4</ele>
        <time>2022-06-14T14:07:18Z</time>
      </trkpt>
      <trkpt lat="46.55087" lon="5.24383">
        <ele>223.6</ele>
        <time>2022-06-14T14:07:22Z</time>
      </trkpt>
      <trkpt lat="46.5506" lon="5.24398">
        <ele>224.2</ele>
        <time>2022-06-14T14:07:26Z</time>
      </trkpt>
      <trkpt lat="46.55047" lon="5.24406">
        <ele>224.6</ele>
        <time>2022-06-14T14:07:28Z</time>
      </trkpt>
      <trkpt lat="46.55005" lon="5.24433">
        <ele>225.2</ele>
        <time>2022-06-14T14:07:34Z</time>
      </trkpt>
      <trkpt lat="46.54983" lon="5.24445">
        <ele>225.6</ele>
        <time>2022-06-14T14:07:37Z</time>
      </trkpt>
      <trkpt lat="46.5494" lon="5.24473">
        <ele>225.8</ele>
        <time>2022-06-14T14:07:43Z</time>
      </trkpt>
      <trkpt lat="46.54889" lon="5.24505">
        <ele>225.6</ele>
        <time>2022-06-14T14:07:50Z</time>
      </trkpt>
      <trkpt lat="46.54836" lon="5.24539">
        <ele>225</ele>
        <time>2022-06-14T14:07:57Z</time>
      </trkpt>
      <trkpt lat="46.54804" lon="5.24559">
        <ele>224.4</ele>
        <time>2022-06-14T14:08:01Z</time>
      </trkpt>
      <trkpt lat="46.54787" lon="5.24569">
        <ele>223.8</ele>
        <time>2022-06-14T14:08:03Z</time>
      </trkpt>
      <trkpt lat="46.54769" lon="5.24577">
        <ele>223.2</ele>
        <time>2022-06-14T14:08:05Z</time>
      </trkpt>
      <trkpt lat="46.54751" lon="5.24583">
        <ele>222.6</ele>
        <time>2022-06-14T14:08:07Z</time>
      </trkpt>
      <trkpt lat="46.54742" lon="5.24584">
        <ele>222.4</ele>
        <time>2022-06-14T14:08:08Z</time>
      </trkpt>
      <trkpt lat="46.54733" lon="5.24585">
        <ele>222</ele>
        <time>2022-06-14T14:08:09Z</time>
      </trkpt>
      <trkpt lat="46.54703" lon="5.24583">
        <ele>220.8</ele>
        <time>2022-06-14T14:08:12Z</time>
      </trkpt>
      <trkpt lat="46.54699" lon="5.24582">
        <ele>220.4</ele>
        <time>2022-06-14T14:08:13Z</time>
      </trkpt>
      <trkpt lat="46.5468" lon="5.24578">
        <ele>220</ele>
        <time>2022-06-14T14:08:15Z</time>
      </trkpt>
      <trkpt lat="46.54618" lon="5.24566">
        <ele>218.8</ele>
        <time>2022-06-14T14:08:21Z</time>
      </trkpt>
      <trkpt lat="46.546" lon="5.24557">
        <ele>218.2</ele>
        <time>2022-06-14T14:08:23Z</time>
      </trkpt>
      <trkpt lat="46.5458" lon="5.24552">
        <ele>217.6</ele>
        <time>2022-06-14T14:08:25Z</time>
      </trkpt>
      <trkpt lat="46.54529" lon="5.24541">
        <ele>216.4</ele>
        <time>2022-06-14T14:08:30Z</time>
      </trkpt>
      <trkpt lat="46.54488" lon="5.24532">
        <ele>215.8</ele>
        <time>2022-06-14T14:08:34Z</time>
      </trkpt>
      <trkpt lat="46.54468" lon="5.24528">
        <ele>215.2</ele>
        <time>2022-06-14T14:08:36Z</time>
      </trkpt>
      <trkpt lat="46.54408" lon="5.24515">
        <ele>214.2</ele>
        <time>2022-06-14T14:08:42Z</time>
      </trkpt>
      <trkpt lat="46.54389" lon="5.24511">
        <ele>214</ele>
        <time>2022-06-14T14:08:44Z</time>
      </trkpt>
      <trkpt lat="46.54334" lon="5.245">
        <ele>213.4</ele>
        <time>2022-06-14T14:08:50Z</time>
      </trkpt>
      <trkpt lat="46.54325" lon="5.24498">
        <ele>213</ele>
        <time>2022-06-14T14:08:51Z</time>
      </trkpt>
      <trkpt lat="46.54316" lon="5.24496">
        <ele>213</ele>
        <time>2022-06-14T14:08:52Z</time>
      </trkpt>
      <trkpt lat="46.54261" lon="5.24486">
        <ele>212.4</ele>
        <time>2022-06-14T14:08:58Z</time>
      </trkpt>
      <trkpt lat="46.54234" lon="5.24481">
        <ele>212.4</ele>
        <time>2022-06-14T14:09:01Z</time>
      </trkpt>
      <trkpt lat="46.54197" lon="5.24474">
        <ele>212</ele>
        <time>2022-06-14T14:09:05Z</time>
      </trkpt>
      <trkpt lat="46.54142" lon="5.24463">
        <ele>211.4</ele>
        <time>2022-06-14T14:09:11Z</time>
      </trkpt>
      <trkpt lat="46.54124" lon="5.2446">
        <ele>211.2</ele>
        <time>2022-06-14T14:09:13Z</time>
      </trkpt>
      <trkpt lat="46.54062" lon="5.24448">
        <ele>211</ele>
        <time>2022-06-14T14:09:20Z</time>
      </trkpt>
      <trkpt lat="46.54046" lon="5.24446">
        <ele>211.4</ele>
        <time>2022-06-14T14:09:22Z</time>
      </trkpt>
      <trkpt lat="46.54022" lon="5.24442">
        <ele>212</ele>
        <time>2022-06-14T14:09:25Z</time>
      </trkpt>
      <trkpt lat="46.53984" lon="5.24434">
        <ele>213.2</ele>
        <time>2022-06-14T14:09:30Z</time>
      </trkpt>
      <trkpt lat="46.53977" lon="5.24433">
        <ele>213.4</ele>
        <time>2022-06-14T14:09:31Z</time>
      </trkpt>
      <trkpt lat="46.53947" lon="5.24426">
        <ele>214.4</ele>
        <time>2022-06-14T14:09:35Z</time>
      </trkpt>
      <trkpt lat="46.5394" lon="5.24424">
        <ele>214.4</ele>
        <time>2022-06-14T14:09:36Z</time>
      </trkpt>
      <trkpt lat="46.53919" lon="5.2442">
        <ele>215.6</ele>
        <time>2022-06-14T14:09:39Z</time>
      </trkpt>
      <trkpt lat="46.53894" lon="5.24417">
        <ele>216.6</ele>
        <time>2022-06-14T14:09:43Z</time>
      </trkpt>
      <trkpt lat="46.53858" lon="5.24411">
        <ele>217.8</ele>
        <time>2022-06-14T14:09:48Z</time>
      </trkpt>
      <trkpt lat="46.53845" lon="5.24409">
        <ele>218</ele>
        <time>2022-06-14T14:09:50Z</time>
      </trkpt>
      <trkpt lat="46.53826" lon="5.24405">
        <ele>219.2</ele>
        <time>2022-06-14T14:09:53Z</time>
      </trkpt>
      <trkpt lat="46.53796" lon="5.244">
        <ele>220.2</ele>
        <time>2022-06-14T14:09:58Z</time>
      </trkpt>
      <trkpt lat="46.5379" lon="5.24399">
        <ele>220.2</ele>
        <time>2022-06-14T14:09:59Z</time>
      </trkpt>
      <trkpt lat="46.53747" lon="5.24391">
        <ele>221.2</ele>
        <time>2022-06-14T14:10:06Z</time>
      </trkpt>
      <trkpt lat="46.53741" lon="5.2439">
        <ele>221.2</ele>
        <time>2022-06-14T14:10:07Z</time>
      </trkpt>
      <trkpt lat="46.53709" lon="5.24385">
        <ele>221.8</ele>
        <time>2022-06-14T14:10:12Z</time>
      </trkpt>
      <trkpt lat="46.53682" lon="5.2438">
        <ele>222</ele>
        <time>2022-06-14T14:10:16Z</time>
      </trkpt>
      <trkpt lat="46.53649" lon="5.24374">
        <ele>222.2</ele>
        <time>2022-06-14T14:10:21Z</time>
      </trkpt>
      <trkpt lat="46.53616" lon="5.24368">
        <ele>222.2</ele>
        <time>2022-06-14T14:10:26Z</time>
      </trkpt>
      <trkpt lat="46.5356" lon="5.24357">
        <ele>222.6</ele>
        <time>2022-06-14T14:10:34Z</time>
      </trkpt>
      <trkpt lat="46.53546" lon="5.24355">
        <ele>222.8</ele>
        <time>2022-06-14T14:10:36Z</time>
      </trkpt>
      <trkpt lat="46.53484" lon="5.24344">
        <ele>223.2</ele>
        <time>2022-06-14T14:10:44Z</time>
      </trkpt>
      <trkpt lat="46.53446" lon="5.24337">
        <ele>223.4</ele>
        <time>2022-06-14T14:10:49Z</time>
      </trkpt>
      <trkpt lat="46.53416" lon="5.24331">
        <ele>223.6</ele>
        <time>2022-06-14T14:10:53Z</time>
      </trkpt>
      <trkpt lat="46.53358" lon="5.24321">
        <ele>224.2</ele>
        <time>2022-06-14T14:11:01Z</time>
      </trkpt>
      <trkpt lat="46.53351" lon="5.2432">
        <ele>224.2</ele>
        <time>2022-06-14T14:11:02Z</time>
      </trkpt>
      <trkpt lat="46.53337" lon="5.24316">
        <ele>224.2</ele>
        <time>2022-06-14T14:11:04Z</time>
      </trkpt>
      <trkpt lat="46.53276" lon="5.24305">
        <ele>224.2</ele>
        <time>2022-06-14T14:11:12Z</time>
      </trkpt>
      <trkpt lat="46.53222" lon="5.24295">
        <ele>224.2</ele>
        <time>2022-06-14T14:11:19Z</time>
      </trkpt>
      <trkpt lat="46.53207" lon="5.24291">
        <ele>224.2</ele>
        <time>2022-06-14T14:11:21Z</time>
      </trkpt>
      <trkpt lat="46.53154" lon="5.2428">
        <ele>224.6</ele>
        <time>2022-06-14T14:11:28Z</time>
      </trkpt>
      <trkpt lat="46.53125" lon="5.24272">
        <ele>224.6</ele>
        <time>2022-06-14T14:11:32Z</time>
      </trkpt>
      <trkpt lat="46.53071" lon="5.2426">
        <ele>224.6</ele>
        <time>2022-06-14T14:11:39Z</time>
      </trkpt>
      <trkpt lat="46.53048" lon="5.24255">
        <ele>224.6</ele>
        <time>2022-06-14T14:11:42Z</time>
      </trkpt>
      <trkpt lat="46.52994" lon="5.24241">
        <ele>225</ele>
        <time>2022-06-14T14:11:49Z</time>
      </trkpt>
      <trkpt lat="46.52972" lon="5.24236">
        <ele>225</ele>
        <time>2022-06-14T14:11:52Z</time>
      </trkpt>
      <trkpt lat="46.52912" lon="5.24222">
        <ele>225.2</ele>
        <time>2022-06-14T14:12:00Z</time>
      </trkpt>
      <trkpt lat="46.52905" lon="5.2422">
        <ele>225.2</ele>
        <time>2022-06-14T14:12:01Z</time>
      </trkpt>
      <trkpt lat="46.52845" lon="5.24207">
        <ele>225.6</ele>
        <time>2022-06-14T14:12:09Z</time>
      </trkpt>
      <trkpt lat="46.5283" lon="5.24204">
        <ele>225.8</ele>
        <time>2022-06-14T14:12:11Z</time>
      </trkpt>
      <trkpt lat="46.52779" lon="5.24191">
        <ele>226.4</ele>
        <time>2022-06-14T14:12:18Z</time>
      </trkpt>
      <trkpt lat="46.52771" lon="5.24189">
        <ele>226.4</ele>
        <time>2022-06-14T14:12:19Z</time>
      </trkpt>
      <trkpt lat="46.52718" lon="5.24177">
        <ele>226.6</ele>
        <time>2022-06-14T14:12:26Z</time>
      </trkpt>
      <trkpt lat="46.5271" lon="5.24175">
        <ele>226.6</ele>
        <time>2022-06-14T14:12:27Z</time>
      </trkpt>
      <trkpt lat="46.52656" lon="5.24162">
        <ele>226.6</ele>
        <time>2022-06-14T14:12:34Z</time>
      </trkpt>
      <trkpt lat="46.52633" lon="5.24157">
        <ele>226.4</ele>
        <time>2022-06-14T14:12:37Z</time>
      </trkpt>
      <trkpt lat="46.52579" lon="5.24144">
        <ele>226.8</ele>
        <time>2022-06-14T14:12:44Z</time>
      </trkpt>
      <trkpt lat="46.52541" lon="5.24135">
        <ele>227</ele>
        <time>2022-06-14T14:12:49Z</time>
      </trkpt>
      <trkpt lat="46.52486" lon="5.24123">
        <ele>227.2</ele>
        <time>2022-06-14T14:12:56Z</time>
      </trkpt>
      <trkpt lat="46.5247" lon="5.24119">
        <ele>227</ele>
        <time>2022-06-14T14:12:58Z</time>
      </trkpt>
      <trkpt lat="46.52413" lon="5.24105">
        <ele>226.8</ele>
        <time>2022-06-14T14:13:05Z</time>
      </trkpt>
      <trkpt lat="46.52404" lon="5.24103">
        <ele>226.6</ele>
        <time>2022-06-14T14:13:06Z</time>
      </trkpt>
      <trkpt lat="46.52363" lon="5.24094">
        <ele>226.2</ele>
        <time>2022-06-14T14:13:11Z</time>
      </trkpt>
      <trkpt lat="46.52341" lon="5.24091">
        <ele>226</ele>
        <time>2022-06-14T14:13:14Z</time>
      </trkpt>
      <trkpt lat="46.52289" lon="5.24096">
        <ele>225.8</ele>
        <time>2022-06-14T14:13:20Z</time>
      </trkpt>
      <trkpt lat="46.52256" lon="5.24102">
        <ele>225.6</ele>
        <time>2022-06-14T14:13:24Z</time>
      </trkpt>
      <trkpt lat="46.52215" lon="5.24108">
        <ele>225.4</ele>
        <time>2022-06-14T14:13:29Z</time>
      </trkpt>
      <trkpt lat="46.52167" lon="5.24117">
        <ele>224.8</ele>
        <time>2022-06-14T14:13:35Z</time>
      </trkpt>
      <trkpt lat="46.52151" lon="5.24119">
        <ele>224.4</ele>
        <time>2022-06-14T14:13:37Z</time>
      </trkpt>
      <trkpt lat="46.5209" lon="5.24128">
        <ele>224</ele>
        <time>2022-06-14T14:13:44Z</time>
      </trkpt>
      <trkpt lat="46.52062" lon="5.24133">
        <ele>223.6</ele>
        <time>2022-06-14T14:13:47Z</time>
      </trkpt>
      <trkpt lat="46.52007" lon="5.24142">
        <ele>222</ele>
        <time>2022-06-14T14:13:53Z</time>
      </trkpt>
      <trkpt lat="46.5196" lon="5.24151">
        <ele>220.6</ele>
        <time>2022-06-14T14:13:58Z</time>
      </trkpt>
      <trkpt lat="46.51913" lon="5.24158">
        <ele>219.6</ele>
        <time>2022-06-14T14:14:03Z</time>
      </trkpt>
      <trkpt lat="46.51903" lon="5.2416">
        <ele>219.4</ele>
        <time>2022-06-14T14:14:04Z</time>
      </trkpt>
      <trkpt lat="46.51875" lon="5.24164">
        <ele>218.4</ele>
        <time>2022-06-14T14:14:07Z</time>
      </trkpt>
      <trkpt lat="46.51827" lon="5.24173">
        <ele>218.2</ele>
        <time>2022-06-14T14:14:13Z</time>
      </trkpt>
      <trkpt lat="46.51769" lon="5.24184">
        <ele>218.8</ele>
        <time>2022-06-14T14:14:20Z</time>
      </trkpt>
      <trkpt lat="46.51738" lon="5.24188">
        <ele>219.4</ele>
        <time>2022-06-14T14:14:24Z</time>
      </trkpt>
      <trkpt lat="46.51715" lon="5.24193">
        <ele>220.4</ele>
        <time>2022-06-14T14:14:27Z</time>
      </trkpt>
      <trkpt lat="46.51708" lon="5.24194">
        <ele>220.6</ele>
        <time>2022-06-14T14:14:28Z</time>
      </trkpt>
      <trkpt lat="46.51668" lon="5.24209">
        <ele>221</ele>
        <time>2022-06-14T14:14:33Z</time>
      </trkpt>
      <trkpt lat="46.5161" lon="5.24232">
        <ele>221.2</ele>
        <time>2022-06-14T14:14:40Z</time>
      </trkpt>
      <trkpt lat="46.51601" lon="5.24235">
        <ele>221.2</ele>
        <time>2022-06-14T14:14:41Z</time>
      </trkpt>
      <trkpt lat="46.51544" lon="5.24258">
        <ele>219.4</ele>
        <time>2022-06-14T14:14:47Z</time>
      </trkpt>
      <trkpt lat="46.51514" lon="5.2427">
        <ele>218.4</ele>
        <time>2022-06-14T14:14:50Z</time>
      </trkpt>
      <trkpt lat="46.51484" lon="5.24282">
        <ele>217</ele>
        <time>2022-06-14T14:14:53Z</time>
      </trkpt>
      <trkpt lat="46.51464" lon="5.24289">
        <ele>216.6</ele>
        <time>2022-06-14T14:14:55Z</time>
      </trkpt>
      <trkpt lat="46.51454" lon="5.24293">
        <ele>216</ele>
        <time>2022-06-14T14:14:56Z</time>
      </trkpt>
      <trkpt lat="46.51414" lon="5.24309">
        <ele>214.8</ele>
        <time>2022-06-14T14:15:00Z</time>
      </trkpt>
      <trkpt lat="46.51384" lon="5.24321">
        <ele>213.8</ele>
        <time>2022-06-14T14:15:03Z</time>
      </trkpt>
      <trkpt lat="46.51364" lon="5.24329">
        <ele>213.2</ele>
        <time>2022-06-14T14:15:05Z</time>
      </trkpt>
      <trkpt lat="46.51344" lon="5.24337">
        <ele>212.6</ele>
        <time>2022-06-14T14:15:07Z</time>
      </trkpt>
      <trkpt lat="46.51314" lon="5.24348">
        <ele>211.2</ele>
        <time>2022-06-14T14:15:10Z</time>
      </trkpt>
      <trkpt lat="46.51289" lon="5.24358">
        <ele>210.2</ele>
        <time>2022-06-14T14:15:13Z</time>
      </trkpt>
      <trkpt lat="46.51269" lon="5.24366">
        <ele>209.6</ele>
        <time>2022-06-14T14:15:15Z</time>
      </trkpt>
      <trkpt lat="46.51236" lon="5.24379">
        <ele>209</ele>
        <time>2022-06-14T14:15:18Z</time>
      </trkpt>
      <trkpt lat="46.51178" lon="5.24401">
        <ele>208.4</ele>
        <time>2022-06-14T14:15:24Z</time>
      </trkpt>
      <trkpt lat="46.51159" lon="5.24408">
        <ele>208</ele>
        <time>2022-06-14T14:15:26Z</time>
      </trkpt>
      <trkpt lat="46.5115" lon="5.24412">
        <ele>207.8</ele>
        <time>2022-06-14T14:15:27Z</time>
      </trkpt>
      <trkpt lat="46.51097" lon="5.24433">
        <ele>207.4</ele>
        <time>2022-06-14T14:15:33Z</time>
      </trkpt>
      <trkpt lat="46.5108" lon="5.2444">
        <ele>207.6</ele>
        <time>2022-06-14T14:15:35Z</time>
      </trkpt>
      <trkpt lat="46.51022" lon="5.24462">
        <ele>208.4</ele>
        <time>2022-06-14T14:15:42Z</time>
      </trkpt>
      <trkpt lat="46.51005" lon="5.24469">
        <ele>208.4</ele>
        <time>2022-06-14T14:15:44Z</time>
      </trkpt>
      <trkpt lat="46.50949" lon="5.24491">
        <ele>208.8</ele>
        <time>2022-06-14T14:15:51Z</time>
      </trkpt>
      <trkpt lat="46.50926" lon="5.245">
        <ele>209</ele>
        <time>2022-06-14T14:15:54Z</time>
      </trkpt>
      <trkpt lat="46.5088" lon="5.24518">
        <ele>209.2</ele>
        <time>2022-06-14T14:16:00Z</time>
      </trkpt>
      <trkpt lat="46.50872" lon="5.24521">
        <ele>209.4</ele>
        <time>2022-06-14T14:16:01Z</time>
      </trkpt>
      <trkpt lat="46.50865" lon="5.24524">
        <ele>209.4</ele>
        <time>2022-06-14T14:16:02Z</time>
      </trkpt>
      <trkpt lat="46.50812" lon="5.24544">
        <ele>210.2</ele>
        <time>2022-06-14T14:16:09Z</time>
      </trkpt>
      <trkpt lat="46.50805" lon="5.24547">
        <ele>210.4</ele>
        <time>2022-06-14T14:16:10Z</time>
      </trkpt>
      <trkpt lat="46.50791" lon="5.24553">
        <ele>210.6</ele>
        <time>2022-06-14T14:16:12Z</time>
      </trkpt>
      <trkpt lat="46.50741" lon="5.24572">
        <ele>211.4</ele>
        <time>2022-06-14T14:16:19Z</time>
      </trkpt>
      <trkpt lat="46.50727" lon="5.24576">
        <ele>211.8</ele>
        <time>2022-06-14T14:16:21Z</time>
      </trkpt>
      <trkpt lat="46.50692" lon="5.24584">
        <ele>212.6</ele>
        <time>2022-06-14T14:16:26Z</time>
      </trkpt>
      <trkpt lat="46.50664" lon="5.24587">
        <ele>212.8</ele>
        <time>2022-06-14T14:16:30Z</time>
      </trkpt>
      <trkpt lat="46.50629" lon="5.24592">
        <ele>213.6</ele>
        <time>2022-06-14T14:16:35Z</time>
      </trkpt>
      <trkpt lat="46.50593" lon="5.24596">
        <ele>214.6</ele>
        <time>2022-06-14T14:16:40Z</time>
      </trkpt>
      <trkpt lat="46.50586" lon="5.24597">
        <ele>214.8</ele>
        <time>2022-06-14T14:16:41Z</time>
      </trkpt>
      <trkpt lat="46.50529" lon="5.24604">
        <ele>215.4</ele>
        <time>2022-06-14T14:16:49Z</time>
      </trkpt>
      <trkpt lat="46.50475" lon="5.24602">
        <ele>215</ele>
        <time>2022-06-14T14:16:56Z</time>
      </trkpt>
      <trkpt lat="46.50426" lon="5.24583">
        <ele>214.2</ele>
        <time>2022-06-14T14:17:02Z</time>
      </trkpt>
      <trkpt lat="46.50386" lon="5.24557">
        <ele>213.8</ele>
        <time>2022-06-14T14:17:07Z</time>
      </trkpt>
      <trkpt lat="46.50379" lon="5.24551">
        <ele>213.8</ele>
        <time>2022-06-14T14:17:08Z</time>
      </trkpt>
      <trkpt lat="46.50326" lon="5.24512">
        <ele>213.2</ele>
        <time>2022-06-14T14:17:15Z</time>
      </trkpt>
      <trkpt lat="46.50288" lon="5.24485">
        <ele>212.8</ele>
        <time>2022-06-14T14:17:20Z</time>
      </trkpt>
      <trkpt lat="46.50265" lon="5.24467">
        <ele>212.8</ele>
        <time>2022-06-14T14:17:23Z</time>
      </trkpt>
      <trkpt lat="46.50217" lon="5.24432">
        <ele>212</ele>
        <time>2022-06-14T14:17:29Z</time>
      </trkpt>
      <trkpt lat="46.50201" lon="5.2442">
        <ele>211.8</ele>
        <time>2022-06-14T14:17:31Z</time>
      </trkpt>
      <trkpt lat="46.50151" lon="5.24385">
        <ele>211</ele>
        <time>2022-06-14T14:17:37Z</time>
      </trkpt>
      <trkpt lat="46.50135" lon="5.24376">
        <ele>210.6</ele>
        <time>2022-06-14T14:17:39Z</time>
      </trkpt>
      <trkpt lat="46.5008" lon="5.24344">
        <ele>210.2</ele>
        <time>2022-06-14T14:17:46Z</time>
      </trkpt>
      <trkpt lat="46.50028" lon="5.24313">
        <ele>210.4</ele>
        <time>2022-06-14T14:17:53Z</time>
      </trkpt>
      <trkpt lat="46.50012" lon="5.24305">
        <ele>210.4</ele>
        <time>2022-06-14T14:17:55Z</time>
      </trkpt>
      <trkpt lat="46.49959" lon="5.24274">
        <ele>209.8</ele>
        <time>2022-06-14T14:18:02Z</time>
      </trkpt>
      <trkpt lat="46.49936" lon="5.24262">
        <ele>209.8</ele>
        <time>2022-06-14T14:18:05Z</time>
      </trkpt>
      <trkpt lat="46.49879" lon="5.2423">
        <ele>210.2</ele>
        <time>2022-06-14T14:18:13Z</time>
      </trkpt>
      <trkpt lat="46.49873" lon="5.24226">
        <ele>210.2</ele>
        <time>2022-06-14T14:18:14Z</time>
      </trkpt>
      <trkpt lat="46.49831" lon="5.24202">
        <ele>211.2</ele>
        <time>2022-06-14T14:18:21Z</time>
      </trkpt>
      <trkpt lat="46.49809" lon="5.24189">
        <ele>212</ele>
        <time>2022-06-14T14:18:25Z</time>
      </trkpt>
      <trkpt lat="46.49782" lon="5.24175">
        <ele>212.8</ele>
        <time>2022-06-14T14:18:30Z</time>
      </trkpt>
      <trkpt lat="46.49776" lon="5.24172">
        <ele>213</ele>
        <time>2022-06-14T14:18:31Z</time>
      </trkpt>
      <trkpt lat="46.4975" lon="5.24157">
        <ele>214</ele>
        <time>2022-06-14T14:18:36Z</time>
      </trkpt>
      <trkpt lat="46.49739" lon="5.2415">
        <ele>214.6</ele>
        <time>2022-06-14T14:18:38Z</time>
      </trkpt>
      <trkpt lat="46.49723" lon="5.2414">
        <ele>215.4</ele>
        <time>2022-06-14T14:18:41Z</time>
      </trkpt>
      <trkpt lat="46.49703" lon="5.24128">
        <ele>216.6</ele>
        <time>2022-06-14T14:18:45Z</time>
      </trkpt>
      <trkpt lat="46.49688" lon="5.2412">
        <ele>217.2</ele>
        <time>2022-06-14T14:18:48Z</time>
      </trkpt>
      <trkpt lat="46.49671" lon="5.24112">
        <ele>217.6</ele>
        <time>2022-06-14T14:18:52Z</time>
      </trkpt>
      <trkpt lat="46.4965" lon="5.24104">
        <ele>218.2</ele>
        <time>2022-06-14T14:18:56Z</time>
      </trkpt>
      <trkpt lat="46.4964" lon="5.24102">
        <ele>218.8</ele>
        <time>2022-06-14T14:18:58Z</time>
      </trkpt>
      <trkpt lat="46.4962" lon="5.24098">
        <ele>219.8</ele>
        <time>2022-06-14T14:19:02Z</time>
      </trkpt>
      <trkpt lat="46.49605" lon="5.24097">
        <ele>220.4</ele>
        <time>2022-06-14T14:19:05Z</time>
      </trkpt>
      <trkpt lat="46.4959" lon="5.24098">
        <ele>220.8</ele>
        <time>2022-06-14T14:19:08Z</time>
      </trkpt>
      <trkpt lat="46.49559" lon="5.24104">
        <ele>221.6</ele>
        <time>2022-06-14T14:19:14Z</time>
      </trkpt>
      <trkpt lat="46.49549" lon="5.24107">
        <ele>222</ele>
        <time>2022-06-14T14:19:16Z</time>
      </trkpt>
      <trkpt lat="46.4952" lon="5.24121">
        <ele>223</ele>
        <time>2022-06-14T14:19:22Z</time>
      </trkpt>
      <trkpt lat="46.49515" lon="5.24124">
        <ele>223.2</ele>
        <time>2022-06-14T14:19:23Z</time>
      </trkpt>
      <trkpt lat="46.49476" lon="5.24148">
        <ele>224.2</ele>
        <time>2022-06-14T14:19:31Z</time>
      </trkpt>
      <trkpt lat="46.49446" lon="5.24168">
        <ele>225.4</ele>
        <time>2022-06-14T14:19:37Z</time>
      </trkpt>
      <trkpt lat="46.49427" lon="5.24181">
        <ele>226</ele>
        <time>2022-06-14T14:19:41Z</time>
      </trkpt>
      <trkpt lat="46.49411" lon="5.24191">
        <ele>226.4</ele>
        <time>2022-06-14T14:19:44Z</time>
      </trkpt>
      <trkpt lat="46.49378" lon="5.24214">
        <ele>227</ele>
        <time>2022-06-14T14:19:50Z</time>
      </trkpt>
      <trkpt lat="46.4933" lon="5.24247">
        <ele>227</ele>
        <time>2022-06-14T14:19:58Z</time>
      </trkpt>
      <trkpt lat="46.49281" lon="5.2428">
        <ele>227.4</ele>
        <time>2022-06-14T14:20:06Z</time>
      </trkpt>
      <trkpt lat="46.49268" lon="5.24288">
        <ele>227.4</ele>
        <time>2022-06-14T14:20:08Z</time>
      </trkpt>
      <trkpt lat="46.49255" lon="5.24297">
        <ele>227.8</ele>
        <time>2022-06-14T14:20:10Z</time>
      </trkpt>
      <trkpt lat="46.49214" lon="5.24325">
        <ele>228.2</ele>
        <time>2022-06-14T14:20:16Z</time>
      </trkpt>
      <trkpt lat="46.49172" lon="5.24353">
        <ele>228.2</ele>
        <time>2022-06-14T14:20:22Z</time>
      </trkpt>
      <trkpt lat="46.49124" lon="5.24386">
        <ele>228.6</ele>
        <time>2022-06-14T14:20:29Z</time>
      </trkpt>
      <trkpt lat="46.4911" lon="5.24395">
        <ele>228.8</ele>
        <time>2022-06-14T14:20:31Z</time>
      </trkpt>
      <trkpt lat="46.49056" lon="5.24433">
        <ele>229.2</ele>
        <time>2022-06-14T14:20:39Z</time>
      </trkpt>
      <trkpt lat="46.49049" lon="5.24437">
        <ele>229.2</ele>
        <time>2022-06-14T14:20:40Z</time>
      </trkpt>
      <trkpt lat="46.49001" lon="5.24468">
        <ele>229.8</ele>
        <time>2022-06-14T14:20:47Z</time>
      </trkpt>
      <trkpt lat="46.48988" lon="5.24477">
        <ele>230</ele>
        <time>2022-06-14T14:20:49Z</time>
      </trkpt>
      <trkpt lat="46.48935" lon="5.24513">
        <ele>230.2</ele>
        <time>2022-06-14T14:20:57Z</time>
      </trkpt>
      <trkpt lat="46.48929" lon="5.24517">
        <ele>230.2</ele>
        <time>2022-06-14T14:20:58Z</time>
      </trkpt>
      <trkpt lat="46.48888" lon="5.24545">
        <ele>230.8</ele>
        <time>2022-06-14T14:21:05Z</time>
      </trkpt>
      <trkpt lat="46.48882" lon="5.24549">
        <ele>231</ele>
        <time>2022-06-14T14:21:06Z</time>
      </trkpt>
      <trkpt lat="46.48838" lon="5.24578">
        <ele>232</ele>
        <time>2022-06-14T14:21:14Z</time>
      </trkpt>
      <trkpt lat="46.48795" lon="5.24607">
        <ele>233</ele>
        <time>2022-06-14T14:21:21Z</time>
      </trkpt>
      <trkpt lat="46.48789" lon="5.24611">
        <ele>233</ele>
        <time>2022-06-14T14:21:22Z</time>
      </trkpt>
      <trkpt lat="46.48756" lon="5.24628">
        <ele>233.2</ele>
        <time>2022-06-14T14:21:27Z</time>
      </trkpt>
      <trkpt lat="46.48749" lon="5.24629">
        <ele>233.2</ele>
        <time>2022-06-14T14:21:28Z</time>
      </trkpt>
      <trkpt lat="46.48741" lon="5.24629">
        <ele>233.2</ele>
        <time>2022-06-14T14:21:29Z</time>
      </trkpt>
      <trkpt lat="46.48717" lon="5.24623">
        <ele>233</ele>
        <time>2022-06-14T14:21:32Z</time>
      </trkpt>
      <trkpt lat="46.48677" lon="5.24604">
        <ele>232.2</ele>
        <time>2022-06-14T14:21:37Z</time>
      </trkpt>
      <trkpt lat="46.48662" lon="5.24595">
        <ele>232</ele>
        <time>2022-06-14T14:21:39Z</time>
      </trkpt>
      <trkpt lat="46.48625" lon="5.24577">
        <ele>231.8</ele>
        <time>2022-06-14T14:21:44Z</time>
      </trkpt>
      <trkpt lat="46.48585" lon="5.24553">
        <ele>232.8</ele>
        <time>2022-06-14T14:21:50Z</time>
      </trkpt>
      <trkpt lat="46.48579" lon="5.24548">
        <ele>233</ele>
        <time>2022-06-14T14:21:51Z</time>
      </trkpt>
      <trkpt lat="46.48573" lon="5.24542">
        <ele>233.2</ele>
        <time>2022-06-14T14:21:52Z</time>
      </trkpt>
      <trkpt lat="46.48556" lon="5.24523">
        <ele>233.4</ele>
        <time>2022-06-14T14:21:55Z</time>
      </trkpt>
      <trkpt lat="46.4852" lon="5.24477">
        <ele>232.6</ele>
        <time>2022-06-14T14:22:01Z</time>
      </trkpt>
      <trkpt lat="46.48486" lon="5.24435">
        <ele>231.8</ele>
        <time>2022-06-14T14:22:06Z</time>
      </trkpt>
      <trkpt lat="46.48472" lon="5.24418">
        <ele>231.2</ele>
        <time>2022-06-14T14:22:08Z</time>
      </trkpt>
      <trkpt lat="46.48451" lon="5.24393">
        <ele>230.6</ele>
        <time>2022-06-14T14:22:11Z</time>
      </trkpt>
      <trkpt lat="46.48415" lon="5.24359">
        <ele>230</ele>
        <time>2022-06-14T14:22:16Z</time>
      </trkpt>
      <trkpt lat="46.48384" lon="5.24342">
        <ele>229.6</ele>
        <time>2022-06-14T14:22:20Z</time>
      </trkpt>
      <trkpt lat="46.48348" lon="5.24328">
        <ele>230.4</ele>
        <time>2022-06-14T14:22:25Z</time>
      </trkpt>
      <trkpt lat="46.48342" lon="5.24323">
        <ele>230.6</ele>
        <time>2022-06-14T14:22:26Z</time>
      </trkpt>
      <trkpt lat="46.48337" lon="5.24317">
        <ele>231.2</ele>
        <time>2022-06-14T14:22:27Z</time>
      </trkpt>
      <trkpt lat="46.48326" lon="5.24301">
        <ele>232</ele>
        <time>2022-06-14T14:22:29Z</time>
      </trkpt>
      <trkpt lat="46.4832" lon="5.24294">
        <ele>232.4</ele>
        <time>2022-06-14T14:22:30Z</time>
      </trkpt>
      <trkpt lat="46.48314" lon="5.24287">
        <ele>232.6</ele>
        <time>2022-06-14T14:22:31Z</time>
      </trkpt>
      <trkpt lat="46.48308" lon="5.24282">
        <ele>233.2</ele>
        <time>2022-06-14T14:22:32Z</time>
      </trkpt>
      <trkpt lat="46.48301" lon="5.24277">
        <ele>233.4</ele>
        <time>2022-06-14T14:22:33Z</time>
      </trkpt>
      <trkpt lat="46.48294" lon="5.24274">
        <ele>233.6</ele>
        <time>2022-06-14T14:22:34Z</time>
      </trkpt>
      <trkpt lat="46.48258" lon="5.24263">
        <ele>234.4</ele>
        <time>2022-06-14T14:22:39Z</time>
      </trkpt>
      <trkpt lat="46.48244" lon="5.2426">
        <ele>234.6</ele>
        <time>2022-06-14T14:22:41Z</time>
      </trkpt>
      <trkpt lat="46.48215" lon="5.24252">
        <ele>235.4</ele>
        <time>2022-06-14T14:22:45Z</time>
      </trkpt>
      <trkpt lat="46.482" lon="5.24254">
        <ele>235.8</ele>
        <time>2022-06-14T14:22:47Z</time>
      </trkpt>
      <trkpt lat="46.48186" lon="5.24261">
        <ele>235.6</ele>
        <time>2022-06-14T14:22:49Z</time>
      </trkpt>
      <trkpt lat="46.48181" lon="5.24267">
        <ele>235.4</ele>
        <time>2022-06-14T14:22:50Z</time>
      </trkpt>
      <trkpt lat="46.48139" lon="5.2432">
        <ele>234.2</ele>
        <time>2022-06-14T14:22:57Z</time>
      </trkpt>
      <trkpt lat="46.48095" lon="5.24373">
        <ele>233.6</ele>
        <time>2022-06-14T14:23:04Z</time>
      </trkpt>
      <trkpt lat="46.48082" lon="5.24386">
        <ele>233.4</ele>
        <time>2022-06-14T14:23:06Z</time>
      </trkpt>
      <trkpt lat="46.48042" lon="5.24418">
        <ele>233.4</ele>
        <time>2022-06-14T14:23:12Z</time>
      </trkpt>
      <trkpt lat="46.47994" lon="5.24449">
        <ele>233.6</ele>
        <time>2022-06-14T14:23:19Z</time>
      </trkpt>
      <trkpt lat="46.47947" lon="5.24481">
        <ele>234.2</ele>
        <time>2022-06-14T14:23:26Z</time>
      </trkpt>
      <trkpt lat="46.47927" lon="5.24492">
        <ele>234.4</ele>
        <time>2022-06-14T14:23:29Z</time>
      </trkpt>
      <trkpt lat="46.47905" lon="5.24497">
        <ele>234.4</ele>
        <time>2022-06-14T14:23:32Z</time>
      </trkpt>
      <trkpt lat="46.4786" lon="5.24496">
        <ele>235.4</ele>
        <time>2022-06-14T14:23:38Z</time>
      </trkpt>
      <trkpt lat="46.47851" lon="5.24496">
        <ele>235.4</ele>
        <time>2022-06-14T14:23:39Z</time>
      </trkpt>
      <trkpt lat="46.47812" lon="5.24496">
        <ele>235.4</ele>
        <time>2022-06-14T14:23:44Z</time>
      </trkpt>
      <trkpt lat="46.47757" lon="5.24505">
        <ele>234.8</ele>
        <time>2022-06-14T14:23:50Z</time>
      </trkpt>
      <trkpt lat="46.47748" lon="5.24507">
        <ele>234.6</ele>
        <time>2022-06-14T14:23:51Z</time>
      </trkpt>
      <trkpt lat="46.47739" lon="5.24509">
        <ele>234.4</ele>
        <time>2022-06-14T14:23:52Z</time>
      </trkpt>
      <trkpt lat="46.47699" lon="5.24523">
        <ele>233.4</ele>
        <time>2022-06-14T14:23:57Z</time>
      </trkpt>
      <trkpt lat="46.47683" lon="5.2453">
        <ele>233.2</ele>
        <time>2022-06-14T14:23:59Z</time>
      </trkpt>
      <trkpt lat="46.4763" lon="5.24559">
        <ele>233.4</ele>
        <time>2022-06-14T14:24:06Z</time>
      </trkpt>
      <trkpt lat="46.47606" lon="5.24573">
        <ele>233.2</ele>
        <time>2022-06-14T14:24:09Z</time>
      </trkpt>
      <trkpt lat="46.47551" lon="5.24604">
        <ele>233.4</ele>
        <time>2022-06-14T14:24:16Z</time>
      </trkpt>
      <trkpt lat="46.47527" lon="5.24618">
        <ele>233.2</ele>
        <time>2022-06-14T14:24:19Z</time>
      </trkpt>
      <trkpt lat="46.47493" lon="5.24632">
        <ele>232.2</ele>
        <time>2022-06-14T14:24:23Z</time>
      </trkpt>
      <trkpt lat="46.47476" lon="5.24635">
        <ele>232</ele>
        <time>2022-06-14T14:24:25Z</time>
      </trkpt>
      <trkpt lat="46.47417" lon="5.24641">
        <ele>232</ele>
        <time>2022-06-14T14:24:32Z</time>
      </trkpt>
      <trkpt lat="46.47401" lon="5.24642">
        <ele>231.8</ele>
        <time>2022-06-14T14:24:34Z</time>
      </trkpt>
      <trkpt lat="46.4734" lon="5.24648">
        <ele>231.2</ele>
        <time>2022-06-14T14:24:41Z</time>
      </trkpt>
      <trkpt lat="46.47329" lon="5.24648">
        <ele>231</ele>
        <time>2022-06-14T14:24:42Z</time>
      </trkpt>
      <trkpt lat="46.47326" lon="5.24648">
        <ele>230.8</ele>
        <time>2022-06-14T14:24:43Z</time>
      </trkpt>
      <trkpt lat="46.47286" lon="5.24652">
        <ele>230</ele>
        <time>2022-06-14T14:24:47Z</time>
      </trkpt>
      <trkpt lat="46.47267" lon="5.24652">
        <ele>229.4</ele>
        <time>2022-06-14T14:24:49Z</time>
      </trkpt>
      <trkpt lat="46.47247" lon="5.24652">
        <ele>228.8</ele>
        <time>2022-06-14T14:24:51Z</time>
      </trkpt>
      <trkpt lat="46.47199" lon="5.2465">
        <ele>227.4</ele>
        <time>2022-06-14T14:24:56Z</time>
      </trkpt>
      <trkpt lat="46.4716" lon="5.24644">
        <ele>225.8</ele>
        <time>2022-06-14T14:25:00Z</time>
      </trkpt>
      <trkpt lat="46.4714" lon="5.24637">
        <ele>225.2</ele>
        <time>2022-06-14T14:25:02Z</time>
      </trkpt>
      <trkpt lat="46.47122" lon="5.24629">
        <ele>224.8</ele>
        <time>2022-06-14T14:25:04Z</time>
      </trkpt>
      <trkpt lat="46.47113" lon="5.24625">
        <ele>224.2</ele>
        <time>2022-06-14T14:25:05Z</time>
      </trkpt>
      <trkpt lat="46.47104" lon="5.24623">
        <ele>224</ele>
        <time>2022-06-14T14:25:06Z</time>
      </trkpt>
      <trkpt lat="46.47096" lon="5.24626">
        <ele>223.4</ele>
        <time>2022-06-14T14:25:07Z</time>
      </trkpt>
      <trkpt lat="46.47091" lon="5.24633">
        <ele>223.2</ele>
        <time>2022-06-14T14:25:08Z</time>
      </trkpt>
      <trkpt lat="46.47087" lon="5.24643">
        <ele>222.8</ele>
        <time>2022-06-14T14:25:09Z</time>
      </trkpt>
      <trkpt lat="46.47085" lon="5.24653">
        <ele>222.6</ele>
        <time>2022-06-14T14:25:10Z</time>
      </trkpt>
      <trkpt lat="46.47083" lon="5.24664">
        <ele>222.2</ele>
        <time>2022-06-14T14:25:11Z</time>
      </trkpt>
      <trkpt lat="46.47074" lon="5.24695">
        <ele>221.6</ele>
        <time>2022-06-14T14:25:14Z</time>
      </trkpt>
      <trkpt lat="46.47065" lon="5.24716">
        <ele>221.4</ele>
        <time>2022-06-14T14:25:16Z</time>
      </trkpt>
      <trkpt lat="46.47049" lon="5.24747">
        <ele>221.2</ele>
        <time>2022-06-14T14:25:19Z</time>
      </trkpt>
      <trkpt lat="46.47011" lon="5.24795">
        <ele>220.2</ele>
        <time>2022-06-14T14:25:24Z</time>
      </trkpt>
      <trkpt lat="46.46993" lon="5.24811">
        <ele>219.2</ele>
        <time>2022-06-14T14:25:26Z</time>
      </trkpt>
      <trkpt lat="46.46966" lon="5.24835">
        <ele>218</ele>
        <time>2022-06-14T14:25:29Z</time>
      </trkpt>
      <trkpt lat="46.46957" lon="5.24843">
        <ele>217.6</ele>
        <time>2022-06-14T14:25:30Z</time>
      </trkpt>
      <trkpt lat="46.46931" lon="5.24863">
        <ele>216.6</ele>
        <time>2022-06-14T14:25:33Z</time>
      </trkpt>
      <trkpt lat="46.46908" lon="5.24882">
        <ele>216.4</ele>
        <time>2022-06-14T14:25:36Z</time>
      </trkpt>
      <trkpt lat="46.46872" lon="5.24912">
        <ele>217.6</ele>
        <time>2022-06-14T14:25:41Z</time>
      </trkpt>
      <trkpt lat="46.4685" lon="5.2493">
        <ele>218.8</ele>
        <time>2022-06-14T14:25:44Z</time>
      </trkpt>
      <trkpt lat="46.46816" lon="5.2496">
        <ele>220.2</ele>
        <time>2022-06-14T14:25:49Z</time>
      </trkpt>
      <trkpt lat="46.46789" lon="5.24983">
        <ele>221</ele>
        <time>2022-06-14T14:25:53Z</time>
      </trkpt>
      <trkpt lat="46.4677" lon="5.24998">
        <ele>221.2</ele>
        <time>2022-06-14T14:25:56Z</time>
      </trkpt>
      <trkpt lat="46.46738" lon="5.25023">
        <ele>221.6</ele>
        <time>2022-06-14T14:26:01Z</time>
      </trkpt>
      <trkpt lat="46.46725" lon="5.25034">
        <ele>221.8</ele>
        <time>2022-06-14T14:26:03Z</time>
      </trkpt>
      <trkpt lat="46.46697" lon="5.25056">
        <ele>222.2</ele>
        <time>2022-06-14T14:26:07Z</time>
      </trkpt>
      <trkpt lat="46.4669" lon="5.25061">
        <ele>222.2</ele>
        <time>2022-06-14T14:26:08Z</time>
      </trkpt>
      <trkpt lat="46.46663" lon="5.25083">
        <ele>222.4</ele>
        <time>2022-06-14T14:26:12Z</time>
      </trkpt>
      <trkpt lat="46.46626" lon="5.25111">
        <ele>222.6</ele>
        <time>2022-06-14T14:26:18Z</time>
      </trkpt>
      <trkpt lat="46.46604" lon="5.2513">
        <ele>223.4</ele>
        <time>2022-06-14T14:26:22Z</time>
      </trkpt>
      <trkpt lat="46.46599" lon="5.25134">
        <ele>223.6</ele>
        <time>2022-06-14T14:26:23Z</time>
      </trkpt>
      <trkpt lat="46.46571" lon="5.25158">
        <ele>224.4</ele>
        <time>2022-06-14T14:26:28Z</time>
      </trkpt>
      <trkpt lat="46.46553" lon="5.25171">
        <ele>224.8</ele>
        <time>2022-06-14T14:26:31Z</time>
      </trkpt>
      <trkpt lat="46.46518" lon="5.252">
        <ele>224.8</ele>
        <time>2022-06-14T14:26:37Z</time>
      </trkpt>
      <trkpt lat="46.46479" lon="5.2523">
        <ele>225.2</ele>
        <time>2022-06-14T14:26:44Z</time>
      </trkpt>
      <trkpt lat="46.46463" lon="5.25241">
        <ele>225.6</ele>
        <time>2022-06-14T14:26:47Z</time>
      </trkpt>
      <trkpt lat="46.46457" lon="5.25245">
        <ele>225.8</ele>
        <time>2022-06-14T14:26:48Z</time>
      </trkpt>
      <trkpt lat="46.46446" lon="5.25254">
        <ele>226.2</ele>
        <time>2022-06-14T14:26:50Z</time>
      </trkpt>
      <trkpt lat="46.46435" lon="5.25264">
        <ele>226.6</ele>
        <time>2022-06-14T14:26:52Z</time>
      </trkpt>
      <trkpt lat="46.46409" lon="5.25284">
        <ele>227.8</ele>
        <time>2022-06-14T14:26:57Z</time>
      </trkpt>
      <trkpt lat="46.46404" lon="5.25289">
        <ele>227.8</ele>
        <time>2022-06-14T14:26:58Z</time>
      </trkpt>
      <trkpt lat="46.46395" lon="5.253">
        <ele>228.2</ele>
        <time>2022-06-14T14:27:00Z</time>
      </trkpt>
      <trkpt lat="46.4636" lon="5.25354">
        <ele>228.8</ele>
        <time>2022-06-14T14:27:08Z</time>
      </trkpt>
      <trkpt lat="46.46356" lon="5.25362">
        <ele>228.8</ele>
        <time>2022-06-14T14:27:09Z</time>
      </trkpt>
      <trkpt lat="46.46323" lon="5.2542">
        <ele>229.8</ele>
        <time>2022-06-14T14:27:17Z</time>
      </trkpt>
      <trkpt lat="46.46319" lon="5.25426">
        <ele>229.8</ele>
        <time>2022-06-14T14:27:18Z</time>
      </trkpt>
      <trkpt lat="46.46287" lon="5.25482">
        <ele>230.4</ele>
        <time>2022-06-14T14:27:26Z</time>
      </trkpt>
      <trkpt lat="46.46266" lon="5.25518">
        <ele>231.2</ele>
        <time>2022-06-14T14:27:31Z</time>
      </trkpt>
      <trkpt lat="46.46259" lon="5.25533">
        <ele>231.6</ele>
        <time>2022-06-14T14:27:33Z</time>
      </trkpt>
      <trkpt lat="46.46253" lon="5.2555">
        <ele>231.6</ele>
        <time>2022-06-14T14:27:35Z</time>
      </trkpt>
      <trkpt lat="46.46236" lon="5.2561">
        <ele>231.8</ele>
        <time>2022-06-14T14:27:42Z</time>
      </trkpt>
      <trkpt lat="46.46225" lon="5.25677">
        <ele>232</ele>
        <time>2022-06-14T14:27:49Z</time>
      </trkpt>
      <trkpt lat="46.46225" lon="5.25688">
        <ele>231.8</ele>
        <time>2022-06-14T14:27:50Z</time>
      </trkpt>
      <trkpt lat="46.46228" lon="5.25726">
        <ele>231.6</ele>
        <time>2022-06-14T14:27:53Z</time>
      </trkpt>
      <trkpt lat="46.46243" lon="5.25801">
        <ele>230</ele>
        <time>2022-06-14T14:27:59Z</time>
      </trkpt>
      <trkpt lat="46.4625" lon="5.25853">
        <ele>229.8</ele>
        <time>2022-06-14T14:28:04Z</time>
      </trkpt>
      <trkpt lat="46.4625" lon="5.25871">
        <ele>230</ele>
        <time>2022-06-14T14:28:06Z</time>
      </trkpt>
      <trkpt lat="46.46247" lon="5.25887">
        <ele>230.6</ele>
        <time>2022-06-14T14:28:08Z</time>
      </trkpt>
      <trkpt lat="46.46243" lon="5.25901">
        <ele>231.4</ele>
        <time>2022-06-14T14:28:10Z</time>
      </trkpt>
      <trkpt lat="46.46239" lon="5.25916">
        <ele>232.6</ele>
        <time>2022-06-14T14:28:12Z</time>
      </trkpt>
      <trkpt lat="46.46232" lon="5.25936">
        <ele>234.4</ele>
        <time>2022-06-14T14:28:15Z</time>
      </trkpt>
      <trkpt lat="46.46226" lon="5.25955">
        <ele>235.6</ele>
        <time>2022-06-14T14:28:18Z</time>
      </trkpt>
      <trkpt lat="46.46218" lon="5.25981">
        <ele>236.8</ele>
        <time>2022-06-14T14:28:22Z</time>
      </trkpt>
      <trkpt lat="46.46216" lon="5.25987">
        <ele>237</ele>
        <time>2022-06-14T14:28:23Z</time>
      </trkpt>
      <trkpt lat="46.46213" lon="5.26">
        <ele>237.6</ele>
        <time>2022-06-14T14:28:25Z</time>
      </trkpt>
      <trkpt lat="46.46212" lon="5.26007">
        <ele>237.8</ele>
        <time>2022-06-14T14:28:26Z</time>
      </trkpt>
      <trkpt lat="46.46208" lon="5.26037">
        <ele>238.8</ele>
        <time>2022-06-14T14:28:30Z</time>
      </trkpt>
      <trkpt lat="46.46207" lon="5.26045">
        <ele>239</ele>
        <time>2022-06-14T14:28:31Z</time>
      </trkpt>
      <trkpt lat="46.46201" lon="5.26097">
        <ele>239.4</ele>
        <time>2022-06-14T14:28:37Z</time>
      </trkpt>
      <trkpt lat="46.46194" lon="5.26171">
        <ele>239.2</ele>
        <time>2022-06-14T14:28:45Z</time>
      </trkpt>
      <trkpt lat="46.46187" lon="5.26251">
        <ele>238.2</ele>
        <time>2022-06-14T14:28:52Z</time>
      </trkpt>
      <trkpt lat="46.46186" lon="5.26263">
        <ele>238</ele>
        <time>2022-06-14T14:28:53Z</time>
      </trkpt>
      <trkpt lat="46.46184" lon="5.26276">
        <ele>237.8</ele>
        <time>2022-06-14T14:28:54Z</time>
      </trkpt>
      <trkpt lat="46.46179" lon="5.2633">
        <ele>236.8</ele>
        <time>2022-06-14T14:28:58Z</time>
      </trkpt>
      <trkpt lat="46.46178" lon="5.26345">
        <ele>236.8</ele>
        <time>2022-06-14T14:28:59Z</time>
      </trkpt>
      <trkpt lat="46.46174" lon="5.2639">
        <ele>235.2</ele>
        <time>2022-06-14T14:29:02Z</time>
      </trkpt>
      <trkpt lat="46.46171" lon="5.26421">
        <ele>233.6</ele>
        <time>2022-06-14T14:29:04Z</time>
      </trkpt>
      <trkpt lat="46.4617" lon="5.26436">
        <ele>233</ele>
        <time>2022-06-14T14:29:05Z</time>
      </trkpt>
      <trkpt lat="46.46168" lon="5.26452">
        <ele>232.2</ele>
        <time>2022-06-14T14:29:06Z</time>
      </trkpt>
      <trkpt lat="46.46165" lon="5.26483">
        <ele>231</ele>
        <time>2022-06-14T14:29:08Z</time>
      </trkpt>
      <trkpt lat="46.46163" lon="5.26499">
        <ele>229.8</ele>
        <time>2022-06-14T14:29:09Z</time>
      </trkpt>
      <trkpt lat="46.4616" lon="5.2653">
        <ele>228.4</ele>
        <time>2022-06-14T14:29:11Z</time>
      </trkpt>
      <trkpt lat="46.46156" lon="5.26578">
        <ele>227.2</ele>
        <time>2022-06-14T14:29:14Z</time>
      </trkpt>
      <trkpt lat="46.46153" lon="5.26611">
        <ele>225.8</ele>
        <time>2022-06-14T14:29:16Z</time>
      </trkpt>
      <trkpt lat="46.4615" lon="5.26662">
        <ele>224.4</ele>
        <time>2022-06-14T14:29:19Z</time>
      </trkpt>
      <trkpt lat="46.46149" lon="5.26697">
        <ele>223.2</ele>
        <time>2022-06-14T14:29:21Z</time>
      </trkpt>
      <trkpt lat="46.46147" lon="5.26731">
        <ele>221</ele>
        <time>2022-06-14T14:29:23Z</time>
      </trkpt>
      <trkpt lat="46.46146" lon="5.26765">
        <ele>219</ele>
        <time>2022-06-14T14:29:25Z</time>
      </trkpt>
      <trkpt lat="46.46145" lon="5.26814">
        <ele>218</ele>
        <time>2022-06-14T14:29:28Z</time>
      </trkpt>
      <trkpt lat="46.46143" lon="5.26877">
        <ele>216.6</ele>
        <time>2022-06-14T14:29:32Z</time>
      </trkpt>
      <trkpt lat="46.46141" lon="5.26938">
        <ele>216</ele>
        <time>2022-06-14T14:29:36Z</time>
      </trkpt>
      <trkpt lat="46.4614" lon="5.2698">
        <ele>215.6</ele>
        <time>2022-06-14T14:29:39Z</time>
      </trkpt>
      <trkpt lat="46.4614" lon="5.27007">
        <ele>215.6</ele>
        <time>2022-06-14T14:29:41Z</time>
      </trkpt>
      <trkpt lat="46.46137" lon="5.27096">
        <ele>215.8</ele>
        <time>2022-06-14T14:29:48Z</time>
      </trkpt>
      <trkpt lat="46.46134" lon="5.27185">
        <ele>215.8</ele>
        <time>2022-06-14T14:29:55Z</time>
      </trkpt>
      <trkpt lat="46.46133" lon="5.27237">
        <ele>215.4</ele>
        <time>2022-06-14T14:29:59Z</time>
      </trkpt>
      <trkpt lat="46.46131" lon="5.27298">
        <ele>214.8</ele>
        <time>2022-06-14T14:30:04Z</time>
      </trkpt>
      <trkpt lat="46.46131" lon="5.27334">
        <ele>214.6</ele>
        <time>2022-06-14T14:30:07Z</time>
      </trkpt>
      <trkpt lat="46.46128" lon="5.27424">
        <ele>214.8</ele>
        <time>2022-06-14T14:30:15Z</time>
      </trkpt>
      <trkpt lat="46.46128" lon="5.27452">
        <ele>214.8</ele>
        <time>2022-06-14T14:30:17Z</time>
      </trkpt>
      <trkpt lat="46.46125" lon="5.27533">
        <ele>215</ele>
        <time>2022-06-14T14:30:24Z</time>
      </trkpt>
      <trkpt lat="46.46125" lon="5.27556">
        <ele>214.8</ele>
        <time>2022-06-14T14:30:26Z</time>
      </trkpt>
      <trkpt lat="46.46124" lon="5.27578">
        <ele>214.8</ele>
        <time>2022-06-14T14:30:28Z</time>
      </trkpt>
      <trkpt lat="46.46122" lon="5.27656">
        <ele>214.4</ele>
        <time>2022-06-14T14:30:35Z</time>
      </trkpt>
      <trkpt lat="46.46121" lon="5.27689">
        <ele>214.8</ele>
        <time>2022-06-14T14:30:38Z</time>
      </trkpt>
      <trkpt lat="46.46119" lon="5.27748">
        <ele>215.8</ele>
        <time>2022-06-14T14:30:44Z</time>
      </trkpt>
      <trkpt lat="46.46119" lon="5.27766">
        <ele>216</ele>
        <time>2022-06-14T14:30:46Z</time>
      </trkpt>
      <trkpt lat="46.46118" lon="5.27801">
        <ele>216.6</ele>
        <time>2022-06-14T14:30:50Z</time>
      </trkpt>
      <trkpt lat="46.46118" lon="5.27809">
        <ele>217</ele>
        <time>2022-06-14T14:30:51Z</time>
      </trkpt>
      <trkpt lat="46.46119" lon="5.27842">
        <ele>218.4</ele>
        <time>2022-06-14T14:30:55Z</time>
      </trkpt>
      <trkpt lat="46.4612" lon="5.27865">
        <ele>219.2</ele>
        <time>2022-06-14T14:30:58Z</time>
      </trkpt>
      <trkpt lat="46.46121" lon="5.2788">
        <ele>219.6</ele>
        <time>2022-06-14T14:31:00Z</time>
      </trkpt>
      <trkpt lat="46.46121" lon="5.27894">
        <ele>220</ele>
        <time>2022-06-14T14:31:02Z</time>
      </trkpt>
      <trkpt lat="46.46122" lon="5.27914">
        <ele>220.4</ele>
        <time>2022-06-14T14:31:05Z</time>
      </trkpt>
      <trkpt lat="46.46123" lon="5.27927">
        <ele>220.8</ele>
        <time>2022-06-14T14:31:07Z</time>
      </trkpt>
      <trkpt lat="46.46124" lon="5.27934">
        <ele>221</ele>
        <time>2022-06-14T14:31:08Z</time>
      </trkpt>
      <trkpt lat="46.46129" lon="5.27952">
        <ele>222.2</ele>
        <time>2022-06-14T14:31:11Z</time>
      </trkpt>
      <trkpt lat="46.46132" lon="5.27959">
        <ele>222.4</ele>
        <time>2022-06-14T14:31:13Z</time>
      </trkpt>
      <trkpt lat="46.46135" lon="5.27965">
        <ele>223.2</ele>
        <time>2022-06-14T14:31:14Z</time>
      </trkpt>
      <trkpt lat="46.46144" lon="5.27974">
        <ele>223.8</ele>
        <time>2022-06-14T14:31:16Z</time>
      </trkpt>
      <trkpt lat="46.46151" lon="5.27981">
        <ele>224.4</ele>
        <time>2022-06-14T14:31:18Z</time>
      </trkpt>
      <trkpt lat="46.4616" lon="5.27987">
        <ele>225.8</ele>
        <time>2022-06-14T14:31:21Z</time>
      </trkpt>
      <trkpt lat="46.46164" lon="5.2799">
        <ele>226</ele>
        <time>2022-06-14T14:31:22Z</time>
      </trkpt>
      <trkpt lat="46.46174" lon="5.27997">
        <ele>226.8</ele>
        <time>2022-06-14T14:31:25Z</time>
      </trkpt>
      <trkpt lat="46.46189" lon="5.2801">
        <ele>228</ele>
        <time>2022-06-14T14:31:29Z</time>
      </trkpt>
      <trkpt lat="46.46191" lon="5.28023">
        <ele>228.8</ele>
        <time>2022-06-14T14:31:31Z</time>
      </trkpt>
      <trkpt lat="46.4619" lon="5.28031">
        <ele>229.2</ele>
        <time>2022-06-14T14:31:32Z</time>
      </trkpt>
      <trkpt lat="46.46187" lon="5.28058">
        <ele>230</ele>
        <time>2022-06-14T14:31:35Z</time>
      </trkpt>
      <trkpt lat="46.46187" lon="5.28077">
        <ele>230.2</ele>
        <time>2022-06-14T14:31:37Z</time>
      </trkpt>
      <trkpt lat="46.4618" lon="5.28151">
        <ele>229.8</ele>
        <time>2022-06-14T14:31:45Z</time>
      </trkpt>
      <trkpt lat="46.46174" lon="5.28194">
        <ele>230.2</ele>
        <time>2022-06-14T14:31:50Z</time>
      </trkpt>
      <trkpt lat="46.46167" lon="5.28233">
        <ele>230.4</ele>
        <time>2022-06-14T14:31:54Z</time>
      </trkpt>
      <trkpt lat="46.46166" lon="5.28244">
        <ele>230.6</ele>
        <time>2022-06-14T14:31:55Z</time>
      </trkpt>
      <trkpt lat="46.46165" lon="5.2829">
        <ele>230.2</ele>
        <time>2022-06-14T14:31:59Z</time>
      </trkpt>
      <trkpt lat="46.4617" lon="5.28327">
        <ele>229</ele>
        <time>2022-06-14T14:32:02Z</time>
      </trkpt>
      <trkpt lat="46.46174" lon="5.28353">
        <ele>227.8</ele>
        <time>2022-06-14T14:32:04Z</time>
      </trkpt>
      <trkpt lat="46.46176" lon="5.28366">
        <ele>226.8</ele>
        <time>2022-06-14T14:32:05Z</time>
      </trkpt>
      <trkpt lat="46.46182" lon="5.28405">
        <ele>225.8</ele>
        <time>2022-06-14T14:32:08Z</time>
      </trkpt>
      <trkpt lat="46.46189" lon="5.28453">
        <ele>224.8</ele>
        <time>2022-06-14T14:32:12Z</time>
      </trkpt>
      <trkpt lat="46.46196" lon="5.285">
        <ele>225.4</ele>
        <time>2022-06-14T14:32:17Z</time>
      </trkpt>
      <trkpt lat="46.46201" lon="5.28528">
        <ele>226.6</ele>
        <time>2022-06-14T14:32:21Z</time>
      </trkpt>
      <trkpt lat="46.46201" lon="5.28535">
        <ele>226.8</ele>
        <time>2022-06-14T14:32:22Z</time>
      </trkpt>
      <trkpt lat="46.46204" lon="5.28555">
        <ele>227.8</ele>
        <time>2022-06-14T14:32:25Z</time>
      </trkpt>
      <trkpt lat="46.46208" lon="5.28575">
        <ele>229.2</ele>
        <time>2022-06-14T14:32:28Z</time>
      </trkpt>
      <trkpt lat="46.46209" lon="5.28581">
        <ele>229.4</ele>
        <time>2022-06-14T14:32:29Z</time>
      </trkpt>
      <trkpt lat="46.46211" lon="5.28594">
        <ele>230</ele>
        <time>2022-06-14T14:32:31Z</time>
      </trkpt>
      <trkpt lat="46.46212" lon="5.286">
        <ele>230.4</ele>
        <time>2022-06-14T14:32:32Z</time>
      </trkpt>
      <trkpt lat="46.46214" lon="5.28624">
        <ele>231.2</ele>
        <time>2022-06-14T14:32:36Z</time>
      </trkpt>
      <trkpt lat="46.46215" lon="5.2863">
        <ele>231.4</ele>
        <time>2022-06-14T14:32:37Z</time>
      </trkpt>
      <trkpt lat="46.46216" lon="5.28636">
        <ele>231.8</ele>
        <time>2022-06-14T14:32:38Z</time>
      </trkpt>
      <trkpt lat="46.46218" lon="5.28648">
        <ele>232.6</ele>
        <time>2022-06-14T14:32:40Z</time>
      </trkpt>
      <trkpt lat="46.46222" lon="5.28672">
        <ele>233.8</ele>
        <time>2022-06-14T14:32:44Z</time>
      </trkpt>
      <trkpt lat="46.46227" lon="5.28685">
        <ele>234.4</ele>
        <time>2022-06-14T14:32:46Z</time>
      </trkpt>
      <trkpt lat="46.46237" lon="5.28701">
        <ele>235</ele>
        <time>2022-06-14T14:32:49Z</time>
      </trkpt>
      <trkpt lat="46.46257" lon="5.28714">
        <ele>236.4</ele>
        <time>2022-06-14T14:32:54Z</time>
      </trkpt>
      <trkpt lat="46.46264" lon="5.28719">
        <ele>236.6</ele>
        <time>2022-06-14T14:32:56Z</time>
      </trkpt>
      <trkpt lat="46.46279" lon="5.28729">
        <ele>237.2</ele>
        <time>2022-06-14T14:33:00Z</time>
      </trkpt>
      <trkpt lat="46.46299" lon="5.28741">
        <ele>238.2</ele>
        <time>2022-06-14T14:33:05Z</time>
      </trkpt>
      <trkpt lat="46.46307" lon="5.28746">
        <ele>238.4</ele>
        <time>2022-06-14T14:33:07Z</time>
      </trkpt>
      <trkpt lat="46.46333" lon="5.28764">
        <ele>239</ele>
        <time>2022-06-14T14:33:13Z</time>
      </trkpt>
      <trkpt lat="46.46353" lon="5.2878">
        <ele>239.6</ele>
        <time>2022-06-14T14:33:18Z</time>
      </trkpt>
      <trkpt lat="46.46378" lon="5.28801">
        <ele>240.8</ele>
        <time>2022-06-14T14:33:24Z</time>
      </trkpt>
      <trkpt lat="46.46382" lon="5.28805">
        <ele>241</ele>
        <time>2022-06-14T14:33:25Z</time>
      </trkpt>
      <trkpt lat="46.46404" lon="5.28838">
        <ele>241.8</ele>
        <time>2022-06-14T14:33:31Z</time>
      </trkpt>
      <trkpt lat="46.46406" lon="5.28845">
        <ele>242.2</ele>
        <time>2022-06-14T14:33:32Z</time>
      </trkpt>
      <trkpt lat="46.4642" lon="5.28888">
        <ele>242.8</ele>
        <time>2022-06-14T14:33:38Z</time>
      </trkpt>
      <trkpt lat="46.46434" lon="5.28951">
        <ele>242.8</ele>
        <time>2022-06-14T14:33:46Z</time>
      </trkpt>
      <trkpt lat="46.46437" lon="5.28968">
        <ele>243</ele>
        <time>2022-06-14T14:33:48Z</time>
      </trkpt>
      <trkpt lat="46.46449" lon="5.29024">
        <ele>244</ele>
        <time>2022-06-14T14:33:55Z</time>
      </trkpt>
      <trkpt lat="46.46458" lon="5.29067">
        <ele>244.2</ele>
        <time>2022-06-14T14:34:00Z</time>
      </trkpt>
      <trkpt lat="46.46465" lon="5.29103">
        <ele>244.2</ele>
        <time>2022-06-14T14:34:04Z</time>
      </trkpt>
      <trkpt lat="46.46484" lon="5.29188">
        <ele>244.2</ele>
        <time>2022-06-14T14:34:13Z</time>
      </trkpt>
      <trkpt lat="46.46495" lon="5.29242">
        <ele>244</ele>
        <time>2022-06-14T14:34:18Z</time>
      </trkpt>
      <trkpt lat="46.46509" lon="5.29312">
        <ele>243</ele>
        <time>2022-06-14T14:34:24Z</time>
      </trkpt>
      <trkpt lat="46.46519" lon="5.29358">
        <ele>242.2</ele>
        <time>2022-06-14T14:34:28Z</time>
      </trkpt>
      <trkpt lat="46.46531" lon="5.29414">
        <ele>241.8</ele>
        <time>2022-06-14T14:34:33Z</time>
      </trkpt>
      <trkpt lat="46.46548" lon="5.29491">
        <ele>241.8</ele>
        <time>2022-06-14T14:34:40Z</time>
      </trkpt>
      <trkpt lat="46.46554" lon="5.29514">
        <ele>241.6</ele>
        <time>2022-06-14T14:34:42Z</time>
      </trkpt>
      <trkpt lat="46.46568" lon="5.29569">
        <ele>241</ele>
        <time>2022-06-14T14:34:47Z</time>
      </trkpt>
      <trkpt lat="46.46573" lon="5.29588">
        <ele>241</ele>
        <time>2022-06-14T14:34:49Z</time>
      </trkpt>
      <trkpt lat="46.46589" lon="5.29646">
        <ele>241.8</ele>
        <time>2022-06-14T14:34:55Z</time>
      </trkpt>
      <trkpt lat="46.46594" lon="5.29665">
        <ele>242.2</ele>
        <time>2022-06-14T14:34:57Z</time>
      </trkpt>
      <trkpt lat="46.46604" lon="5.29704">
        <ele>243.4</ele>
        <time>2022-06-14T14:35:01Z</time>
      </trkpt>
      <trkpt lat="46.46607" lon="5.29714">
        <ele>243.6</ele>
        <time>2022-06-14T14:35:02Z</time>
      </trkpt>
      <trkpt lat="46.46626" lon="5.29793">
        <ele>244.2</ele>
        <time>2022-06-14T14:35:10Z</time>
      </trkpt>
      <trkpt lat="46.46635" lon="5.29828">
        <ele>244.6</ele>
        <time>2022-06-14T14:35:14Z</time>
      </trkpt>
      <trkpt lat="46.46637" lon="5.29838">
        <ele>244.8</ele>
        <time>2022-06-14T14:35:15Z</time>
      </trkpt>
      <trkpt lat="46.46652" lon="5.29895">
        <ele>245.4</ele>
        <time>2022-06-14T14:35:21Z</time>
      </trkpt>
      <trkpt lat="46.4666" lon="5.29926">
        <ele>245.4</ele>
        <time>2022-06-14T14:35:24Z</time>
      </trkpt>
      <trkpt lat="46.4667" lon="5.29958">
        <ele>245.4</ele>
        <time>2022-06-14T14:35:27Z</time>
      </trkpt>
      <trkpt lat="46.46691" lon="5.30036">
        <ele>244.4</ele>
        <time>2022-06-14T14:35:34Z</time>
      </trkpt>
      <trkpt lat="46.46694" lon="5.30048">
        <ele>244.2</ele>
        <time>2022-06-14T14:35:35Z</time>
      </trkpt>
      <trkpt lat="46.46714" lon="5.30121">
        <ele>243.2</ele>
        <time>2022-06-14T14:35:42Z</time>
      </trkpt>
      <trkpt lat="46.4672" lon="5.30146">
        <ele>243</ele>
        <time>2022-06-14T14:35:44Z</time>
      </trkpt>
      <trkpt lat="46.46741" lon="5.30212">
        <ele>243</ele>
        <time>2022-06-14T14:35:51Z</time>
      </trkpt>
      <trkpt lat="46.46749" lon="5.30226">
        <ele>243.2</ele>
        <time>2022-06-14T14:35:53Z</time>
      </trkpt>
      <trkpt lat="46.46764" lon="5.30245">
        <ele>243.4</ele>
        <time>2022-06-14T14:35:56Z</time>
      </trkpt>
      <trkpt lat="46.46807" lon="5.30294">
        <ele>244</ele>
        <time>2022-06-14T14:36:04Z</time>
      </trkpt>
      <trkpt lat="46.46817" lon="5.30307">
        <ele>244</ele>
        <time>2022-06-14T14:36:06Z</time>
      </trkpt>
      <trkpt lat="46.46859" lon="5.30358">
        <ele>244</ele>
        <time>2022-06-14T14:36:14Z</time>
      </trkpt>
      <trkpt lat="46.46864" lon="5.30363">
        <ele>244</ele>
        <time>2022-06-14T14:36:15Z</time>
      </trkpt>
      <trkpt lat="46.46902" lon="5.30387">
        <ele>243.6</ele>
        <time>2022-06-14T14:36:21Z</time>
      </trkpt>
      <trkpt lat="46.46952" lon="5.30408">
        <ele>243</ele>
        <time>2022-06-14T14:36:28Z</time>
      </trkpt>
      <trkpt lat="46.46991" lon="5.30437">
        <ele>242.4</ele>
        <time>2022-06-14T14:36:34Z</time>
      </trkpt>
      <trkpt lat="46.46996" lon="5.30442">
        <ele>242.4</ele>
        <time>2022-06-14T14:36:35Z</time>
      </trkpt>
      <trkpt lat="46.47048" lon="5.30487">
        <ele>242.6</ele>
        <time>2022-06-14T14:36:44Z</time>
      </trkpt>
      <trkpt lat="46.47084" lon="5.30519">
        <ele>243.4</ele>
        <time>2022-06-14T14:36:50Z</time>
      </trkpt>
      <trkpt lat="46.47102" lon="5.30533">
        <ele>243.8</ele>
        <time>2022-06-14T14:36:53Z</time>
      </trkpt>
      <trkpt lat="46.47109" lon="5.30536">
        <ele>244</ele>
        <time>2022-06-14T14:36:54Z</time>
      </trkpt>
      <trkpt lat="46.47149" lon="5.30556">
        <ele>244.2</ele>
        <time>2022-06-14T14:37:00Z</time>
      </trkpt>
      <trkpt lat="46.47186" lon="5.30562">
        <ele>244</ele>
        <time>2022-06-14T14:37:05Z</time>
      </trkpt>
      <trkpt lat="46.47216" lon="5.30558">
        <ele>244</ele>
        <time>2022-06-14T14:37:09Z</time>
      </trkpt>
      <trkpt lat="46.47224" lon="5.30559">
        <ele>243.6</ele>
        <time>2022-06-14T14:37:10Z</time>
      </trkpt>
      <trkpt lat="46.47232" lon="5.30562">
        <ele>243.4</ele>
        <time>2022-06-14T14:37:11Z</time>
      </trkpt>
      <trkpt lat="46.47254" lon="5.30575">
        <ele>243.4</ele>
        <time>2022-06-14T14:37:14Z</time>
      </trkpt>
      <trkpt lat="46.4726" lon="5.30581">
        <ele>243.4</ele>
        <time>2022-06-14T14:37:15Z</time>
      </trkpt>
      <trkpt lat="46.47277" lon="5.30603">
        <ele>243.4</ele>
        <time>2022-06-14T14:37:18Z</time>
      </trkpt>
      <trkpt lat="46.4731" lon="5.30646">
        <ele>243.6</ele>
        <time>2022-06-14T14:37:24Z</time>
      </trkpt>
      <trkpt lat="46.47315" lon="5.30665">
        <ele>243.6</ele>
        <time>2022-06-14T14:37:26Z</time>
      </trkpt>
      <trkpt lat="46.47316" lon="5.30675">
        <ele>243.6</ele>
        <time>2022-06-14T14:37:27Z</time>
      </trkpt>
      <trkpt lat="46.4732" lon="5.30762">
        <ele>243.6</ele>
        <time>2022-06-14T14:37:35Z</time>
      </trkpt>
      <trkpt lat="46.4732" lon="5.30773">
        <ele>243.4</ele>
        <time>2022-06-14T14:37:36Z</time>
      </trkpt>
      <trkpt lat="46.47329" lon="5.30854">
        <ele>242.8</ele>
        <time>2022-06-14T14:37:44Z</time>
      </trkpt>
      <trkpt lat="46.47333" lon="5.30877">
        <ele>242.8</ele>
        <time>2022-06-14T14:37:46Z</time>
      </trkpt>
      <trkpt lat="46.4734" lon="5.30892">
        <ele>242.8</ele>
        <time>2022-06-14T14:37:48Z</time>
      </trkpt>
      <trkpt lat="46.4735" lon="5.30898">
        <ele>242.8</ele>
        <time>2022-06-14T14:37:50Z</time>
      </trkpt>
      <trkpt lat="46.47357" lon="5.30897">
        <ele>242.8</ele>
        <time>2022-06-14T14:37:51Z</time>
      </trkpt>
      <trkpt lat="46.47392" lon="5.30885">
        <ele>243</ele>
        <time>2022-06-14T14:37:56Z</time>
      </trkpt>
      <trkpt lat="46.47445" lon="5.30857">
        <ele>242.8</ele>
        <time>2022-06-14T14:38:03Z</time>
      </trkpt>
      <trkpt lat="46.47497" lon="5.3083">
        <ele>243.2</ele>
        <time>2022-06-14T14:38:10Z</time>
      </trkpt>
      <trkpt lat="46.47519" lon="5.30819">
        <ele>243.6</ele>
        <time>2022-06-14T14:38:13Z</time>
      </trkpt>
      <trkpt lat="46.47563" lon="5.30807">
        <ele>244.2</ele>
        <time>2022-06-14T14:38:19Z</time>
      </trkpt>
      <trkpt lat="46.47618" lon="5.30799">
        <ele>244.4</ele>
        <time>2022-06-14T14:38:26Z</time>
      </trkpt>
      <trkpt lat="46.47634" lon="5.30797">
        <ele>244.4</ele>
        <time>2022-06-14T14:38:28Z</time>
      </trkpt>
      <trkpt lat="46.47641" lon="5.30796">
        <ele>244.2</ele>
        <time>2022-06-14T14:38:29Z</time>
      </trkpt>
      <trkpt lat="46.47696" lon="5.30787">
        <ele>244.6</ele>
        <time>2022-06-14T14:38:36Z</time>
      </trkpt>
      <trkpt lat="46.47704" lon="5.30786">
        <ele>244.4</ele>
        <time>2022-06-14T14:38:37Z</time>
      </trkpt>
      <trkpt lat="46.47765" lon="5.30776">
        <ele>243.8</ele>
        <time>2022-06-14T14:38:45Z</time>
      </trkpt>
      <trkpt lat="46.47793" lon="5.30772">
        <ele>243.2</ele>
        <time>2022-06-14T14:38:48Z</time>
      </trkpt>
      <trkpt lat="46.47822" lon="5.30773">
        <ele>242.8</ele>
        <time>2022-06-14T14:38:52Z</time>
      </trkpt>
      <trkpt lat="46.47835" lon="5.30776">
        <ele>243</ele>
        <time>2022-06-14T14:38:54Z</time>
      </trkpt>
      <trkpt lat="46.47844" lon="5.30785">
        <ele>243.2</ele>
        <time>2022-06-14T14:38:56Z</time>
      </trkpt>
      <trkpt lat="46.47853" lon="5.30797">
        <ele>244.6</ele>
        <time>2022-06-14T14:38:59Z</time>
      </trkpt>
      <trkpt lat="46.47857" lon="5.308">
        <ele>245.2</ele>
        <time>2022-06-14T14:39:00Z</time>
      </trkpt>
      <trkpt lat="46.47863" lon="5.30801">
        <ele>245.8</ele>
        <time>2022-06-14T14:39:01Z</time>
      </trkpt>
      <trkpt lat="46.47877" lon="5.30802">
        <ele>246.2</ele>
        <time>2022-06-14T14:39:03Z</time>
      </trkpt>
      <trkpt lat="46.47917" lon="5.30816">
        <ele>245.2</ele>
        <time>2022-06-14T14:39:08Z</time>
      </trkpt>
      <trkpt lat="46.47926" lon="5.30818">
        <ele>244.6</ele>
        <time>2022-06-14T14:39:09Z</time>
      </trkpt>
      <trkpt lat="46.47944" lon="5.3082">
        <ele>242.6</ele>
        <time>2022-06-14T14:39:11Z</time>
      </trkpt>
      <trkpt lat="46.47954" lon="5.30819">
        <ele>242</ele>
        <time>2022-06-14T14:39:12Z</time>
      </trkpt>
      <trkpt lat="46.47963" lon="5.30818">
        <ele>241</ele>
        <time>2022-06-14T14:39:13Z</time>
      </trkpt>
      <trkpt lat="46.47989" lon="5.30807">
        <ele>240</ele>
        <time>2022-06-14T14:39:16Z</time>
      </trkpt>
      <trkpt lat="46.47997" lon="5.30803">
        <ele>239.8</ele>
        <time>2022-06-14T14:39:17Z</time>
      </trkpt>
      <trkpt lat="46.48026" lon="5.30787">
        <ele>239.8</ele>
        <time>2022-06-14T14:39:21Z</time>
      </trkpt>
      <trkpt lat="46.48046" lon="5.30776">
        <ele>241</ele>
        <time>2022-06-14T14:39:24Z</time>
      </trkpt>
      <trkpt lat="46.48071" lon="5.30761">
        <ele>241.6</ele>
        <time>2022-06-14T14:39:28Z</time>
      </trkpt>
      <trkpt lat="46.48083" lon="5.30755">
        <ele>242</ele>
        <time>2022-06-14T14:39:30Z</time>
      </trkpt>
      <trkpt lat="46.48128" lon="5.30731">
        <ele>242.4</ele>
        <time>2022-06-14T14:39:37Z</time>
      </trkpt>
      <trkpt lat="46.48185" lon="5.30699">
        <ele>241.8</ele>
        <time>2022-06-14T14:39:45Z</time>
      </trkpt>
      <trkpt lat="46.48218" lon="5.30686">
        <ele>241</ele>
        <time>2022-06-14T14:39:49Z</time>
      </trkpt>
      <trkpt lat="46.48226" lon="5.30686">
        <ele>240.8</ele>
        <time>2022-06-14T14:39:50Z</time>
      </trkpt>
      <trkpt lat="46.48253" lon="5.3069">
        <ele>240.4</ele>
        <time>2022-06-14T14:39:53Z</time>
      </trkpt>
      <trkpt lat="46.48271" lon="5.30695">
        <ele>239.6</ele>
        <time>2022-06-14T14:39:55Z</time>
      </trkpt>
      <trkpt lat="46.48288" lon="5.30699">
        <ele>238.6</ele>
        <time>2022-06-14T14:39:57Z</time>
      </trkpt>
      <trkpt lat="46.48306" lon="5.30699">
        <ele>238.2</ele>
        <time>2022-06-14T14:39:59Z</time>
      </trkpt>
      <trkpt lat="46.48315" lon="5.30698">
        <ele>238</ele>
        <time>2022-06-14T14:40:00Z</time>
      </trkpt>
      <trkpt lat="46.48324" lon="5.30695">
        <ele>237.8</ele>
        <time>2022-06-14T14:40:01Z</time>
      </trkpt>
      <trkpt lat="46.48347" lon="5.30679">
        <ele>237.6</ele>
        <time>2022-06-14T14:40:04Z</time>
      </trkpt>
      <trkpt lat="46.48396" lon="5.30633">
        <ele>238</ele>
        <time>2022-06-14T14:40:11Z</time>
      </trkpt>
      <trkpt lat="46.48402" lon="5.30627">
        <ele>238.2</ele>
        <time>2022-06-14T14:40:12Z</time>
      </trkpt>
      <trkpt lat="46.48449" lon="5.30582">
        <ele>238.2</ele>
        <time>2022-06-14T14:40:19Z</time>
      </trkpt>
      <trkpt lat="46.48462" lon="5.30569">
        <ele>238.6</ele>
        <time>2022-06-14T14:40:21Z</time>
      </trkpt>
      <trkpt lat="46.48508" lon="5.30525">
        <ele>239.6</ele>
        <time>2022-06-14T14:40:28Z</time>
      </trkpt>
      <trkpt lat="46.48515" lon="5.3052">
        <ele>239.8</ele>
        <time>2022-06-14T14:40:29Z</time>
      </trkpt>
      <trkpt lat="46.48546" lon="5.30498">
        <ele>240.4</ele>
        <time>2022-06-14T14:40:34Z</time>
      </trkpt>
      <trkpt lat="46.48552" lon="5.30496">
        <ele>240.4</ele>
        <time>2022-06-14T14:40:35Z</time>
      </trkpt>
      <trkpt lat="46.48561" lon="5.30502">
        <ele>240.6</ele>
        <time>2022-06-14T14:40:37Z</time>
      </trkpt>
      <trkpt lat="46.48563" lon="5.30509">
        <ele>241</ele>
        <time>2022-06-14T14:40:38Z</time>
      </trkpt>
      <trkpt lat="46.48563" lon="5.30518">
        <ele>241</ele>
        <time>2022-06-14T14:40:39Z</time>
      </trkpt>
      <trkpt lat="46.48554" lon="5.30573">
        <ele>240.8</ele>
        <time>2022-06-14T14:40:45Z</time>
      </trkpt>
      <trkpt lat="46.48546" lon="5.30638">
        <ele>239.8</ele>
        <time>2022-06-14T14:40:51Z</time>
      </trkpt>
      <trkpt lat="46.48543" lon="5.30661">
        <ele>238.4</ele>
        <time>2022-06-14T14:40:53Z</time>
      </trkpt>
      <trkpt lat="46.48545" lon="5.30685">
        <ele>237.8</ele>
        <time>2022-06-14T14:40:55Z</time>
      </trkpt>
      <trkpt lat="46.48549" lon="5.30709">
        <ele>237.4</ele>
        <time>2022-06-14T14:40:57Z</time>
      </trkpt>
      <trkpt lat="46.48559" lon="5.30733">
        <ele>237</ele>
        <time>2022-06-14T14:40:59Z</time>
      </trkpt>
      <trkpt lat="46.48572" lon="5.30752">
        <ele>236.2</ele>
        <time>2022-06-14T14:41:01Z</time>
      </trkpt>
      <trkpt lat="46.48586" lon="5.30768">
        <ele>235.8</ele>
        <time>2022-06-14T14:41:03Z</time>
      </trkpt>
      <trkpt lat="46.48595" lon="5.30775">
        <ele>235.2</ele>
        <time>2022-06-14T14:41:04Z</time>
      </trkpt>
      <trkpt lat="46.48619" lon="5.30794">
        <ele>234.2</ele>
        <time>2022-06-14T14:41:07Z</time>
      </trkpt>
      <trkpt lat="46.48635" lon="5.30806">
        <ele>233</ele>
        <time>2022-06-14T14:41:09Z</time>
      </trkpt>
      <trkpt lat="46.48679" lon="5.30834">
        <ele>232.2</ele>
        <time>2022-06-14T14:41:15Z</time>
      </trkpt>
      <trkpt lat="46.48701" lon="5.3085">
        <ele>232.6</ele>
        <time>2022-06-14T14:41:18Z</time>
      </trkpt>
      <trkpt lat="46.48707" lon="5.30857">
        <ele>232.8</ele>
        <time>2022-06-14T14:41:19Z</time>
      </trkpt>
      <trkpt lat="46.48713" lon="5.30865">
        <ele>233.2</ele>
        <time>2022-06-14T14:41:20Z</time>
      </trkpt>
      <trkpt lat="46.4872" lon="5.30885">
        <ele>233.8</ele>
        <time>2022-06-14T14:41:22Z</time>
      </trkpt>
      <trkpt lat="46.48719" lon="5.30905">
        <ele>234.2</ele>
        <time>2022-06-14T14:41:24Z</time>
      </trkpt>
      <trkpt lat="46.48715" lon="5.30913">
        <ele>234.4</ele>
        <time>2022-06-14T14:41:25Z</time>
      </trkpt>
      <trkpt lat="46.48709" lon="5.30921">
        <ele>234.6</ele>
        <time>2022-06-14T14:41:26Z</time>
      </trkpt>
      <trkpt lat="46.48704" lon="5.30927">
        <ele>234.6</ele>
        <time>2022-06-14T14:41:27Z</time>
      </trkpt>
      <trkpt lat="46.48698" lon="5.30934">
        <ele>234.6</ele>
        <time>2022-06-14T14:41:28Z</time>
      </trkpt>
      <trkpt lat="46.48684" lon="5.30958">
        <ele>235.2</ele>
        <time>2022-06-14T14:41:31Z</time>
      </trkpt>
      <trkpt lat="46.4868" lon="5.30968">
        <ele>235.6</ele>
        <time>2022-06-14T14:41:32Z</time>
      </trkpt>
      <trkpt lat="46.48663" lon="5.31006">
        <ele>236.8</ele>
        <time>2022-06-14T14:41:36Z</time>
      </trkpt>
      <trkpt lat="46.48658" lon="5.31016">
        <ele>237</ele>
        <time>2022-06-14T14:41:37Z</time>
      </trkpt>
      <trkpt lat="46.48625" lon="5.31084">
        <ele>237.2</ele>
        <time>2022-06-14T14:41:44Z</time>
      </trkpt>
      <trkpt lat="46.4861" lon="5.31115">
        <ele>237</ele>
        <time>2022-06-14T14:41:47Z</time>
      </trkpt>
      <trkpt lat="46.4859" lon="5.31156">
        <ele>235.6</ele>
        <time>2022-06-14T14:41:51Z</time>
      </trkpt>
      <trkpt lat="46.48569" lon="5.31198">
        <ele>234.6</ele>
        <time>2022-06-14T14:41:55Z</time>
      </trkpt>
      <trkpt lat="46.48564" lon="5.31209">
        <ele>234.4</ele>
        <time>2022-06-14T14:41:56Z</time>
      </trkpt>
      <trkpt lat="46.48554" lon="5.31232">
        <ele>233.6</ele>
        <time>2022-06-14T14:41:58Z</time>
      </trkpt>
      <trkpt lat="46.4855" lon="5.31257">
        <ele>233</ele>
        <time>2022-06-14T14:42:00Z</time>
      </trkpt>
      <trkpt lat="46.48551" lon="5.31283">
        <ele>232.4</ele>
        <time>2022-06-14T14:42:02Z</time>
      </trkpt>
      <trkpt lat="46.48554" lon="5.31309">
        <ele>232</ele>
        <time>2022-06-14T14:42:04Z</time>
      </trkpt>
      <trkpt lat="46.48558" lon="5.31346">
        <ele>231.4</ele>
        <time>2022-06-14T14:42:07Z</time>
      </trkpt>
      <trkpt lat="46.48561" lon="5.31359">
        <ele>231.2</ele>
        <time>2022-06-14T14:42:08Z</time>
      </trkpt>
      <trkpt lat="46.48565" lon="5.31371">
        <ele>230.8</ele>
        <time>2022-06-14T14:42:09Z</time>
      </trkpt>
      <trkpt lat="46.48578" lon="5.3139">
        <ele>230.2</ele>
        <time>2022-06-14T14:42:11Z</time>
      </trkpt>
      <trkpt lat="46.48586" lon="5.31399">
        <ele>229.8</ele>
        <time>2022-06-14T14:42:12Z</time>
      </trkpt>
      <trkpt lat="46.48594" lon="5.31408">
        <ele>229.4</ele>
        <time>2022-06-14T14:42:13Z</time>
      </trkpt>
      <trkpt lat="46.48601" lon="5.31419">
        <ele>228.8</ele>
        <time>2022-06-14T14:42:14Z</time>
      </trkpt>
      <trkpt lat="46.48607" lon="5.31433">
        <ele>228.6</ele>
        <time>2022-06-14T14:42:15Z</time>
      </trkpt>
      <trkpt lat="46.4861" lon="5.31462">
        <ele>227.8</ele>
        <time>2022-06-14T14:42:17Z</time>
      </trkpt>
      <trkpt lat="46.48611" lon="5.31491">
        <ele>226.6</ele>
        <time>2022-06-14T14:42:19Z</time>
      </trkpt>
      <trkpt lat="46.48612" lon="5.31504">
        <ele>226.2</ele>
        <time>2022-06-14T14:42:20Z</time>
      </trkpt>
      <trkpt lat="46.48616" lon="5.31526">
        <ele>225.8</ele>
        <time>2022-06-14T14:42:22Z</time>
      </trkpt>
      <trkpt lat="46.48621" lon="5.31535">
        <ele>225.6</ele>
        <time>2022-06-14T14:42:23Z</time>
      </trkpt>
      <trkpt lat="46.48626" lon="5.31543">
        <ele>225.6</ele>
        <time>2022-06-14T14:42:24Z</time>
      </trkpt>
      <trkpt lat="46.48637" lon="5.31559">
        <ele>225.6</ele>
        <time>2022-06-14T14:42:26Z</time>
      </trkpt>
      <trkpt lat="46.48643" lon="5.31567">
        <ele>225.6</ele>
        <time>2022-06-14T14:42:27Z</time>
      </trkpt>
      <trkpt lat="46.48683" lon="5.31616">
        <ele>225.8</ele>
        <time>2022-06-14T14:42:33Z</time>
      </trkpt>
      <trkpt lat="46.48717" lon="5.31655">
        <ele>225.6</ele>
        <time>2022-06-14T14:42:38Z</time>
      </trkpt>
      <trkpt lat="46.48757" lon="5.317">
        <ele>225.6</ele>
        <time>2022-06-14T14:42:44Z</time>
      </trkpt>
      <trkpt lat="46.48775" lon="5.31725">
        <ele>225.4</ele>
        <time>2022-06-14T14:42:47Z</time>
      </trkpt>
      <trkpt lat="46.48778" lon="5.31737">
        <ele>225.4</ele>
        <time>2022-06-14T14:42:48Z</time>
      </trkpt>
      <trkpt lat="46.48781" lon="5.3175">
        <ele>225.4</ele>
        <time>2022-06-14T14:42:49Z</time>
      </trkpt>
      <trkpt lat="46.48781" lon="5.31775">
        <ele>225.4</ele>
        <time>2022-06-14T14:42:51Z</time>
      </trkpt>
      <trkpt lat="46.48785" lon="5.31824">
        <ele>225.4</ele>
        <time>2022-06-14T14:42:55Z</time>
      </trkpt>
      <trkpt lat="46.48794" lon="5.31844">
        <ele>225.2</ele>
        <time>2022-06-14T14:42:57Z</time>
      </trkpt>
      <trkpt lat="46.488" lon="5.3185">
        <ele>225.2</ele>
        <time>2022-06-14T14:42:58Z</time>
      </trkpt>
      <trkpt lat="46.48808" lon="5.31854">
        <ele>225</ele>
        <time>2022-06-14T14:42:59Z</time>
      </trkpt>
      <trkpt lat="46.48824" lon="5.31863">
        <ele>224.8</ele>
        <time>2022-06-14T14:43:01Z</time>
      </trkpt>
      <trkpt lat="46.48831" lon="5.31872">
        <ele>224.6</ele>
        <time>2022-06-14T14:43:02Z</time>
      </trkpt>
      <trkpt lat="46.48836" lon="5.31881">
        <ele>224.6</ele>
        <time>2022-06-14T14:43:03Z</time>
      </trkpt>
      <trkpt lat="46.48841" lon="5.31904">
        <ele>224.6</ele>
        <time>2022-06-14T14:43:05Z</time>
      </trkpt>
      <trkpt lat="46.48846" lon="5.31984">
        <ele>225.4</ele>
        <time>2022-06-14T14:43:12Z</time>
      </trkpt>
      <trkpt lat="46.48838" lon="5.32051">
        <ele>226.8</ele>
        <time>2022-06-14T14:43:18Z</time>
      </trkpt>
      <trkpt lat="46.48824" lon="5.3213">
        <ele>227.6</ele>
        <time>2022-06-14T14:43:25Z</time>
      </trkpt>
      <trkpt lat="46.48823" lon="5.32141">
        <ele>227.8</ele>
        <time>2022-06-14T14:43:26Z</time>
      </trkpt>
      <trkpt lat="46.48823" lon="5.32164">
        <ele>228</ele>
        <time>2022-06-14T14:43:28Z</time>
      </trkpt>
      <trkpt lat="46.48827" lon="5.32198">
        <ele>228.2</ele>
        <time>2022-06-14T14:43:31Z</time>
      </trkpt>
      <trkpt lat="46.4883" lon="5.32219">
        <ele>228.6</ele>
        <time>2022-06-14T14:43:33Z</time>
      </trkpt>
      <trkpt lat="46.48833" lon="5.32229">
        <ele>228.8</ele>
        <time>2022-06-14T14:43:34Z</time>
      </trkpt>
      <trkpt lat="46.48836" lon="5.32239">
        <ele>229</ele>
        <time>2022-06-14T14:43:35Z</time>
      </trkpt>
      <trkpt lat="46.4884" lon="5.32248">
        <ele>229.2</ele>
        <time>2022-06-14T14:43:36Z</time>
      </trkpt>
      <trkpt lat="46.48845" lon="5.32256">
        <ele>229.6</ele>
        <time>2022-06-14T14:43:37Z</time>
      </trkpt>
      <trkpt lat="46.48856" lon="5.32272">
        <ele>230.2</ele>
        <time>2022-06-14T14:43:39Z</time>
      </trkpt>
      <trkpt lat="46.48862" lon="5.32281">
        <ele>230.2</ele>
        <time>2022-06-14T14:43:40Z</time>
      </trkpt>
      <trkpt lat="46.48892" lon="5.32327">
        <ele>230</ele>
        <time>2022-06-14T14:43:45Z</time>
      </trkpt>
      <trkpt lat="46.48902" lon="5.32344">
        <ele>229.4</ele>
        <time>2022-06-14T14:43:46Z</time>
      </trkpt>
      <trkpt lat="46.48907" lon="5.32356">
        <ele>228.2</ele>
        <time>2022-06-14T14:43:47Z</time>
      </trkpt>
      <trkpt lat="46.48912" lon="5.32369">
        <ele>227.6</ele>
        <time>2022-06-14T14:43:48Z</time>
      </trkpt>
      <trkpt lat="46.48916" lon="5.32383">
        <ele>226</ele>
        <time>2022-06-14T14:43:49Z</time>
      </trkpt>
      <trkpt lat="46.48923" lon="5.32409">
        <ele>224.2</ele>
        <time>2022-06-14T14:43:51Z</time>
      </trkpt>
      <trkpt lat="46.4893" lon="5.32434">
        <ele>223.4</ele>
        <time>2022-06-14T14:43:53Z</time>
      </trkpt>
      <trkpt lat="46.48934" lon="5.32446">
        <ele>223</ele>
        <time>2022-06-14T14:43:54Z</time>
      </trkpt>
      <trkpt lat="46.48952" lon="5.32505">
        <ele>222.4</ele>
        <time>2022-06-14T14:43:59Z</time>
      </trkpt>
      <trkpt lat="46.48954" lon="5.32517">
        <ele>222.4</ele>
        <time>2022-06-14T14:44:00Z</time>
      </trkpt>
      <trkpt lat="46.48956" lon="5.32543">
        <ele>222.6</ele>
        <time>2022-06-14T14:44:02Z</time>
      </trkpt>
      <trkpt lat="46.4895" lon="5.32566">
        <ele>222.8</ele>
        <time>2022-06-14T14:44:04Z</time>
      </trkpt>
      <trkpt lat="46.48932" lon="5.3259">
        <ele>223.2</ele>
        <time>2022-06-14T14:44:07Z</time>
      </trkpt>
      <trkpt lat="46.48927" lon="5.32598">
        <ele>223.2</ele>
        <time>2022-06-14T14:44:08Z</time>
      </trkpt>
      <trkpt lat="46.48919" lon="5.32615">
        <ele>223.4</ele>
        <time>2022-06-14T14:44:10Z</time>
      </trkpt>
      <trkpt lat="46.48917" lon="5.32633">
        <ele>224.4</ele>
        <time>2022-06-14T14:44:12Z</time>
      </trkpt>
      <trkpt lat="46.48918" lon="5.32641">
        <ele>224.8</ele>
        <time>2022-06-14T14:44:13Z</time>
      </trkpt>
      <trkpt lat="46.4892" lon="5.32649">
        <ele>225</ele>
        <time>2022-06-14T14:44:14Z</time>
      </trkpt>
      <trkpt lat="46.48926" lon="5.32662">
        <ele>225.6</ele>
        <time>2022-06-14T14:44:16Z</time>
      </trkpt>
      <trkpt lat="46.48929" lon="5.32668">
        <ele>226</ele>
        <time>2022-06-14T14:44:17Z</time>
      </trkpt>
      <trkpt lat="46.48936" lon="5.32678">
        <ele>226.6</ele>
        <time>2022-06-14T14:44:19Z</time>
      </trkpt>
      <trkpt lat="46.48946" lon="5.32692">
        <ele>227.6</ele>
        <time>2022-06-14T14:44:22Z</time>
      </trkpt>
      <trkpt lat="46.48949" lon="5.32696">
        <ele>228.2</ele>
        <time>2022-06-14T14:44:23Z</time>
      </trkpt>
      <trkpt lat="46.48952" lon="5.32699">
        <ele>228.8</ele>
        <time>2022-06-14T14:44:24Z</time>
      </trkpt>
      <trkpt lat="46.48963" lon="5.32707">
        <ele>229.8</ele>
        <time>2022-06-14T14:44:27Z</time>
      </trkpt>
      <trkpt lat="46.48967" lon="5.32709">
        <ele>230.2</ele>
        <time>2022-06-14T14:44:28Z</time>
      </trkpt>
      <trkpt lat="46.4897" lon="5.3271">
        <ele>230.4</ele>
        <time>2022-06-14T14:44:29Z</time>
      </trkpt>
      <trkpt lat="46.4898" lon="5.32711">
        <ele>231.2</ele>
        <time>2022-06-14T14:44:31Z</time>
      </trkpt>
      <trkpt lat="46.48985" lon="5.32711">
        <ele>231.4</ele>
        <time>2022-06-14T14:44:32Z</time>
      </trkpt>
      <trkpt lat="46.49008" lon="5.3271">
        <ele>232.4</ele>
        <time>2022-06-14T14:44:37Z</time>
      </trkpt>
      <trkpt lat="46.49021" lon="5.32708">
        <ele>233.6</ele>
        <time>2022-06-14T14:44:40Z</time>
      </trkpt>
      <trkpt lat="46.49026" lon="5.32708">
        <ele>233.8</ele>
        <time>2022-06-14T14:44:41Z</time>
      </trkpt>
      <trkpt lat="46.49032" lon="5.32706">
        <ele>234.2</ele>
        <time>2022-06-14T14:44:42Z</time>
      </trkpt>
      <trkpt lat="46.49043" lon="5.32704">
        <ele>235</ele>
        <time>2022-06-14T14:44:45Z</time>
      </trkpt>
      <trkpt lat="46.49058" lon="5.327">
        <ele>235.4</ele>
        <time>2022-06-14T14:44:49Z</time>
      </trkpt>
      <trkpt lat="46.49072" lon="5.32698">
        <ele>236</ele>
        <time>2022-06-14T14:44:52Z</time>
      </trkpt>
      <trkpt lat="46.49081" lon="5.32698">
        <ele>236.4</ele>
        <time>2022-06-14T14:44:54Z</time>
      </trkpt>
      <trkpt lat="46.49099" lon="5.32696">
        <ele>237.2</ele>
        <time>2022-06-14T14:44:58Z</time>
      </trkpt>
      <trkpt lat="46.49112" lon="5.32698">
        <ele>238</ele>
        <time>2022-06-14T14:45:01Z</time>
      </trkpt>
      <trkpt lat="46.49121" lon="5.32706">
        <ele>238.6</ele>
        <time>2022-06-14T14:45:03Z</time>
      </trkpt>
      <trkpt lat="46.49128" lon="5.32717">
        <ele>238.8</ele>
        <time>2022-06-14T14:45:05Z</time>
      </trkpt>
      <trkpt lat="46.49132" lon="5.32729">
        <ele>239.2</ele>
        <time>2022-06-14T14:45:07Z</time>
      </trkpt>
      <trkpt lat="46.49137" lon="5.32749">
        <ele>239.8</ele>
        <time>2022-06-14T14:45:10Z</time>
      </trkpt>
      <trkpt lat="46.49142" lon="5.32778">
        <ele>240.6</ele>
        <time>2022-06-14T14:45:14Z</time>
      </trkpt>
      <trkpt lat="46.49145" lon="5.32795">
        <ele>240.6</ele>
        <time>2022-06-14T14:45:16Z</time>
      </trkpt>
      <trkpt lat="46.49145" lon="5.32815">
        <ele>240.6</ele>
        <time>2022-06-14T14:45:18Z</time>
      </trkpt>
      <trkpt lat="46.49144" lon="5.32825">
        <ele>240.6</ele>
        <time>2022-06-14T14:45:19Z</time>
      </trkpt>
      <trkpt lat="46.49142" lon="5.32835">
        <ele>240.6</ele>
        <time>2022-06-14T14:45:20Z</time>
      </trkpt>
      <trkpt lat="46.49134" lon="5.32866">
        <ele>240</ele>
        <time>2022-06-14T14:45:23Z</time>
      </trkpt>
      <trkpt lat="46.49124" lon="5.32918">
        <ele>239.6</ele>
        <time>2022-06-14T14:45:28Z</time>
      </trkpt>
      <trkpt lat="46.49124" lon="5.32929">
        <ele>239.6</ele>
        <time>2022-06-14T14:45:29Z</time>
      </trkpt>
      <trkpt lat="46.4913" lon="5.33012">
        <ele>239.8</ele>
        <time>2022-06-14T14:45:37Z</time>
      </trkpt>
      <trkpt lat="46.49131" lon="5.33022">
        <ele>240</ele>
        <time>2022-06-14T14:45:38Z</time>
      </trkpt>
      <trkpt lat="46.49139" lon="5.33064">
        <ele>240.6</ele>
        <time>2022-06-14T14:45:42Z</time>
      </trkpt>
      <trkpt lat="46.49141" lon="5.33073">
        <ele>240.8</ele>
        <time>2022-06-14T14:45:44Z</time>
      </trkpt>
      <trkpt lat="46.49158" lon="5.33122">
        <ele>241.4</ele>
        <time>2022-06-14T14:45:49Z</time>
      </trkpt>
      <trkpt lat="46.49183" lon="5.33148">
        <ele>241.2</ele>
        <time>2022-06-14T14:45:53Z</time>
      </trkpt>
      <trkpt lat="46.492" lon="5.33164">
        <ele>241</ele>
        <time>2022-06-14T14:45:56Z</time>
      </trkpt>
      <trkpt lat="46.49212" lon="5.33173">
        <ele>241</ele>
        <time>2022-06-14T14:45:58Z</time>
      </trkpt>
      <trkpt lat="46.49241" lon="5.33197">
        <ele>241.2</ele>
        <time>2022-06-14T14:46:03Z</time>
      </trkpt>
      <trkpt lat="46.49251" lon="5.33212">
        <ele>241.4</ele>
        <time>2022-06-14T14:46:05Z</time>
      </trkpt>
      <trkpt lat="46.49259" lon="5.33228">
        <ele>241.6</ele>
        <time>2022-06-14T14:46:07Z</time>
      </trkpt>
      <trkpt lat="46.49268" lon="5.33253">
        <ele>241.8</ele>
        <time>2022-06-14T14:46:10Z</time>
      </trkpt>
      <trkpt lat="46.49271" lon="5.33262">
        <ele>242</ele>
        <time>2022-06-14T14:46:11Z</time>
      </trkpt>
      <trkpt lat="46.49272" lon="5.3327">
        <ele>242.2</ele>
        <time>2022-06-14T14:46:12Z</time>
      </trkpt>
      <trkpt lat="46.49284" lon="5.3333">
        <ele>243.2</ele>
        <time>2022-06-14T14:46:19Z</time>
      </trkpt>
      <trkpt lat="46.49285" lon="5.33338">
        <ele>243.4</ele>
        <time>2022-06-14T14:46:20Z</time>
      </trkpt>
      <trkpt lat="46.49297" lon="5.33397">
        <ele>244.2</ele>
        <time>2022-06-14T14:46:27Z</time>
      </trkpt>
      <trkpt lat="46.49298" lon="5.33405">
        <ele>244.4</ele>
        <time>2022-06-14T14:46:28Z</time>
      </trkpt>
      <trkpt lat="46.49306" lon="5.33446">
        <ele>245.2</ele>
        <time>2022-06-14T14:46:33Z</time>
      </trkpt>
      <trkpt lat="46.49312" lon="5.33489">
        <ele>245.6</ele>
        <time>2022-06-14T14:46:38Z</time>
      </trkpt>
      <trkpt lat="46.49318" lon="5.33551">
        <ele>245.6</ele>
        <time>2022-06-14T14:46:45Z</time>
      </trkpt>
      <trkpt lat="46.4931" lon="5.33593">
        <ele>245.6</ele>
        <time>2022-06-14T14:46:49Z</time>
      </trkpt>
      <trkpt lat="46.49306" lon="5.33612">
        <ele>245.6</ele>
        <time>2022-06-14T14:46:51Z</time>
      </trkpt>
      <trkpt lat="46.49303" lon="5.33641">
        <ele>245.8</ele>
        <time>2022-06-14T14:46:54Z</time>
      </trkpt>
      <trkpt lat="46.49301" lon="5.33691">
        <ele>246</ele>
        <time>2022-06-14T14:46:59Z</time>
      </trkpt>
      <trkpt lat="46.49298" lon="5.33719">
        <ele>246.4</ele>
        <time>2022-06-14T14:47:02Z</time>
      </trkpt>
      <trkpt lat="46.49295" lon="5.33748">
        <ele>246.8</ele>
        <time>2022-06-14T14:47:05Z</time>
      </trkpt>
      <trkpt lat="46.49284" lon="5.33813">
        <ele>247.4</ele>
        <time>2022-06-14T14:47:12Z</time>
      </trkpt>
      <trkpt lat="46.49272" lon="5.33881">
        <ele>247.6</ele>
        <time>2022-06-14T14:47:19Z</time>
      </trkpt>
      <trkpt lat="46.49261" lon="5.33942">
        <ele>247.6</ele>
        <time>2022-06-14T14:47:25Z</time>
      </trkpt>
      <trkpt lat="46.49249" lon="5.34004">
        <ele>247.6</ele>
        <time>2022-06-14T14:47:31Z</time>
      </trkpt>
      <trkpt lat="46.49235" lon="5.34067">
        <ele>247.8</ele>
        <time>2022-06-14T14:47:37Z</time>
      </trkpt>
      <trkpt lat="46.4922" lon="5.34146">
        <ele>247</ele>
        <time>2022-06-14T14:47:43Z</time>
      </trkpt>
      <trkpt lat="46.49214" lon="5.34176">
        <ele>246</ele>
        <time>2022-06-14T14:47:46Z</time>
      </trkpt>
      <trkpt lat="46.49203" lon="5.34237">
        <ele>245</ele>
        <time>2022-06-14T14:47:51Z</time>
      </trkpt>
      <trkpt lat="46.49191" lon="5.34305">
        <ele>245</ele>
        <time>2022-06-14T14:47:57Z</time>
      </trkpt>
      <trkpt lat="46.49182" lon="5.34355">
        <ele>245.6</ele>
        <time>2022-06-14T14:48:02Z</time>
      </trkpt>
      <trkpt lat="46.49169" lon="5.34425">
        <ele>246</ele>
        <time>2022-06-14T14:48:08Z</time>
      </trkpt>
      <trkpt lat="46.49157" lon="5.34486">
        <ele>245.2</ele>
        <time>2022-06-14T14:48:13Z</time>
      </trkpt>
      <trkpt lat="46.4915" lon="5.34521">
        <ele>244.8</ele>
        <time>2022-06-14T14:48:16Z</time>
      </trkpt>
      <trkpt lat="46.49139" lon="5.34575">
        <ele>244.6</ele>
        <time>2022-06-14T14:48:21Z</time>
      </trkpt>
      <trkpt lat="46.49124" lon="5.34649">
        <ele>246</ele>
        <time>2022-06-14T14:48:28Z</time>
      </trkpt>
      <trkpt lat="46.4911" lon="5.3473">
        <ele>245.4</ele>
        <time>2022-06-14T14:48:35Z</time>
      </trkpt>
      <trkpt lat="46.49107" lon="5.34741">
        <ele>245.2</ele>
        <time>2022-06-14T14:48:36Z</time>
      </trkpt>
      <trkpt lat="46.49094" lon="5.34812">
        <ele>245.4</ele>
        <time>2022-06-14T14:48:43Z</time>
      </trkpt>
      <trkpt lat="46.49079" lon="5.34888">
        <ele>247</ele>
        <time>2022-06-14T14:48:51Z</time>
      </trkpt>
      <trkpt lat="46.49077" lon="5.34897">
        <ele>247.2</ele>
        <time>2022-06-14T14:48:52Z</time>
      </trkpt>
      <trkpt lat="46.49066" lon="5.34951">
        <ele>247.8</ele>
        <time>2022-06-14T14:48:58Z</time>
      </trkpt>
      <trkpt lat="46.49065" lon="5.3496">
        <ele>248</ele>
        <time>2022-06-14T14:48:59Z</time>
      </trkpt>
      <trkpt lat="46.49063" lon="5.34969">
        <ele>248</ele>
        <time>2022-06-14T14:49:00Z</time>
      </trkpt>
      <trkpt lat="46.49057" lon="5.35003">
        <ele>248.4</ele>
        <time>2022-06-14T14:49:04Z</time>
      </trkpt>
      <trkpt lat="46.4905" lon="5.35038">
        <ele>249.2</ele>
        <time>2022-06-14T14:49:08Z</time>
      </trkpt>
      <trkpt lat="46.49041" lon="5.35079">
        <ele>249.8</ele>
        <time>2022-06-14T14:49:12Z</time>
      </trkpt>
      <trkpt lat="46.4904" lon="5.35089">
        <ele>250.4</ele>
        <time>2022-06-14T14:49:14Z</time>
      </trkpt>
      <trkpt lat="46.49035" lon="5.3511">
        <ele>251</ele>
        <time>2022-06-14T14:49:16Z</time>
      </trkpt>
      <trkpt lat="46.49029" lon="5.35127">
        <ele>251.2</ele>
        <time>2022-06-14T14:49:18Z</time>
      </trkpt>
      <trkpt lat="46.49011" lon="5.35169">
        <ele>251.4</ele>
        <time>2022-06-14T14:49:23Z</time>
      </trkpt>
      <trkpt lat="46.49008" lon="5.35178">
        <ele>251.4</ele>
        <time>2022-06-14T14:49:24Z</time>
      </trkpt>
      <trkpt lat="46.48983" lon="5.35235">
        <ele>251.2</ele>
        <time>2022-06-14T14:49:30Z</time>
      </trkpt>
      <trkpt lat="46.48965" lon="5.35274">
        <ele>250.2</ele>
        <time>2022-06-14T14:49:34Z</time>
      </trkpt>
      <trkpt lat="46.48943" lon="5.35322">
        <ele>249.4</ele>
        <time>2022-06-14T14:49:39Z</time>
      </trkpt>
      <trkpt lat="46.4893" lon="5.35351">
        <ele>249.2</ele>
        <time>2022-06-14T14:49:42Z</time>
      </trkpt>
      <trkpt lat="46.48926" lon="5.35361">
        <ele>249.2</ele>
        <time>2022-06-14T14:49:43Z</time>
      </trkpt>
      <trkpt lat="46.48909" lon="5.35399">
        <ele>249</ele>
        <time>2022-06-14T14:49:47Z</time>
      </trkpt>
      <trkpt lat="46.48887" lon="5.3545">
        <ele>248.8</ele>
        <time>2022-06-14T14:49:53Z</time>
      </trkpt>
      <trkpt lat="46.48863" lon="5.35503">
        <ele>249.2</ele>
        <time>2022-06-14T14:49:59Z</time>
      </trkpt>
      <trkpt lat="46.48836" lon="5.35564">
        <ele>250.2</ele>
        <time>2022-06-14T14:50:06Z</time>
      </trkpt>
      <trkpt lat="46.48832" lon="5.35573">
        <ele>250.4</ele>
        <time>2022-06-14T14:50:07Z</time>
      </trkpt>
      <trkpt lat="46.48806" lon="5.35631">
        <ele>250.8</ele>
        <time>2022-06-14T14:50:14Z</time>
      </trkpt>
      <trkpt lat="46.48774" lon="5.35705">
        <ele>250.6</ele>
        <time>2022-06-14T14:50:22Z</time>
      </trkpt>
      <trkpt lat="46.48744" lon="5.35775">
        <ele>250.4</ele>
        <time>2022-06-14T14:50:30Z</time>
      </trkpt>
      <trkpt lat="46.48712" lon="5.35848">
        <ele>251</ele>
        <time>2022-06-14T14:50:39Z</time>
      </trkpt>
      <trkpt lat="46.48696" lon="5.35888">
        <ele>251.2</ele>
        <time>2022-06-14T14:50:44Z</time>
      </trkpt>
      <trkpt lat="46.48691" lon="5.35904">
        <ele>251.4</ele>
        <time>2022-06-14T14:50:46Z</time>
      </trkpt>
      <trkpt lat="46.48681" lon="5.35946">
        <ele>252.2</ele>
        <time>2022-06-14T14:50:51Z</time>
      </trkpt>
      <trkpt lat="46.48679" lon="5.35956">
        <ele>252.6</ele>
        <time>2022-06-14T14:50:52Z</time>
      </trkpt>
      <trkpt lat="46.48669" lon="5.36025">
        <ele>253.4</ele>
        <time>2022-06-14T14:50:59Z</time>
      </trkpt>
      <trkpt lat="46.48654" lon="5.36093">
        <ele>253</ele>
        <time>2022-06-14T14:51:05Z</time>
      </trkpt>
      <trkpt lat="46.48643" lon="5.36152">
        <ele>251.6</ele>
        <time>2022-06-14T14:51:10Z</time>
      </trkpt>
      <trkpt lat="46.48642" lon="5.36163">
        <ele>251.4</ele>
        <time>2022-06-14T14:51:11Z</time>
      </trkpt>
      <trkpt lat="46.48635" lon="5.3625">
        <ele>251.4</ele>
        <time>2022-06-14T14:51:19Z</time>
      </trkpt>
      <trkpt lat="46.48626" lon="5.36297">
        <ele>252.2</ele>
        <time>2022-06-14T14:51:24Z</time>
      </trkpt>
      <trkpt lat="46.48623" lon="5.36304">
        <ele>252.6</ele>
        <time>2022-06-14T14:51:25Z</time>
      </trkpt>
      <trkpt lat="46.48619" lon="5.36311">
        <ele>252.6</ele>
        <time>2022-06-14T14:51:26Z</time>
      </trkpt>
      <trkpt lat="46.48614" lon="5.36316">
        <ele>252.8</ele>
        <time>2022-06-14T14:51:27Z</time>
      </trkpt>
      <trkpt lat="46.48609" lon="5.36319">
        <ele>253</ele>
        <time>2022-06-14T14:51:28Z</time>
      </trkpt>
      <trkpt lat="46.48597" lon="5.36321">
        <ele>253.8</ele>
        <time>2022-06-14T14:51:30Z</time>
      </trkpt>
      <trkpt lat="46.48567" lon="5.36323">
        <ele>254.8</ele>
        <time>2022-06-14T14:51:35Z</time>
      </trkpt>
      <trkpt lat="46.48549" lon="5.36326">
        <ele>256</ele>
        <time>2022-06-14T14:51:38Z</time>
      </trkpt>
      <trkpt lat="46.48543" lon="5.36327">
        <ele>256.2</ele>
        <time>2022-06-14T14:51:39Z</time>
      </trkpt>
      <trkpt lat="46.48499" lon="5.36336">
        <ele>257.2</ele>
        <time>2022-06-14T14:51:46Z</time>
      </trkpt>
      <trkpt lat="46.48493" lon="5.36337">
        <ele>257.2</ele>
        <time>2022-06-14T14:51:47Z</time>
      </trkpt>
      <trkpt lat="46.48453" lon="5.36343">
        <ele>257.6</ele>
        <time>2022-06-14T14:51:53Z</time>
      </trkpt>
      <trkpt lat="46.48428" lon="5.36349">
        <ele>258.2</ele>
        <time>2022-06-14T14:51:57Z</time>
      </trkpt>
      <trkpt lat="46.48409" lon="5.36359">
        <ele>258.4</ele>
        <time>2022-06-14T14:52:00Z</time>
      </trkpt>
      <trkpt lat="46.48376" lon="5.3639">
        <ele>258.8</ele>
        <time>2022-06-14T14:52:06Z</time>
      </trkpt>
      <trkpt lat="46.4833" lon="5.36441">
        <ele>259.2</ele>
        <time>2022-06-14T14:52:15Z</time>
      </trkpt>
      <trkpt lat="46.4832" lon="5.36452">
        <ele>259.4</ele>
        <time>2022-06-14T14:52:17Z</time>
      </trkpt>
      <trkpt lat="46.483" lon="5.36474">
        <ele>260.6</ele>
        <time>2022-06-14T14:52:21Z</time>
      </trkpt>
      <trkpt lat="46.48285" lon="5.3649">
        <ele>261</ele>
        <time>2022-06-14T14:52:24Z</time>
      </trkpt>
      <trkpt lat="46.48266" lon="5.36511">
        <ele>261.8</ele>
        <time>2022-06-14T14:52:28Z</time>
      </trkpt>
      <trkpt lat="46.48242" lon="5.36538">
        <ele>262.4</ele>
        <time>2022-06-14T14:52:33Z</time>
      </trkpt>
      <trkpt lat="46.48232" lon="5.36548">
        <ele>262.8</ele>
        <time>2022-06-14T14:52:35Z</time>
      </trkpt>
      <trkpt lat="46.48227" lon="5.36552">
        <ele>263</ele>
        <time>2022-06-14T14:52:36Z</time>
      </trkpt>
      <trkpt lat="46.48215" lon="5.36556">
        <ele>263.4</ele>
        <time>2022-06-14T14:52:38Z</time>
      </trkpt>
      <trkpt lat="46.48203" lon="5.36557">
        <ele>263.6</ele>
        <time>2022-06-14T14:52:40Z</time>
      </trkpt>
      <trkpt lat="46.48197" lon="5.3656">
        <ele>263.8</ele>
        <time>2022-06-14T14:52:41Z</time>
      </trkpt>
      <trkpt lat="46.48191" lon="5.3657">
        <ele>264</ele>
        <time>2022-06-14T14:52:42Z</time>
      </trkpt>
      <trkpt lat="46.48189" lon="5.36578">
        <ele>264</ele>
        <time>2022-06-14T14:52:43Z</time>
      </trkpt>
      <trkpt lat="46.48185" lon="5.3659">
        <ele>264.4</ele>
        <time>2022-06-14T14:52:45Z</time>
      </trkpt>
      <trkpt lat="46.48176" lon="5.36605">
        <ele>264.8</ele>
        <time>2022-06-14T14:52:47Z</time>
      </trkpt>
      <trkpt lat="46.48172" lon="5.36612">
        <ele>265</ele>
        <time>2022-06-14T14:52:48Z</time>
      </trkpt>
      <trkpt lat="46.48167" lon="5.36618">
        <ele>265</ele>
        <time>2022-06-14T14:52:49Z</time>
      </trkpt>
      <trkpt lat="46.48157" lon="5.3663">
        <ele>265</ele>
        <time>2022-06-14T14:52:51Z</time>
      </trkpt>
      <trkpt lat="46.48148" lon="5.36643">
        <ele>265.4</ele>
        <time>2022-06-14T14:52:53Z</time>
      </trkpt>
      <trkpt lat="46.48136" lon="5.3666">
        <ele>265.8</ele>
        <time>2022-06-14T14:52:56Z</time>
      </trkpt>
      <trkpt lat="46.4813" lon="5.36663">
        <ele>266</ele>
        <time>2022-06-14T14:52:57Z</time>
      </trkpt>
      <trkpt lat="46.48119" lon="5.36673">
        <ele>266.2</ele>
        <time>2022-06-14T14:52:59Z</time>
      </trkpt>
      <trkpt lat="46.48107" lon="5.36684">
        <ele>266.4</ele>
        <time>2022-06-14T14:53:03Z</time>
      </trkpt>
      <trkpt lat="46.48103" lon="5.36686">
        <ele>267.2</ele>
        <time>2022-06-14T14:53:05Z</time>
      </trkpt>
      <trkpt lat="46.48099" lon="5.36687">
        <ele>267.4</ele>
        <time>2022-06-14T14:53:07Z</time>
      </trkpt>
      <trkpt lat="46.48097" lon="5.36689">
        <ele>267.4</ele>
        <time>2022-06-14T14:53:08Z</time>
      </trkpt>
      <trkpt lat="46.48097" lon="5.36694">
        <ele>267.6</ele>
        <time>2022-06-14T14:53:09Z</time>
      </trkpt>
      <trkpt lat="46.48098" lon="5.36698">
        <ele>267.6</ele>
        <time>2022-06-14T14:53:10Z</time>
      </trkpt>
      <trkpt lat="46.48101" lon="5.36702">
        <ele>267.8</ele>
        <time>2022-06-14T14:53:11Z</time>
      </trkpt>
      <trkpt lat="46.48109" lon="5.36707">
        <ele>267.8</ele>
        <time>2022-06-14T14:53:13Z</time>
      </trkpt>
      <trkpt lat="46.48133" lon="5.36725">
        <ele>268.2</ele>
        <time>2022-06-14T14:53:19Z</time>
      </trkpt>
      <trkpt lat="46.48146" lon="5.36735">
        <ele>268.8</ele>
        <time>2022-06-14T14:53:22Z</time>
      </trkpt>
      <trkpt lat="46.48161" lon="5.36749">
        <ele>269.8</ele>
        <time>2022-06-14T14:53:26Z</time>
      </trkpt>
      <trkpt lat="46.48184" lon="5.36769">
        <ele>271.2</ele>
        <time>2022-06-14T14:53:32Z</time>
      </trkpt>
      <trkpt lat="46.48204" lon="5.36785">
        <ele>272.2</ele>
        <time>2022-06-14T14:53:37Z</time>
      </trkpt>
      <trkpt lat="46.48212" lon="5.36791">
        <ele>272.6</ele>
        <time>2022-06-14T14:53:39Z</time>
      </trkpt>
      <trkpt lat="46.48224" lon="5.368">
        <ele>273.2</ele>
        <time>2022-06-14T14:53:42Z</time>
      </trkpt>
      <trkpt lat="46.48247" lon="5.36819">
        <ele>274.6</ele>
        <time>2022-06-14T14:53:49Z</time>
      </trkpt>
      <trkpt lat="46.48251" lon="5.36822">
        <ele>274.6</ele>
        <time>2022-06-14T14:53:50Z</time>
      </trkpt>
      <trkpt lat="46.48263" lon="5.36835">
        <ele>275.6</ele>
        <time>2022-06-14T14:53:54Z</time>
      </trkpt>
    </trkseg>
  </trk>
</gpx>